<?xml version="1.0" encoding="UTF-8" standalone="yes"?>
<gpx version="1.1" 
  creator="Peakbagger.com" 
  xmlns="http://www.topografix.com/GPX/1/1" 
  xmlns:xsi="http://www.w3.org/2001/XMLSchema-instance" 
  xsi:schemaLocation="http://www.topografix.com/GPX/1/1 http://www.topografix.com/GPX/1/1/gpx.xsd">
<metadata><name><![CDATA[Ascent of Mount Rainier on 2019-07-28]]></name><desc><![CDATA[Generated by Peakbagger.com]]></desc><author><name><![CDATA[Krzysztof Ostrowski]]></name></author></metadata>
<trk><name>Mount Rainie #1</name>
<trkseg>
<trkpt lat="46.786051" lon="-121.736381"><ele>1655</ele><time>2019-07-27T18:01:00Z</time></trkpt>
<trkpt lat="46.786106" lon="-121.736441"><ele>1649</ele><time>2019-07-27T18:01:00Z</time></trkpt>
<trkpt lat="46.786093" lon="-121.736359"><ele>1655</ele><time>2019-07-27T18:02:00Z</time></trkpt>
<trkpt lat="46.786147" lon="-121.736441"><ele>1655</ele><time>2019-07-27T18:02:00Z</time></trkpt>
<trkpt lat="46.786134" lon="-121.736525"><ele>1654</ele><time>2019-07-27T18:02:00Z</time></trkpt>
<trkpt lat="46.786168" lon="-121.736563"><ele>1654</ele><time>2019-07-27T18:02:00Z</time></trkpt>
<trkpt lat="46.78622" lon="-121.736579"><ele>1653</ele><time>2019-07-27T18:02:00Z</time></trkpt>
<trkpt lat="46.786279" lon="-121.73655"><ele>1654</ele><time>2019-07-27T18:02:00Z</time></trkpt>
<trkpt lat="46.786305" lon="-121.736496"><ele>1654</ele><time>2019-07-27T18:03:00Z</time></trkpt>
<trkpt lat="46.786329" lon="-121.736394"><ele>1659</ele><time>2019-07-27T18:03:00Z</time></trkpt>
<trkpt lat="46.786412" lon="-121.736437"><ele>1654</ele><time>2019-07-27T18:03:00Z</time></trkpt>
<trkpt lat="46.786486" lon="-121.736463"><ele>1650</ele><time>2019-07-27T18:04:00Z</time></trkpt>
<trkpt lat="46.786571" lon="-121.736442"><ele>1652</ele><time>2019-07-27T18:04:00Z</time></trkpt>
<trkpt lat="46.786649" lon="-121.736402"><ele>1653</ele><time>2019-07-27T18:04:00Z</time></trkpt>
<trkpt lat="46.786733" lon="-121.7364"><ele>1656</ele><time>2019-07-27T18:04:00Z</time></trkpt>
<trkpt lat="46.786768" lon="-121.736371"><ele>1657</ele><time>2019-07-27T18:04:00Z</time></trkpt>
<trkpt lat="46.786819" lon="-121.73635"><ele>1658</ele><time>2019-07-27T18:04:00Z</time></trkpt>
<trkpt lat="46.786999" lon="-121.736275"><ele>1661</ele><time>2019-07-27T18:05:00Z</time></trkpt>
<trkpt lat="46.787075" lon="-121.736267"><ele>1661</ele><time>2019-07-27T18:05:00Z</time></trkpt>
<trkpt lat="46.787162" lon="-121.736226"><ele>1663</ele><time>2019-07-27T18:05:00Z</time></trkpt>
<trkpt lat="46.787245" lon="-121.73623"><ele>1661</ele><time>2019-07-27T18:05:00Z</time></trkpt>
<trkpt lat="46.787307" lon="-121.736201"><ele>1663</ele><time>2019-07-27T18:05:00Z</time></trkpt>
<trkpt lat="46.787363" lon="-121.736198"><ele>1663</ele><time>2019-07-27T18:05:00Z</time></trkpt>
<trkpt lat="46.787414" lon="-121.736204"><ele>1664</ele><time>2019-07-27T18:05:00Z</time></trkpt>
<trkpt lat="46.787488" lon="-121.736157"><ele>1668</ele><time>2019-07-27T18:05:00Z</time></trkpt>
<trkpt lat="46.787533" lon="-121.736141"><ele>1668</ele><time>2019-07-27T18:06:00Z</time></trkpt>
<trkpt lat="46.787591" lon="-121.736134"><ele>1670</ele><time>2019-07-27T18:06:00Z</time></trkpt>
<trkpt lat="46.787706" lon="-121.736138"><ele>1671</ele><time>2019-07-27T18:06:00Z</time></trkpt>
<trkpt lat="46.787786" lon="-121.736134"><ele>1673</ele><time>2019-07-27T18:06:00Z</time></trkpt>
<trkpt lat="46.787847" lon="-121.736111"><ele>1672</ele><time>2019-07-27T18:06:00Z</time></trkpt>
<trkpt lat="46.78802" lon="-121.736117"><ele>1672</ele><time>2019-07-27T18:06:00Z</time></trkpt>
<trkpt lat="46.788069" lon="-121.7361"><ele>1674</ele><time>2019-07-27T18:06:00Z</time></trkpt>
<trkpt lat="46.788178" lon="-121.736078"><ele>1676</ele><time>2019-07-27T18:07:00Z</time></trkpt>
<trkpt lat="46.788276" lon="-121.736054"><ele>1681</ele><time>2019-07-27T18:07:00Z</time></trkpt>
<trkpt lat="46.788361" lon="-121.736129"><ele>1684</ele><time>2019-07-27T18:07:00Z</time></trkpt>
<trkpt lat="46.788413" lon="-121.736186"><ele>1687</ele><time>2019-07-27T18:07:00Z</time></trkpt>
<trkpt lat="46.788463" lon="-121.736247"><ele>1687</ele><time>2019-07-27T18:07:00Z</time></trkpt>
<trkpt lat="46.788479" lon="-121.7363"><ele>1689</ele><time>2019-07-27T18:07:00Z</time></trkpt>
<trkpt lat="46.788496" lon="-121.736393"><ele>1690</ele><time>2019-07-27T18:07:00Z</time></trkpt>
<trkpt lat="46.788556" lon="-121.736436"><ele>1693</ele><time>2019-07-27T18:07:00Z</time></trkpt>
<trkpt lat="46.788627" lon="-121.736553"><ele>1695</ele><time>2019-07-27T18:08:00Z</time></trkpt>
<trkpt lat="46.788725" lon="-121.736797"><ele>1695</ele><time>2019-07-27T18:08:00Z</time></trkpt>
<trkpt lat="46.788751" lon="-121.736846"><ele>1697</ele><time>2019-07-27T18:08:00Z</time></trkpt>
<trkpt lat="46.788831" lon="-121.736931"><ele>1701</ele><time>2019-07-27T18:08:00Z</time></trkpt>
<trkpt lat="46.788862" lon="-121.736985"><ele>1702</ele><time>2019-07-27T18:08:00Z</time></trkpt>
<trkpt lat="46.788975" lon="-121.737002"><ele>1701</ele><time>2019-07-27T18:09:00Z</time></trkpt>
<trkpt lat="46.788984" lon="-121.737076"><ele>1706</ele><time>2019-07-27T18:09:00Z</time></trkpt>
<trkpt lat="46.789" lon="-121.737184"><ele>1706</ele><time>2019-07-27T18:09:00Z</time></trkpt>
<trkpt lat="46.789048" lon="-121.737308"><ele>1707</ele><time>2019-07-27T18:09:00Z</time></trkpt>
<trkpt lat="46.789122" lon="-121.737368"><ele>1708</ele><time>2019-07-27T18:09:00Z</time></trkpt>
<trkpt lat="46.789211" lon="-121.737398"><ele>1712</ele><time>2019-07-27T18:09:00Z</time></trkpt>
<trkpt lat="46.78935" lon="-121.737528"><ele>1718</ele><time>2019-07-27T18:10:00Z</time></trkpt>
<trkpt lat="46.789441" lon="-121.737578"><ele>1715</ele><time>2019-07-27T18:10:00Z</time></trkpt>
<trkpt lat="46.789519" lon="-121.737576"><ele>1718</ele><time>2019-07-27T18:10:00Z</time></trkpt>
<trkpt lat="46.789599" lon="-121.737536"><ele>1721</ele><time>2019-07-27T18:10:00Z</time></trkpt>
<trkpt lat="46.789698" lon="-121.737454"><ele>1723</ele><time>2019-07-27T18:10:00Z</time></trkpt>
<trkpt lat="46.789758" lon="-121.737402"><ele>1723</ele><time>2019-07-27T18:11:00Z</time></trkpt>
<trkpt lat="46.789799" lon="-121.737324"><ele>1724</ele><time>2019-07-27T18:11:00Z</time></trkpt>
<trkpt lat="46.789837" lon="-121.737285"><ele>1725</ele><time>2019-07-27T18:11:00Z</time></trkpt>
<trkpt lat="46.789933" lon="-121.737219"><ele>1727</ele><time>2019-07-27T18:11:00Z</time></trkpt>
<trkpt lat="46.789969" lon="-121.737178"><ele>1730</ele><time>2019-07-27T18:11:00Z</time></trkpt>
<trkpt lat="46.790072" lon="-121.737219"><ele>1729</ele><time>2019-07-27T18:11:00Z</time></trkpt>
<trkpt lat="46.790138" lon="-121.737243"><ele>1731</ele><time>2019-07-27T18:11:00Z</time></trkpt>
<trkpt lat="46.790247" lon="-121.737285"><ele>1733</ele><time>2019-07-27T18:12:00Z</time></trkpt>
<trkpt lat="46.790319" lon="-121.73737"><ele>1734</ele><time>2019-07-27T18:12:00Z</time></trkpt>
<trkpt lat="46.790374" lon="-121.737401"><ele>1736</ele><time>2019-07-27T18:12:00Z</time></trkpt>
<trkpt lat="46.790422" lon="-121.737551"><ele>1741</ele><time>2019-07-27T18:12:00Z</time></trkpt>
<trkpt lat="46.790469" lon="-121.737589"><ele>1742</ele><time>2019-07-27T18:12:00Z</time></trkpt>
<trkpt lat="46.790537" lon="-121.737564"><ele>1739</ele><time>2019-07-27T18:12:00Z</time></trkpt>
<trkpt lat="46.790573" lon="-121.737609"><ele>1739</ele><time>2019-07-27T18:12:00Z</time></trkpt>
<trkpt lat="46.790666" lon="-121.737609"><ele>1741</ele><time>2019-07-27T18:13:00Z</time></trkpt>
<trkpt lat="46.790745" lon="-121.737633"><ele>1742</ele><time>2019-07-27T18:13:00Z</time></trkpt>
<trkpt lat="46.79083" lon="-121.737772"><ele>1745</ele><time>2019-07-27T18:13:00Z</time></trkpt>
<trkpt lat="46.790867" lon="-121.737818"><ele>1744</ele><time>2019-07-27T18:13:00Z</time></trkpt>
<trkpt lat="46.79089" lon="-121.737872"><ele>1745</ele><time>2019-07-27T18:13:00Z</time></trkpt>
<trkpt lat="46.790953" lon="-121.737886"><ele>1745</ele><time>2019-07-27T18:13:00Z</time></trkpt>
<trkpt lat="46.791011" lon="-121.73791"><ele>1746</ele><time>2019-07-27T18:13:00Z</time></trkpt>
<trkpt lat="46.791068" lon="-121.73791"><ele>1746</ele><time>2019-07-27T18:13:00Z</time></trkpt>
<trkpt lat="46.791184" lon="-121.737881"><ele>1747</ele><time>2019-07-27T18:14:00Z</time></trkpt>
<trkpt lat="46.791264" lon="-121.737923"><ele>1752</ele><time>2019-07-27T18:14:00Z</time></trkpt>
<trkpt lat="46.791363" lon="-121.737923"><ele>1754</ele><time>2019-07-27T18:14:00Z</time></trkpt>
<trkpt lat="46.791405" lon="-121.737906"><ele>1754</ele><time>2019-07-27T18:14:00Z</time></trkpt>
<trkpt lat="46.791496" lon="-121.737893"><ele>1758</ele><time>2019-07-27T18:14:00Z</time></trkpt>
<trkpt lat="46.791544" lon="-121.737855"><ele>1762</ele><time>2019-07-27T18:14:00Z</time></trkpt>
<trkpt lat="46.791599" lon="-121.737796"><ele>1763</ele><time>2019-07-27T18:14:00Z</time></trkpt>
<trkpt lat="46.791671" lon="-121.737739"><ele>1761</ele><time>2019-07-27T18:15:00Z</time></trkpt>
<trkpt lat="46.791725" lon="-121.737742"><ele>1760</ele><time>2019-07-27T18:15:00Z</time></trkpt>
<trkpt lat="46.791826" lon="-121.737722"><ele>1758</ele><time>2019-07-27T18:15:00Z</time></trkpt>
<trkpt lat="46.791881" lon="-121.737732"><ele>1757</ele><time>2019-07-27T18:15:00Z</time></trkpt>
<trkpt lat="46.791945" lon="-121.737703"><ele>1759</ele><time>2019-07-27T18:15:00Z</time></trkpt>
<trkpt lat="46.792056" lon="-121.737691"><ele>1755</ele><time>2019-07-27T18:15:00Z</time></trkpt>
<trkpt lat="46.792174" lon="-121.737645"><ele>1752</ele><time>2019-07-27T18:15:00Z</time></trkpt>
<trkpt lat="46.79225" lon="-121.73766"><ele>1759</ele><time>2019-07-27T18:15:00Z</time></trkpt>
<trkpt lat="46.792343" lon="-121.737695"><ele>1756</ele><time>2019-07-27T18:16:00Z</time></trkpt>
<trkpt lat="46.79245" lon="-121.737707"><ele>1762</ele><time>2019-07-27T18:16:00Z</time></trkpt>
<trkpt lat="46.792521" lon="-121.737706"><ele>1762</ele><time>2019-07-27T18:16:00Z</time></trkpt>
<trkpt lat="46.792563" lon="-121.737687"><ele>1762</ele><time>2019-07-27T18:16:00Z</time></trkpt>
<trkpt lat="46.792639" lon="-121.73769"><ele>1763</ele><time>2019-07-27T18:16:00Z</time></trkpt>
<trkpt lat="46.792752" lon="-121.737737"><ele>1766</ele><time>2019-07-27T18:16:00Z</time></trkpt>
<trkpt lat="46.792814" lon="-121.73775"><ele>1765</ele><time>2019-07-27T18:16:00Z</time></trkpt>
<trkpt lat="46.792948" lon="-121.737761"><ele>1764</ele><time>2019-07-27T18:17:00Z</time></trkpt>
<trkpt lat="46.792995" lon="-121.737747"><ele>1766</ele><time>2019-07-27T18:17:00Z</time></trkpt>
<trkpt lat="46.793098" lon="-121.737659"><ele>1769</ele><time>2019-07-27T18:17:00Z</time></trkpt>
<trkpt lat="46.793144" lon="-121.737631"><ele>1770</ele><time>2019-07-27T18:17:00Z</time></trkpt>
<trkpt lat="46.79318" lon="-121.737602"><ele>1772</ele><time>2019-07-27T18:17:00Z</time></trkpt>
<trkpt lat="46.793307" lon="-121.737659"><ele>1773</ele><time>2019-07-27T18:17:00Z</time></trkpt>
<trkpt lat="46.793364" lon="-121.737695"><ele>1775</ele><time>2019-07-27T18:17:00Z</time></trkpt>
<trkpt lat="46.793478" lon="-121.737735"><ele>1778</ele><time>2019-07-27T18:18:00Z</time></trkpt>
<trkpt lat="46.793602" lon="-121.737685"><ele>1783</ele><time>2019-07-27T18:18:00Z</time></trkpt>
<trkpt lat="46.793664" lon="-121.737686"><ele>1784</ele><time>2019-07-27T18:18:00Z</time></trkpt>
<trkpt lat="46.793751" lon="-121.737663"><ele>1784</ele><time>2019-07-27T18:18:00Z</time></trkpt>
<trkpt lat="46.793822" lon="-121.737616"><ele>1784</ele><time>2019-07-27T18:18:00Z</time></trkpt>
<trkpt lat="46.793995" lon="-121.737609"><ele>1782</ele><time>2019-07-27T18:18:00Z</time></trkpt>
<trkpt lat="46.794176" lon="-121.737602"><ele>1787</ele><time>2019-07-27T18:19:00Z</time></trkpt>
<trkpt lat="46.794235" lon="-121.737584"><ele>1787</ele><time>2019-07-27T18:19:00Z</time></trkpt>
<trkpt lat="46.794292" lon="-121.737582"><ele>1788</ele><time>2019-07-27T18:19:00Z</time></trkpt>
<trkpt lat="46.794342" lon="-121.737558"><ele>1788</ele><time>2019-07-27T18:19:00Z</time></trkpt>
<trkpt lat="46.794407" lon="-121.737544"><ele>1791</ele><time>2019-07-27T18:19:00Z</time></trkpt>
<trkpt lat="46.794447" lon="-121.737523"><ele>1794</ele><time>2019-07-27T18:19:00Z</time></trkpt>
<trkpt lat="46.794505" lon="-121.737465"><ele>1794</ele><time>2019-07-27T18:19:00Z</time></trkpt>
<trkpt lat="46.794545" lon="-121.737432"><ele>1796</ele><time>2019-07-27T18:20:00Z</time></trkpt>
<trkpt lat="46.794581" lon="-121.737598"><ele>1802</ele><time>2019-07-27T18:20:00Z</time></trkpt>
<trkpt lat="46.794572" lon="-121.737667"><ele>1803</ele><time>2019-07-27T18:20:00Z</time></trkpt>
<trkpt lat="46.79464" lon="-121.737722"><ele>1805</ele><time>2019-07-27T18:20:00Z</time></trkpt>
<trkpt lat="46.79469" lon="-121.73771"><ele>1806</ele><time>2019-07-27T18:20:00Z</time></trkpt>
<trkpt lat="46.794828" lon="-121.737648"><ele>1806</ele><time>2019-07-27T18:20:00Z</time></trkpt>
<trkpt lat="46.794863" lon="-121.737619"><ele>1809</ele><time>2019-07-27T18:20:00Z</time></trkpt>
<trkpt lat="46.794958" lon="-121.73758"><ele>1810</ele><time>2019-07-27T18:21:00Z</time></trkpt>
<trkpt lat="46.795024" lon="-121.737546"><ele>1812</ele><time>2019-07-27T18:21:00Z</time></trkpt>
<trkpt lat="46.795105" lon="-121.737473"><ele>1813</ele><time>2019-07-27T18:21:00Z</time></trkpt>
<trkpt lat="46.795178" lon="-121.737397"><ele>1812</ele><time>2019-07-27T18:21:00Z</time></trkpt>
<trkpt lat="46.795215" lon="-121.737321"><ele>1813</ele><time>2019-07-27T18:21:00Z</time></trkpt>
<trkpt lat="46.795304" lon="-121.737226"><ele>1815</ele><time>2019-07-27T18:21:00Z</time></trkpt>
<trkpt lat="46.79536" lon="-121.737191"><ele>1818</ele><time>2019-07-27T18:21:00Z</time></trkpt>
<trkpt lat="46.79541" lon="-121.737181"><ele>1820</ele><time>2019-07-27T18:21:00Z</time></trkpt>
<trkpt lat="46.795456" lon="-121.737226"><ele>1819</ele><time>2019-07-27T18:22:00Z</time></trkpt>
<trkpt lat="46.795559" lon="-121.737255"><ele>1818</ele><time>2019-07-27T18:22:00Z</time></trkpt>
<trkpt lat="46.795634" lon="-121.73722"><ele>1820</ele><time>2019-07-27T18:22:00Z</time></trkpt>
<trkpt lat="46.795792" lon="-121.737106"><ele>1822</ele><time>2019-07-27T18:22:00Z</time></trkpt>
<trkpt lat="46.795904" lon="-121.737054"><ele>1823</ele><time>2019-07-27T18:22:00Z</time></trkpt>
<trkpt lat="46.795943" lon="-121.737001"><ele>1826</ele><time>2019-07-27T18:22:00Z</time></trkpt>
<trkpt lat="46.796059" lon="-121.736925"><ele>1828</ele><time>2019-07-27T18:23:00Z</time></trkpt>
<trkpt lat="46.796109" lon="-121.736903"><ele>1828</ele><time>2019-07-27T18:23:00Z</time></trkpt>
<trkpt lat="46.796266" lon="-121.736812"><ele>1832</ele><time>2019-07-27T18:23:00Z</time></trkpt>
<trkpt lat="46.796442" lon="-121.736777"><ele>1835</ele><time>2019-07-27T18:23:00Z</time></trkpt>
<trkpt lat="46.79656" lon="-121.736757"><ele>1836</ele><time>2019-07-27T18:24:00Z</time></trkpt>
<trkpt lat="46.796613" lon="-121.736757"><ele>1834</ele><time>2019-07-27T18:24:00Z</time></trkpt>
<trkpt lat="46.796703" lon="-121.73675"><ele>1834</ele><time>2019-07-27T18:24:00Z</time></trkpt>
<trkpt lat="46.796795" lon="-121.736721"><ele>1834</ele><time>2019-07-27T18:24:00Z</time></trkpt>
<trkpt lat="46.796883" lon="-121.73671"><ele>1836</ele><time>2019-07-27T18:24:00Z</time></trkpt>
<trkpt lat="46.796931" lon="-121.736729"><ele>1835</ele><time>2019-07-27T18:24:00Z</time></trkpt>
<trkpt lat="46.796996" lon="-121.736731"><ele>1837</ele><time>2019-07-27T18:24:00Z</time></trkpt>
<trkpt lat="46.79708" lon="-121.736724"><ele>1837</ele><time>2019-07-27T18:24:00Z</time></trkpt>
<trkpt lat="46.797153" lon="-121.736727"><ele>1838</ele><time>2019-07-27T18:25:00Z</time></trkpt>
<trkpt lat="46.797224" lon="-121.736739"><ele>1838</ele><time>2019-07-27T18:25:00Z</time></trkpt>
<trkpt lat="46.797266" lon="-121.736707"><ele>1839</ele><time>2019-07-27T18:25:00Z</time></trkpt>
<trkpt lat="46.797335" lon="-121.736629"><ele>1843</ele><time>2019-07-27T18:25:00Z</time></trkpt>
<trkpt lat="46.797388" lon="-121.736588"><ele>1842</ele><time>2019-07-27T18:25:00Z</time></trkpt>
<trkpt lat="46.797497" lon="-121.73658"><ele>1843</ele><time>2019-07-27T18:25:00Z</time></trkpt>
<trkpt lat="46.797642" lon="-121.736529"><ele>1844</ele><time>2019-07-27T18:25:00Z</time></trkpt>
<trkpt lat="46.797671" lon="-121.736484"><ele>1848</ele><time>2019-07-27T18:25:00Z</time></trkpt>
<trkpt lat="46.797769" lon="-121.736371"><ele>1849</ele><time>2019-07-27T18:26:00Z</time></trkpt>
<trkpt lat="46.797823" lon="-121.736336"><ele>1848</ele><time>2019-07-27T18:26:00Z</time></trkpt>
<trkpt lat="46.797961" lon="-121.736246"><ele>1851</ele><time>2019-07-27T18:26:00Z</time></trkpt>
<trkpt lat="46.797974" lon="-121.736043"><ele>1852</ele><time>2019-07-27T18:26:00Z</time></trkpt>
<trkpt lat="46.797992" lon="-121.735972"><ele>1853</ele><time>2019-07-27T18:26:00Z</time></trkpt>
<trkpt lat="46.798047" lon="-121.735666"><ele>1851</ele><time>2019-07-27T18:27:00Z</time></trkpt>
<trkpt lat="46.798085" lon="-121.735507"><ele>1854</ele><time>2019-07-27T18:27:00Z</time></trkpt>
<trkpt lat="46.798115" lon="-121.735434"><ele>1855</ele><time>2019-07-27T18:27:00Z</time></trkpt>
<trkpt lat="46.79816" lon="-121.735354"><ele>1855</ele><time>2019-07-27T18:27:00Z</time></trkpt>
<trkpt lat="46.798241" lon="-121.735287"><ele>1852</ele><time>2019-07-27T18:27:00Z</time></trkpt>
<trkpt lat="46.798283" lon="-121.735264"><ele>1852</ele><time>2019-07-27T18:27:00Z</time></trkpt>
<trkpt lat="46.798388" lon="-121.735161"><ele>1855</ele><time>2019-07-27T18:28:00Z</time></trkpt>
<trkpt lat="46.798443" lon="-121.735077"><ele>1857</ele><time>2019-07-27T18:28:00Z</time></trkpt>
<trkpt lat="46.798464" lon="-121.734941"><ele>1859</ele><time>2019-07-27T18:28:00Z</time></trkpt>
<trkpt lat="46.798424" lon="-121.734837"><ele>1863</ele><time>2019-07-27T18:28:00Z</time></trkpt>
<trkpt lat="46.798515" lon="-121.734872"><ele>1863</ele><time>2019-07-27T18:29:00Z</time></trkpt>
<trkpt lat="46.798557" lon="-121.734894"><ele>1863</ele><time>2019-07-27T18:29:00Z</time></trkpt>
<trkpt lat="46.798602" lon="-121.734913"><ele>1864</ele><time>2019-07-27T18:29:00Z</time></trkpt>
<trkpt lat="46.798674" lon="-121.734939"><ele>1868</ele><time>2019-07-27T18:29:00Z</time></trkpt>
<trkpt lat="46.798734" lon="-121.734911"><ele>1870</ele><time>2019-07-27T18:29:00Z</time></trkpt>
<trkpt lat="46.798821" lon="-121.734916"><ele>1872</ele><time>2019-07-27T18:29:00Z</time></trkpt>
<trkpt lat="46.798868" lon="-121.734866"><ele>1875</ele><time>2019-07-27T18:30:00Z</time></trkpt>
<trkpt lat="46.798932" lon="-121.734881"><ele>1875</ele><time>2019-07-27T18:30:00Z</time></trkpt>
<trkpt lat="46.799023" lon="-121.734965"><ele>1875</ele><time>2019-07-27T18:30:00Z</time></trkpt>
<trkpt lat="46.799131" lon="-121.734899"><ele>1878</ele><time>2019-07-27T18:30:00Z</time></trkpt>
<trkpt lat="46.799185" lon="-121.734919"><ele>1878</ele><time>2019-07-27T18:30:00Z</time></trkpt>
<trkpt lat="46.79931" lon="-121.734907"><ele>1881</ele><time>2019-07-27T18:31:00Z</time></trkpt>
<trkpt lat="46.799343" lon="-121.734952"><ele>1880</ele><time>2019-07-27T18:31:00Z</time></trkpt>
<trkpt lat="46.799377" lon="-121.73499"><ele>1881</ele><time>2019-07-27T18:31:00Z</time></trkpt>
<trkpt lat="46.799466" lon="-121.735014"><ele>1886</ele><time>2019-07-27T18:31:00Z</time></trkpt>
<trkpt lat="46.799513" lon="-121.735048"><ele>1886</ele><time>2019-07-27T18:31:00Z</time></trkpt>
<trkpt lat="46.799574" lon="-121.735017"><ele>1889</ele><time>2019-07-27T18:32:00Z</time></trkpt>
<trkpt lat="46.799632" lon="-121.735027"><ele>1898</ele><time>2019-07-27T18:32:00Z</time></trkpt>
<trkpt lat="46.799672" lon="-121.735052"><ele>1898</ele><time>2019-07-27T18:32:00Z</time></trkpt>
<trkpt lat="46.799781" lon="-121.735144"><ele>1899</ele><time>2019-07-27T18:32:00Z</time></trkpt>
<trkpt lat="46.799791" lon="-121.735224"><ele>1899</ele><time>2019-07-27T18:32:00Z</time></trkpt>
<trkpt lat="46.79976" lon="-121.735407"><ele>1903</ele><time>2019-07-27T18:33:00Z</time></trkpt>
<trkpt lat="46.799781" lon="-121.73546"><ele>1904</ele><time>2019-07-27T18:33:00Z</time></trkpt>
<trkpt lat="46.799824" lon="-121.735512"><ele>1906</ele><time>2019-07-27T18:33:00Z</time></trkpt>
<trkpt lat="46.799926" lon="-121.735506"><ele>1908</ele><time>2019-07-27T18:33:00Z</time></trkpt>
<trkpt lat="46.80004" lon="-121.735512"><ele>1912</ele><time>2019-07-27T18:33:00Z</time></trkpt>
<trkpt lat="46.800118" lon="-121.735496"><ele>1913</ele><time>2019-07-27T18:33:00Z</time></trkpt>
<trkpt lat="46.800189" lon="-121.735493"><ele>1912</ele><time>2019-07-27T18:34:00Z</time></trkpt>
<trkpt lat="46.80026" lon="-121.735516"><ele>1912</ele><time>2019-07-27T18:34:00Z</time></trkpt>
<trkpt lat="46.800312" lon="-121.735519"><ele>1911</ele><time>2019-07-27T18:34:00Z</time></trkpt>
<trkpt lat="46.8004" lon="-121.735533"><ele>1912</ele><time>2019-07-27T18:34:00Z</time></trkpt>
<trkpt lat="46.800462" lon="-121.735567"><ele>1914</ele><time>2019-07-27T18:34:00Z</time></trkpt>
<trkpt lat="46.800522" lon="-121.735563"><ele>1918</ele><time>2019-07-27T18:34:00Z</time></trkpt>
<trkpt lat="46.800568" lon="-121.735586"><ele>1918</ele><time>2019-07-27T18:34:00Z</time></trkpt>
<trkpt lat="46.800658" lon="-121.735534"><ele>1920</ele><time>2019-07-27T18:34:00Z</time></trkpt>
<trkpt lat="46.800721" lon="-121.735485"><ele>1923</ele><time>2019-07-27T18:34:00Z</time></trkpt>
<trkpt lat="46.800766" lon="-121.735514"><ele>1918</ele><time>2019-07-27T18:34:00Z</time></trkpt>
<trkpt lat="46.800817" lon="-121.735528"><ele>1918</ele><time>2019-07-27T18:35:00Z</time></trkpt>
<trkpt lat="46.800901" lon="-121.735479"><ele>1918</ele><time>2019-07-27T18:35:00Z</time></trkpt>
<trkpt lat="46.800998" lon="-121.735518"><ele>1916</ele><time>2019-07-27T18:35:00Z</time></trkpt>
<trkpt lat="46.80106" lon="-121.735522"><ele>1916</ele><time>2019-07-27T18:35:00Z</time></trkpt>
<trkpt lat="46.801154" lon="-121.735427"><ele>1921</ele><time>2019-07-27T18:35:00Z</time></trkpt>
<trkpt lat="46.80121" lon="-121.735382"><ele>1925</ele><time>2019-07-27T18:35:00Z</time></trkpt>
<trkpt lat="46.801273" lon="-121.735474"><ele>1919</ele><time>2019-07-27T18:36:00Z</time></trkpt>
<trkpt lat="46.801358" lon="-121.735456"><ele>1925</ele><time>2019-07-27T18:36:00Z</time></trkpt>
<trkpt lat="46.801443" lon="-121.735461"><ele>1926</ele><time>2019-07-27T18:36:00Z</time></trkpt>
<trkpt lat="46.801544" lon="-121.735442"><ele>1926</ele><time>2019-07-27T18:36:00Z</time></trkpt>
<trkpt lat="46.801621" lon="-121.735345"><ele>1927</ele><time>2019-07-27T18:36:00Z</time></trkpt>
<trkpt lat="46.801699" lon="-121.735413"><ele>1927</ele><time>2019-07-27T18:37:00Z</time></trkpt>
<trkpt lat="46.80178" lon="-121.735408"><ele>1929</ele><time>2019-07-27T18:37:00Z</time></trkpt>
<trkpt lat="46.801867" lon="-121.735351"><ele>1926</ele><time>2019-07-27T18:37:00Z</time></trkpt>
<trkpt lat="46.80195" lon="-121.735335"><ele>1926</ele><time>2019-07-27T18:37:00Z</time></trkpt>
<trkpt lat="46.802031" lon="-121.735333"><ele>1928</ele><time>2019-07-27T18:37:00Z</time></trkpt>
<trkpt lat="46.802123" lon="-121.735361"><ele>1926</ele><time>2019-07-27T18:38:00Z</time></trkpt>
<trkpt lat="46.802186" lon="-121.735376"><ele>1926</ele><time>2019-07-27T18:38:00Z</time></trkpt>
<trkpt lat="46.802254" lon="-121.735349"><ele>1928</ele><time>2019-07-27T18:38:00Z</time></trkpt>
<trkpt lat="46.802306" lon="-121.735373"><ele>1928</ele><time>2019-07-27T18:38:00Z</time></trkpt>
<trkpt lat="46.802346" lon="-121.735408"><ele>1927</ele><time>2019-07-27T18:38:00Z</time></trkpt>
<trkpt lat="46.802406" lon="-121.735377"><ele>1927</ele><time>2019-07-27T18:38:00Z</time></trkpt>
<trkpt lat="46.802478" lon="-121.7354"><ele>1927</ele><time>2019-07-27T18:38:00Z</time></trkpt>
<trkpt lat="46.802553" lon="-121.735428"><ele>1922</ele><time>2019-07-27T18:39:00Z</time></trkpt>
<trkpt lat="46.802561" lon="-121.735496"><ele>1923</ele><time>2019-07-27T18:41:00Z</time></trkpt>
<trkpt lat="46.802631" lon="-121.735538"><ele>1925</ele><time>2019-07-27T18:43:00Z</time></trkpt>
<trkpt lat="46.802626" lon="-121.735654"><ele>1914</ele><time>2019-07-27T18:44:00Z</time></trkpt>
<trkpt lat="46.802643" lon="-121.735707"><ele>1914</ele><time>2019-07-27T18:44:00Z</time></trkpt>
<trkpt lat="46.802712" lon="-121.735726"><ele>1900</ele><time>2019-07-27T18:45:00Z</time></trkpt>
<trkpt lat="46.80272" lon="-121.7358"><ele>1904</ele><time>2019-07-27T18:47:00Z</time></trkpt>
<trkpt lat="46.802637" lon="-121.735769"><ele>1895</ele><time>2019-07-27T18:48:00Z</time></trkpt>
<trkpt lat="46.802697" lon="-121.73582"><ele>1901</ele><time>2019-07-27T18:48:00Z</time></trkpt>
<trkpt lat="46.802772" lon="-121.735886"><ele>1905</ele><time>2019-07-27T18:48:00Z</time></trkpt>
<trkpt lat="46.802793" lon="-121.735798"><ele>1900</ele><time>2019-07-27T18:49:00Z</time></trkpt>
<trkpt lat="46.802883" lon="-121.735859"><ele>1889</ele><time>2019-07-27T18:50:00Z</time></trkpt>
<trkpt lat="46.802894" lon="-121.735924"><ele>1888</ele><time>2019-07-27T18:50:00Z</time></trkpt>
<trkpt lat="46.802911" lon="-121.736023"><ele>1884</ele><time>2019-07-27T18:51:00Z</time></trkpt>
<trkpt lat="46.802949" lon="-121.736059"><ele>1886</ele><time>2019-07-27T18:51:00Z</time></trkpt>
<trkpt lat="46.802977" lon="-121.736161"><ele>1885</ele><time>2019-07-27T18:51:00Z</time></trkpt>
<trkpt lat="46.803026" lon="-121.736174"><ele>1878</ele><time>2019-07-27T18:51:00Z</time></trkpt>
<trkpt lat="46.803078" lon="-121.736171"><ele>1877</ele><time>2019-07-27T18:52:00Z</time></trkpt>
<trkpt lat="46.803152" lon="-121.736195"><ele>1874</ele><time>2019-07-27T18:52:00Z</time></trkpt>
<trkpt lat="46.803211" lon="-121.736313"><ele>1869</ele><time>2019-07-27T18:52:00Z</time></trkpt>
<trkpt lat="46.803281" lon="-121.736352"><ele>1866</ele><time>2019-07-27T18:53:00Z</time></trkpt>
<trkpt lat="46.803321" lon="-121.736404"><ele>1864</ele><time>2019-07-27T18:53:00Z</time></trkpt>
<trkpt lat="46.803411" lon="-121.736357"><ele>1861</ele><time>2019-07-27T18:53:00Z</time></trkpt>
<trkpt lat="46.803502" lon="-121.736383"><ele>1863</ele><time>2019-07-27T18:53:00Z</time></trkpt>
<trkpt lat="46.803543" lon="-121.736356"><ele>1864</ele><time>2019-07-27T18:54:00Z</time></trkpt>
<trkpt lat="46.803603" lon="-121.736414"><ele>1863</ele><time>2019-07-27T18:54:00Z</time></trkpt>
<trkpt lat="46.803662" lon="-121.736486"><ele>1859</ele><time>2019-07-27T18:55:00Z</time></trkpt>
<trkpt lat="46.803719" lon="-121.736508"><ele>1857</ele><time>2019-07-27T18:56:00Z</time></trkpt>
<trkpt lat="46.803776" lon="-121.736526"><ele>1860</ele><time>2019-07-27T19:05:00Z</time></trkpt>
<trkpt lat="46.80383" lon="-121.736502"><ele>1861</ele><time>2019-07-27T19:06:00Z</time></trkpt>
<trkpt lat="46.803899" lon="-121.736476"><ele>1862</ele><time>2019-07-27T19:06:00Z</time></trkpt>
<trkpt lat="46.803949" lon="-121.736575"><ele>1862</ele><time>2019-07-27T19:06:00Z</time></trkpt>
<trkpt lat="46.80403" lon="-121.736551"><ele>1862</ele><time>2019-07-27T19:06:00Z</time></trkpt>
<trkpt lat="46.804101" lon="-121.736563"><ele>1859</ele><time>2019-07-27T19:07:00Z</time></trkpt>
<trkpt lat="46.804162" lon="-121.736596"><ele>1858</ele><time>2019-07-27T19:07:00Z</time></trkpt>
<trkpt lat="46.804189" lon="-121.736651"><ele>1866</ele><time>2019-07-27T19:09:00Z</time></trkpt>
<trkpt lat="46.80414" lon="-121.736632"><ele>1865</ele><time>2019-07-27T19:10:00Z</time></trkpt>
<trkpt lat="46.804095" lon="-121.736619"><ele>1867</ele><time>2019-07-27T19:10:00Z</time></trkpt>
<trkpt lat="46.804041" lon="-121.736647"><ele>1867</ele><time>2019-07-27T19:10:00Z</time></trkpt>
<trkpt lat="46.804124" lon="-121.736701"><ele>1858</ele><time>2019-07-27T19:12:00Z</time></trkpt>
<trkpt lat="46.80415" lon="-121.736764"><ele>1856</ele><time>2019-07-27T19:12:00Z</time></trkpt>
<trkpt lat="46.804139" lon="-121.736828"><ele>1858</ele><time>2019-07-27T19:13:00Z</time></trkpt>
<trkpt lat="46.804119" lon="-121.736927"><ele>1855</ele><time>2019-07-27T19:14:00Z</time></trkpt>
<trkpt lat="46.804123" lon="-121.737002"><ele>1855</ele><time>2019-07-27T19:14:00Z</time></trkpt>
<trkpt lat="46.804166" lon="-121.73694"><ele>1859</ele><time>2019-07-27T19:14:00Z</time></trkpt>
<trkpt lat="46.804216" lon="-121.736917"><ele>1860</ele><time>2019-07-27T19:15:00Z</time></trkpt>
<trkpt lat="46.804266" lon="-121.736866"><ele>1866</ele><time>2019-07-27T19:15:00Z</time></trkpt>
<trkpt lat="46.804332" lon="-121.736823"><ele>1866</ele><time>2019-07-27T19:15:00Z</time></trkpt>
<trkpt lat="46.804366" lon="-121.736776"><ele>1868</ele><time>2019-07-27T19:15:00Z</time></trkpt>
<trkpt lat="46.80446" lon="-121.736764"><ele>1871</ele><time>2019-07-27T19:15:00Z</time></trkpt>
<trkpt lat="46.804538" lon="-121.736747"><ele>1875</ele><time>2019-07-27T19:15:00Z</time></trkpt>
<trkpt lat="46.804696" lon="-121.736688"><ele>1868</ele><time>2019-07-27T19:16:00Z</time></trkpt>
<trkpt lat="46.804785" lon="-121.736609"><ele>1867</ele><time>2019-07-27T19:16:00Z</time></trkpt>
<trkpt lat="46.80486" lon="-121.73661"><ele>1869</ele><time>2019-07-27T19:16:00Z</time></trkpt>
<trkpt lat="46.804946" lon="-121.736619"><ele>1868</ele><time>2019-07-27T19:16:00Z</time></trkpt>
<trkpt lat="46.805026" lon="-121.736559"><ele>1868</ele><time>2019-07-27T19:16:00Z</time></trkpt>
<trkpt lat="46.805089" lon="-121.736519"><ele>1870</ele><time>2019-07-27T19:17:00Z</time></trkpt>
<trkpt lat="46.805179" lon="-121.736493"><ele>1866</ele><time>2019-07-27T19:17:00Z</time></trkpt>
<trkpt lat="46.805217" lon="-121.736462"><ele>1866</ele><time>2019-07-27T19:17:00Z</time></trkpt>
<trkpt lat="46.80526" lon="-121.736423"><ele>1863</ele><time>2019-07-27T19:17:00Z</time></trkpt>
<trkpt lat="46.805371" lon="-121.736357"><ele>1865</ele><time>2019-07-27T19:17:00Z</time></trkpt>
<trkpt lat="46.805437" lon="-121.736352"><ele>1867</ele><time>2019-07-27T19:17:00Z</time></trkpt>
<trkpt lat="46.805483" lon="-121.736309"><ele>1866</ele><time>2019-07-27T19:17:00Z</time></trkpt>
<trkpt lat="46.805538" lon="-121.736317"><ele>1867</ele><time>2019-07-27T19:18:00Z</time></trkpt>
<trkpt lat="46.805574" lon="-121.736272"><ele>1866</ele><time>2019-07-27T19:18:00Z</time></trkpt>
<trkpt lat="46.805643" lon="-121.736266"><ele>1869</ele><time>2019-07-27T19:18:00Z</time></trkpt>
<trkpt lat="46.805714" lon="-121.736308"><ele>1873</ele><time>2019-07-27T19:18:00Z</time></trkpt>
<trkpt lat="46.805789" lon="-121.736262"><ele>1879</ele><time>2019-07-27T19:18:00Z</time></trkpt>
<trkpt lat="46.805808" lon="-121.736213"><ele>1879</ele><time>2019-07-27T19:18:00Z</time></trkpt>
<trkpt lat="46.805857" lon="-121.736181"><ele>1876</ele><time>2019-07-27T19:18:00Z</time></trkpt>
<trkpt lat="46.805931" lon="-121.736197"><ele>1873</ele><time>2019-07-27T19:19:00Z</time></trkpt>
<trkpt lat="46.806027" lon="-121.736102"><ele>1872</ele><time>2019-07-27T19:19:00Z</time></trkpt>
<trkpt lat="46.80612" lon="-121.736025"><ele>1870</ele><time>2019-07-27T19:19:00Z</time></trkpt>
<trkpt lat="46.806197" lon="-121.736001"><ele>1872</ele><time>2019-07-27T19:19:00Z</time></trkpt>
<trkpt lat="46.806281" lon="-121.735926"><ele>1869</ele><time>2019-07-27T19:19:00Z</time></trkpt>
<trkpt lat="46.806375" lon="-121.735919"><ele>1873</ele><time>2019-07-27T19:20:00Z</time></trkpt>
<trkpt lat="46.806423" lon="-121.735911"><ele>1875</ele><time>2019-07-27T19:20:00Z</time></trkpt>
<trkpt lat="46.806548" lon="-121.735804"><ele>1875</ele><time>2019-07-27T19:20:00Z</time></trkpt>
<trkpt lat="46.806636" lon="-121.735756"><ele>1875</ele><time>2019-07-27T19:20:00Z</time></trkpt>
<trkpt lat="46.806674" lon="-121.73581"><ele>1883</ele><time>2019-07-27T19:20:00Z</time></trkpt>
<trkpt lat="46.806709" lon="-121.735857"><ele>1892</ele><time>2019-07-27T19:21:00Z</time></trkpt>
<trkpt lat="46.806767" lon="-121.735759"><ele>1910</ele><time>2019-07-27T19:24:00Z</time></trkpt>
<trkpt lat="46.806824" lon="-121.735779"><ele>1908</ele><time>2019-07-27T19:24:00Z</time></trkpt>
<trkpt lat="46.806862" lon="-121.735822"><ele>1905</ele><time>2019-07-27T19:25:00Z</time></trkpt>
<trkpt lat="46.806949" lon="-121.735825"><ele>1905</ele><time>2019-07-27T19:25:00Z</time></trkpt>
<trkpt lat="46.807022" lon="-121.735804"><ele>1902</ele><time>2019-07-27T19:25:00Z</time></trkpt>
<trkpt lat="46.807067" lon="-121.735764"><ele>1901</ele><time>2019-07-27T19:25:00Z</time></trkpt>
<trkpt lat="46.807112" lon="-121.73575"><ele>1898</ele><time>2019-07-27T19:25:00Z</time></trkpt>
<trkpt lat="46.807206" lon="-121.735809"><ele>1897</ele><time>2019-07-27T19:26:00Z</time></trkpt>
<trkpt lat="46.807275" lon="-121.735749"><ele>1894</ele><time>2019-07-27T19:26:00Z</time></trkpt>
<trkpt lat="46.807323" lon="-121.735741"><ele>1892</ele><time>2019-07-27T19:26:00Z</time></trkpt>
<trkpt lat="46.807359" lon="-121.735796"><ele>1899</ele><time>2019-07-27T19:27:00Z</time></trkpt>
<trkpt lat="46.807379" lon="-121.735746"><ele>1900</ele><time>2019-07-27T19:27:00Z</time></trkpt>
<trkpt lat="46.80745" lon="-121.735731"><ele>1901</ele><time>2019-07-27T19:27:00Z</time></trkpt>
<trkpt lat="46.807516" lon="-121.735727"><ele>1900</ele><time>2019-07-27T19:27:00Z</time></trkpt>
<trkpt lat="46.807628" lon="-121.73571"><ele>1894</ele><time>2019-07-27T19:27:00Z</time></trkpt>
<trkpt lat="46.807666" lon="-121.735689"><ele>1895</ele><time>2019-07-27T19:27:00Z</time></trkpt>
<trkpt lat="46.807721" lon="-121.735686"><ele>1897</ele><time>2019-07-27T19:28:00Z</time></trkpt>
<trkpt lat="46.807759" lon="-121.735664"><ele>1900</ele><time>2019-07-27T19:28:00Z</time></trkpt>
<trkpt lat="46.80781" lon="-121.735655"><ele>1899</ele><time>2019-07-27T19:28:00Z</time></trkpt>
<trkpt lat="46.807848" lon="-121.735613"><ele>1897</ele><time>2019-07-27T19:28:00Z</time></trkpt>
<trkpt lat="46.807901" lon="-121.735618"><ele>1898</ele><time>2019-07-27T19:28:00Z</time></trkpt>
<trkpt lat="46.807983" lon="-121.735542"><ele>1895</ele><time>2019-07-27T19:28:00Z</time></trkpt>
<trkpt lat="46.808056" lon="-121.735524"><ele>1898</ele><time>2019-07-27T19:28:00Z</time></trkpt>
<trkpt lat="46.808105" lon="-121.735556"><ele>1902</ele><time>2019-07-27T19:28:00Z</time></trkpt>
<trkpt lat="46.808195" lon="-121.735554"><ele>1904</ele><time>2019-07-27T19:29:00Z</time></trkpt>
<trkpt lat="46.808247" lon="-121.735509"><ele>1903</ele><time>2019-07-27T19:29:00Z</time></trkpt>
<trkpt lat="46.808307" lon="-121.735534"><ele>1901</ele><time>2019-07-27T19:29:00Z</time></trkpt>
<trkpt lat="46.808372" lon="-121.735527"><ele>1899</ele><time>2019-07-27T19:29:00Z</time></trkpt>
<trkpt lat="46.808416" lon="-121.73549"><ele>1897</ele><time>2019-07-27T19:29:00Z</time></trkpt>
<trkpt lat="46.808479" lon="-121.735509"><ele>1897</ele><time>2019-07-27T19:29:00Z</time></trkpt>
<trkpt lat="46.808528" lon="-121.735514"><ele>1902</ele><time>2019-07-27T19:29:00Z</time></trkpt>
<trkpt lat="46.808574" lon="-121.73549"><ele>1902</ele><time>2019-07-27T19:30:00Z</time></trkpt>
<trkpt lat="46.808702" lon="-121.735469"><ele>1906</ele><time>2019-07-27T19:30:00Z</time></trkpt>
<trkpt lat="46.808783" lon="-121.735422"><ele>1912</ele><time>2019-07-27T19:30:00Z</time></trkpt>
<trkpt lat="46.808806" lon="-121.735513"><ele>1915</ele><time>2019-07-27T19:30:00Z</time></trkpt>
<trkpt lat="46.808873" lon="-121.735496"><ele>1911</ele><time>2019-07-27T19:31:00Z</time></trkpt>
<trkpt lat="46.808904" lon="-121.735462"><ele>1915</ele><time>2019-07-27T19:31:00Z</time></trkpt>
<trkpt lat="46.808939" lon="-121.735416"><ele>1915</ele><time>2019-07-27T19:31:00Z</time></trkpt>
<trkpt lat="46.808998" lon="-121.73547"><ele>1919</ele><time>2019-07-27T19:31:00Z</time></trkpt>
<trkpt lat="46.809047" lon="-121.735426"><ele>1921</ele><time>2019-07-27T19:31:00Z</time></trkpt>
<trkpt lat="46.809101" lon="-121.735393"><ele>1922</ele><time>2019-07-27T19:32:00Z</time></trkpt>
<trkpt lat="46.809191" lon="-121.735452"><ele>1923</ele><time>2019-07-27T19:32:00Z</time></trkpt>
<trkpt lat="46.80921" lon="-121.735593"><ele>1922</ele><time>2019-07-27T19:34:00Z</time></trkpt>
<trkpt lat="46.809241" lon="-121.735699"><ele>1921</ele><time>2019-07-27T19:34:00Z</time></trkpt>
<trkpt lat="46.80934" lon="-121.735782"><ele>1920</ele><time>2019-07-27T19:34:00Z</time></trkpt>
<trkpt lat="46.809393" lon="-121.735802"><ele>1919</ele><time>2019-07-27T19:35:00Z</time></trkpt>
<trkpt lat="46.809458" lon="-121.73578"><ele>1919</ele><time>2019-07-27T19:35:00Z</time></trkpt>
<trkpt lat="46.809503" lon="-121.735769"><ele>1913</ele><time>2019-07-27T19:35:00Z</time></trkpt>
<trkpt lat="46.809547" lon="-121.735843"><ele>1913</ele><time>2019-07-27T19:35:00Z</time></trkpt>
<trkpt lat="46.809507" lon="-121.735922"><ele>1920</ele><time>2019-07-27T19:37:00Z</time></trkpt>
<trkpt lat="46.809426" lon="-121.735926"><ele>1919</ele><time>2019-07-27T19:37:00Z</time></trkpt>
<trkpt lat="46.809376" lon="-121.735881"><ele>1917</ele><time>2019-07-27T19:37:00Z</time></trkpt>
<trkpt lat="46.809284" lon="-121.735846"><ele>1914</ele><time>2019-07-27T19:38:00Z</time></trkpt>
<trkpt lat="46.809313" lon="-121.735921"><ele>1915</ele><time>2019-07-27T19:39:00Z</time></trkpt>
<trkpt lat="46.809332" lon="-121.736031"><ele>1910</ele><time>2019-07-27T19:40:00Z</time></trkpt>
<trkpt lat="46.809357" lon="-121.736102"><ele>1908</ele><time>2019-07-27T19:40:00Z</time></trkpt>
<trkpt lat="46.80937" lon="-121.736239"><ele>1904</ele><time>2019-07-27T19:40:00Z</time></trkpt>
<trkpt lat="46.809444" lon="-121.736298"><ele>1905</ele><time>2019-07-27T19:40:00Z</time></trkpt>
<trkpt lat="46.809493" lon="-121.736317"><ele>1903</ele><time>2019-07-27T19:41:00Z</time></trkpt>
<trkpt lat="46.809524" lon="-121.736358"><ele>1902</ele><time>2019-07-27T19:41:00Z</time></trkpt>
<trkpt lat="46.809623" lon="-121.736432"><ele>1897</ele><time>2019-07-27T19:41:00Z</time></trkpt>
<trkpt lat="46.809648" lon="-121.736473"><ele>1894</ele><time>2019-07-27T19:41:00Z</time></trkpt>
<trkpt lat="46.809687" lon="-121.736507"><ele>1899</ele><time>2019-07-27T19:41:00Z</time></trkpt>
<trkpt lat="46.809674" lon="-121.736573"><ele>1905</ele><time>2019-07-27T19:51:00Z</time></trkpt>
<trkpt lat="46.80972" lon="-121.736552"><ele>1915</ele><time>2019-07-27T19:54:00Z</time></trkpt>
<trkpt lat="46.809689" lon="-121.736605"><ele>1914</ele><time>2019-07-27T19:55:00Z</time></trkpt>
<trkpt lat="46.809729" lon="-121.736634"><ele>1906</ele><time>2019-07-27T19:58:00Z</time></trkpt>
<trkpt lat="46.809777" lon="-121.736608"><ele>1908</ele><time>2019-07-27T19:58:00Z</time></trkpt>
<trkpt lat="46.809849" lon="-121.736562"><ele>1912</ele><time>2019-07-27T19:59:00Z</time></trkpt>
<trkpt lat="46.809941" lon="-121.73661"><ele>1917</ele><time>2019-07-27T19:59:00Z</time></trkpt>
<trkpt lat="46.810047" lon="-121.736607"><ele>1916</ele><time>2019-07-27T20:00:00Z</time></trkpt>
<trkpt lat="46.810102" lon="-121.736624"><ele>1914</ele><time>2019-07-27T20:00:00Z</time></trkpt>
<trkpt lat="46.810159" lon="-121.73666"><ele>1911</ele><time>2019-07-27T20:00:00Z</time></trkpt>
<trkpt lat="46.810184" lon="-121.73672"><ele>1905</ele><time>2019-07-27T20:00:00Z</time></trkpt>
<trkpt lat="46.810253" lon="-121.736742"><ele>1911</ele><time>2019-07-27T20:01:00Z</time></trkpt>
<trkpt lat="46.810356" lon="-121.736786"><ele>1921</ele><time>2019-07-27T20:01:00Z</time></trkpt>
<trkpt lat="46.810406" lon="-121.73687"><ele>1921</ele><time>2019-07-27T20:02:00Z</time></trkpt>
<trkpt lat="46.810444" lon="-121.736795"><ele>1931</ele><time>2019-07-27T20:06:00Z</time></trkpt>
<trkpt lat="46.810472" lon="-121.736738"><ele>1932</ele><time>2019-07-27T20:06:00Z</time></trkpt>
<trkpt lat="46.810569" lon="-121.736794"><ele>1932</ele><time>2019-07-27T20:06:00Z</time></trkpt>
<trkpt lat="46.810638" lon="-121.736784"><ele>1932</ele><time>2019-07-27T20:06:00Z</time></trkpt>
<trkpt lat="46.810748" lon="-121.73674"><ele>1933</ele><time>2019-07-27T20:07:00Z</time></trkpt>
<trkpt lat="46.810813" lon="-121.736768"><ele>1931</ele><time>2019-07-27T20:07:00Z</time></trkpt>
<trkpt lat="46.810856" lon="-121.736747"><ele>1936</ele><time>2019-07-27T20:07:00Z</time></trkpt>
<trkpt lat="46.810903" lon="-121.736779"><ele>1941</ele><time>2019-07-27T20:07:00Z</time></trkpt>
<trkpt lat="46.810954" lon="-121.736796"><ele>1943</ele><time>2019-07-27T20:07:00Z</time></trkpt>
<trkpt lat="46.811033" lon="-121.73679"><ele>1947</ele><time>2019-07-27T20:08:00Z</time></trkpt>
<trkpt lat="46.811104" lon="-121.736781"><ele>1948</ele><time>2019-07-27T20:08:00Z</time></trkpt>
<trkpt lat="46.811147" lon="-121.736807"><ele>1948</ele><time>2019-07-27T20:08:00Z</time></trkpt>
<trkpt lat="46.811191" lon="-121.736841"><ele>1945</ele><time>2019-07-27T20:08:00Z</time></trkpt>
<trkpt lat="46.811306" lon="-121.73686"><ele>1951</ele><time>2019-07-27T20:09:00Z</time></trkpt>
<trkpt lat="46.811374" lon="-121.736885"><ele>1951</ele><time>2019-07-27T20:09:00Z</time></trkpt>
<trkpt lat="46.81147" lon="-121.736917"><ele>1952</ele><time>2019-07-27T20:09:00Z</time></trkpt>
<trkpt lat="46.811518" lon="-121.736862"><ele>1950</ele><time>2019-07-27T20:10:00Z</time></trkpt>
<trkpt lat="46.811574" lon="-121.736914"><ele>1950</ele><time>2019-07-27T20:10:00Z</time></trkpt>
<trkpt lat="46.81162" lon="-121.736958"><ele>1951</ele><time>2019-07-27T20:10:00Z</time></trkpt>
<trkpt lat="46.811703" lon="-121.737087"><ele>1953</ele><time>2019-07-27T20:10:00Z</time></trkpt>
<trkpt lat="46.811747" lon="-121.737123"><ele>1954</ele><time>2019-07-27T20:10:00Z</time></trkpt>
<trkpt lat="46.811798" lon="-121.737145"><ele>1952</ele><time>2019-07-27T20:10:00Z</time></trkpt>
<trkpt lat="46.811838" lon="-121.737171"><ele>1953</ele><time>2019-07-27T20:10:00Z</time></trkpt>
<trkpt lat="46.811912" lon="-121.737183"><ele>1957</ele><time>2019-07-27T20:11:00Z</time></trkpt>
<trkpt lat="46.811984" lon="-121.737209"><ele>1958</ele><time>2019-07-27T20:11:00Z</time></trkpt>
<trkpt lat="46.812025" lon="-121.737227"><ele>1955</ele><time>2019-07-27T20:11:00Z</time></trkpt>
<trkpt lat="46.812063" lon="-121.737267"><ele>1959</ele><time>2019-07-27T20:11:00Z</time></trkpt>
<trkpt lat="46.812202" lon="-121.737413"><ele>1955</ele><time>2019-07-27T20:12:00Z</time></trkpt>
<trkpt lat="46.812264" lon="-121.737436"><ele>1957</ele><time>2019-07-27T20:12:00Z</time></trkpt>
<trkpt lat="46.812307" lon="-121.737483"><ele>1955</ele><time>2019-07-27T20:12:00Z</time></trkpt>
<trkpt lat="46.81236" lon="-121.737533"><ele>1956</ele><time>2019-07-27T20:12:00Z</time></trkpt>
<trkpt lat="46.812422" lon="-121.737591"><ele>1953</ele><time>2019-07-27T20:12:00Z</time></trkpt>
<trkpt lat="46.812468" lon="-121.737643"><ele>1955</ele><time>2019-07-27T20:13:00Z</time></trkpt>
<trkpt lat="46.812533" lon="-121.737677"><ele>1951</ele><time>2019-07-27T20:13:00Z</time></trkpt>
<trkpt lat="46.812559" lon="-121.737728"><ele>1954</ele><time>2019-07-27T20:13:00Z</time></trkpt>
<trkpt lat="46.812561" lon="-121.737888"><ele>1961</ele><time>2019-07-27T20:13:00Z</time></trkpt>
<trkpt lat="46.812589" lon="-121.737958"><ele>1964</ele><time>2019-07-27T20:14:00Z</time></trkpt>
<trkpt lat="46.812608" lon="-121.738011"><ele>1975</ele><time>2019-07-27T20:14:00Z</time></trkpt>
<trkpt lat="46.812667" lon="-121.738014"><ele>1977</ele><time>2019-07-27T20:15:00Z</time></trkpt>
<trkpt lat="46.812693" lon="-121.738099"><ele>1970</ele><time>2019-07-27T20:16:00Z</time></trkpt>
<trkpt lat="46.812734" lon="-121.738078"><ele>1975</ele><time>2019-07-27T20:16:00Z</time></trkpt>
<trkpt lat="46.812776" lon="-121.738148"><ele>1970</ele><time>2019-07-27T20:16:00Z</time></trkpt>
<trkpt lat="46.81284" lon="-121.738199"><ele>1973</ele><time>2019-07-27T20:16:00Z</time></trkpt>
<trkpt lat="46.812884" lon="-121.738288"><ele>1971</ele><time>2019-07-27T20:17:00Z</time></trkpt>
<trkpt lat="46.812926" lon="-121.73836"><ele>1968</ele><time>2019-07-27T20:17:00Z</time></trkpt>
<trkpt lat="46.812939" lon="-121.738467"><ele>1971</ele><time>2019-07-27T20:17:00Z</time></trkpt>
<trkpt lat="46.812904" lon="-121.738531"><ele>1972</ele><time>2019-07-27T20:17:00Z</time></trkpt>
<trkpt lat="46.812842" lon="-121.738656"><ele>1976</ele><time>2019-07-27T20:18:00Z</time></trkpt>
<trkpt lat="46.812776" lon="-121.738713"><ele>1981</ele><time>2019-07-27T20:18:00Z</time></trkpt>
<trkpt lat="46.812721" lon="-121.738746"><ele>1981</ele><time>2019-07-27T20:18:00Z</time></trkpt>
<trkpt lat="46.81267" lon="-121.738795"><ele>1983</ele><time>2019-07-27T20:18:00Z</time></trkpt>
<trkpt lat="46.812619" lon="-121.738824"><ele>1984</ele><time>2019-07-27T20:19:00Z</time></trkpt>
<trkpt lat="46.81253" lon="-121.738868"><ele>1985</ele><time>2019-07-27T20:19:00Z</time></trkpt>
<trkpt lat="46.812465" lon="-121.738921"><ele>1984</ele><time>2019-07-27T20:19:00Z</time></trkpt>
<trkpt lat="46.812322" lon="-121.739053"><ele>1982</ele><time>2019-07-27T20:19:00Z</time></trkpt>
<trkpt lat="46.812225" lon="-121.739127"><ele>1983</ele><time>2019-07-27T20:20:00Z</time></trkpt>
<trkpt lat="46.812207" lon="-121.739199"><ele>1980</ele><time>2019-07-27T20:20:00Z</time></trkpt>
<trkpt lat="46.812234" lon="-121.73928"><ele>1982</ele><time>2019-07-27T20:20:00Z</time></trkpt>
<trkpt lat="46.812193" lon="-121.739322"><ele>1982</ele><time>2019-07-27T20:20:00Z</time></trkpt>
<trkpt lat="46.812149" lon="-121.739293"><ele>1983</ele><time>2019-07-27T20:20:00Z</time></trkpt>
<trkpt lat="46.812058" lon="-121.739381"><ele>1985</ele><time>2019-07-27T20:20:00Z</time></trkpt>
<trkpt lat="46.812103" lon="-121.739363"><ele>1983</ele><time>2019-07-27T20:21:00Z</time></trkpt>
<trkpt lat="46.812129" lon="-121.739403"><ele>1977</ele><time>2019-07-27T20:21:00Z</time></trkpt>
<trkpt lat="46.812166" lon="-121.739449"><ele>1978</ele><time>2019-07-27T20:21:00Z</time></trkpt>
<trkpt lat="46.812145" lon="-121.7395"><ele>1982</ele><time>2019-07-27T20:21:00Z</time></trkpt>
<trkpt lat="46.812184" lon="-121.739523"><ele>1990</ele><time>2019-07-27T20:22:00Z</time></trkpt>
<trkpt lat="46.812274" lon="-121.739571"><ele>1997</ele><time>2019-07-27T20:23:00Z</time></trkpt>
<trkpt lat="46.812297" lon="-121.739496"><ele>2007</ele><time>2019-07-27T20:23:00Z</time></trkpt>
<trkpt lat="46.812346" lon="-121.739558"><ele>2005</ele><time>2019-07-27T20:24:00Z</time></trkpt>
<trkpt lat="46.812366" lon="-121.739623"><ele>1999</ele><time>2019-07-27T20:24:00Z</time></trkpt>
<trkpt lat="46.812484" lon="-121.739636"><ele>1996</ele><time>2019-07-27T20:24:00Z</time></trkpt>
<trkpt lat="46.812549" lon="-121.739629"><ele>2000</ele><time>2019-07-27T20:25:00Z</time></trkpt>
<trkpt lat="46.812572" lon="-121.739565"><ele>2000</ele><time>2019-07-27T20:25:00Z</time></trkpt>
<trkpt lat="46.812622" lon="-121.739539"><ele>2001</ele><time>2019-07-27T20:25:00Z</time></trkpt>
<trkpt lat="46.812646" lon="-121.739603"><ele>1998</ele><time>2019-07-27T20:25:00Z</time></trkpt>
<trkpt lat="46.812675" lon="-121.739568"><ele>2006</ele><time>2019-07-27T20:25:00Z</time></trkpt>
<trkpt lat="46.81272" lon="-121.739609"><ele>2005</ele><time>2019-07-27T20:26:00Z</time></trkpt>
<trkpt lat="46.812768" lon="-121.739591"><ele>2017</ele><time>2019-07-27T20:26:00Z</time></trkpt>
<trkpt lat="46.812838" lon="-121.739693"><ele>2011</ele><time>2019-07-27T20:26:00Z</time></trkpt>
<trkpt lat="46.812886" lon="-121.739746"><ele>2009</ele><time>2019-07-27T20:26:00Z</time></trkpt>
<trkpt lat="46.812972" lon="-121.739831"><ele>2017</ele><time>2019-07-27T20:27:00Z</time></trkpt>
<trkpt lat="46.812986" lon="-121.73989"><ele>2019</ele><time>2019-07-27T20:27:00Z</time></trkpt>
<trkpt lat="46.812957" lon="-121.739819"><ele>2038</ele><time>2019-07-27T20:28:00Z</time></trkpt>
<trkpt lat="46.813088" lon="-121.739612"><ele>2069</ele><time>2019-07-27T20:30:00Z</time></trkpt>
<trkpt lat="46.812941" lon="-121.739691"><ele>2046</ele><time>2019-07-27T20:30:00Z</time></trkpt>
<trkpt lat="46.812909" lon="-121.739735"><ele>2045</ele><time>2019-07-27T20:30:00Z</time></trkpt>
<trkpt lat="46.812992" lon="-121.739822"><ele>2033</ele><time>2019-07-27T20:31:00Z</time></trkpt>
<trkpt lat="46.813044" lon="-121.739808"><ele>2035</ele><time>2019-07-27T20:31:00Z</time></trkpt>
<trkpt lat="46.813117" lon="-121.73978"><ele>2030</ele><time>2019-07-27T20:31:00Z</time></trkpt>
<trkpt lat="46.813148" lon="-121.739722"><ele>2037</ele><time>2019-07-27T20:32:00Z</time></trkpt>
<trkpt lat="46.813259" lon="-121.739813"><ele>2029</ele><time>2019-07-27T20:32:00Z</time></trkpt>
<trkpt lat="46.813284" lon="-121.739857"><ele>2029</ele><time>2019-07-27T20:32:00Z</time></trkpt>
<trkpt lat="46.813327" lon="-121.739764"><ele>2036</ele><time>2019-07-27T20:32:00Z</time></trkpt>
<trkpt lat="46.813408" lon="-121.739707"><ele>2037</ele><time>2019-07-27T20:33:00Z</time></trkpt>
<trkpt lat="46.813521" lon="-121.739711"><ele>2042</ele><time>2019-07-27T20:33:00Z</time></trkpt>
<trkpt lat="46.813564" lon="-121.739675"><ele>2047</ele><time>2019-07-27T20:34:00Z</time></trkpt>
<trkpt lat="46.813594" lon="-121.739729"><ele>2048</ele><time>2019-07-27T20:34:00Z</time></trkpt>
<trkpt lat="46.813706" lon="-121.739887"><ele>2043</ele><time>2019-07-27T20:34:00Z</time></trkpt>
<trkpt lat="46.813674" lon="-121.73984"><ele>2039</ele><time>2019-07-27T20:34:00Z</time></trkpt>
<trkpt lat="46.81371" lon="-121.739884"><ele>2036</ele><time>2019-07-27T20:35:00Z</time></trkpt>
<trkpt lat="46.81378" lon="-121.739876"><ele>2051</ele><time>2019-07-27T20:36:00Z</time></trkpt>
<trkpt lat="46.813791" lon="-121.739726"><ele>2063</ele><time>2019-07-27T20:36:00Z</time></trkpt>
<trkpt lat="46.813877" lon="-121.739697"><ele>2065</ele><time>2019-07-27T20:37:00Z</time></trkpt>
<trkpt lat="46.813915" lon="-121.739752"><ele>2064</ele><time>2019-07-27T20:37:00Z</time></trkpt>
<trkpt lat="46.813946" lon="-121.739786"><ele>2062</ele><time>2019-07-27T20:37:00Z</time></trkpt>
<trkpt lat="46.814042" lon="-121.73975"><ele>2057</ele><time>2019-07-27T20:37:00Z</time></trkpt>
<trkpt lat="46.814081" lon="-121.739695"><ele>2056</ele><time>2019-07-27T20:38:00Z</time></trkpt>
<trkpt lat="46.814124" lon="-121.739647"><ele>2058</ele><time>2019-07-27T20:38:00Z</time></trkpt>
<trkpt lat="46.814204" lon="-121.739644"><ele>2057</ele><time>2019-07-27T20:38:00Z</time></trkpt>
<trkpt lat="46.814238" lon="-121.739673"><ele>2053</ele><time>2019-07-27T20:38:00Z</time></trkpt>
<trkpt lat="46.814304" lon="-121.739675"><ele>2053</ele><time>2019-07-27T20:39:00Z</time></trkpt>
<trkpt lat="46.814359" lon="-121.739644"><ele>2058</ele><time>2019-07-27T20:39:00Z</time></trkpt>
<trkpt lat="46.814431" lon="-121.739693"><ele>2051</ele><time>2019-07-27T20:39:00Z</time></trkpt>
<trkpt lat="46.814469" lon="-121.739741"><ele>2052</ele><time>2019-07-27T20:39:00Z</time></trkpt>
<trkpt lat="46.814552" lon="-121.739773"><ele>2047</ele><time>2019-07-27T20:39:00Z</time></trkpt>
<trkpt lat="46.814588" lon="-121.739825"><ele>2048</ele><time>2019-07-27T20:40:00Z</time></trkpt>
<trkpt lat="46.814618" lon="-121.73986"><ele>2051</ele><time>2019-07-27T20:40:00Z</time></trkpt>
<trkpt lat="46.81464" lon="-121.739952"><ele>2051</ele><time>2019-07-27T20:40:00Z</time></trkpt>
<trkpt lat="46.814619" lon="-121.740008"><ele>2050</ele><time>2019-07-27T20:40:00Z</time></trkpt>
<trkpt lat="46.814566" lon="-121.740045"><ele>2049</ele><time>2019-07-27T20:40:00Z</time></trkpt>
<trkpt lat="46.814585" lon="-121.74025"><ele>2052</ele><time>2019-07-27T20:41:00Z</time></trkpt>
<trkpt lat="46.814618" lon="-121.740297"><ele>2059</ele><time>2019-07-27T20:41:00Z</time></trkpt>
<trkpt lat="46.814674" lon="-121.740271"><ele>2061</ele><time>2019-07-27T20:41:00Z</time></trkpt>
<trkpt lat="46.814716" lon="-121.740226"><ele>2065</ele><time>2019-07-27T20:41:00Z</time></trkpt>
<trkpt lat="46.814763" lon="-121.74024"><ele>2066</ele><time>2019-07-27T20:42:00Z</time></trkpt>
<trkpt lat="46.814802" lon="-121.740334"><ele>2065</ele><time>2019-07-27T20:42:00Z</time></trkpt>
<trkpt lat="46.814825" lon="-121.74052"><ele>2064</ele><time>2019-07-27T20:42:00Z</time></trkpt>
<trkpt lat="46.814871" lon="-121.740606"><ele>2061</ele><time>2019-07-27T20:43:00Z</time></trkpt>
<trkpt lat="46.814892" lon="-121.740694"><ele>2064</ele><time>2019-07-27T20:43:00Z</time></trkpt>
<trkpt lat="46.814889" lon="-121.740853"><ele>2065</ele><time>2019-07-27T20:43:00Z</time></trkpt>
<trkpt lat="46.81489" lon="-121.740982"><ele>2063</ele><time>2019-07-27T20:43:00Z</time></trkpt>
<trkpt lat="46.814915" lon="-121.741115"><ele>2061</ele><time>2019-07-27T20:43:00Z</time></trkpt>
<trkpt lat="46.81491" lon="-121.741254"><ele>2059</ele><time>2019-07-27T20:43:00Z</time></trkpt>
<trkpt lat="46.814955" lon="-121.741345"><ele>2054</ele><time>2019-07-27T20:44:00Z</time></trkpt>
<trkpt lat="46.815012" lon="-121.741489"><ele>2056</ele><time>2019-07-27T20:44:00Z</time></trkpt>
<trkpt lat="46.81505" lon="-121.741538"><ele>2056</ele><time>2019-07-27T20:44:00Z</time></trkpt>
<trkpt lat="46.815122" lon="-121.741545"><ele>2058</ele><time>2019-07-27T20:45:00Z</time></trkpt>
<trkpt lat="46.815208" lon="-121.741532"><ele>2061</ele><time>2019-07-27T20:45:00Z</time></trkpt>
<trkpt lat="46.815252" lon="-121.741586"><ele>2058</ele><time>2019-07-27T20:45:00Z</time></trkpt>
<trkpt lat="46.815295" lon="-121.741633"><ele>2062</ele><time>2019-07-27T20:45:00Z</time></trkpt>
<trkpt lat="46.815309" lon="-121.741814"><ele>2059</ele><time>2019-07-27T20:45:00Z</time></trkpt>
<trkpt lat="46.815315" lon="-121.741893"><ele>2058</ele><time>2019-07-27T20:45:00Z</time></trkpt>
<trkpt lat="46.815296" lon="-121.741952"><ele>2062</ele><time>2019-07-27T20:46:00Z</time></trkpt>
<trkpt lat="46.815314" lon="-121.742053"><ele>2063</ele><time>2019-07-27T20:46:00Z</time></trkpt>
<trkpt lat="46.815321" lon="-121.742169"><ele>2062</ele><time>2019-07-27T20:46:00Z</time></trkpt>
<trkpt lat="46.815423" lon="-121.74219"><ele>2062</ele><time>2019-07-27T20:47:00Z</time></trkpt>
<trkpt lat="46.815463" lon="-121.742239"><ele>2065</ele><time>2019-07-27T20:47:00Z</time></trkpt>
<trkpt lat="46.81548" lon="-121.742294"><ele>2062</ele><time>2019-07-27T20:47:00Z</time></trkpt>
<trkpt lat="46.815576" lon="-121.74233"><ele>2060</ele><time>2019-07-27T20:47:00Z</time></trkpt>
<trkpt lat="46.815588" lon="-121.742395"><ele>2062</ele><time>2019-07-27T20:51:00Z</time></trkpt>
<trkpt lat="46.81553" lon="-121.74234"><ele>2070</ele><time>2019-07-27T20:56:00Z</time></trkpt>
<trkpt lat="46.815581" lon="-121.742342"><ele>2064</ele><time>2019-07-27T20:58:00Z</time></trkpt>
<trkpt lat="46.815634" lon="-121.742368"><ele>2061</ele><time>2019-07-27T20:58:00Z</time></trkpt>
<trkpt lat="46.815725" lon="-121.742353"><ele>2066</ele><time>2019-07-27T20:58:00Z</time></trkpt>
<trkpt lat="46.815771" lon="-121.742384"><ele>2066</ele><time>2019-07-27T20:58:00Z</time></trkpt>
<trkpt lat="46.815836" lon="-121.742382"><ele>2064</ele><time>2019-07-27T20:59:00Z</time></trkpt>
<trkpt lat="46.815917" lon="-121.742453"><ele>2062</ele><time>2019-07-27T20:59:00Z</time></trkpt>
<trkpt lat="46.815964" lon="-121.742503"><ele>2068</ele><time>2019-07-27T20:59:00Z</time></trkpt>
<trkpt lat="46.815992" lon="-121.742664"><ele>2067</ele><time>2019-07-27T21:00:00Z</time></trkpt>
<trkpt lat="46.815968" lon="-121.742706"><ele>2066</ele><time>2019-07-27T21:00:00Z</time></trkpt>
<trkpt lat="46.815952" lon="-121.742763"><ele>2064</ele><time>2019-07-27T21:00:00Z</time></trkpt>
<trkpt lat="46.815964" lon="-121.742856"><ele>2066</ele><time>2019-07-27T21:00:00Z</time></trkpt>
<trkpt lat="46.815901" lon="-121.742991"><ele>2064</ele><time>2019-07-27T21:00:00Z</time></trkpt>
<trkpt lat="46.815893" lon="-121.743058"><ele>2064</ele><time>2019-07-27T21:00:00Z</time></trkpt>
<trkpt lat="46.81587" lon="-121.74313"><ele>2061</ele><time>2019-07-27T21:01:00Z</time></trkpt>
<trkpt lat="46.815844" lon="-121.743237"><ele>2062</ele><time>2019-07-27T21:01:00Z</time></trkpt>
<trkpt lat="46.815815" lon="-121.743287"><ele>2065</ele><time>2019-07-27T21:01:00Z</time></trkpt>
<trkpt lat="46.815821" lon="-121.74336"><ele>2063</ele><time>2019-07-27T21:01:00Z</time></trkpt>
<trkpt lat="46.815813" lon="-121.743442"><ele>2061</ele><time>2019-07-27T21:01:00Z</time></trkpt>
<trkpt lat="46.815787" lon="-121.743502"><ele>2062</ele><time>2019-07-27T21:01:00Z</time></trkpt>
<trkpt lat="46.815771" lon="-121.743611"><ele>2063</ele><time>2019-07-27T21:01:00Z</time></trkpt>
<trkpt lat="46.815719" lon="-121.74387"><ele>2068</ele><time>2019-07-27T21:02:00Z</time></trkpt>
<trkpt lat="46.815635" lon="-121.744092"><ele>2071</ele><time>2019-07-27T21:02:00Z</time></trkpt>
<trkpt lat="46.815557" lon="-121.74423"><ele>2071</ele><time>2019-07-27T21:03:00Z</time></trkpt>
<trkpt lat="46.815514" lon="-121.744288"><ele>2070</ele><time>2019-07-27T21:03:00Z</time></trkpt>
<trkpt lat="46.815512" lon="-121.744377"><ele>2071</ele><time>2019-07-27T21:03:00Z</time></trkpt>
<trkpt lat="46.815526" lon="-121.744449"><ele>2075</ele><time>2019-07-27T21:03:00Z</time></trkpt>
<trkpt lat="46.815486" lon="-121.744534"><ele>2073</ele><time>2019-07-27T21:03:00Z</time></trkpt>
<trkpt lat="46.815435" lon="-121.744618"><ele>2073</ele><time>2019-07-27T21:03:00Z</time></trkpt>
<trkpt lat="46.815409" lon="-121.74472"><ele>2079</ele><time>2019-07-27T21:04:00Z</time></trkpt>
<trkpt lat="46.815429" lon="-121.74477"><ele>2079</ele><time>2019-07-27T21:04:00Z</time></trkpt>
<trkpt lat="46.815492" lon="-121.744849"><ele>2078</ele><time>2019-07-27T21:04:00Z</time></trkpt>
<trkpt lat="46.815475" lon="-121.74496"><ele>2082</ele><time>2019-07-27T21:04:00Z</time></trkpt>
<trkpt lat="46.815464" lon="-121.745029"><ele>2081</ele><time>2019-07-27T21:05:00Z</time></trkpt>
<trkpt lat="46.81549" lon="-121.745089"><ele>2085</ele><time>2019-07-27T21:05:00Z</time></trkpt>
<trkpt lat="46.815519" lon="-121.74518"><ele>2090</ele><time>2019-07-27T21:05:00Z</time></trkpt>
<trkpt lat="46.815573" lon="-121.745276"><ele>2090</ele><time>2019-07-27T21:05:00Z</time></trkpt>
<trkpt lat="46.815633" lon="-121.745406"><ele>2097</ele><time>2019-07-27T21:06:00Z</time></trkpt>
<trkpt lat="46.815711" lon="-121.745423"><ele>2103</ele><time>2019-07-27T21:06:00Z</time></trkpt>
<trkpt lat="46.815745" lon="-121.745512"><ele>2105</ele><time>2019-07-27T21:07:00Z</time></trkpt>
<trkpt lat="46.815739" lon="-121.745618"><ele>2109</ele><time>2019-07-27T21:07:00Z</time></trkpt>
<trkpt lat="46.815769" lon="-121.745763"><ele>2114</ele><time>2019-07-27T21:08:00Z</time></trkpt>
<trkpt lat="46.815885" lon="-121.745849"><ele>2119</ele><time>2019-07-27T21:09:00Z</time></trkpt>
<trkpt lat="46.815901" lon="-121.745919"><ele>2129</ele><time>2019-07-27T21:09:00Z</time></trkpt>
<trkpt lat="46.815999" lon="-121.746044"><ele>2122</ele><time>2019-07-27T21:10:00Z</time></trkpt>
<trkpt lat="46.815956" lon="-121.746021"><ele>2138</ele><time>2019-07-27T21:10:00Z</time></trkpt>
<trkpt lat="46.816027" lon="-121.746144"><ele>2130</ele><time>2019-07-27T21:11:00Z</time></trkpt>
<trkpt lat="46.81603" lon="-121.746239"><ele>2132</ele><time>2019-07-27T21:11:00Z</time></trkpt>
<trkpt lat="46.816099" lon="-121.746369"><ele>2131</ele><time>2019-07-27T21:11:00Z</time></trkpt>
<trkpt lat="46.816141" lon="-121.746423"><ele>2168</ele><time>2019-07-27T21:13:00Z</time></trkpt>
<trkpt lat="46.816099" lon="-121.746295"><ele>2182</ele><time>2019-07-27T21:13:00Z</time></trkpt>
<trkpt lat="46.816146" lon="-121.746426"><ele>2171</ele><time>2019-07-27T21:14:00Z</time></trkpt>
<trkpt lat="46.816201" lon="-121.746446"><ele>2169</ele><time>2019-07-27T21:14:00Z</time></trkpt>
<trkpt lat="46.816227" lon="-121.746518"><ele>2164</ele><time>2019-07-27T21:14:00Z</time></trkpt>
<trkpt lat="46.81625" lon="-121.746574"><ele>2163</ele><time>2019-07-27T21:14:00Z</time></trkpt>
<trkpt lat="46.816288" lon="-121.74662"><ele>2165</ele><time>2019-07-27T21:14:00Z</time></trkpt>
<trkpt lat="46.816313" lon="-121.746692"><ele>2164</ele><time>2019-07-27T21:15:00Z</time></trkpt>
<trkpt lat="46.816355" lon="-121.74676"><ele>2184</ele><time>2019-07-27T21:16:00Z</time></trkpt>
<trkpt lat="46.816402" lon="-121.746793"><ele>2181</ele><time>2019-07-27T21:16:00Z</time></trkpt>
<trkpt lat="46.816478" lon="-121.74685"><ele>2191</ele><time>2019-07-27T21:17:00Z</time></trkpt>
<trkpt lat="46.816551" lon="-121.746897"><ele>2182</ele><time>2019-07-27T21:17:00Z</time></trkpt>
<trkpt lat="46.81662" lon="-121.746946"><ele>2188</ele><time>2019-07-27T21:18:00Z</time></trkpt>
<trkpt lat="46.816661" lon="-121.74698"><ele>2190</ele><time>2019-07-27T21:18:00Z</time></trkpt>
<trkpt lat="46.816707" lon="-121.747053"><ele>2188</ele><time>2019-07-27T21:18:00Z</time></trkpt>
<trkpt lat="46.816729" lon="-121.747106"><ele>2186</ele><time>2019-07-27T21:19:00Z</time></trkpt>
<trkpt lat="46.816799" lon="-121.747141"><ele>2188</ele><time>2019-07-27T21:19:00Z</time></trkpt>
<trkpt lat="46.816818" lon="-121.7472"><ele>2189</ele><time>2019-07-27T21:19:00Z</time></trkpt>
<trkpt lat="46.816849" lon="-121.747236"><ele>2182</ele><time>2019-07-27T21:20:00Z</time></trkpt>
<trkpt lat="46.816879" lon="-121.747278"><ele>2187</ele><time>2019-07-27T21:20:00Z</time></trkpt>
<trkpt lat="46.816905" lon="-121.747385"><ele>2190</ele><time>2019-07-27T21:20:00Z</time></trkpt>
<trkpt lat="46.816918" lon="-121.747465"><ele>2188</ele><time>2019-07-27T21:21:00Z</time></trkpt>
<trkpt lat="46.816915" lon="-121.747543"><ele>2205</ele><time>2019-07-27T21:21:00Z</time></trkpt>
<trkpt lat="46.816923" lon="-121.747635"><ele>2215</ele><time>2019-07-27T21:22:00Z</time></trkpt>
<trkpt lat="46.816933" lon="-121.747707"><ele>2214</ele><time>2019-07-27T21:22:00Z</time></trkpt>
<trkpt lat="46.816934" lon="-121.747782"><ele>2223</ele><time>2019-07-27T21:23:00Z</time></trkpt>
<trkpt lat="46.816927" lon="-121.747857"><ele>2223</ele><time>2019-07-27T21:23:00Z</time></trkpt>
<trkpt lat="46.816961" lon="-121.747904"><ele>2222</ele><time>2019-07-27T21:24:00Z</time></trkpt>
<trkpt lat="46.816978" lon="-121.748008"><ele>2218</ele><time>2019-07-27T21:24:00Z</time></trkpt>
<trkpt lat="46.81696" lon="-121.748108"><ele>2218</ele><time>2019-07-27T21:24:00Z</time></trkpt>
<trkpt lat="46.816943" lon="-121.748202"><ele>2230</ele><time>2019-07-27T21:25:00Z</time></trkpt>
<trkpt lat="46.816903" lon="-121.748309"><ele>2229</ele><time>2019-07-27T21:25:00Z</time></trkpt>
<trkpt lat="46.816918" lon="-121.748376"><ele>2228</ele><time>2019-07-27T21:25:00Z</time></trkpt>
<trkpt lat="46.816906" lon="-121.74845"><ele>2225</ele><time>2019-07-27T21:26:00Z</time></trkpt>
<trkpt lat="46.816867" lon="-121.748509"><ele>2226</ele><time>2019-07-27T21:26:00Z</time></trkpt>
<trkpt lat="46.81686" lon="-121.748579"><ele>2222</ele><time>2019-07-27T21:26:00Z</time></trkpt>
<trkpt lat="46.816816" lon="-121.748605"><ele>2232</ele><time>2019-07-27T21:26:00Z</time></trkpt>
<trkpt lat="46.816771" lon="-121.748655"><ele>2246</ele><time>2019-07-27T21:31:00Z</time></trkpt>
<trkpt lat="46.816728" lon="-121.748576"><ele>2257</ele><time>2019-07-27T21:31:00Z</time></trkpt>
<trkpt lat="46.816767" lon="-121.74863"><ele>2257</ele><time>2019-07-27T21:34:00Z</time></trkpt>
<trkpt lat="46.816744" lon="-121.748728"><ele>2250</ele><time>2019-07-27T21:34:00Z</time></trkpt>
<trkpt lat="46.816719" lon="-121.748789"><ele>2251</ele><time>2019-07-27T21:34:00Z</time></trkpt>
<trkpt lat="46.816707" lon="-121.748861"><ele>2248</ele><time>2019-07-27T21:34:00Z</time></trkpt>
<trkpt lat="46.816683" lon="-121.74901"><ele>2246</ele><time>2019-07-27T21:34:00Z</time></trkpt>
<trkpt lat="46.81668" lon="-121.749113"><ele>2244</ele><time>2019-07-27T21:35:00Z</time></trkpt>
<trkpt lat="46.816662" lon="-121.749267"><ele>2247</ele><time>2019-07-27T21:35:00Z</time></trkpt>
<trkpt lat="46.816627" lon="-121.749361"><ele>2245</ele><time>2019-07-27T21:35:00Z</time></trkpt>
<trkpt lat="46.816611" lon="-121.74952"><ele>2245</ele><time>2019-07-27T21:35:00Z</time></trkpt>
<trkpt lat="46.816582" lon="-121.749573"><ele>2248</ele><time>2019-07-27T21:35:00Z</time></trkpt>
<trkpt lat="46.816561" lon="-121.749692"><ele>2245</ele><time>2019-07-27T21:36:00Z</time></trkpt>
<trkpt lat="46.816505" lon="-121.749856"><ele>2246</ele><time>2019-07-27T21:36:00Z</time></trkpt>
<trkpt lat="46.816473" lon="-121.749935"><ele>2246</ele><time>2019-07-27T21:36:00Z</time></trkpt>
<trkpt lat="46.816388" lon="-121.750084"><ele>2245</ele><time>2019-07-27T21:36:00Z</time></trkpt>
<trkpt lat="46.816366" lon="-121.750173"><ele>2246</ele><time>2019-07-27T21:36:00Z</time></trkpt>
<trkpt lat="46.816318" lon="-121.750219"><ele>2245</ele><time>2019-07-27T21:36:00Z</time></trkpt>
<trkpt lat="46.816305" lon="-121.750289"><ele>2245</ele><time>2019-07-27T21:37:00Z</time></trkpt>
<trkpt lat="46.816214" lon="-121.750525"><ele>2249</ele><time>2019-07-27T21:37:00Z</time></trkpt>
<trkpt lat="46.816184" lon="-121.750627"><ele>2248</ele><time>2019-07-27T21:37:00Z</time></trkpt>
<trkpt lat="46.816119" lon="-121.750743"><ele>2254</ele><time>2019-07-27T21:38:00Z</time></trkpt>
<trkpt lat="46.816077" lon="-121.750848"><ele>2259</ele><time>2019-07-27T21:38:00Z</time></trkpt>
<trkpt lat="46.816038" lon="-121.750973"><ele>2261</ele><time>2019-07-27T21:38:00Z</time></trkpt>
<trkpt lat="46.815996" lon="-121.751027"><ele>2264</ele><time>2019-07-27T21:38:00Z</time></trkpt>
<trkpt lat="46.81597" lon="-121.751202"><ele>2264</ele><time>2019-07-27T21:39:00Z</time></trkpt>
<trkpt lat="46.815865" lon="-121.75139"><ele>2270</ele><time>2019-07-27T21:39:00Z</time></trkpt>
<trkpt lat="46.815812" lon="-121.751488"><ele>2271</ele><time>2019-07-27T21:39:00Z</time></trkpt>
<trkpt lat="46.815776" lon="-121.751526"><ele>2270</ele><time>2019-07-27T21:39:00Z</time></trkpt>
<trkpt lat="46.815795" lon="-121.75159"><ele>2269</ele><time>2019-07-27T21:40:00Z</time></trkpt>
<trkpt lat="46.815735" lon="-121.751664"><ele>2270</ele><time>2019-07-27T21:40:00Z</time></trkpt>
<trkpt lat="46.815705" lon="-121.751726"><ele>2275</ele><time>2019-07-27T21:40:00Z</time></trkpt>
<trkpt lat="46.81569" lon="-121.751848"><ele>2279</ele><time>2019-07-27T21:41:00Z</time></trkpt>
<trkpt lat="46.815693" lon="-121.751963"><ele>2288</ele><time>2019-07-27T21:41:00Z</time></trkpt>
<trkpt lat="46.815658" lon="-121.752077"><ele>2290</ele><time>2019-07-27T21:41:00Z</time></trkpt>
<trkpt lat="46.815615" lon="-121.752105"><ele>2292</ele><time>2019-07-27T21:42:00Z</time></trkpt>
<trkpt lat="46.815554" lon="-121.752169"><ele>2292</ele><time>2019-07-27T21:42:00Z</time></trkpt>
<trkpt lat="46.815486" lon="-121.752187"><ele>2295</ele><time>2019-07-27T21:42:00Z</time></trkpt>
<trkpt lat="46.815444" lon="-121.752233"><ele>2299</ele><time>2019-07-27T21:42:00Z</time></trkpt>
<trkpt lat="46.815305" lon="-121.752249"><ele>2302</ele><time>2019-07-27T21:43:00Z</time></trkpt>
<trkpt lat="46.815275" lon="-121.752295"><ele>2304</ele><time>2019-07-27T21:43:00Z</time></trkpt>
<trkpt lat="46.815174" lon="-121.752334"><ele>2305</ele><time>2019-07-27T21:43:00Z</time></trkpt>
<trkpt lat="46.815082" lon="-121.752379"><ele>2311</ele><time>2019-07-27T21:44:00Z</time></trkpt>
<trkpt lat="46.815043" lon="-121.752445"><ele>2309</ele><time>2019-07-27T21:44:00Z</time></trkpt>
<trkpt lat="46.814999" lon="-121.752483"><ele>2313</ele><time>2019-07-27T21:44:00Z</time></trkpt>
<trkpt lat="46.814937" lon="-121.752531"><ele>2314</ele><time>2019-07-27T21:45:00Z</time></trkpt>
<trkpt lat="46.814855" lon="-121.752577"><ele>2319</ele><time>2019-07-27T21:45:00Z</time></trkpt>
<trkpt lat="46.814815" lon="-121.752647"><ele>2318</ele><time>2019-07-27T21:49:00Z</time></trkpt>
<trkpt lat="46.814842" lon="-121.752706"><ele>2323</ele><time>2019-07-27T21:49:00Z</time></trkpt>
<trkpt lat="46.814862" lon="-121.752755"><ele>2321</ele><time>2019-07-27T21:50:00Z</time></trkpt>
<trkpt lat="46.814905" lon="-121.752814"><ele>2324</ele><time>2019-07-27T21:50:00Z</time></trkpt>
<trkpt lat="46.814962" lon="-121.752923"><ele>2334</ele><time>2019-07-27T21:51:00Z</time></trkpt>
<trkpt lat="46.815045" lon="-121.753063"><ele>2345</ele><time>2019-07-27T21:52:00Z</time></trkpt>
<trkpt lat="46.815068" lon="-121.753116"><ele>2342</ele><time>2019-07-27T21:52:00Z</time></trkpt>
<trkpt lat="46.815099" lon="-121.753173"><ele>2342</ele><time>2019-07-27T21:53:00Z</time></trkpt>
<trkpt lat="46.815181" lon="-121.753187"><ele>2353</ele><time>2019-07-27T21:53:00Z</time></trkpt>
<trkpt lat="46.815216" lon="-121.753241"><ele>2353</ele><time>2019-07-27T21:54:00Z</time></trkpt>
<trkpt lat="46.815237" lon="-121.75331"><ele>2354</ele><time>2019-07-27T21:54:00Z</time></trkpt>
<trkpt lat="46.815274" lon="-121.75337"><ele>2357</ele><time>2019-07-27T21:55:00Z</time></trkpt>
<trkpt lat="46.81532" lon="-121.753389"><ele>2362</ele><time>2019-07-27T21:55:00Z</time></trkpt>
<trkpt lat="46.815385" lon="-121.753456"><ele>2364</ele><time>2019-07-27T21:56:00Z</time></trkpt>
<trkpt lat="46.815462" lon="-121.753515"><ele>2376</ele><time>2019-07-27T21:56:00Z</time></trkpt>
<trkpt lat="46.815513" lon="-121.753567"><ele>2379</ele><time>2019-07-27T21:57:00Z</time></trkpt>
<trkpt lat="46.815519" lon="-121.753648"><ele>2376</ele><time>2019-07-27T21:57:00Z</time></trkpt>
<trkpt lat="46.815564" lon="-121.753791"><ele>2369</ele><time>2019-07-27T21:58:00Z</time></trkpt>
<trkpt lat="46.815614" lon="-121.753762"><ele>2371</ele><time>2019-07-27T21:58:00Z</time></trkpt>
<trkpt lat="46.815639" lon="-121.753809"><ele>2372</ele><time>2019-07-27T21:58:00Z</time></trkpt>
<trkpt lat="46.815669" lon="-121.75386"><ele>2380</ele><time>2019-07-27T21:59:00Z</time></trkpt>
<trkpt lat="46.815732" lon="-121.753849"><ele>2387</ele><time>2019-07-27T21:59:00Z</time></trkpt>
<trkpt lat="46.815765" lon="-121.753966"><ele>2387</ele><time>2019-07-27T21:59:00Z</time></trkpt>
<trkpt lat="46.8158" lon="-121.753937"><ele>2391</ele><time>2019-07-27T22:00:00Z</time></trkpt>
<trkpt lat="46.815821" lon="-121.753992"><ele>2394</ele><time>2019-07-27T22:00:00Z</time></trkpt>
<trkpt lat="46.815831" lon="-121.754076"><ele>2389</ele><time>2019-07-27T22:01:00Z</time></trkpt>
<trkpt lat="46.81584" lon="-121.754153"><ele>2389</ele><time>2019-07-27T22:01:00Z</time></trkpt>
<trkpt lat="46.815887" lon="-121.754116"><ele>2399</ele><time>2019-07-27T22:01:00Z</time></trkpt>
<trkpt lat="46.815915" lon="-121.754181"><ele>2405</ele><time>2019-07-27T22:02:00Z</time></trkpt>
<trkpt lat="46.815972" lon="-121.754262"><ele>2403</ele><time>2019-07-27T22:02:00Z</time></trkpt>
<trkpt lat="46.815997" lon="-121.754323"><ele>2407</ele><time>2019-07-27T22:02:00Z</time></trkpt>
<trkpt lat="46.816046" lon="-121.754311"><ele>2413</ele><time>2019-07-27T22:03:00Z</time></trkpt>
<trkpt lat="46.81611" lon="-121.754308"><ele>2418</ele><time>2019-07-27T22:04:00Z</time></trkpt>
<trkpt lat="46.816158" lon="-121.75432"><ele>2423</ele><time>2019-07-27T22:04:00Z</time></trkpt>
<trkpt lat="46.816183" lon="-121.754452"><ele>2428</ele><time>2019-07-27T22:05:00Z</time></trkpt>
<trkpt lat="46.816222" lon="-121.754526"><ele>2431</ele><time>2019-07-27T22:05:00Z</time></trkpt>
<trkpt lat="46.816222" lon="-121.754617"><ele>2435</ele><time>2019-07-27T22:06:00Z</time></trkpt>
<trkpt lat="46.816276" lon="-121.754684"><ele>2437</ele><time>2019-07-27T22:06:00Z</time></trkpt>
<trkpt lat="46.816327" lon="-121.7547"><ele>2442</ele><time>2019-07-27T22:07:00Z</time></trkpt>
<trkpt lat="46.816347" lon="-121.75476"><ele>2439</ele><time>2019-07-27T22:07:00Z</time></trkpt>
<trkpt lat="46.816377" lon="-121.754721"><ele>2440</ele><time>2019-07-27T22:08:00Z</time></trkpt>
<trkpt lat="46.81642" lon="-121.754755"><ele>2445</ele><time>2019-07-27T22:09:00Z</time></trkpt>
<trkpt lat="46.816485" lon="-121.754845"><ele>2452</ele><time>2019-07-27T22:09:00Z</time></trkpt>
<trkpt lat="46.816531" lon="-121.754926"><ele>2454</ele><time>2019-07-27T22:09:00Z</time></trkpt>
<trkpt lat="46.816556" lon="-121.754992"><ele>2450</ele><time>2019-07-27T22:10:00Z</time></trkpt>
<trkpt lat="46.816602" lon="-121.755023"><ele>2451</ele><time>2019-07-27T22:10:00Z</time></trkpt>
<trkpt lat="46.816665" lon="-121.75507"><ele>2449</ele><time>2019-07-27T22:11:00Z</time></trkpt>
<trkpt lat="46.816711" lon="-121.755087"><ele>2450</ele><time>2019-07-27T22:11:00Z</time></trkpt>
<trkpt lat="46.816759" lon="-121.755053"><ele>2454</ele><time>2019-07-27T22:12:00Z</time></trkpt>
<trkpt lat="46.81683" lon="-121.755071"><ele>2461</ele><time>2019-07-27T22:12:00Z</time></trkpt>
<trkpt lat="46.816881" lon="-121.755086"><ele>2465</ele><time>2019-07-27T22:12:00Z</time></trkpt>
<trkpt lat="46.816984" lon="-121.755255"><ele>2472</ele><time>2019-07-27T22:14:00Z</time></trkpt>
<trkpt lat="46.817038" lon="-121.755281"><ele>2481</ele><time>2019-07-27T22:14:00Z</time></trkpt>
<trkpt lat="46.817057" lon="-121.75535"><ele>2485</ele><time>2019-07-27T22:14:00Z</time></trkpt>
<trkpt lat="46.817142" lon="-121.755407"><ele>2484</ele><time>2019-07-27T22:15:00Z</time></trkpt>
<trkpt lat="46.817193" lon="-121.755418"><ele>2487</ele><time>2019-07-27T22:15:00Z</time></trkpt>
<trkpt lat="46.81723" lon="-121.75538"><ele>2487</ele><time>2019-07-27T22:15:00Z</time></trkpt>
<trkpt lat="46.81731" lon="-121.755366"><ele>2490</ele><time>2019-07-27T22:15:00Z</time></trkpt>
<trkpt lat="46.817434" lon="-121.755346"><ele>2490</ele><time>2019-07-27T22:16:00Z</time></trkpt>
<trkpt lat="46.817485" lon="-121.755368"><ele>2488</ele><time>2019-07-27T22:16:00Z</time></trkpt>
<trkpt lat="46.817616" lon="-121.755405"><ele>2487</ele><time>2019-07-27T22:16:00Z</time></trkpt>
<trkpt lat="46.817667" lon="-121.755398"><ele>2487</ele><time>2019-07-27T22:16:00Z</time></trkpt>
<trkpt lat="46.817748" lon="-121.755399"><ele>2489</ele><time>2019-07-27T22:16:00Z</time></trkpt>
<trkpt lat="46.817794" lon="-121.755419"><ele>2488</ele><time>2019-07-27T22:17:00Z</time></trkpt>
<trkpt lat="46.817845" lon="-121.755394"><ele>2492</ele><time>2019-07-27T22:17:00Z</time></trkpt>
<trkpt lat="46.8179" lon="-121.755391"><ele>2493</ele><time>2019-07-27T22:17:00Z</time></trkpt>
<trkpt lat="46.817965" lon="-121.755411"><ele>2494</ele><time>2019-07-27T22:17:00Z</time></trkpt>
<trkpt lat="46.818014" lon="-121.755403"><ele>2494</ele><time>2019-07-27T22:17:00Z</time></trkpt>
<trkpt lat="46.818139" lon="-121.755403"><ele>2500</ele><time>2019-07-27T22:18:00Z</time></trkpt>
<trkpt lat="46.818192" lon="-121.755412"><ele>2502</ele><time>2019-07-27T22:18:00Z</time></trkpt>
<trkpt lat="46.81825" lon="-121.755411"><ele>2503</ele><time>2019-07-27T22:18:00Z</time></trkpt>
<trkpt lat="46.818297" lon="-121.755428"><ele>2503</ele><time>2019-07-27T22:18:00Z</time></trkpt>
<trkpt lat="46.818369" lon="-121.755395"><ele>2506</ele><time>2019-07-27T22:19:00Z</time></trkpt>
<trkpt lat="46.818467" lon="-121.755367"><ele>2511</ele><time>2019-07-27T22:20:00Z</time></trkpt>
<trkpt lat="46.818495" lon="-121.755329"><ele>2510</ele><time>2019-07-27T22:20:00Z</time></trkpt>
<trkpt lat="46.818511" lon="-121.755495"><ele>2503</ele><time>2019-07-27T22:21:00Z</time></trkpt>
<trkpt lat="46.818525" lon="-121.755431"><ele>2508</ele><time>2019-07-27T22:23:00Z</time></trkpt>
<trkpt lat="46.818556" lon="-121.755333"><ele>2510</ele><time>2019-07-27T22:30:00Z</time></trkpt>
<trkpt lat="46.818504" lon="-121.755422"><ele>2515</ele><time>2019-07-27T22:31:00Z</time></trkpt>
<trkpt lat="46.818565" lon="-121.755392"><ele>2507</ele><time>2019-07-27T22:32:00Z</time></trkpt>
<trkpt lat="46.818574" lon="-121.755484"><ele>2520</ele><time>2019-07-27T22:43:00Z</time></trkpt>
<trkpt lat="46.818644" lon="-121.755502"><ele>2524</ele><time>2019-07-27T22:43:00Z</time></trkpt>
<trkpt lat="46.818676" lon="-121.755532"><ele>2526</ele><time>2019-07-27T22:43:00Z</time></trkpt>
<trkpt lat="46.818733" lon="-121.755597"><ele>2532</ele><time>2019-07-27T22:44:00Z</time></trkpt>
<trkpt lat="46.818781" lon="-121.755556"><ele>2521</ele><time>2019-07-27T22:44:00Z</time></trkpt>
<trkpt lat="46.818836" lon="-121.755538"><ele>2523</ele><time>2019-07-27T22:44:00Z</time></trkpt>
<trkpt lat="46.818957" lon="-121.755541"><ele>2536</ele><time>2019-07-27T22:45:00Z</time></trkpt>
<trkpt lat="46.819007" lon="-121.755536"><ele>2544</ele><time>2019-07-27T22:45:00Z</time></trkpt>
<trkpt lat="46.819039" lon="-121.755502"><ele>2540</ele><time>2019-07-27T22:46:00Z</time></trkpt>
<trkpt lat="46.819089" lon="-121.755488"><ele>2540</ele><time>2019-07-27T22:46:00Z</time></trkpt>
<trkpt lat="46.819134" lon="-121.755518"><ele>2543</ele><time>2019-07-27T22:46:00Z</time></trkpt>
<trkpt lat="46.819182" lon="-121.75553"><ele>2543</ele><time>2019-07-27T22:46:00Z</time></trkpt>
<trkpt lat="46.81924" lon="-121.755518"><ele>2557</ele><time>2019-07-27T22:47:00Z</time></trkpt>
<trkpt lat="46.819295" lon="-121.755532"><ele>2555</ele><time>2019-07-27T22:47:00Z</time></trkpt>
<trkpt lat="46.81941" lon="-121.755558"><ele>2562</ele><time>2019-07-27T22:48:00Z</time></trkpt>
<trkpt lat="46.819461" lon="-121.755533"><ele>2553</ele><time>2019-07-27T22:48:00Z</time></trkpt>
<trkpt lat="46.819502" lon="-121.755594"><ele>2559</ele><time>2019-07-27T22:48:00Z</time></trkpt>
<trkpt lat="46.819547" lon="-121.755622"><ele>2565</ele><time>2019-07-27T22:48:00Z</time></trkpt>
<trkpt lat="46.819596" lon="-121.755567"><ele>2563</ele><time>2019-07-27T22:49:00Z</time></trkpt>
<trkpt lat="46.819664" lon="-121.755565"><ele>2565</ele><time>2019-07-27T22:49:00Z</time></trkpt>
<trkpt lat="46.819709" lon="-121.755541"><ele>2560</ele><time>2019-07-27T22:49:00Z</time></trkpt>
<trkpt lat="46.819768" lon="-121.755576"><ele>2567</ele><time>2019-07-27T22:49:00Z</time></trkpt>
<trkpt lat="46.819813" lon="-121.755556"><ele>2564</ele><time>2019-07-27T22:50:00Z</time></trkpt>
<trkpt lat="46.819861" lon="-121.755577"><ele>2577</ele><time>2019-07-27T22:50:00Z</time></trkpt>
<trkpt lat="46.819897" lon="-121.755519"><ele>2582</ele><time>2019-07-27T22:51:00Z</time></trkpt>
<trkpt lat="46.819939" lon="-121.755463"><ele>2583</ele><time>2019-07-27T22:51:00Z</time></trkpt>
<trkpt lat="46.820034" lon="-121.755443"><ele>2585</ele><time>2019-07-27T22:51:00Z</time></trkpt>
<trkpt lat="46.82008" lon="-121.755425"><ele>2575</ele><time>2019-07-27T22:52:00Z</time></trkpt>
<trkpt lat="46.820121" lon="-121.755397"><ele>2571</ele><time>2019-07-27T22:52:00Z</time></trkpt>
<trkpt lat="46.820185" lon="-121.75542"><ele>2584</ele><time>2019-07-27T22:52:00Z</time></trkpt>
<trkpt lat="46.820294" lon="-121.755326"><ele>2594</ele><time>2019-07-27T22:53:00Z</time></trkpt>
<trkpt lat="46.820341" lon="-121.755302"><ele>2600</ele><time>2019-07-27T22:53:00Z</time></trkpt>
<trkpt lat="46.82041" lon="-121.755311"><ele>2598</ele><time>2019-07-27T22:53:00Z</time></trkpt>
<trkpt lat="46.820504" lon="-121.755318"><ele>2590</ele><time>2019-07-27T22:54:00Z</time></trkpt>
<trkpt lat="46.820553" lon="-121.755306"><ele>2595</ele><time>2019-07-27T22:54:00Z</time></trkpt>
<trkpt lat="46.820643" lon="-121.755373"><ele>2598</ele><time>2019-07-27T22:55:00Z</time></trkpt>
<trkpt lat="46.820715" lon="-121.755406"><ele>2598</ele><time>2019-07-27T22:55:00Z</time></trkpt>
<trkpt lat="46.820743" lon="-121.755491"><ele>2596</ele><time>2019-07-27T22:55:00Z</time></trkpt>
<trkpt lat="46.820778" lon="-121.75553"><ele>2597</ele><time>2019-07-27T22:56:00Z</time></trkpt>
<trkpt lat="46.820811" lon="-121.755482"><ele>2594</ele><time>2019-07-27T22:56:00Z</time></trkpt>
<trkpt lat="46.820893" lon="-121.755507"><ele>2595</ele><time>2019-07-27T22:56:00Z</time></trkpt>
<trkpt lat="46.820897" lon="-121.755608"><ele>2594</ele><time>2019-07-27T22:56:00Z</time></trkpt>
<trkpt lat="46.820937" lon="-121.75566"><ele>2596</ele><time>2019-07-27T22:56:00Z</time></trkpt>
<trkpt lat="46.820989" lon="-121.755664"><ele>2604</ele><time>2019-07-27T22:57:00Z</time></trkpt>
<trkpt lat="46.821076" lon="-121.755622"><ele>2608</ele><time>2019-07-27T22:57:00Z</time></trkpt>
<trkpt lat="46.821158" lon="-121.755664"><ele>2603</ele><time>2019-07-27T22:57:00Z</time></trkpt>
<trkpt lat="46.821196" lon="-121.755689"><ele>2606</ele><time>2019-07-27T22:58:00Z</time></trkpt>
<trkpt lat="46.82122" lon="-121.755785"><ele>2601</ele><time>2019-07-27T22:58:00Z</time></trkpt>
<trkpt lat="46.821283" lon="-121.755786"><ele>2606</ele><time>2019-07-27T22:58:00Z</time></trkpt>
<trkpt lat="46.821325" lon="-121.755804"><ele>2606</ele><time>2019-07-27T22:59:00Z</time></trkpt>
<trkpt lat="46.821379" lon="-121.755876"><ele>2608</ele><time>2019-07-27T22:59:00Z</time></trkpt>
<trkpt lat="46.821433" lon="-121.755861"><ele>2616</ele><time>2019-07-27T22:59:00Z</time></trkpt>
<trkpt lat="46.821542" lon="-121.755912"><ele>2609</ele><time>2019-07-27T23:00:00Z</time></trkpt>
<trkpt lat="46.821618" lon="-121.75591"><ele>2614</ele><time>2019-07-27T23:00:00Z</time></trkpt>
<trkpt lat="46.821657" lon="-121.755948"><ele>2614</ele><time>2019-07-27T23:01:00Z</time></trkpt>
<trkpt lat="46.821703" lon="-121.755932"><ele>2618</ele><time>2019-07-27T23:01:00Z</time></trkpt>
<trkpt lat="46.821755" lon="-121.755947"><ele>2612</ele><time>2019-07-27T23:01:00Z</time></trkpt>
<trkpt lat="46.82183" lon="-121.756036"><ele>2618</ele><time>2019-07-27T23:01:00Z</time></trkpt>
<trkpt lat="46.82185" lon="-121.756091"><ele>2618</ele><time>2019-07-27T23:02:00Z</time></trkpt>
<trkpt lat="46.821894" lon="-121.756103"><ele>2619</ele><time>2019-07-27T23:02:00Z</time></trkpt>
<trkpt lat="46.821925" lon="-121.756151"><ele>2618</ele><time>2019-07-27T23:02:00Z</time></trkpt>
<trkpt lat="46.821986" lon="-121.756216"><ele>2625</ele><time>2019-07-27T23:03:00Z</time></trkpt>
<trkpt lat="46.822021" lon="-121.756305"><ele>2628</ele><time>2019-07-27T23:03:00Z</time></trkpt>
<trkpt lat="46.822061" lon="-121.756349"><ele>2635</ele><time>2019-07-27T23:04:00Z</time></trkpt>
<trkpt lat="46.822088" lon="-121.756407"><ele>2642</ele><time>2019-07-27T23:04:00Z</time></trkpt>
<trkpt lat="46.822124" lon="-121.756329"><ele>2636</ele><time>2019-07-27T23:05:00Z</time></trkpt>
<trkpt lat="46.822156" lon="-121.756418"><ele>2636</ele><time>2019-07-27T23:05:00Z</time></trkpt>
<trkpt lat="46.822186" lon="-121.756508"><ele>2644</ele><time>2019-07-27T23:06:00Z</time></trkpt>
<trkpt lat="46.822217" lon="-121.756557"><ele>2650</ele><time>2019-07-27T23:06:00Z</time></trkpt>
<trkpt lat="46.822276" lon="-121.756504"><ele>2657</ele><time>2019-07-27T23:07:00Z</time></trkpt>
<trkpt lat="46.822325" lon="-121.756488"><ele>2658</ele><time>2019-07-27T23:07:00Z</time></trkpt>
<trkpt lat="46.822356" lon="-121.756521"><ele>2652</ele><time>2019-07-27T23:07:00Z</time></trkpt>
<trkpt lat="46.822373" lon="-121.756617"><ele>2654</ele><time>2019-07-27T23:08:00Z</time></trkpt>
<trkpt lat="46.822393" lon="-121.756665"><ele>2659</ele><time>2019-07-27T23:09:00Z</time></trkpt>
<trkpt lat="46.8224" lon="-121.756736"><ele>2659</ele><time>2019-07-27T23:09:00Z</time></trkpt>
<trkpt lat="46.822438" lon="-121.756779"><ele>2661</ele><time>2019-07-27T23:09:00Z</time></trkpt>
<trkpt lat="46.82247" lon="-121.756872"><ele>2666</ele><time>2019-07-27T23:10:00Z</time></trkpt>
<trkpt lat="46.822513" lon="-121.756817"><ele>2667</ele><time>2019-07-27T23:12:00Z</time></trkpt>
<trkpt lat="46.822544" lon="-121.756781"><ele>2679</ele><time>2019-07-27T23:13:00Z</time></trkpt>
<trkpt lat="46.822633" lon="-121.756715"><ele>2672</ele><time>2019-07-27T23:13:00Z</time></trkpt>
<trkpt lat="46.822629" lon="-121.756633"><ele>2684</ele><time>2019-07-27T23:14:00Z</time></trkpt>
<trkpt lat="46.822654" lon="-121.756565"><ele>2682</ele><time>2019-07-27T23:14:00Z</time></trkpt>
<trkpt lat="46.822691" lon="-121.756511"><ele>2689</ele><time>2019-07-27T23:15:00Z</time></trkpt>
<trkpt lat="46.822702" lon="-121.756449"><ele>2696</ele><time>2019-07-27T23:16:00Z</time></trkpt>
<trkpt lat="46.822715" lon="-121.756384"><ele>2690</ele><time>2019-07-27T23:16:00Z</time></trkpt>
<trkpt lat="46.822761" lon="-121.756365"><ele>2686</ele><time>2019-07-27T23:17:00Z</time></trkpt>
<trkpt lat="46.822827" lon="-121.756382"><ele>2690</ele><time>2019-07-27T23:17:00Z</time></trkpt>
<trkpt lat="46.822861" lon="-121.756354"><ele>2695</ele><time>2019-07-27T23:18:00Z</time></trkpt>
<trkpt lat="46.822867" lon="-121.75628"><ele>2694</ele><time>2019-07-27T23:19:00Z</time></trkpt>
<trkpt lat="46.822921" lon="-121.756205"><ele>2701</ele><time>2019-07-27T23:20:00Z</time></trkpt>
<trkpt lat="46.822959" lon="-121.756167"><ele>2700</ele><time>2019-07-27T23:20:00Z</time></trkpt>
<trkpt lat="46.823022" lon="-121.75618"><ele>2703</ele><time>2019-07-27T23:21:00Z</time></trkpt>
<trkpt lat="46.823056" lon="-121.756125"><ele>2709</ele><time>2019-07-27T23:21:00Z</time></trkpt>
<trkpt lat="46.823123" lon="-121.756088"><ele>2714</ele><time>2019-07-27T23:21:00Z</time></trkpt>
<trkpt lat="46.823168" lon="-121.756131"><ele>2715</ele><time>2019-07-27T23:22:00Z</time></trkpt>
<trkpt lat="46.823205" lon="-121.756106"><ele>2713</ele><time>2019-07-27T23:29:00Z</time></trkpt>
<trkpt lat="46.823278" lon="-121.75607"><ele>2716</ele><time>2019-07-27T23:29:00Z</time></trkpt>
<trkpt lat="46.823352" lon="-121.756033"><ele>2722</ele><time>2019-07-27T23:30:00Z</time></trkpt>
<trkpt lat="46.823438" lon="-121.756097"><ele>2722</ele><time>2019-07-27T23:30:00Z</time></trkpt>
<trkpt lat="46.823506" lon="-121.756096"><ele>2727</ele><time>2019-07-27T23:31:00Z</time></trkpt>
<trkpt lat="46.823538" lon="-121.756047"><ele>2729</ele><time>2019-07-27T23:31:00Z</time></trkpt>
<trkpt lat="46.823588" lon="-121.756035"><ele>2733</ele><time>2019-07-27T23:32:00Z</time></trkpt>
<trkpt lat="46.823658" lon="-121.756049"><ele>2733</ele><time>2019-07-27T23:33:00Z</time></trkpt>
<trkpt lat="46.823728" lon="-121.756042"><ele>2735</ele><time>2019-07-27T23:33:00Z</time></trkpt>
<trkpt lat="46.82381" lon="-121.755998"><ele>2741</ele><time>2019-07-27T23:33:00Z</time></trkpt>
<trkpt lat="46.82389" lon="-121.755938"><ele>2741</ele><time>2019-07-27T23:34:00Z</time></trkpt>
<trkpt lat="46.823913" lon="-121.755982"><ele>2741</ele><time>2019-07-27T23:34:00Z</time></trkpt>
<trkpt lat="46.823962" lon="-121.755974"><ele>2743</ele><time>2019-07-27T23:34:00Z</time></trkpt>
<trkpt lat="46.824009" lon="-121.755963"><ele>2743</ele><time>2019-07-27T23:35:00Z</time></trkpt>
<trkpt lat="46.824083" lon="-121.755947"><ele>2749</ele><time>2019-07-27T23:36:00Z</time></trkpt>
<trkpt lat="46.824156" lon="-121.755915"><ele>2753</ele><time>2019-07-27T23:36:00Z</time></trkpt>
<trkpt lat="46.82421" lon="-121.755911"><ele>2756</ele><time>2019-07-27T23:37:00Z</time></trkpt>
<trkpt lat="46.824284" lon="-121.755898"><ele>2758</ele><time>2019-07-27T23:37:00Z</time></trkpt>
<trkpt lat="46.824332" lon="-121.755889"><ele>2763</ele><time>2019-07-27T23:38:00Z</time></trkpt>
<trkpt lat="46.824374" lon="-121.755937"><ele>2765</ele><time>2019-07-27T23:38:00Z</time></trkpt>
<trkpt lat="46.824417" lon="-121.755969"><ele>2763</ele><time>2019-07-27T23:39:00Z</time></trkpt>
<trkpt lat="46.8244" lon="-121.756022"><ele>2764</ele><time>2019-07-27T23:39:00Z</time></trkpt>
<trkpt lat="46.824461" lon="-121.756057"><ele>2771</ele><time>2019-07-27T23:41:00Z</time></trkpt>
<trkpt lat="46.824499" lon="-121.756243"><ele>2783</ele><time>2019-07-27T23:43:00Z</time></trkpt>
<trkpt lat="46.824459" lon="-121.756265"><ele>2781</ele><time>2019-07-27T23:43:00Z</time></trkpt>
<trkpt lat="46.824499" lon="-121.756241"><ele>2779</ele><time>2019-07-27T23:44:00Z</time></trkpt>
<trkpt lat="46.824527" lon="-121.756309"><ele>2795</ele><time>2019-07-27T23:46:00Z</time></trkpt>
<trkpt lat="46.824536" lon="-121.756377"><ele>2802</ele><time>2019-07-27T23:47:00Z</time></trkpt>
<trkpt lat="46.824551" lon="-121.756444"><ele>2801</ele><time>2019-07-27T23:47:00Z</time></trkpt>
<trkpt lat="46.824621" lon="-121.756463"><ele>2799</ele><time>2019-07-27T23:47:00Z</time></trkpt>
<trkpt lat="46.824666" lon="-121.756441"><ele>2799</ele><time>2019-07-27T23:48:00Z</time></trkpt>
<trkpt lat="46.824715" lon="-121.756476"><ele>2800</ele><time>2019-07-27T23:48:00Z</time></trkpt>
<trkpt lat="46.824767" lon="-121.756488"><ele>2803</ele><time>2019-07-27T23:49:00Z</time></trkpt>
<trkpt lat="46.824827" lon="-121.756513"><ele>2805</ele><time>2019-07-27T23:49:00Z</time></trkpt>
<trkpt lat="46.824865" lon="-121.756535"><ele>2808</ele><time>2019-07-27T23:50:00Z</time></trkpt>
<trkpt lat="46.824914" lon="-121.756521"><ele>2809</ele><time>2019-07-27T23:50:00Z</time></trkpt>
<trkpt lat="46.824986" lon="-121.756564"><ele>2816</ele><time>2019-07-27T23:51:00Z</time></trkpt>
<trkpt lat="46.825055" lon="-121.756584"><ele>2809</ele><time>2019-07-27T23:52:00Z</time></trkpt>
<trkpt lat="46.825124" lon="-121.756567"><ele>2820</ele><time>2019-07-27T23:53:00Z</time></trkpt>
<trkpt lat="46.825154" lon="-121.756629"><ele>2826</ele><time>2019-07-27T23:53:00Z</time></trkpt>
<trkpt lat="46.825198" lon="-121.756784"><ele>2828</ele><time>2019-07-27T23:53:00Z</time></trkpt>
<trkpt lat="46.82517" lon="-121.756854"><ele>2840</ele><time>2019-07-27T23:54:00Z</time></trkpt>
<trkpt lat="46.825225" lon="-121.756962"><ele>2838</ele><time>2019-07-27T23:55:00Z</time></trkpt>
<trkpt lat="46.825274" lon="-121.756994"><ele>2838</ele><time>2019-07-27T23:55:00Z</time></trkpt>
<trkpt lat="46.825315" lon="-121.757039"><ele>2838</ele><time>2019-07-27T23:56:00Z</time></trkpt>
<trkpt lat="46.825359" lon="-121.757066"><ele>2842</ele><time>2019-07-27T23:56:00Z</time></trkpt>
<trkpt lat="46.825414" lon="-121.7571"><ele>2844</ele><time>2019-07-27T23:57:00Z</time></trkpt>
<trkpt lat="46.825465" lon="-121.757131"><ele>2850</ele><time>2019-07-27T23:58:00Z</time></trkpt>
<trkpt lat="46.825522" lon="-121.757196"><ele>2866</ele><time>2019-07-27T23:58:00Z</time></trkpt>
<trkpt lat="46.825659" lon="-121.757221"><ele>2871</ele><time>2019-07-27T23:59:00Z</time></trkpt>
<trkpt lat="46.825615" lon="-121.757241"><ele>2861</ele><time>2019-07-28T00:00:00Z</time></trkpt>
<trkpt lat="46.825644" lon="-121.757316"><ele>2861</ele><time>2019-07-28T00:00:00Z</time></trkpt>
<trkpt lat="46.825697" lon="-121.757285"><ele>2857</ele><time>2019-07-28T00:01:00Z</time></trkpt>
<trkpt lat="46.825777" lon="-121.757278"><ele>2857</ele><time>2019-07-28T00:02:00Z</time></trkpt>
<trkpt lat="46.82583" lon="-121.757359"><ele>2863</ele><time>2019-07-28T00:02:00Z</time></trkpt>
<trkpt lat="46.825864" lon="-121.757406"><ele>2868</ele><time>2019-07-28T00:03:00Z</time></trkpt>
<trkpt lat="46.825901" lon="-121.757468"><ele>2872</ele><time>2019-07-28T00:03:00Z</time></trkpt>
<trkpt lat="46.825952" lon="-121.757508"><ele>2868</ele><time>2019-07-28T00:03:00Z</time></trkpt>
<trkpt lat="46.826001" lon="-121.7575"><ele>2865</ele><time>2019-07-28T00:04:00Z</time></trkpt>
<trkpt lat="46.826049" lon="-121.757463"><ele>2866</ele><time>2019-07-28T00:04:00Z</time></trkpt>
<trkpt lat="46.826065" lon="-121.7574"><ele>2867</ele><time>2019-07-28T00:04:00Z</time></trkpt>
<trkpt lat="46.826103" lon="-121.757354"><ele>2867</ele><time>2019-07-28T00:04:00Z</time></trkpt>
<trkpt lat="46.826195" lon="-121.757378"><ele>2871</ele><time>2019-07-28T00:05:00Z</time></trkpt>
<trkpt lat="46.826233" lon="-121.757325"><ele>2875</ele><time>2019-07-28T00:05:00Z</time></trkpt>
<trkpt lat="46.826343" lon="-121.757332"><ele>2881</ele><time>2019-07-28T00:06:00Z</time></trkpt>
<trkpt lat="46.826393" lon="-121.757418"><ele>2879</ele><time>2019-07-28T00:06:00Z</time></trkpt>
<trkpt lat="46.826443" lon="-121.757432"><ele>2877</ele><time>2019-07-28T00:07:00Z</time></trkpt>
<trkpt lat="46.826526" lon="-121.75729"><ele>2882</ele><time>2019-07-28T00:08:00Z</time></trkpt>
<trkpt lat="46.826576" lon="-121.757327"><ele>2882</ele><time>2019-07-28T00:08:00Z</time></trkpt>
<trkpt lat="46.826594" lon="-121.757384"><ele>2883</ele><time>2019-07-28T00:08:00Z</time></trkpt>
<trkpt lat="46.826644" lon="-121.757389"><ele>2884</ele><time>2019-07-28T00:09:00Z</time></trkpt>
<trkpt lat="46.826669" lon="-121.757323"><ele>2891</ele><time>2019-07-28T00:09:00Z</time></trkpt>
<trkpt lat="46.826738" lon="-121.757386"><ele>2891</ele><time>2019-07-28T00:10:00Z</time></trkpt>
<trkpt lat="46.826768" lon="-121.757338"><ele>2897</ele><time>2019-07-28T00:10:00Z</time></trkpt>
<trkpt lat="46.826822" lon="-121.757387"><ele>2897</ele><time>2019-07-28T00:11:00Z</time></trkpt>
<trkpt lat="46.826848" lon="-121.757343"><ele>2900</ele><time>2019-07-28T00:12:00Z</time></trkpt>
<trkpt lat="46.8269" lon="-121.757344"><ele>2910</ele><time>2019-07-28T00:13:00Z</time></trkpt>
<trkpt lat="46.826924" lon="-121.757414"><ele>2909</ele><time>2019-07-28T00:13:00Z</time></trkpt>
<trkpt lat="46.826962" lon="-121.757378"><ele>2907</ele><time>2019-07-28T00:13:00Z</time></trkpt>
<trkpt lat="46.826996" lon="-121.757431"><ele>2904</ele><time>2019-07-28T00:13:00Z</time></trkpt>
<trkpt lat="46.827056" lon="-121.757422"><ele>2915</ele><time>2019-07-28T00:15:00Z</time></trkpt>
<trkpt lat="46.827119" lon="-121.757442"><ele>2917</ele><time>2019-07-28T00:15:00Z</time></trkpt>
<trkpt lat="46.827168" lon="-121.757475"><ele>2929</ele><time>2019-07-28T00:16:00Z</time></trkpt>
<trkpt lat="46.827139" lon="-121.757525"><ele>2925</ele><time>2019-07-28T00:17:00Z</time></trkpt>
<trkpt lat="46.827126" lon="-121.757595"><ele>2921</ele><time>2019-07-28T00:17:00Z</time></trkpt>
<trkpt lat="46.827144" lon="-121.757659"><ele>2919</ele><time>2019-07-28T00:18:00Z</time></trkpt>
<trkpt lat="46.827123" lon="-121.757739"><ele>2927</ele><time>2019-07-28T00:18:00Z</time></trkpt>
<trkpt lat="46.82712" lon="-121.757886"><ele>2931</ele><time>2019-07-28T00:19:00Z</time></trkpt>
<trkpt lat="46.827085" lon="-121.757949"><ele>2925</ele><time>2019-07-28T00:19:00Z</time></trkpt>
<trkpt lat="46.827067" lon="-121.758013"><ele>2923</ele><time>2019-07-28T00:20:00Z</time></trkpt>
<trkpt lat="46.827115" lon="-121.758024"><ele>2931</ele><time>2019-07-28T00:26:00Z</time></trkpt>
<trkpt lat="46.827177" lon="-121.75809"><ele>2930</ele><time>2019-07-28T00:26:00Z</time></trkpt>
<trkpt lat="46.827257" lon="-121.758101"><ele>2936</ele><time>2019-07-28T00:27:00Z</time></trkpt>
<trkpt lat="46.827303" lon="-121.758121"><ele>2936</ele><time>2019-07-28T00:27:00Z</time></trkpt>
<trkpt lat="46.827344" lon="-121.758153"><ele>2939</ele><time>2019-07-28T00:28:00Z</time></trkpt>
<trkpt lat="46.827388" lon="-121.758288"><ele>2940</ele><time>2019-07-28T00:29:00Z</time></trkpt>
<trkpt lat="46.827442" lon="-121.758321"><ele>2950</ele><time>2019-07-28T00:30:00Z</time></trkpt>
<trkpt lat="46.82747" lon="-121.758371"><ele>2951</ele><time>2019-07-28T00:30:00Z</time></trkpt>
<trkpt lat="46.827485" lon="-121.758439"><ele>2955</ele><time>2019-07-28T00:31:00Z</time></trkpt>
<trkpt lat="46.827534" lon="-121.758469"><ele>2955</ele><time>2019-07-28T00:32:00Z</time></trkpt>
<trkpt lat="46.827552" lon="-121.758523"><ele>2954</ele><time>2019-07-28T00:33:00Z</time></trkpt>
<trkpt lat="46.827505" lon="-121.7585"><ele>2957</ele><time>2019-07-28T00:37:00Z</time></trkpt>
<trkpt lat="46.827588" lon="-121.758526"><ele>2957</ele><time>2019-07-28T00:40:00Z</time></trkpt>
<trkpt lat="46.827661" lon="-121.758592"><ele>2964</ele><time>2019-07-28T00:41:00Z</time></trkpt>
<trkpt lat="46.827702" lon="-121.75864"><ele>2968</ele><time>2019-07-28T00:42:00Z</time></trkpt>
<trkpt lat="46.827721" lon="-121.758588"><ele>2968</ele><time>2019-07-28T00:42:00Z</time></trkpt>
<trkpt lat="46.827817" lon="-121.758707"><ele>2976</ele><time>2019-07-28T00:43:00Z</time></trkpt>
<trkpt lat="46.82781" lon="-121.758634"><ele>2972</ele><time>2019-07-28T00:44:00Z</time></trkpt>
<trkpt lat="46.827857" lon="-121.758679"><ele>2977</ele><time>2019-07-28T00:44:00Z</time></trkpt>
<trkpt lat="46.827931" lon="-121.75876"><ele>2984</ele><time>2019-07-28T00:44:00Z</time></trkpt>
<trkpt lat="46.827967" lon="-121.758806"><ele>2984</ele><time>2019-07-28T00:45:00Z</time></trkpt>
<trkpt lat="46.828" lon="-121.758865"><ele>2981</ele><time>2019-07-28T00:46:00Z</time></trkpt>
<trkpt lat="46.828059" lon="-121.758904"><ele>2989</ele><time>2019-07-28T00:46:00Z</time></trkpt>
<trkpt lat="46.828107" lon="-121.758915"><ele>2992</ele><time>2019-07-28T00:47:00Z</time></trkpt>
<trkpt lat="46.828147" lon="-121.758939"><ele>2990</ele><time>2019-07-28T00:47:00Z</time></trkpt>
<trkpt lat="46.82818" lon="-121.758998"><ele>2989</ele><time>2019-07-28T00:47:00Z</time></trkpt>
<trkpt lat="46.828213" lon="-121.75903"><ele>2994</ele><time>2019-07-28T00:48:00Z</time></trkpt>
<trkpt lat="46.828288" lon="-121.759104"><ele>2998</ele><time>2019-07-28T00:48:00Z</time></trkpt>
<trkpt lat="46.828356" lon="-121.759192"><ele>3001</ele><time>2019-07-28T00:49:00Z</time></trkpt>
<trkpt lat="46.828409" lon="-121.759189"><ele>3007</ele><time>2019-07-28T00:50:00Z</time></trkpt>
<trkpt lat="46.828448" lon="-121.759232"><ele>3008</ele><time>2019-07-28T00:50:00Z</time></trkpt>
<trkpt lat="46.828509" lon="-121.759272"><ele>3011</ele><time>2019-07-28T00:51:00Z</time></trkpt>
<trkpt lat="46.828567" lon="-121.759286"><ele>3019</ele><time>2019-07-28T00:52:00Z</time></trkpt>
<trkpt lat="46.828594" lon="-121.759325"><ele>3021</ele><time>2019-07-28T00:53:00Z</time></trkpt>
<trkpt lat="46.828616" lon="-121.75938"><ele>3025</ele><time>2019-07-28T00:53:00Z</time></trkpt>
<trkpt lat="46.82867" lon="-121.759405"><ele>3029</ele><time>2019-07-28T00:54:00Z</time></trkpt>
<trkpt lat="46.828729" lon="-121.759399"><ele>3032</ele><time>2019-07-28T00:55:00Z</time></trkpt>
<trkpt lat="46.828773" lon="-121.759442"><ele>3035</ele><time>2019-07-28T00:55:00Z</time></trkpt>
<trkpt lat="46.828795" lon="-121.759487"><ele>3041</ele><time>2019-07-28T00:56:00Z</time></trkpt>
<trkpt lat="46.828814" lon="-121.759592"><ele>3043</ele><time>2019-07-28T00:57:00Z</time></trkpt>
<trkpt lat="46.828863" lon="-121.759564"><ele>3043</ele><time>2019-07-28T00:57:00Z</time></trkpt>
<trkpt lat="46.828879" lon="-121.75962"><ele>3048</ele><time>2019-07-28T00:58:00Z</time></trkpt>
<trkpt lat="46.828937" lon="-121.75963"><ele>3050</ele><time>2019-07-28T00:59:00Z</time></trkpt>
<trkpt lat="46.828918" lon="-121.759737"><ele>3052</ele><time>2019-07-28T01:00:00Z</time></trkpt>
<trkpt lat="46.828965" lon="-121.759661"><ele>3050</ele><time>2019-07-28T01:00:00Z</time></trkpt>
<trkpt lat="46.829012" lon="-121.7597"><ele>3053</ele><time>2019-07-28T01:01:00Z</time></trkpt>
<trkpt lat="46.829002" lon="-121.759807"><ele>3056</ele><time>2019-07-28T01:03:00Z</time></trkpt>
<trkpt lat="46.829043" lon="-121.759777"><ele>3058</ele><time>2019-07-28T01:03:00Z</time></trkpt>
<trkpt lat="46.829088" lon="-121.759724"><ele>3054</ele><time>2019-07-28T01:03:00Z</time></trkpt>
<trkpt lat="46.829141" lon="-121.759726"><ele>3056</ele><time>2019-07-28T01:04:00Z</time></trkpt>
<trkpt lat="46.829187" lon="-121.759648"><ele>3060</ele><time>2019-07-28T01:04:00Z</time></trkpt>
<trkpt lat="46.829232" lon="-121.759617"><ele>3062</ele><time>2019-07-28T01:04:00Z</time></trkpt>
<trkpt lat="46.829193" lon="-121.759735"><ele>3065</ele><time>2019-07-28T01:05:00Z</time></trkpt>
<trkpt lat="46.829189" lon="-121.759816"><ele>3069</ele><time>2019-07-28T01:06:00Z</time></trkpt>
<trkpt lat="46.829213" lon="-121.759955"><ele>3073</ele><time>2019-07-28T01:07:00Z</time></trkpt>
<trkpt lat="46.8293" lon="-121.759887"><ele>3077</ele><time>2019-07-28T01:08:00Z</time></trkpt>
<trkpt lat="46.829343" lon="-121.759872"><ele>3079</ele><time>2019-07-28T01:08:00Z</time></trkpt>
<trkpt lat="46.829332" lon="-121.759943"><ele>3077</ele><time>2019-07-28T01:09:00Z</time></trkpt>
<trkpt lat="46.829309" lon="-121.76001"><ele>3077</ele><time>2019-07-28T01:09:00Z</time></trkpt>
<trkpt lat="46.829351" lon="-121.759984"><ele>3081</ele><time>2019-07-28T01:10:00Z</time></trkpt>
<trkpt lat="46.829345" lon="-121.760097"><ele>3083</ele><time>2019-07-28T01:10:00Z</time></trkpt>
<trkpt lat="46.829448" lon="-121.760003"><ele>3085</ele><time>2019-07-28T01:11:00Z</time></trkpt>
<trkpt lat="46.829415" lon="-121.76006"><ele>3089</ele><time>2019-07-28T01:12:00Z</time></trkpt>
<trkpt lat="46.829411" lon="-121.760187"><ele>3092</ele><time>2019-07-28T01:12:00Z</time></trkpt>
<trkpt lat="46.829482" lon="-121.760163"><ele>3095</ele><time>2019-07-28T01:13:00Z</time></trkpt>
<trkpt lat="46.829497" lon="-121.760093"><ele>3096</ele><time>2019-07-28T01:14:00Z</time></trkpt>
<trkpt lat="46.829528" lon="-121.760133"><ele>3096</ele><time>2019-07-28T01:14:00Z</time></trkpt>
<trkpt lat="46.829495" lon="-121.760233"><ele>3096</ele><time>2019-07-28T01:15:00Z</time></trkpt>
<trkpt lat="46.82957" lon="-121.760214"><ele>3099</ele><time>2019-07-28T01:16:00Z</time></trkpt>
<trkpt lat="46.82961" lon="-121.760158"><ele>3102</ele><time>2019-07-28T01:16:00Z</time></trkpt>
<trkpt lat="46.829569" lon="-121.760201"><ele>3104</ele><time>2019-07-28T01:17:00Z</time></trkpt>
<trkpt lat="46.82959" lon="-121.760258"><ele>3104</ele><time>2019-07-28T01:17:00Z</time></trkpt>
<trkpt lat="46.829648" lon="-121.760206"><ele>3107</ele><time>2019-07-28T01:18:00Z</time></trkpt>
<trkpt lat="46.82969" lon="-121.760169"><ele>3110</ele><time>2019-07-28T01:19:00Z</time></trkpt>
<trkpt lat="46.829708" lon="-121.76029"><ele>3111</ele><time>2019-07-28T01:20:00Z</time></trkpt>
<trkpt lat="46.829752" lon="-121.760205"><ele>3116</ele><time>2019-07-28T01:21:00Z</time></trkpt>
<trkpt lat="46.829787" lon="-121.760284"><ele>3119</ele><time>2019-07-28T01:22:00Z</time></trkpt>
<trkpt lat="46.829767" lon="-121.760391"><ele>3122</ele><time>2019-07-28T01:22:00Z</time></trkpt>
<trkpt lat="46.829763" lon="-121.760489"><ele>3122</ele><time>2019-07-28T01:23:00Z</time></trkpt>
<trkpt lat="46.829734" lon="-121.760637"><ele>3121</ele><time>2019-07-28T01:24:00Z</time></trkpt>
<trkpt lat="46.829785" lon="-121.76057"><ele>3126</ele><time>2019-07-28T01:25:00Z</time></trkpt>
<trkpt lat="46.829788" lon="-121.760667"><ele>3127</ele><time>2019-07-28T01:25:00Z</time></trkpt>
<trkpt lat="46.829781" lon="-121.760769"><ele>3130</ele><time>2019-07-28T01:26:00Z</time></trkpt>
<trkpt lat="46.829837" lon="-121.760766"><ele>3136</ele><time>2019-07-28T01:27:00Z</time></trkpt>
<trkpt lat="46.82987" lon="-121.760708"><ele>3133</ele><time>2019-07-28T01:28:00Z</time></trkpt>
<trkpt lat="46.829909" lon="-121.760671"><ele>3131</ele><time>2019-07-28T01:28:00Z</time></trkpt>
<trkpt lat="46.829958" lon="-121.760646"><ele>3131</ele><time>2019-07-28T01:28:00Z</time></trkpt>
<trkpt lat="46.830006" lon="-121.760615"><ele>3133</ele><time>2019-07-28T01:29:00Z</time></trkpt>
<trkpt lat="46.830029" lon="-121.760552"><ele>3134</ele><time>2019-07-28T01:29:00Z</time></trkpt>
<trkpt lat="46.830073" lon="-121.760566"><ele>3136</ele><time>2019-07-28T01:30:00Z</time></trkpt>
<trkpt lat="46.830073" lon="-121.760647"><ele>3141</ele><time>2019-07-28T01:31:00Z</time></trkpt>
<trkpt lat="46.830094" lon="-121.760707"><ele>3141</ele><time>2019-07-28T01:31:00Z</time></trkpt>
<trkpt lat="46.830134" lon="-121.760729"><ele>3146</ele><time>2019-07-28T01:31:00Z</time></trkpt>
<trkpt lat="46.830202" lon="-121.760747"><ele>3149</ele><time>2019-07-28T01:32:00Z</time></trkpt>
<trkpt lat="46.830244" lon="-121.760814"><ele>3150</ele><time>2019-07-28T01:33:00Z</time></trkpt>
<trkpt lat="46.830244" lon="-121.760893"><ele>3153</ele><time>2019-07-28T01:33:00Z</time></trkpt>
<trkpt lat="46.830241" lon="-121.761005"><ele>3155</ele><time>2019-07-28T01:34:00Z</time></trkpt>
<trkpt lat="46.830247" lon="-121.761137"><ele>3151</ele><time>2019-07-28T01:35:00Z</time></trkpt>
<trkpt lat="46.830269" lon="-121.761193"><ele>3152</ele><time>2019-07-28T01:35:00Z</time></trkpt>
<trkpt lat="46.830309" lon="-121.761215"><ele>3158</ele><time>2019-07-28T01:35:00Z</time></trkpt>
<trkpt lat="46.830345" lon="-121.761309"><ele>3161</ele><time>2019-07-28T01:36:00Z</time></trkpt>
<trkpt lat="46.830331" lon="-121.761389"><ele>3160</ele><time>2019-07-28T01:37:00Z</time></trkpt>
<trkpt lat="46.830384" lon="-121.761455"><ele>3169</ele><time>2019-07-28T01:38:00Z</time></trkpt>
<trkpt lat="46.830433" lon="-121.76147"><ele>3172</ele><time>2019-07-28T01:38:00Z</time></trkpt>
<trkpt lat="46.830515" lon="-121.761498"><ele>3179</ele><time>2019-07-28T01:39:00Z</time></trkpt>
<trkpt lat="46.830468" lon="-121.761579"><ele>3176</ele><time>2019-07-28T01:39:00Z</time></trkpt>
<trkpt lat="46.830538" lon="-121.761651"><ele>3181</ele><time>2019-07-28T01:40:00Z</time></trkpt>
<trkpt lat="46.830539" lon="-121.761732"><ele>3184</ele><time>2019-07-28T01:42:00Z</time></trkpt>
<trkpt lat="46.830541" lon="-121.761809"><ele>3186</ele><time>2019-07-28T01:42:00Z</time></trkpt>
<trkpt lat="46.830556" lon="-121.761903"><ele>3185</ele><time>2019-07-28T01:43:00Z</time></trkpt>
<trkpt lat="46.830603" lon="-121.762006"><ele>3190</ele><time>2019-07-28T01:45:00Z</time></trkpt>
<trkpt lat="46.830642" lon="-121.762048"><ele>3194</ele><time>2019-07-28T01:46:00Z</time></trkpt>
<trkpt lat="46.830629" lon="-121.762233"><ele>3205</ele><time>2019-07-28T01:50:00Z</time></trkpt>
<trkpt lat="46.83067" lon="-121.762275"><ele>3209</ele><time>2019-07-28T01:55:00Z</time></trkpt>
<trkpt lat="46.830758" lon="-121.762243"><ele>3209</ele><time>2019-07-28T01:55:00Z</time></trkpt>
<trkpt lat="46.830799" lon="-121.76218"><ele>3212</ele><time>2019-07-28T01:55:00Z</time></trkpt>
<trkpt lat="46.830847" lon="-121.76219"><ele>3214</ele><time>2019-07-28T01:56:00Z</time></trkpt>
<trkpt lat="46.830892" lon="-121.762217"><ele>3215</ele><time>2019-07-28T01:57:00Z</time></trkpt>
<trkpt lat="46.830942" lon="-121.762242"><ele>3218</ele><time>2019-07-28T01:58:00Z</time></trkpt>
<trkpt lat="46.831001" lon="-121.762172"><ele>3221</ele><time>2019-07-28T01:58:00Z</time></trkpt>
<trkpt lat="46.831049" lon="-121.762153"><ele>3224</ele><time>2019-07-28T01:59:00Z</time></trkpt>
<trkpt lat="46.831092" lon="-121.762122"><ele>3227</ele><time>2019-07-28T02:00:00Z</time></trkpt>
<trkpt lat="46.831126" lon="-121.762084"><ele>3232</ele><time>2019-07-28T02:00:00Z</time></trkpt>
<trkpt lat="46.831217" lon="-121.762017"><ele>3236</ele><time>2019-07-28T02:02:00Z</time></trkpt>
<trkpt lat="46.831323" lon="-121.762058"><ele>3236</ele><time>2019-07-28T02:03:00Z</time></trkpt>
<trkpt lat="46.831387" lon="-121.762038"><ele>3242</ele><time>2019-07-28T02:04:00Z</time></trkpt>
<trkpt lat="46.8314" lon="-121.762142"><ele>3248</ele><time>2019-07-28T02:04:00Z</time></trkpt>
<trkpt lat="46.831429" lon="-121.762246"><ele>3249</ele><time>2019-07-28T02:05:00Z</time></trkpt>
<trkpt lat="46.831465" lon="-121.762201"><ele>3254</ele><time>2019-07-28T02:06:00Z</time></trkpt>
<trkpt lat="46.831533" lon="-121.762177"><ele>3254</ele><time>2019-07-28T02:07:00Z</time></trkpt>
<trkpt lat="46.831567" lon="-121.762129"><ele>3256</ele><time>2019-07-28T02:07:00Z</time></trkpt>
<trkpt lat="46.831615" lon="-121.762139"><ele>3256</ele><time>2019-07-28T02:07:00Z</time></trkpt>
<trkpt lat="46.831637" lon="-121.762203"><ele>3259</ele><time>2019-07-28T02:09:00Z</time></trkpt>
<trkpt lat="46.8317" lon="-121.762191"><ele>3265</ele><time>2019-07-28T02:09:00Z</time></trkpt>
<trkpt lat="46.831745" lon="-121.762203"><ele>3270</ele><time>2019-07-28T02:09:00Z</time></trkpt>
<trkpt lat="46.831848" lon="-121.762085"><ele>3274</ele><time>2019-07-28T02:10:00Z</time></trkpt>
<trkpt lat="46.831902" lon="-121.762093"><ele>3275</ele><time>2019-07-28T02:11:00Z</time></trkpt>
<trkpt lat="46.831961" lon="-121.762077"><ele>3275</ele><time>2019-07-28T02:11:00Z</time></trkpt>
<trkpt lat="46.83201" lon="-121.762094"><ele>3276</ele><time>2019-07-28T02:12:00Z</time></trkpt>
<trkpt lat="46.832056" lon="-121.762076"><ele>3280</ele><time>2019-07-28T02:12:00Z</time></trkpt>
<trkpt lat="46.832069" lon="-121.761996"><ele>3280</ele><time>2019-07-28T02:13:00Z</time></trkpt>
<trkpt lat="46.832118" lon="-121.762004"><ele>3281</ele><time>2019-07-28T02:13:00Z</time></trkpt>
<trkpt lat="46.832163" lon="-121.761972"><ele>3286</ele><time>2019-07-28T02:13:00Z</time></trkpt>
<trkpt lat="46.832213" lon="-121.761963"><ele>3289</ele><time>2019-07-28T02:14:00Z</time></trkpt>
<trkpt lat="46.832268" lon="-121.761896"><ele>3292</ele><time>2019-07-28T02:15:00Z</time></trkpt>
<trkpt lat="46.832316" lon="-121.761828"><ele>3295</ele><time>2019-07-28T02:15:00Z</time></trkpt>
<trkpt lat="46.832337" lon="-121.761704"><ele>3296</ele><time>2019-07-28T02:16:00Z</time></trkpt>
<trkpt lat="46.832297" lon="-121.761733"><ele>3294</ele><time>2019-07-28T02:21:00Z</time></trkpt>
<trkpt lat="46.832587" lon="-121.762142"><ele>3275</ele><time>2019-07-28T11:21:00Z</time></trkpt>
<trkpt lat="46.832563" lon="-121.762185"><ele>3295</ele><time>2019-07-28T11:21:00Z</time></trkpt>
<trkpt lat="46.8326" lon="-121.76216"><ele>3292</ele><time>2019-07-28T11:21:00Z</time></trkpt>
<trkpt lat="46.832681" lon="-121.76216"><ele>3287</ele><time>2019-07-28T11:22:00Z</time></trkpt>
<trkpt lat="46.832673" lon="-121.762232"><ele>3282</ele><time>2019-07-28T11:22:00Z</time></trkpt>
<trkpt lat="46.832711" lon="-121.762279"><ele>3292</ele><time>2019-07-28T11:23:00Z</time></trkpt>
<trkpt lat="46.832746" lon="-121.762358"><ele>3302</ele><time>2019-07-28T11:23:00Z</time></trkpt>
<trkpt lat="46.83278" lon="-121.762405"><ele>3306</ele><time>2019-07-28T11:24:00Z</time></trkpt>
<trkpt lat="46.83281" lon="-121.762461"><ele>3318</ele><time>2019-07-28T11:25:00Z</time></trkpt>
<trkpt lat="46.832868" lon="-121.7625"><ele>3323</ele><time>2019-07-28T11:26:00Z</time></trkpt>
<trkpt lat="46.832912" lon="-121.762521"><ele>3331</ele><time>2019-07-28T11:26:00Z</time></trkpt>
<trkpt lat="46.832939" lon="-121.762465"><ele>3335</ele><time>2019-07-28T11:27:00Z</time></trkpt>
<trkpt lat="46.833007" lon="-121.762514"><ele>3340</ele><time>2019-07-28T11:28:00Z</time></trkpt>
<trkpt lat="46.83305" lon="-121.762495"><ele>3340</ele><time>2019-07-28T11:28:00Z</time></trkpt>
<trkpt lat="46.833089" lon="-121.762527"><ele>3350</ele><time>2019-07-28T11:29:00Z</time></trkpt>
<trkpt lat="46.833149" lon="-121.762512"><ele>3349</ele><time>2019-07-28T11:29:00Z</time></trkpt>
<trkpt lat="46.833224" lon="-121.762519"><ele>3353</ele><time>2019-07-28T11:30:00Z</time></trkpt>
<trkpt lat="46.833279" lon="-121.762568"><ele>3353</ele><time>2019-07-28T11:31:00Z</time></trkpt>
<trkpt lat="46.833339" lon="-121.762582"><ele>3353</ele><time>2019-07-28T11:31:00Z</time></trkpt>
<trkpt lat="46.833433" lon="-121.762607"><ele>3359</ele><time>2019-07-28T11:32:00Z</time></trkpt>
<trkpt lat="46.833483" lon="-121.762594"><ele>3363</ele><time>2019-07-28T11:32:00Z</time></trkpt>
<trkpt lat="46.833544" lon="-121.76266"><ele>3364</ele><time>2019-07-28T11:33:00Z</time></trkpt>
<trkpt lat="46.833629" lon="-121.762704"><ele>3372</ele><time>2019-07-28T11:34:00Z</time></trkpt>
<trkpt lat="46.83366" lon="-121.762781"><ele>3376</ele><time>2019-07-28T11:34:00Z</time></trkpt>
<trkpt lat="46.833708" lon="-121.762803"><ele>3379</ele><time>2019-07-28T11:35:00Z</time></trkpt>
<trkpt lat="46.833767" lon="-121.762861"><ele>3379</ele><time>2019-07-28T11:35:00Z</time></trkpt>
<trkpt lat="46.833843" lon="-121.762898"><ele>3382</ele><time>2019-07-28T11:36:00Z</time></trkpt>
<trkpt lat="46.833894" lon="-121.762951"><ele>3380</ele><time>2019-07-28T11:36:00Z</time></trkpt>
<trkpt lat="46.833892" lon="-121.762828"><ele>3389</ele><time>2019-07-28T11:36:00Z</time></trkpt>
<trkpt lat="46.833968" lon="-121.762803"><ele>3392</ele><time>2019-07-28T11:37:00Z</time></trkpt>
<trkpt lat="46.833992" lon="-121.762736"><ele>3395</ele><time>2019-07-28T11:38:00Z</time></trkpt>
<trkpt lat="46.834069" lon="-121.762698"><ele>3396</ele><time>2019-07-28T11:43:00Z</time></trkpt>
<trkpt lat="46.834104" lon="-121.762736"><ele>3397</ele><time>2019-07-28T11:43:00Z</time></trkpt>
<trkpt lat="46.834128" lon="-121.762794"><ele>3397</ele><time>2019-07-28T11:43:00Z</time></trkpt>
<trkpt lat="46.834176" lon="-121.762761"><ele>3394</ele><time>2019-07-28T11:44:00Z</time></trkpt>
<trkpt lat="46.834223" lon="-121.762801"><ele>3403</ele><time>2019-07-28T11:44:00Z</time></trkpt>
<trkpt lat="46.834258" lon="-121.762859"><ele>3405</ele><time>2019-07-28T11:45:00Z</time></trkpt>
<trkpt lat="46.834321" lon="-121.762858"><ele>3413</ele><time>2019-07-28T11:46:00Z</time></trkpt>
<trkpt lat="46.83437" lon="-121.762851"><ele>3416</ele><time>2019-07-28T11:46:00Z</time></trkpt>
<trkpt lat="46.834405" lon="-121.762806"><ele>3419</ele><time>2019-07-28T11:47:00Z</time></trkpt>
<trkpt lat="46.83446" lon="-121.76281"><ele>3418</ele><time>2019-07-28T11:47:00Z</time></trkpt>
<trkpt lat="46.834486" lon="-121.762907"><ele>3421</ele><time>2019-07-28T11:47:00Z</time></trkpt>
<trkpt lat="46.834497" lon="-121.762976"><ele>3424</ele><time>2019-07-28T11:48:00Z</time></trkpt>
<trkpt lat="46.83457" lon="-121.763087"><ele>3428</ele><time>2019-07-28T11:48:00Z</time></trkpt>
<trkpt lat="46.83463" lon="-121.763144"><ele>3431</ele><time>2019-07-28T11:49:00Z</time></trkpt>
<trkpt lat="46.834663" lon="-121.763058"><ele>3436</ele><time>2019-07-28T11:50:00Z</time></trkpt>
<trkpt lat="46.834701" lon="-121.763035"><ele>3440</ele><time>2019-07-28T11:50:00Z</time></trkpt>
<trkpt lat="46.834786" lon="-121.763032"><ele>3435</ele><time>2019-07-28T11:54:00Z</time></trkpt>
<trkpt lat="46.834726" lon="-121.763026"><ele>3440</ele><time>2019-07-28T11:54:00Z</time></trkpt>
<trkpt lat="46.834661" lon="-121.763085"><ele>3449</ele><time>2019-07-28T12:01:00Z</time></trkpt>
<trkpt lat="46.834734" lon="-121.763025"><ele>3440</ele><time>2019-07-28T12:02:00Z</time></trkpt>
<trkpt lat="46.834775" lon="-121.762998"><ele>3438</ele><time>2019-07-28T12:24:00Z</time></trkpt>
<trkpt lat="46.83481" lon="-121.763034"><ele>3442</ele><time>2019-07-28T12:24:00Z</time></trkpt>
<trkpt lat="46.83484" lon="-121.762972"><ele>3433</ele><time>2019-07-28T12:25:00Z</time></trkpt>
<trkpt lat="46.834877" lon="-121.763017"><ele>3431</ele><time>2019-07-28T12:40:00Z</time></trkpt>
<trkpt lat="46.83507" lon="-121.763006"><ele>3430</ele><time>2019-07-28T12:40:00Z</time></trkpt>
<trkpt lat="46.835114" lon="-121.762962"><ele>3434</ele><time>2019-07-28T12:40:00Z</time></trkpt>
<trkpt lat="46.835138" lon="-121.763046"><ele>3440</ele><time>2019-07-28T12:41:00Z</time></trkpt>
<trkpt lat="46.835196" lon="-121.763051"><ele>3436</ele><time>2019-07-28T12:41:00Z</time></trkpt>
<trkpt lat="46.835259" lon="-121.763055"><ele>3443</ele><time>2019-07-28T12:42:00Z</time></trkpt>
<trkpt lat="46.835308" lon="-121.76308"><ele>3445</ele><time>2019-07-28T12:42:00Z</time></trkpt>
<trkpt lat="46.835326" lon="-121.763145"><ele>3448</ele><time>2019-07-28T12:42:00Z</time></trkpt>
<trkpt lat="46.835389" lon="-121.763139"><ele>3440</ele><time>2019-07-28T12:43:00Z</time></trkpt>
<trkpt lat="46.835457" lon="-121.763197"><ele>3436</ele><time>2019-07-28T12:44:00Z</time></trkpt>
<trkpt lat="46.835462" lon="-121.763302"><ele>3444</ele><time>2019-07-28T12:44:00Z</time></trkpt>
<trkpt lat="46.835491" lon="-121.76336"><ele>3445</ele><time>2019-07-28T12:45:00Z</time></trkpt>
<trkpt lat="46.835578" lon="-121.763425"><ele>3448</ele><time>2019-07-28T12:45:00Z</time></trkpt>
<trkpt lat="46.835627" lon="-121.763537"><ele>3446</ele><time>2019-07-28T12:45:00Z</time></trkpt>
<trkpt lat="46.835655" lon="-121.763628"><ele>3449</ele><time>2019-07-28T12:45:00Z</time></trkpt>
<trkpt lat="46.835688" lon="-121.763682"><ele>3448</ele><time>2019-07-28T12:45:00Z</time></trkpt>
<trkpt lat="46.8357" lon="-121.763784"><ele>3445</ele><time>2019-07-28T12:46:00Z</time></trkpt>
<trkpt lat="46.835747" lon="-121.763839"><ele>3447</ele><time>2019-07-28T12:46:00Z</time></trkpt>
<trkpt lat="46.835776" lon="-121.763926"><ele>3450</ele><time>2019-07-28T12:46:00Z</time></trkpt>
<trkpt lat="46.835788" lon="-121.763994"><ele>3453</ele><time>2019-07-28T12:46:00Z</time></trkpt>
<trkpt lat="46.835843" lon="-121.764004"><ele>3456</ele><time>2019-07-28T12:50:00Z</time></trkpt>
<trkpt lat="46.835879" lon="-121.76398"><ele>3452</ele><time>2019-07-28T12:51:00Z</time></trkpt>
<trkpt lat="46.835937" lon="-121.76401"><ele>3454</ele><time>2019-07-28T12:52:00Z</time></trkpt>
<trkpt lat="46.835959" lon="-121.763957"><ele>3458</ele><time>2019-07-28T12:52:00Z</time></trkpt>
<trkpt lat="46.835952" lon="-121.763884"><ele>3461</ele><time>2019-07-28T12:53:00Z</time></trkpt>
<trkpt lat="46.836009" lon="-121.763949"><ele>3467</ele><time>2019-07-28T12:53:00Z</time></trkpt>
<trkpt lat="46.836066" lon="-121.763888"><ele>3468</ele><time>2019-07-28T12:56:00Z</time></trkpt>
<trkpt lat="46.836103" lon="-121.763921"><ele>3464</ele><time>2019-07-28T12:56:00Z</time></trkpt>
<trkpt lat="46.836143" lon="-121.763941"><ele>3475</ele><time>2019-07-28T12:57:00Z</time></trkpt>
<trkpt lat="46.836116" lon="-121.763902"><ele>3485</ele><time>2019-07-28T12:59:00Z</time></trkpt>
<trkpt lat="46.836173" lon="-121.763934"><ele>3479</ele><time>2019-07-28T12:59:00Z</time></trkpt>
<trkpt lat="46.836212" lon="-121.763971"><ele>3479</ele><time>2019-07-28T12:59:00Z</time></trkpt>
<trkpt lat="46.836258" lon="-121.763941"><ele>3485</ele><time>2019-07-28T13:00:00Z</time></trkpt>
<trkpt lat="46.836322" lon="-121.763907"><ele>3493</ele><time>2019-07-28T13:03:00Z</time></trkpt>
<trkpt lat="46.836375" lon="-121.763906"><ele>3497</ele><time>2019-07-28T13:04:00Z</time></trkpt>
<trkpt lat="46.836428" lon="-121.763911"><ele>3502</ele><time>2019-07-28T13:06:00Z</time></trkpt>
<trkpt lat="46.836399" lon="-121.763848"><ele>3505</ele><time>2019-07-28T13:07:00Z</time></trkpt>
<trkpt lat="46.836429" lon="-121.763786"><ele>3507</ele><time>2019-07-28T13:09:00Z</time></trkpt>
<trkpt lat="46.836487" lon="-121.763807"><ele>3510</ele><time>2019-07-28T13:10:00Z</time></trkpt>
<trkpt lat="46.83653" lon="-121.763847"><ele>3509</ele><time>2019-07-28T13:10:00Z</time></trkpt>
<trkpt lat="46.836545" lon="-121.763777"><ele>3516</ele><time>2019-07-28T13:13:00Z</time></trkpt>
<trkpt lat="46.836578" lon="-121.763737"><ele>3521</ele><time>2019-07-28T13:14:00Z</time></trkpt>
<trkpt lat="46.836569" lon="-121.763665"><ele>3523</ele><time>2019-07-28T13:15:00Z</time></trkpt>
<trkpt lat="46.836637" lon="-121.763622"><ele>3529</ele><time>2019-07-28T13:16:00Z</time></trkpt>
<trkpt lat="46.83668" lon="-121.763583"><ele>3535</ele><time>2019-07-28T13:19:00Z</time></trkpt>
<trkpt lat="46.836732" lon="-121.763577"><ele>3535</ele><time>2019-07-28T13:19:00Z</time></trkpt>
<trkpt lat="46.836768" lon="-121.76354"><ele>3544</ele><time>2019-07-28T13:20:00Z</time></trkpt>
<trkpt lat="46.836798" lon="-121.763505"><ele>3547</ele><time>2019-07-28T13:21:00Z</time></trkpt>
<trkpt lat="46.836843" lon="-121.763526"><ele>3545</ele><time>2019-07-28T13:21:00Z</time></trkpt>
<trkpt lat="46.83686" lon="-121.763471"><ele>3548</ele><time>2019-07-28T13:22:00Z</time></trkpt>
<trkpt lat="46.836904" lon="-121.763485"><ele>3544</ele><time>2019-07-28T13:22:00Z</time></trkpt>
<trkpt lat="46.836935" lon="-121.763564"><ele>3553</ele><time>2019-07-28T13:24:00Z</time></trkpt>
<trkpt lat="46.83699" lon="-121.763531"><ele>3552</ele><time>2019-07-28T13:24:00Z</time></trkpt>
<trkpt lat="46.83704" lon="-121.763509"><ele>3558</ele><time>2019-07-28T13:25:00Z</time></trkpt>
<trkpt lat="46.837067" lon="-121.763559"><ele>3556</ele><time>2019-07-28T13:25:00Z</time></trkpt>
<trkpt lat="46.837101" lon="-121.763476"><ele>3559</ele><time>2019-07-28T13:31:00Z</time></trkpt>
<trkpt lat="46.837036" lon="-121.763424"><ele>3567</ele><time>2019-07-28T13:37:00Z</time></trkpt>
<trkpt lat="46.837118" lon="-121.763472"><ele>3563</ele><time>2019-07-28T13:38:00Z</time></trkpt>
<trkpt lat="46.83709" lon="-121.763404"><ele>3574</ele><time>2019-07-28T13:51:00Z</time></trkpt>
<trkpt lat="46.837137" lon="-121.763427"><ele>3570</ele><time>2019-07-28T13:51:00Z</time></trkpt>
<trkpt lat="46.837196" lon="-121.763363"><ele>3566</ele><time>2019-07-28T13:52:00Z</time></trkpt>
<trkpt lat="46.837244" lon="-121.763326"><ele>3567</ele><time>2019-07-28T13:53:00Z</time></trkpt>
<trkpt lat="46.837306" lon="-121.763314"><ele>3568</ele><time>2019-07-28T13:53:00Z</time></trkpt>
<trkpt lat="46.837278" lon="-121.763395"><ele>3575</ele><time>2019-07-28T13:54:00Z</time></trkpt>
<trkpt lat="46.83728" lon="-121.76332"><ele>3577</ele><time>2019-07-28T13:55:00Z</time></trkpt>
<trkpt lat="46.837318" lon="-121.763361"><ele>3577</ele><time>2019-07-28T13:55:00Z</time></trkpt>
<trkpt lat="46.837339" lon="-121.763312"><ele>3578</ele><time>2019-07-28T13:55:00Z</time></trkpt>
<trkpt lat="46.837376" lon="-121.763269"><ele>3580</ele><time>2019-07-28T13:57:00Z</time></trkpt>
<trkpt lat="46.837408" lon="-121.763228"><ele>3580</ele><time>2019-07-28T13:57:00Z</time></trkpt>
<trkpt lat="46.83743" lon="-121.76316"><ele>3585</ele><time>2019-07-28T13:58:00Z</time></trkpt>
<trkpt lat="46.837439" lon="-121.763313"><ele>3594</ele><time>2019-07-28T14:00:00Z</time></trkpt>
<trkpt lat="46.83741" lon="-121.763211"><ele>3594</ele><time>2019-07-28T14:08:00Z</time></trkpt>
<trkpt lat="46.837733" lon="-121.763019"><ele>3627</ele><time>2019-07-28T15:08:00Z</time></trkpt>
<trkpt lat="46.838018" lon="-121.763078"><ele>3681</ele><time>2019-07-28T15:59:00Z</time></trkpt>
<trkpt lat="46.838065" lon="-121.762997"><ele>3662</ele><time>2019-07-28T15:59:00Z</time></trkpt>
<trkpt lat="46.838154" lon="-121.763016"><ele>3663</ele><time>2019-07-28T16:01:00Z</time></trkpt>
<trkpt lat="46.838217" lon="-121.763084"><ele>3669</ele><time>2019-07-28T16:02:00Z</time></trkpt>
<trkpt lat="46.838211" lon="-121.763014"><ele>3674</ele><time>2019-07-28T16:15:00Z</time></trkpt>
<trkpt lat="46.838225" lon="-121.763014"><ele>3673</ele><time>2019-07-28T16:24:00Z</time></trkpt>
<trkpt lat="46.838252" lon="-121.763053"><ele>3678</ele><time>2019-07-28T16:24:00Z</time></trkpt>
<trkpt lat="46.838314" lon="-121.763056"><ele>3684</ele><time>2019-07-28T16:25:00Z</time></trkpt>
<trkpt lat="46.838366" lon="-121.763003"><ele>3684</ele><time>2019-07-28T16:26:00Z</time></trkpt>
<trkpt lat="46.838402" lon="-121.762934"><ele>3683</ele><time>2019-07-28T16:26:00Z</time></trkpt>
<trkpt lat="46.838452" lon="-121.762902"><ele>3689</ele><time>2019-07-28T16:27:00Z</time></trkpt>
<trkpt lat="46.838431" lon="-121.762831"><ele>3692</ele><time>2019-07-28T16:28:00Z</time></trkpt>
<trkpt lat="46.838426" lon="-121.762717"><ele>3696</ele><time>2019-07-28T16:28:00Z</time></trkpt>
<trkpt lat="46.838459" lon="-121.762684"><ele>3701</ele><time>2019-07-28T16:29:00Z</time></trkpt>
<trkpt lat="46.83853" lon="-121.762726"><ele>3709</ele><time>2019-07-28T16:30:00Z</time></trkpt>
<trkpt lat="46.838573" lon="-121.762674"><ele>3709</ele><time>2019-07-28T16:31:00Z</time></trkpt>
<trkpt lat="46.838608" lon="-121.762727"><ele>3716</ele><time>2019-07-28T16:32:00Z</time></trkpt>
<trkpt lat="46.83862" lon="-121.76265"><ele>3724</ele><time>2019-07-28T16:33:00Z</time></trkpt>
<trkpt lat="46.838652" lon="-121.762616"><ele>3726</ele><time>2019-07-28T16:33:00Z</time></trkpt>
<trkpt lat="46.838668" lon="-121.762525"><ele>3712</ele><time>2019-07-28T16:33:00Z</time></trkpt>
<trkpt lat="46.838682" lon="-121.76238"><ele>3720</ele><time>2019-07-28T16:35:00Z</time></trkpt>
<trkpt lat="46.838715" lon="-121.76232"><ele>3723</ele><time>2019-07-28T16:35:00Z</time></trkpt>
<trkpt lat="46.838784" lon="-121.76238"><ele>3726</ele><time>2019-07-28T16:36:00Z</time></trkpt>
<trkpt lat="46.838792" lon="-121.762489"><ele>3736</ele><time>2019-07-28T16:37:00Z</time></trkpt>
<trkpt lat="46.838826" lon="-121.762576"><ele>3733</ele><time>2019-07-28T16:37:00Z</time></trkpt>
<trkpt lat="46.838859" lon="-121.762634"><ele>3732</ele><time>2019-07-28T16:37:00Z</time></trkpt>
<trkpt lat="46.838889" lon="-121.762753"><ele>3734</ele><time>2019-07-28T16:37:00Z</time></trkpt>
<trkpt lat="46.838918" lon="-121.762861"><ele>3731</ele><time>2019-07-28T16:38:00Z</time></trkpt>
<trkpt lat="46.838909" lon="-121.762745"><ele>3734</ele><time>2019-07-28T16:39:00Z</time></trkpt>
<trkpt lat="46.838929" lon="-121.762681"><ele>3734</ele><time>2019-07-28T16:39:00Z</time></trkpt>
<trkpt lat="46.838957" lon="-121.762519"><ele>3741</ele><time>2019-07-28T16:40:00Z</time></trkpt>
<trkpt lat="46.838971" lon="-121.7624"><ele>3746</ele><time>2019-07-28T16:41:00Z</time></trkpt>
<trkpt lat="46.839006" lon="-121.762347"><ele>3746</ele><time>2019-07-28T16:41:00Z</time></trkpt>
<trkpt lat="46.839004" lon="-121.762264"><ele>3748</ele><time>2019-07-28T16:42:00Z</time></trkpt>
<trkpt lat="46.839067" lon="-121.762205"><ele>3744</ele><time>2019-07-28T16:42:00Z</time></trkpt>
<trkpt lat="46.839075" lon="-121.762063"><ele>3754</ele><time>2019-07-28T16:43:00Z</time></trkpt>
<trkpt lat="46.839104" lon="-121.761986"><ele>3752</ele><time>2019-07-28T16:44:00Z</time></trkpt>
<trkpt lat="46.839125" lon="-121.761931"><ele>3757</ele><time>2019-07-28T16:44:00Z</time></trkpt>
<trkpt lat="46.839139" lon="-121.761847"><ele>3759</ele><time>2019-07-28T16:46:00Z</time></trkpt>
<trkpt lat="46.839302" lon="-121.761932"><ele>3763</ele><time>2019-07-28T16:46:00Z</time></trkpt>
<trkpt lat="46.839245" lon="-121.761903"><ele>3764</ele><time>2019-07-28T16:46:00Z</time></trkpt>
<trkpt lat="46.839306" lon="-121.761941"><ele>3765</ele><time>2019-07-28T16:46:00Z</time></trkpt>
<trkpt lat="46.83934" lon="-121.761975"><ele>3763</ele><time>2019-07-28T16:46:00Z</time></trkpt>
<trkpt lat="46.839301" lon="-121.761934"><ele>3766</ele><time>2019-07-28T16:47:00Z</time></trkpt>
<trkpt lat="46.839344" lon="-121.761988"><ele>3762</ele><time>2019-07-28T17:03:00Z</time></trkpt>
<trkpt lat="46.839352" lon="-121.76189"><ele>3766</ele><time>2019-07-28T17:03:00Z</time></trkpt>
<trkpt lat="46.839354" lon="-121.761804"><ele>3768</ele><time>2019-07-28T17:03:00Z</time></trkpt>
<trkpt lat="46.839392" lon="-121.761717"><ele>3772</ele><time>2019-07-28T17:04:00Z</time></trkpt>
<trkpt lat="46.839439" lon="-121.76168"><ele>3770</ele><time>2019-07-28T17:05:00Z</time></trkpt>
<trkpt lat="46.83948" lon="-121.761703"><ele>3775</ele><time>2019-07-28T17:06:00Z</time></trkpt>
<trkpt lat="46.839544" lon="-121.761647"><ele>3785</ele><time>2019-07-28T17:07:00Z</time></trkpt>
<trkpt lat="46.83958" lon="-121.761599"><ele>3784</ele><time>2019-07-28T17:07:00Z</time></trkpt>
<trkpt lat="46.839633" lon="-121.761595"><ele>3786</ele><time>2019-07-28T17:08:00Z</time></trkpt>
<trkpt lat="46.83965" lon="-121.761515"><ele>3790</ele><time>2019-07-28T17:08:00Z</time></trkpt>
<trkpt lat="46.839675" lon="-121.761444"><ele>3792</ele><time>2019-07-28T17:09:00Z</time></trkpt>
<trkpt lat="46.839655" lon="-121.761368"><ele>3792</ele><time>2019-07-28T17:09:00Z</time></trkpt>
<trkpt lat="46.839708" lon="-121.761288"><ele>3794</ele><time>2019-07-28T17:10:00Z</time></trkpt>
<trkpt lat="46.839734" lon="-121.761214"><ele>3795</ele><time>2019-07-28T17:11:00Z</time></trkpt>
<trkpt lat="46.839774" lon="-121.761275"><ele>3800</ele><time>2019-07-28T17:11:00Z</time></trkpt>
<trkpt lat="46.839843" lon="-121.761214"><ele>3808</ele><time>2019-07-28T17:13:00Z</time></trkpt>
<trkpt lat="46.839881" lon="-121.761254"><ele>3805</ele><time>2019-07-28T17:15:00Z</time></trkpt>
<trkpt lat="46.839923" lon="-121.761285"><ele>3807</ele><time>2019-07-28T17:15:00Z</time></trkpt>
<trkpt lat="46.839982" lon="-121.761242"><ele>3812</ele><time>2019-07-28T17:16:00Z</time></trkpt>
<trkpt lat="46.840041" lon="-121.761234"><ele>3812</ele><time>2019-07-28T17:16:00Z</time></trkpt>
<trkpt lat="46.840115" lon="-121.761228"><ele>3819</ele><time>2019-07-28T17:17:00Z</time></trkpt>
<trkpt lat="46.840223" lon="-121.76129"><ele>3823</ele><time>2019-07-28T17:18:00Z</time></trkpt>
<trkpt lat="46.840265" lon="-121.761306"><ele>3824</ele><time>2019-07-28T17:19:00Z</time></trkpt>
<trkpt lat="46.84031" lon="-121.761272"><ele>3824</ele><time>2019-07-28T17:19:00Z</time></trkpt>
<trkpt lat="46.840344" lon="-121.761203"><ele>3825</ele><time>2019-07-28T17:19:00Z</time></trkpt>
<trkpt lat="46.840387" lon="-121.76104"><ele>3829</ele><time>2019-07-28T17:20:00Z</time></trkpt>
<trkpt lat="46.840387" lon="-121.760936"><ele>3830</ele><time>2019-07-28T17:21:00Z</time></trkpt>
<trkpt lat="46.840406" lon="-121.760791"><ele>3831</ele><time>2019-07-28T17:22:00Z</time></trkpt>
<trkpt lat="46.840449" lon="-121.760707"><ele>3835</ele><time>2019-07-28T17:23:00Z</time></trkpt>
<trkpt lat="46.840488" lon="-121.760739"><ele>3836</ele><time>2019-07-28T17:23:00Z</time></trkpt>
<trkpt lat="46.840477" lon="-121.760819"><ele>3835</ele><time>2019-07-28T17:23:00Z</time></trkpt>
<trkpt lat="46.840536" lon="-121.760873"><ele>3839</ele><time>2019-07-28T17:24:00Z</time></trkpt>
<trkpt lat="46.840564" lon="-121.760922"><ele>3838</ele><time>2019-07-28T17:24:00Z</time></trkpt>
<trkpt lat="46.840609" lon="-121.760936"><ele>3842</ele><time>2019-07-28T17:24:00Z</time></trkpt>
<trkpt lat="46.840655" lon="-121.760993"><ele>3839</ele><time>2019-07-28T17:25:00Z</time></trkpt>
<trkpt lat="46.84069" lon="-121.761038"><ele>3841</ele><time>2019-07-28T17:25:00Z</time></trkpt>
<trkpt lat="46.840713" lon="-121.761087"><ele>3840</ele><time>2019-07-28T17:25:00Z</time></trkpt>
<trkpt lat="46.840705" lon="-121.761215"><ele>3843</ele><time>2019-07-28T17:26:00Z</time></trkpt>
<trkpt lat="46.840745" lon="-121.761247"><ele>3844</ele><time>2019-07-28T17:26:00Z</time></trkpt>
<trkpt lat="46.840767" lon="-121.761316"><ele>3846</ele><time>2019-07-28T17:27:00Z</time></trkpt>
<trkpt lat="46.8408" lon="-121.761413"><ele>3846</ele><time>2019-07-28T17:27:00Z</time></trkpt>
<trkpt lat="46.840821" lon="-121.761465"><ele>3846</ele><time>2019-07-28T17:28:00Z</time></trkpt>
<trkpt lat="46.840854" lon="-121.761524"><ele>3847</ele><time>2019-07-28T17:28:00Z</time></trkpt>
<trkpt lat="46.840896" lon="-121.761544"><ele>3852</ele><time>2019-07-28T17:28:00Z</time></trkpt>
<trkpt lat="46.840968" lon="-121.761649"><ele>3855</ele><time>2019-07-28T17:29:00Z</time></trkpt>
<trkpt lat="46.840991" lon="-121.76173"><ele>3855</ele><time>2019-07-28T17:29:00Z</time></trkpt>
<trkpt lat="46.840942" lon="-121.761743"><ele>3855</ele><time>2019-07-28T17:29:00Z</time></trkpt>
<trkpt lat="46.840984" lon="-121.761826"><ele>3856</ele><time>2019-07-28T17:30:00Z</time></trkpt>
<trkpt lat="46.841015" lon="-121.761871"><ele>3856</ele><time>2019-07-28T17:30:00Z</time></trkpt>
<trkpt lat="46.841059" lon="-121.761929"><ele>3856</ele><time>2019-07-28T17:30:00Z</time></trkpt>
<trkpt lat="46.841093" lon="-121.761777"><ele>3866</ele><time>2019-07-28T17:32:00Z</time></trkpt>
<trkpt lat="46.841066" lon="-121.761725"><ele>3865</ele><time>2019-07-28T17:32:00Z</time></trkpt>
<trkpt lat="46.84113" lon="-121.761633"><ele>3866</ele><time>2019-07-28T17:33:00Z</time></trkpt>
<trkpt lat="46.841172" lon="-121.761587"><ele>3869</ele><time>2019-07-28T17:33:00Z</time></trkpt>
<trkpt lat="46.84118" lon="-121.761508"><ele>3871</ele><time>2019-07-28T17:34:00Z</time></trkpt>
<trkpt lat="46.841213" lon="-121.76145"><ele>3872</ele><time>2019-07-28T17:34:00Z</time></trkpt>
<trkpt lat="46.841254" lon="-121.76138"><ele>3874</ele><time>2019-07-28T17:35:00Z</time></trkpt>
<trkpt lat="46.841292" lon="-121.76134"><ele>3876</ele><time>2019-07-28T17:36:00Z</time></trkpt>
<trkpt lat="46.841347" lon="-121.761222"><ele>3885</ele><time>2019-07-28T17:37:00Z</time></trkpt>
<trkpt lat="46.841404" lon="-121.761141"><ele>3889</ele><time>2019-07-28T17:37:00Z</time></trkpt>
<trkpt lat="46.841423" lon="-121.761074"><ele>3886</ele><time>2019-07-28T17:38:00Z</time></trkpt>
<trkpt lat="46.841472" lon="-121.761008"><ele>3885</ele><time>2019-07-28T17:38:00Z</time></trkpt>
<trkpt lat="46.841495" lon="-121.760936"><ele>3881</ele><time>2019-07-28T17:38:00Z</time></trkpt>
<trkpt lat="46.841526" lon="-121.760832"><ele>3883</ele><time>2019-07-28T17:39:00Z</time></trkpt>
<trkpt lat="46.841531" lon="-121.760725"><ele>3889</ele><time>2019-07-28T17:40:00Z</time></trkpt>
<trkpt lat="46.841557" lon="-121.760655"><ele>3889</ele><time>2019-07-28T17:42:00Z</time></trkpt>
<trkpt lat="46.841566" lon="-121.760582"><ele>3895</ele><time>2019-07-28T17:42:00Z</time></trkpt>
<trkpt lat="46.841557" lon="-121.760503"><ele>3894</ele><time>2019-07-28T17:43:00Z</time></trkpt>
<trkpt lat="46.841592" lon="-121.760424"><ele>3893</ele><time>2019-07-28T17:43:00Z</time></trkpt>
<trkpt lat="46.841604" lon="-121.760258"><ele>3896</ele><time>2019-07-28T17:44:00Z</time></trkpt>
<trkpt lat="46.841632" lon="-121.760214"><ele>3898</ele><time>2019-07-28T17:44:00Z</time></trkpt>
<trkpt lat="46.841659" lon="-121.760121"><ele>3897</ele><time>2019-07-28T17:45:00Z</time></trkpt>
<trkpt lat="46.841652" lon="-121.760052"><ele>3904</ele><time>2019-07-28T17:45:00Z</time></trkpt>
<trkpt lat="46.841691" lon="-121.759998"><ele>3906</ele><time>2019-07-28T17:46:00Z</time></trkpt>
<trkpt lat="46.841726" lon="-121.7599"><ele>3904</ele><time>2019-07-28T17:47:00Z</time></trkpt>
<trkpt lat="46.841765" lon="-121.759839"><ele>3907</ele><time>2019-07-28T17:47:00Z</time></trkpt>
<trkpt lat="46.841798" lon="-121.759785"><ele>3908</ele><time>2019-07-28T17:48:00Z</time></trkpt>
<trkpt lat="46.841821" lon="-121.759718"><ele>3908</ele><time>2019-07-28T17:48:00Z</time></trkpt>
<trkpt lat="46.841832" lon="-121.759649"><ele>3909</ele><time>2019-07-28T17:49:00Z</time></trkpt>
<trkpt lat="46.841824" lon="-121.759565"><ele>3917</ele><time>2019-07-28T17:49:00Z</time></trkpt>
<trkpt lat="46.841884" lon="-121.759422"><ele>3915</ele><time>2019-07-28T17:50:00Z</time></trkpt>
<trkpt lat="46.841899" lon="-121.759339"><ele>3920</ele><time>2019-07-28T17:51:00Z</time></trkpt>
<trkpt lat="46.841925" lon="-121.759246"><ele>3923</ele><time>2019-07-28T17:51:00Z</time></trkpt>
<trkpt lat="46.841931" lon="-121.759176"><ele>3927</ele><time>2019-07-28T17:51:00Z</time></trkpt>
<trkpt lat="46.841902" lon="-121.759106"><ele>3927</ele><time>2019-07-28T17:52:00Z</time></trkpt>
<trkpt lat="46.841907" lon="-121.759004"><ele>3927</ele><time>2019-07-28T17:54:00Z</time></trkpt>
<trkpt lat="46.841955" lon="-121.759013"><ele>3931</ele><time>2019-07-28T17:54:00Z</time></trkpt>
<trkpt lat="46.841931" lon="-121.758948"><ele>3943</ele><time>2019-07-28T17:56:00Z</time></trkpt>
<trkpt lat="46.841988" lon="-121.758932"><ele>3938</ele><time>2019-07-28T17:57:00Z</time></trkpt>
<trkpt lat="46.842019" lon="-121.758874"><ele>3943</ele><time>2019-07-28T17:58:00Z</time></trkpt>
<trkpt lat="46.842092" lon="-121.758975"><ele>3934</ele><time>2019-07-28T17:59:00Z</time></trkpt>
<trkpt lat="46.842153" lon="-121.758959"><ele>3943</ele><time>2019-07-28T18:00:00Z</time></trkpt>
<trkpt lat="46.842177" lon="-121.758905"><ele>3945</ele><time>2019-07-28T18:01:00Z</time></trkpt>
<trkpt lat="46.842214" lon="-121.758957"><ele>3947</ele><time>2019-07-28T18:01:00Z</time></trkpt>
<trkpt lat="46.842221" lon="-121.758871"><ele>3961</ele><time>2019-07-28T18:02:00Z</time></trkpt>
<trkpt lat="46.8422" lon="-121.758813"><ele>3964</ele><time>2019-07-28T18:02:00Z</time></trkpt>
<trkpt lat="46.842218" lon="-121.758701"><ele>3962</ele><time>2019-07-28T18:03:00Z</time></trkpt>
<trkpt lat="46.84218" lon="-121.758669"><ele>3954</ele><time>2019-07-28T18:03:00Z</time></trkpt>
<trkpt lat="46.842159" lon="-121.758611"><ele>3958</ele><time>2019-07-28T18:04:00Z</time></trkpt>
<trkpt lat="46.842145" lon="-121.758545"><ele>3955</ele><time>2019-07-28T18:05:00Z</time></trkpt>
<trkpt lat="46.842193" lon="-121.758589"><ele>3956</ele><time>2019-07-28T18:29:00Z</time></trkpt>
<trkpt lat="46.842246" lon="-121.758665"><ele>3952</ele><time>2019-07-28T18:29:00Z</time></trkpt>
<trkpt lat="46.842302" lon="-121.758678"><ele>3958</ele><time>2019-07-28T18:30:00Z</time></trkpt>
<trkpt lat="46.842362" lon="-121.758706"><ele>3959</ele><time>2019-07-28T18:31:00Z</time></trkpt>
<trkpt lat="46.842397" lon="-121.758659"><ele>3965</ele><time>2019-07-28T18:31:00Z</time></trkpt>
<trkpt lat="46.842428" lon="-121.758701"><ele>3965</ele><time>2019-07-28T18:31:00Z</time></trkpt>
<trkpt lat="46.842465" lon="-121.758665"><ele>3968</ele><time>2019-07-28T18:32:00Z</time></trkpt>
<trkpt lat="46.842517" lon="-121.758676"><ele>3973</ele><time>2019-07-28T18:32:00Z</time></trkpt>
<trkpt lat="46.842579" lon="-121.758746"><ele>3975</ele><time>2019-07-28T18:33:00Z</time></trkpt>
<trkpt lat="46.842639" lon="-121.758768"><ele>3977</ele><time>2019-07-28T18:34:00Z</time></trkpt>
<trkpt lat="46.842665" lon="-121.758709"><ele>3982</ele><time>2019-07-28T18:34:00Z</time></trkpt>
<trkpt lat="46.842726" lon="-121.758767"><ele>3980</ele><time>2019-07-28T18:35:00Z</time></trkpt>
<trkpt lat="46.842816" lon="-121.75871"><ele>3986</ele><time>2019-07-28T18:35:00Z</time></trkpt>
<trkpt lat="46.842872" lon="-121.758718"><ele>3984</ele><time>2019-07-28T18:36:00Z</time></trkpt>
<trkpt lat="46.842932" lon="-121.75866"><ele>3987</ele><time>2019-07-28T18:36:00Z</time></trkpt>
<trkpt lat="46.842985" lon="-121.758653"><ele>3986</ele><time>2019-07-28T18:36:00Z</time></trkpt>
<trkpt lat="46.843112" lon="-121.75859"><ele>3984</ele><time>2019-07-28T18:37:00Z</time></trkpt>
<trkpt lat="46.843165" lon="-121.75859"><ele>3984</ele><time>2019-07-28T18:37:00Z</time></trkpt>
<trkpt lat="46.843221" lon="-121.758571"><ele>3985</ele><time>2019-07-28T18:38:00Z</time></trkpt>
<trkpt lat="46.843265" lon="-121.758543"><ele>3989</ele><time>2019-07-28T18:38:00Z</time></trkpt>
<trkpt lat="46.843342" lon="-121.758531"><ele>3994</ele><time>2019-07-28T18:39:00Z</time></trkpt>
<trkpt lat="46.843391" lon="-121.758516"><ele>3993</ele><time>2019-07-28T18:39:00Z</time></trkpt>
<trkpt lat="46.84345" lon="-121.75848"><ele>3997</ele><time>2019-07-28T18:40:00Z</time></trkpt>
<trkpt lat="46.843488" lon="-121.758441"><ele>3998</ele><time>2019-07-28T18:40:00Z</time></trkpt>
<trkpt lat="46.843541" lon="-121.758386"><ele>4000</ele><time>2019-07-28T18:41:00Z</time></trkpt>
<trkpt lat="46.843607" lon="-121.758337"><ele>4007</ele><time>2019-07-28T18:42:00Z</time></trkpt>
<trkpt lat="46.84368" lon="-121.758338"><ele>4007</ele><time>2019-07-28T18:43:00Z</time></trkpt>
<trkpt lat="46.843706" lon="-121.75828"><ele>4007</ele><time>2019-07-28T18:43:00Z</time></trkpt>
<trkpt lat="46.843759" lon="-121.758264"><ele>4006</ele><time>2019-07-28T18:43:00Z</time></trkpt>
<trkpt lat="46.843801" lon="-121.75822"><ele>4010</ele><time>2019-07-28T18:44:00Z</time></trkpt>
<trkpt lat="46.843832" lon="-121.758131"><ele>4007</ele><time>2019-07-28T18:44:00Z</time></trkpt>
<trkpt lat="46.84388" lon="-121.758103"><ele>4007</ele><time>2019-07-28T18:45:00Z</time></trkpt>
<trkpt lat="46.843928" lon="-121.758072"><ele>4005</ele><time>2019-07-28T18:45:00Z</time></trkpt>
<trkpt lat="46.843957" lon="-121.758013"><ele>4007</ele><time>2019-07-28T18:45:00Z</time></trkpt>
<trkpt lat="46.84401" lon="-121.757941"><ele>4009</ele><time>2019-07-28T18:46:00Z</time></trkpt>
<trkpt lat="46.844053" lon="-121.757899"><ele>4006</ele><time>2019-07-28T18:46:00Z</time></trkpt>
<trkpt lat="46.844115" lon="-121.757743"><ele>4016</ele><time>2019-07-28T18:47:00Z</time></trkpt>
<trkpt lat="46.84418" lon="-121.75773"><ele>4016</ele><time>2019-07-28T18:47:00Z</time></trkpt>
<trkpt lat="46.844218" lon="-121.757689"><ele>4014</ele><time>2019-07-28T18:48:00Z</time></trkpt>
<trkpt lat="46.844246" lon="-121.757629"><ele>4015</ele><time>2019-07-28T18:48:00Z</time></trkpt>
<trkpt lat="46.844278" lon="-121.757582"><ele>4018</ele><time>2019-07-28T18:48:00Z</time></trkpt>
<trkpt lat="46.84432" lon="-121.757549"><ele>4022</ele><time>2019-07-28T18:49:00Z</time></trkpt>
<trkpt lat="46.844374" lon="-121.757473"><ele>4022</ele><time>2019-07-28T18:49:00Z</time></trkpt>
<trkpt lat="46.844422" lon="-121.757424"><ele>4024</ele><time>2019-07-28T18:50:00Z</time></trkpt>
<trkpt lat="46.844514" lon="-121.757287"><ele>4029</ele><time>2019-07-28T18:51:00Z</time></trkpt>
<trkpt lat="46.844547" lon="-121.757231"><ele>4029</ele><time>2019-07-28T18:51:00Z</time></trkpt>
<trkpt lat="46.844601" lon="-121.75717"><ele>4034</ele><time>2019-07-28T18:51:00Z</time></trkpt>
<trkpt lat="46.844636" lon="-121.75712"><ele>4033</ele><time>2019-07-28T18:52:00Z</time></trkpt>
<trkpt lat="46.844706" lon="-121.757057"><ele>4033</ele><time>2019-07-28T18:52:00Z</time></trkpt>
<trkpt lat="46.84474" lon="-121.75701"><ele>4030</ele><time>2019-07-28T18:53:00Z</time></trkpt>
<trkpt lat="46.844765" lon="-121.756914"><ele>4037</ele><time>2019-07-28T18:53:00Z</time></trkpt>
<trkpt lat="46.844869" lon="-121.757004"><ele>4038</ele><time>2019-07-28T18:56:00Z</time></trkpt>
<trkpt lat="46.844909" lon="-121.757061"><ele>4038</ele><time>2019-07-28T18:57:00Z</time></trkpt>
<trkpt lat="46.844901" lon="-121.757137"><ele>4040</ele><time>2019-07-28T18:58:00Z</time></trkpt>
<trkpt lat="46.84489" lon="-121.757223"><ele>4044</ele><time>2019-07-28T18:58:00Z</time></trkpt>
<trkpt lat="46.844857" lon="-121.757185"><ele>4045</ele><time>2019-07-28T18:59:00Z</time></trkpt>
<trkpt lat="46.844831" lon="-121.757291"><ele>4039</ele><time>2019-07-28T18:59:00Z</time></trkpt>
<trkpt lat="46.844854" lon="-121.757336"><ele>4039</ele><time>2019-07-28T18:59:00Z</time></trkpt>
<trkpt lat="46.84489" lon="-121.757375"><ele>4047</ele><time>2019-07-28T19:01:00Z</time></trkpt>
<trkpt lat="46.844938" lon="-121.75731"><ele>4053</ele><time>2019-07-28T19:02:00Z</time></trkpt>
<trkpt lat="46.845002" lon="-121.757351"><ele>4058</ele><time>2019-07-28T19:02:00Z</time></trkpt>
<trkpt lat="46.844993" lon="-121.75743"><ele>4054</ele><time>2019-07-28T19:03:00Z</time></trkpt>
<trkpt lat="46.845005" lon="-121.757496"><ele>4052</ele><time>2019-07-28T19:04:00Z</time></trkpt>
<trkpt lat="46.845022" lon="-121.757572"><ele>4057</ele><time>2019-07-28T19:04:00Z</time></trkpt>
<trkpt lat="46.845089" lon="-121.757604"><ele>4063</ele><time>2019-07-28T19:05:00Z</time></trkpt>
<trkpt lat="46.845116" lon="-121.757749"><ele>4065</ele><time>2019-07-28T19:07:00Z</time></trkpt>
<trkpt lat="46.845148" lon="-121.75778"><ele>4069</ele><time>2019-07-28T19:07:00Z</time></trkpt>
<trkpt lat="46.845165" lon="-121.757847"><ele>4074</ele><time>2019-07-28T19:08:00Z</time></trkpt>
<trkpt lat="46.84522" lon="-121.757855"><ele>4078</ele><time>2019-07-28T19:10:00Z</time></trkpt>
<trkpt lat="46.845217" lon="-121.757929"><ele>4082</ele><time>2019-07-28T19:10:00Z</time></trkpt>
<trkpt lat="46.845285" lon="-121.757894"><ele>4083</ele><time>2019-07-28T19:11:00Z</time></trkpt>
<trkpt lat="46.845363" lon="-121.757871"><ele>4082</ele><time>2019-07-28T19:12:00Z</time></trkpt>
<trkpt lat="46.845405" lon="-121.757787"><ele>4083</ele><time>2019-07-28T19:13:00Z</time></trkpt>
<trkpt lat="46.84545" lon="-121.757738"><ele>4089</ele><time>2019-07-28T19:13:00Z</time></trkpt>
<trkpt lat="46.84548" lon="-121.757618"><ele>4091</ele><time>2019-07-28T19:13:00Z</time></trkpt>
<trkpt lat="46.8455" lon="-121.75755"><ele>4090</ele><time>2019-07-28T19:14:00Z</time></trkpt>
<trkpt lat="46.845523" lon="-121.757483"><ele>4085</ele><time>2019-07-28T19:15:00Z</time></trkpt>
<trkpt lat="46.845561" lon="-121.757447"><ele>4087</ele><time>2019-07-28T19:15:00Z</time></trkpt>
<trkpt lat="46.845605" lon="-121.757464"><ele>4097</ele><time>2019-07-28T19:16:00Z</time></trkpt>
<trkpt lat="46.845647" lon="-121.757498"><ele>4098</ele><time>2019-07-28T19:16:00Z</time></trkpt>
<trkpt lat="46.845638" lon="-121.75757"><ele>4095</ele><time>2019-07-28T19:16:00Z</time></trkpt>
<trkpt lat="46.845647" lon="-121.757639"><ele>4094</ele><time>2019-07-28T19:17:00Z</time></trkpt>
<trkpt lat="46.845683" lon="-121.757708"><ele>4097</ele><time>2019-07-28T19:17:00Z</time></trkpt>
<trkpt lat="46.845672" lon="-121.757773"><ele>4098</ele><time>2019-07-28T19:18:00Z</time></trkpt>
<trkpt lat="46.845713" lon="-121.757857"><ele>4101</ele><time>2019-07-28T19:19:00Z</time></trkpt>
<trkpt lat="46.845745" lon="-121.757899"><ele>4099</ele><time>2019-07-28T19:19:00Z</time></trkpt>
<trkpt lat="46.845801" lon="-121.75791"><ele>4105</ele><time>2019-07-28T19:20:00Z</time></trkpt>
<trkpt lat="46.84583" lon="-121.757958"><ele>4106</ele><time>2019-07-28T19:22:00Z</time></trkpt>
<trkpt lat="46.845885" lon="-121.758025"><ele>4114</ele><time>2019-07-28T19:22:00Z</time></trkpt>
<trkpt lat="46.845913" lon="-121.758084"><ele>4115</ele><time>2019-07-28T19:23:00Z</time></trkpt>
<trkpt lat="46.845904" lon="-121.758225"><ele>4111</ele><time>2019-07-28T19:23:00Z</time></trkpt>
<trkpt lat="46.845983" lon="-121.758358"><ele>4127</ele><time>2019-07-28T19:25:00Z</time></trkpt>
<trkpt lat="46.84596" lon="-121.758479"><ele>4125</ele><time>2019-07-28T19:28:00Z</time></trkpt>
<trkpt lat="46.845927" lon="-121.758533"><ele>4121</ele><time>2019-07-28T19:28:00Z</time></trkpt>
<trkpt lat="46.845974" lon="-121.758618"><ele>4133</ele><time>2019-07-28T19:29:00Z</time></trkpt>
<trkpt lat="46.845988" lon="-121.758716"><ele>4133</ele><time>2019-07-28T19:30:00Z</time></trkpt>
<trkpt lat="46.846084" lon="-121.758686"><ele>4138</ele><time>2019-07-28T19:31:00Z</time></trkpt>
<trkpt lat="46.846129" lon="-121.758643"><ele>4142</ele><time>2019-07-28T19:32:00Z</time></trkpt>
<trkpt lat="46.846184" lon="-121.758616"><ele>4143</ele><time>2019-07-28T19:33:00Z</time></trkpt>
<trkpt lat="46.846234" lon="-121.758632"><ele>4143</ele><time>2019-07-28T19:33:00Z</time></trkpt>
<trkpt lat="46.846277" lon="-121.758595"><ele>4149</ele><time>2019-07-28T19:34:00Z</time></trkpt>
<trkpt lat="46.846315" lon="-121.758616"><ele>4149</ele><time>2019-07-28T19:34:00Z</time></trkpt>
<trkpt lat="46.84638" lon="-121.758532"><ele>4151</ele><time>2019-07-28T19:35:00Z</time></trkpt>
<trkpt lat="46.846475" lon="-121.758544"><ele>4154</ele><time>2019-07-28T19:36:00Z</time></trkpt>
<trkpt lat="46.846514" lon="-121.758616"><ele>4155</ele><time>2019-07-28T19:37:00Z</time></trkpt>
<trkpt lat="46.846531" lon="-121.75872"><ele>4155</ele><time>2019-07-28T19:38:00Z</time></trkpt>
<trkpt lat="46.846568" lon="-121.758821"><ele>4148</ele><time>2019-07-28T19:40:00Z</time></trkpt>
<trkpt lat="46.846598" lon="-121.759031"><ele>4157</ele><time>2019-07-28T19:42:00Z</time></trkpt>
<trkpt lat="46.846575" lon="-121.758987"><ele>4163</ele><time>2019-07-28T19:42:00Z</time></trkpt>
<trkpt lat="46.846658" lon="-121.758996"><ele>4170</ele><time>2019-07-28T19:43:00Z</time></trkpt>
<trkpt lat="46.846699" lon="-121.759036"><ele>4166</ele><time>2019-07-28T19:43:00Z</time></trkpt>
<trkpt lat="46.846744" lon="-121.758983"><ele>4177</ele><time>2019-07-28T19:44:00Z</time></trkpt>
<trkpt lat="46.84679" lon="-121.759013"><ele>4179</ele><time>2019-07-28T19:45:00Z</time></trkpt>
<trkpt lat="46.846817" lon="-121.759104"><ele>4175</ele><time>2019-07-28T19:46:00Z</time></trkpt>
<trkpt lat="46.846812" lon="-121.759181"><ele>4173</ele><time>2019-07-28T19:47:00Z</time></trkpt>
<trkpt lat="46.846823" lon="-121.759245"><ele>4176</ele><time>2019-07-28T19:47:00Z</time></trkpt>
<trkpt lat="46.846865" lon="-121.759369"><ele>4168</ele><time>2019-07-28T19:47:00Z</time></trkpt>
<trkpt lat="46.846901" lon="-121.759397"><ele>4170</ele><time>2019-07-28T19:48:00Z</time></trkpt>
<trkpt lat="46.846983" lon="-121.75946"><ele>4176</ele><time>2019-07-28T19:50:00Z</time></trkpt>
<trkpt lat="46.847036" lon="-121.759445"><ele>4187</ele><time>2019-07-28T19:51:00Z</time></trkpt>
<trkpt lat="46.847113" lon="-121.759387"><ele>4196</ele><time>2019-07-28T19:52:00Z</time></trkpt>
<trkpt lat="46.847177" lon="-121.759368"><ele>4193</ele><time>2019-07-28T19:52:00Z</time></trkpt>
<trkpt lat="46.847261" lon="-121.759381"><ele>4201</ele><time>2019-07-28T19:53:00Z</time></trkpt>
<trkpt lat="46.847286" lon="-121.75933"><ele>4207</ele><time>2019-07-28T19:53:00Z</time></trkpt>
<trkpt lat="46.847424" lon="-121.759605"><ele>4213</ele><time>2019-07-28T19:56:00Z</time></trkpt>
<trkpt lat="46.847504" lon="-121.75965"><ele>4216</ele><time>2019-07-28T19:58:00Z</time></trkpt>
<trkpt lat="46.84753" lon="-121.759698"><ele>4212</ele><time>2019-07-28T19:58:00Z</time></trkpt>
<trkpt lat="46.847568" lon="-121.759652"><ele>4220</ele><time>2019-07-28T19:58:00Z</time></trkpt>
<trkpt lat="46.847657" lon="-121.759663"><ele>4222</ele><time>2019-07-28T20:00:00Z</time></trkpt>
<trkpt lat="46.847713" lon="-121.759723"><ele>4226</ele><time>2019-07-28T20:01:00Z</time></trkpt>
<trkpt lat="46.847766" lon="-121.759733"><ele>4229</ele><time>2019-07-28T20:02:00Z</time></trkpt>
<trkpt lat="46.847815" lon="-121.759705"><ele>4231</ele><time>2019-07-28T20:02:00Z</time></trkpt>
<trkpt lat="46.847851" lon="-121.759737"><ele>4235</ele><time>2019-07-28T20:03:00Z</time></trkpt>
<trkpt lat="46.847893" lon="-121.759755"><ele>4234</ele><time>2019-07-28T20:03:00Z</time></trkpt>
<trkpt lat="46.847954" lon="-121.759759"><ele>4244</ele><time>2019-07-28T20:04:00Z</time></trkpt>
<trkpt lat="46.848028" lon="-121.75981"><ele>4248</ele><time>2019-07-28T20:07:00Z</time></trkpt>
<trkpt lat="46.848138" lon="-121.759896"><ele>4248</ele><time>2019-07-28T20:09:00Z</time></trkpt>
<trkpt lat="46.848218" lon="-121.759892"><ele>4251</ele><time>2019-07-28T20:09:00Z</time></trkpt>
<trkpt lat="46.848286" lon="-121.759911"><ele>4250</ele><time>2019-07-28T20:10:00Z</time></trkpt>
<trkpt lat="46.84832" lon="-121.759971"><ele>4257</ele><time>2019-07-28T20:11:00Z</time></trkpt>
<trkpt lat="46.848411" lon="-121.759978"><ele>4254</ele><time>2019-07-28T20:12:00Z</time></trkpt>
<trkpt lat="46.84843" lon="-121.760051"><ele>4260</ele><time>2019-07-28T20:12:00Z</time></trkpt>
<trkpt lat="46.848476" lon="-121.760065"><ele>4257</ele><time>2019-07-28T20:12:00Z</time></trkpt>
<trkpt lat="46.848547" lon="-121.760082"><ele>4258</ele><time>2019-07-28T20:13:00Z</time></trkpt>
<trkpt lat="46.848537" lon="-121.760005"><ele>4258</ele><time>2019-07-28T20:13:00Z</time></trkpt>
<trkpt lat="46.848516" lon="-121.76015"><ele>4274</ele><time>2019-07-28T20:14:00Z</time></trkpt>
<trkpt lat="46.848559" lon="-121.760117"><ele>4266</ele><time>2019-07-28T20:16:00Z</time></trkpt>
<trkpt lat="46.8485" lon="-121.760095"><ele>4265</ele><time>2019-07-28T20:16:00Z</time></trkpt>
<trkpt lat="46.848559" lon="-121.760118"><ele>4267</ele><time>2019-07-28T20:17:00Z</time></trkpt>
<trkpt lat="46.8486" lon="-121.760083"><ele>4271</ele><time>2019-07-28T20:24:00Z</time></trkpt>
<trkpt lat="46.848569" lon="-121.760042"><ele>4259</ele><time>2019-07-28T20:26:00Z</time></trkpt>
<trkpt lat="46.848599" lon="-121.75997"><ele>4263</ele><time>2019-07-28T20:27:00Z</time></trkpt>
<trkpt lat="46.848675" lon="-121.759983"><ele>4264</ele><time>2019-07-28T20:27:00Z</time></trkpt>
<trkpt lat="46.848673" lon="-121.759907"><ele>4265</ele><time>2019-07-28T20:28:00Z</time></trkpt>
<trkpt lat="46.848734" lon="-121.759895"><ele>4267</ele><time>2019-07-28T20:28:00Z</time></trkpt>
<trkpt lat="46.848813" lon="-121.759807"><ele>4267</ele><time>2019-07-28T20:29:00Z</time></trkpt>
<trkpt lat="46.848832" lon="-121.75975"><ele>4267</ele><time>2019-07-28T20:29:00Z</time></trkpt>
<trkpt lat="46.848854" lon="-121.759684"><ele>4272</ele><time>2019-07-28T20:30:00Z</time></trkpt>
<trkpt lat="46.848908" lon="-121.759606"><ele>4273</ele><time>2019-07-28T20:30:00Z</time></trkpt>
<trkpt lat="46.848942" lon="-121.759555"><ele>4277</ele><time>2019-07-28T20:31:00Z</time></trkpt>
<trkpt lat="46.849003" lon="-121.75939"><ele>4281</ele><time>2019-07-28T20:32:00Z</time></trkpt>
<trkpt lat="46.849058" lon="-121.759399"><ele>4283</ele><time>2019-07-28T20:33:00Z</time></trkpt>
<trkpt lat="46.849083" lon="-121.759257"><ele>4285</ele><time>2019-07-28T20:33:00Z</time></trkpt>
<trkpt lat="46.849146" lon="-121.759145"><ele>4288</ele><time>2019-07-28T20:34:00Z</time></trkpt>
<trkpt lat="46.84919" lon="-121.759122"><ele>4290</ele><time>2019-07-28T20:34:00Z</time></trkpt>
<trkpt lat="46.849218" lon="-121.759072"><ele>4293</ele><time>2019-07-28T20:34:00Z</time></trkpt>
<trkpt lat="46.849261" lon="-121.758998"><ele>4292</ele><time>2019-07-28T20:35:00Z</time></trkpt>
<trkpt lat="46.849331" lon="-121.758916"><ele>4295</ele><time>2019-07-28T20:36:00Z</time></trkpt>
<trkpt lat="46.849395" lon="-121.758811"><ele>4298</ele><time>2019-07-28T20:37:00Z</time></trkpt>
<trkpt lat="46.849465" lon="-121.758764"><ele>4303</ele><time>2019-07-28T20:38:00Z</time></trkpt>
<trkpt lat="46.849532" lon="-121.758694"><ele>4307</ele><time>2019-07-28T20:39:00Z</time></trkpt>
<trkpt lat="46.849581" lon="-121.758676"><ele>4311</ele><time>2019-07-28T20:39:00Z</time></trkpt>
<trkpt lat="46.849626" lon="-121.758636"><ele>4311</ele><time>2019-07-28T20:40:00Z</time></trkpt>
<trkpt lat="46.849667" lon="-121.758589"><ele>4312</ele><time>2019-07-28T20:40:00Z</time></trkpt>
<trkpt lat="46.849714" lon="-121.758609"><ele>4314</ele><time>2019-07-28T20:41:00Z</time></trkpt>
<trkpt lat="46.849742" lon="-121.75855"><ele>4317</ele><time>2019-07-28T20:41:00Z</time></trkpt>
<trkpt lat="46.849849" lon="-121.758439"><ele>4320</ele><time>2019-07-28T20:42:00Z</time></trkpt>
<trkpt lat="46.849924" lon="-121.758406"><ele>4323</ele><time>2019-07-28T20:43:00Z</time></trkpt>
<trkpt lat="46.849983" lon="-121.758355"><ele>4325</ele><time>2019-07-28T20:44:00Z</time></trkpt>
<trkpt lat="46.850028" lon="-121.758325"><ele>4329</ele><time>2019-07-28T20:44:00Z</time></trkpt>
<trkpt lat="46.85008" lon="-121.758289"><ele>4331</ele><time>2019-07-28T20:45:00Z</time></trkpt>
<trkpt lat="46.850122" lon="-121.758306"><ele>4330</ele><time>2019-07-28T20:45:00Z</time></trkpt>
<trkpt lat="46.850169" lon="-121.758298"><ele>4331</ele><time>2019-07-28T20:46:00Z</time></trkpt>
<trkpt lat="46.850205" lon="-121.758255"><ele>4335</ele><time>2019-07-28T20:48:00Z</time></trkpt>
<trkpt lat="46.850256" lon="-121.758261"><ele>4335</ele><time>2019-07-28T20:48:00Z</time></trkpt>
<trkpt lat="46.850329" lon="-121.758258"><ele>4337</ele><time>2019-07-28T20:49:00Z</time></trkpt>
<trkpt lat="46.850365" lon="-121.758298"><ele>4342</ele><time>2019-07-28T20:50:00Z</time></trkpt>
<trkpt lat="46.850397" lon="-121.75835"><ele>4344</ele><time>2019-07-28T20:51:00Z</time></trkpt>
<trkpt lat="46.850407" lon="-121.758465"><ele>4348</ele><time>2019-07-28T20:51:00Z</time></trkpt>
<trkpt lat="46.850433" lon="-121.75855"><ele>4349</ele><time>2019-07-28T20:52:00Z</time></trkpt>
<trkpt lat="46.850479" lon="-121.758591"><ele>4351</ele><time>2019-07-28T20:52:00Z</time></trkpt>
<trkpt lat="46.850518" lon="-121.758733"><ele>4356</ele><time>2019-07-28T20:53:00Z</time></trkpt>
<trkpt lat="46.850512" lon="-121.758804"><ele>4357</ele><time>2019-07-28T20:54:00Z</time></trkpt>
<trkpt lat="46.850545" lon="-121.758876"><ele>4359</ele><time>2019-07-28T20:54:00Z</time></trkpt>
<trkpt lat="46.850593" lon="-121.759011"><ele>4357</ele><time>2019-07-28T20:55:00Z</time></trkpt>
<trkpt lat="46.850625" lon="-121.759063"><ele>4360</ele><time>2019-07-28T20:55:00Z</time></trkpt>
<trkpt lat="46.850678" lon="-121.7591"><ele>4363</ele><time>2019-07-28T20:56:00Z</time></trkpt>
<trkpt lat="46.85071" lon="-121.759149"><ele>4363</ele><time>2019-07-28T20:56:00Z</time></trkpt>
<trkpt lat="46.850731" lon="-121.759213"><ele>4365</ele><time>2019-07-28T20:57:00Z</time></trkpt>
<trkpt lat="46.850735" lon="-121.759291"><ele>4366</ele><time>2019-07-28T20:57:00Z</time></trkpt>
<trkpt lat="46.850764" lon="-121.759395"><ele>4374</ele><time>2019-07-28T20:58:00Z</time></trkpt>
<trkpt lat="46.850826" lon="-121.75951"><ele>4370</ele><time>2019-07-28T20:58:00Z</time></trkpt>
<trkpt lat="46.850885" lon="-121.759596"><ele>4374</ele><time>2019-07-28T20:59:00Z</time></trkpt>
<trkpt lat="46.850945" lon="-121.75971"><ele>4379</ele><time>2019-07-28T20:59:00Z</time></trkpt>
<trkpt lat="46.850961" lon="-121.759791"><ele>4378</ele><time>2019-07-28T20:59:00Z</time></trkpt>
<trkpt lat="46.851007" lon="-121.75983"><ele>4379</ele><time>2019-07-28T21:00:00Z</time></trkpt>
<trkpt lat="46.851058" lon="-121.759896"><ele>4382</ele><time>2019-07-28T21:00:00Z</time></trkpt>
<trkpt lat="46.851094" lon="-121.759948"><ele>4381</ele><time>2019-07-28T21:00:00Z</time></trkpt>
<trkpt lat="46.851173" lon="-121.76004"><ele>4383</ele><time>2019-07-28T21:01:00Z</time></trkpt>
<trkpt lat="46.851195" lon="-121.760103"><ele>4384</ele><time>2019-07-28T21:01:00Z</time></trkpt>
<trkpt lat="46.851264" lon="-121.760163"><ele>4385</ele><time>2019-07-28T21:02:00Z</time></trkpt>
<trkpt lat="46.851291" lon="-121.760253"><ele>4385</ele><time>2019-07-28T21:02:00Z</time></trkpt>
<trkpt lat="46.851346" lon="-121.760277"><ele>4386</ele><time>2019-07-28T21:02:00Z</time></trkpt>
<trkpt lat="46.851418" lon="-121.760308"><ele>4387</ele><time>2019-07-28T21:03:00Z</time></trkpt>
<trkpt lat="46.851494" lon="-121.760335"><ele>4389</ele><time>2019-07-28T21:03:00Z</time></trkpt>
<trkpt lat="46.851588" lon="-121.76039"><ele>4388</ele><time>2019-07-28T21:03:00Z</time></trkpt>
<trkpt lat="46.851661" lon="-121.760402"><ele>4388</ele><time>2019-07-28T21:04:00Z</time></trkpt>
<trkpt lat="46.851717" lon="-121.760424"><ele>4389</ele><time>2019-07-28T21:04:00Z</time></trkpt>
<trkpt lat="46.851757" lon="-121.760458"><ele>4390</ele><time>2019-07-28T21:04:00Z</time></trkpt>
<trkpt lat="46.851837" lon="-121.760425"><ele>4385</ele><time>2019-07-28T21:04:00Z</time></trkpt>
<trkpt lat="46.851916" lon="-121.760404"><ele>4384</ele><time>2019-07-28T21:05:00Z</time></trkpt>
<trkpt lat="46.851959" lon="-121.760431"><ele>4384</ele><time>2019-07-28T21:05:00Z</time></trkpt>
<trkpt lat="46.852014" lon="-121.760415"><ele>4384</ele><time>2019-07-28T21:05:00Z</time></trkpt>
<trkpt lat="46.852197" lon="-121.760361"><ele>4384</ele><time>2019-07-28T21:06:00Z</time></trkpt>
<trkpt lat="46.852259" lon="-121.760364"><ele>4384</ele><time>2019-07-28T21:06:00Z</time></trkpt>
<trkpt lat="46.852355" lon="-121.760348"><ele>4384</ele><time>2019-07-28T21:06:00Z</time></trkpt>
<trkpt lat="46.852422" lon="-121.760339"><ele>4383</ele><time>2019-07-28T21:06:00Z</time></trkpt>
<trkpt lat="46.852468" lon="-121.760369"><ele>4380</ele><time>2019-07-28T21:07:00Z</time></trkpt>
<trkpt lat="46.852538" lon="-121.760342"><ele>4383</ele><time>2019-07-28T21:07:00Z</time></trkpt>
<trkpt lat="46.852609" lon="-121.760354"><ele>4383</ele><time>2019-07-28T21:07:00Z</time></trkpt>
<trkpt lat="46.852677" lon="-121.760323"><ele>4387</ele><time>2019-07-28T21:07:00Z</time></trkpt>
<trkpt lat="46.852746" lon="-121.760285"><ele>4383</ele><time>2019-07-28T21:08:00Z</time></trkpt>
<trkpt lat="46.852793" lon="-121.760326"><ele>4383</ele><time>2019-07-28T21:08:00Z</time></trkpt>
<trkpt lat="46.852841" lon="-121.760354"><ele>4381</ele><time>2019-07-28T21:08:00Z</time></trkpt>
<trkpt lat="46.852887" lon="-121.760334"><ele>4383</ele><time>2019-07-28T21:08:00Z</time></trkpt>
<trkpt lat="46.852945" lon="-121.76038"><ele>4384</ele><time>2019-07-28T21:08:00Z</time></trkpt>
<trkpt lat="46.852936" lon="-121.760452"><ele>4381</ele><time>2019-07-28T21:09:00Z</time></trkpt>
<trkpt lat="46.852912" lon="-121.760507"><ele>4382</ele><time>2019-07-28T21:09:00Z</time></trkpt>
<trkpt lat="46.852937" lon="-121.760577"><ele>4381</ele><time>2019-07-28T21:09:00Z</time></trkpt>
<trkpt lat="46.852931" lon="-121.760472"><ele>4384</ele><time>2019-07-28T21:13:00Z</time></trkpt>
<trkpt lat="46.852979" lon="-121.760306"><ele>4382</ele><time>2019-07-28T21:14:00Z</time></trkpt>
<trkpt lat="46.853019" lon="-121.760247"><ele>4380</ele><time>2019-07-28T21:14:00Z</time></trkpt>
<trkpt lat="46.85309" lon="-121.760127"><ele>4387</ele><time>2019-07-28T21:14:00Z</time></trkpt>
<trkpt lat="46.853157" lon="-121.760055"><ele>4387</ele><time>2019-07-28T21:14:00Z</time></trkpt>
<trkpt lat="46.853243" lon="-121.760009"><ele>4385</ele><time>2019-07-28T21:15:00Z</time></trkpt>
<trkpt lat="46.85333" lon="-121.759939"><ele>4383</ele><time>2019-07-28T21:15:00Z</time></trkpt>
<trkpt lat="46.853386" lon="-121.759839"><ele>4381</ele><time>2019-07-28T21:15:00Z</time></trkpt>
<trkpt lat="46.853466" lon="-121.759757"><ele>4382</ele><time>2019-07-28T21:15:00Z</time></trkpt>
<trkpt lat="46.853535" lon="-121.759706"><ele>4380</ele><time>2019-07-28T21:16:00Z</time></trkpt>
<trkpt lat="46.853574" lon="-121.759666"><ele>4381</ele><time>2019-07-28T21:16:00Z</time></trkpt>
<trkpt lat="46.853629" lon="-121.759633"><ele>4378</ele><time>2019-07-28T21:16:00Z</time></trkpt>
<trkpt lat="46.853632" lon="-121.759498"><ele>4372</ele><time>2019-07-28T21:16:00Z</time></trkpt>
<trkpt lat="46.853604" lon="-121.759437"><ele>4369</ele><time>2019-07-28T21:16:00Z</time></trkpt>
<trkpt lat="46.853556" lon="-121.759377"><ele>4366</ele><time>2019-07-28T21:17:00Z</time></trkpt>
<trkpt lat="46.853618" lon="-121.759258"><ele>4363</ele><time>2019-07-28T21:22:00Z</time></trkpt>
<trkpt lat="46.853622" lon="-121.759175"><ele>4367</ele><time>2019-07-28T21:22:00Z</time></trkpt>
<trkpt lat="46.853646" lon="-121.759107"><ele>4362</ele><time>2019-07-28T21:22:00Z</time></trkpt>
<trkpt lat="46.853668" lon="-121.759046"><ele>4361</ele><time>2019-07-28T21:22:00Z</time></trkpt>
<trkpt lat="46.853707" lon="-121.759003"><ele>4356</ele><time>2019-07-28T21:22:00Z</time></trkpt>
<trkpt lat="46.853728" lon="-121.758951"><ele>4352</ele><time>2019-07-28T21:22:00Z</time></trkpt>
<trkpt lat="46.853709" lon="-121.758894"><ele>4349</ele><time>2019-07-28T21:22:00Z</time></trkpt>
<trkpt lat="46.853582" lon="-121.758871"><ele>4346</ele><time>2019-07-28T21:23:00Z</time></trkpt>
<trkpt lat="46.853518" lon="-121.758869"><ele>4344</ele><time>2019-07-28T21:23:00Z</time></trkpt>
<trkpt lat="46.853394" lon="-121.75882"><ele>4338</ele><time>2019-07-28T21:23:00Z</time></trkpt>
<trkpt lat="46.853218" lon="-121.758686"><ele>4336</ele><time>2019-07-28T21:24:00Z</time></trkpt>
<trkpt lat="46.853189" lon="-121.758642"><ele>4336</ele><time>2019-07-28T21:24:00Z</time></trkpt>
<trkpt lat="46.85312" lon="-121.758587"><ele>4334</ele><time>2019-07-28T21:24:00Z</time></trkpt>
<trkpt lat="46.853076" lon="-121.758507"><ele>4334</ele><time>2019-07-28T21:24:00Z</time></trkpt>
<trkpt lat="46.853046" lon="-121.758457"><ele>4334</ele><time>2019-07-28T21:24:00Z</time></trkpt>
<trkpt lat="46.852989" lon="-121.758414"><ele>4330</ele><time>2019-07-28T21:24:00Z</time></trkpt>
<trkpt lat="46.852926" lon="-121.758348"><ele>4330</ele><time>2019-07-28T21:24:00Z</time></trkpt>
<trkpt lat="46.852776" lon="-121.758187"><ele>4328</ele><time>2019-07-28T21:25:00Z</time></trkpt>
<trkpt lat="46.852638" lon="-121.75804"><ele>4324</ele><time>2019-07-28T21:25:00Z</time></trkpt>
<trkpt lat="46.852595" lon="-121.75797"><ele>4320</ele><time>2019-07-28T21:25:00Z</time></trkpt>
<trkpt lat="46.852499" lon="-121.757884"><ele>4320</ele><time>2019-07-28T21:25:00Z</time></trkpt>
<trkpt lat="46.85243" lon="-121.757818"><ele>4319</ele><time>2019-07-28T21:26:00Z</time></trkpt>
<trkpt lat="46.852366" lon="-121.757706"><ele>4317</ele><time>2019-07-28T21:26:00Z</time></trkpt>
<trkpt lat="46.85221" lon="-121.75756"><ele>4312</ele><time>2019-07-28T21:26:00Z</time></trkpt>
<trkpt lat="46.852163" lon="-121.757467"><ele>4314</ele><time>2019-07-28T21:26:00Z</time></trkpt>
<trkpt lat="46.852081" lon="-121.757356"><ele>4312</ele><time>2019-07-28T21:26:00Z</time></trkpt>
<trkpt lat="46.852021" lon="-121.757267"><ele>4311</ele><time>2019-07-28T21:27:00Z</time></trkpt>
<trkpt lat="46.851961" lon="-121.757136"><ele>4311</ele><time>2019-07-28T21:27:00Z</time></trkpt>
<trkpt lat="46.851912" lon="-121.75703"><ele>4311</ele><time>2019-07-28T21:27:00Z</time></trkpt>
<trkpt lat="46.851896" lon="-121.756969"><ele>4312</ele><time>2019-07-28T21:27:00Z</time></trkpt>
<trkpt lat="46.85186" lon="-121.756918"><ele>4311</ele><time>2019-07-28T21:27:00Z</time></trkpt>
<trkpt lat="46.851742" lon="-121.7567"><ele>4307</ele><time>2019-07-28T21:28:00Z</time></trkpt>
<trkpt lat="46.851655" lon="-121.756555"><ele>4303</ele><time>2019-07-28T21:28:00Z</time></trkpt>
<trkpt lat="46.851625" lon="-121.756489"><ele>4303</ele><time>2019-07-28T21:28:00Z</time></trkpt>
<trkpt lat="46.8515" lon="-121.756302"><ele>4303</ele><time>2019-07-28T21:28:00Z</time></trkpt>
<trkpt lat="46.851357" lon="-121.756105"><ele>4301</ele><time>2019-07-28T21:29:00Z</time></trkpt>
<trkpt lat="46.851317" lon="-121.756086"><ele>4301</ele><time>2019-07-28T21:29:00Z</time></trkpt>
<trkpt lat="46.851212" lon="-121.755925"><ele>4299</ele><time>2019-07-28T21:29:00Z</time></trkpt>
<trkpt lat="46.851142" lon="-121.755852"><ele>4300</ele><time>2019-07-28T21:29:00Z</time></trkpt>
<trkpt lat="46.851094" lon="-121.755829"><ele>4300</ele><time>2019-07-28T21:29:00Z</time></trkpt>
<trkpt lat="46.851061" lon="-121.755774"><ele>4301</ele><time>2019-07-28T21:29:00Z</time></trkpt>
<trkpt lat="46.851031" lon="-121.75574"><ele>4301</ele><time>2019-07-28T21:30:00Z</time></trkpt>
<trkpt lat="46.850986" lon="-121.75572"><ele>4304</ele><time>2019-07-28T21:30:00Z</time></trkpt>
<trkpt lat="46.850937" lon="-121.755636"><ele>4306</ele><time>2019-07-28T21:30:00Z</time></trkpt>
<trkpt lat="46.850884" lon="-121.755595"><ele>4308</ele><time>2019-07-28T21:30:00Z</time></trkpt>
<trkpt lat="46.850858" lon="-121.755536"><ele>4306</ele><time>2019-07-28T21:30:00Z</time></trkpt>
<trkpt lat="46.850856" lon="-121.755391"><ele>4302</ele><time>2019-07-28T21:31:00Z</time></trkpt>
<trkpt lat="46.850824" lon="-121.755129"><ele>4294</ele><time>2019-07-28T21:31:00Z</time></trkpt>
<trkpt lat="46.85079" lon="-121.754859"><ele>4289</ele><time>2019-07-28T21:32:00Z</time></trkpt>
<trkpt lat="46.850773" lon="-121.754747"><ele>4288</ele><time>2019-07-28T21:32:00Z</time></trkpt>
<trkpt lat="46.850705" lon="-121.75469"><ele>4286</ele><time>2019-07-28T21:32:00Z</time></trkpt>
<trkpt lat="46.850677" lon="-121.754645"><ele>4286</ele><time>2019-07-28T21:32:00Z</time></trkpt>
<trkpt lat="46.850645" lon="-121.754582"><ele>4284</ele><time>2019-07-28T21:32:00Z</time></trkpt>
<trkpt lat="46.850684" lon="-121.754427"><ele>4279</ele><time>2019-07-28T21:33:00Z</time></trkpt>
<trkpt lat="46.850715" lon="-121.754272"><ele>4273</ele><time>2019-07-28T21:33:00Z</time></trkpt>
<trkpt lat="46.850724" lon="-121.754171"><ele>4270</ele><time>2019-07-28T21:33:00Z</time></trkpt>
<trkpt lat="46.850744" lon="-121.754054"><ele>4271</ele><time>2019-07-28T21:33:00Z</time></trkpt>
<trkpt lat="46.850739" lon="-121.753985"><ele>4267</ele><time>2019-07-28T21:33:00Z</time></trkpt>
<trkpt lat="46.850758" lon="-121.753918"><ele>4266</ele><time>2019-07-28T21:33:00Z</time></trkpt>
<trkpt lat="46.850786" lon="-121.753725"><ele>4261</ele><time>2019-07-28T21:34:00Z</time></trkpt>
<trkpt lat="46.850808" lon="-121.753658"><ele>4258</ele><time>2019-07-28T21:34:00Z</time></trkpt>
<trkpt lat="46.850862" lon="-121.753533"><ele>4259</ele><time>2019-07-28T21:35:00Z</time></trkpt>
<trkpt lat="46.850888" lon="-121.753465"><ele>4258</ele><time>2019-07-28T21:35:00Z</time></trkpt>
<trkpt lat="46.850951" lon="-121.753337"><ele>4255</ele><time>2019-07-28T21:36:00Z</time></trkpt>
<trkpt lat="46.850967" lon="-121.753269"><ele>4254</ele><time>2019-07-28T21:36:00Z</time></trkpt>
<trkpt lat="46.850995" lon="-121.753233"><ele>4252</ele><time>2019-07-28T21:36:00Z</time></trkpt>
<trkpt lat="46.851034" lon="-121.753172"><ele>4250</ele><time>2019-07-28T21:36:00Z</time></trkpt>
<trkpt lat="46.851015" lon="-121.753037"><ele>4243</ele><time>2019-07-28T21:36:00Z</time></trkpt>
<trkpt lat="46.850961" lon="-121.753001"><ele>4234</ele><time>2019-07-28T21:37:00Z</time></trkpt>
<trkpt lat="46.850836" lon="-121.75305"><ele>4232</ele><time>2019-07-28T21:37:00Z</time></trkpt>
<trkpt lat="46.850731" lon="-121.753104"><ele>4233</ele><time>2019-07-28T21:37:00Z</time></trkpt>
<trkpt lat="46.850656" lon="-121.753115"><ele>4232</ele><time>2019-07-28T21:37:00Z</time></trkpt>
<trkpt lat="46.850587" lon="-121.753136"><ele>4229</ele><time>2019-07-28T21:38:00Z</time></trkpt>
<trkpt lat="46.850463" lon="-121.75313"><ele>4227</ele><time>2019-07-28T21:38:00Z</time></trkpt>
<trkpt lat="46.850409" lon="-121.753123"><ele>4226</ele><time>2019-07-28T21:38:00Z</time></trkpt>
<trkpt lat="46.850353" lon="-121.753091"><ele>4226</ele><time>2019-07-28T21:38:00Z</time></trkpt>
<trkpt lat="46.850341" lon="-121.753025"><ele>4222</ele><time>2019-07-28T21:38:00Z</time></trkpt>
<trkpt lat="46.850374" lon="-121.752907"><ele>4220</ele><time>2019-07-28T21:38:00Z</time></trkpt>
<trkpt lat="46.850397" lon="-121.75277"><ele>4217</ele><time>2019-07-28T21:39:00Z</time></trkpt>
<trkpt lat="46.850419" lon="-121.752655"><ele>4215</ele><time>2019-07-28T21:39:00Z</time></trkpt>
<trkpt lat="46.850472" lon="-121.752598"><ele>4213</ele><time>2019-07-28T21:39:00Z</time></trkpt>
<trkpt lat="46.850504" lon="-121.75255"><ele>4213</ele><time>2019-07-28T21:39:00Z</time></trkpt>
<trkpt lat="46.850602" lon="-121.752422"><ele>4207</ele><time>2019-07-28T21:39:00Z</time></trkpt>
<trkpt lat="46.850646" lon="-121.752384"><ele>4205</ele><time>2019-07-28T21:39:00Z</time></trkpt>
<trkpt lat="46.850805" lon="-121.752267"><ele>4204</ele><time>2019-07-28T21:40:00Z</time></trkpt>
<trkpt lat="46.850958" lon="-121.752117"><ele>4204</ele><time>2019-07-28T21:40:00Z</time></trkpt>
<trkpt lat="46.850995" lon="-121.752078"><ele>4203</ele><time>2019-07-28T21:40:00Z</time></trkpt>
<trkpt lat="46.851083" lon="-121.752052"><ele>4199</ele><time>2019-07-28T21:41:00Z</time></trkpt>
<trkpt lat="46.851135" lon="-121.75206"><ele>4198</ele><time>2019-07-28T21:41:00Z</time></trkpt>
<trkpt lat="46.851222" lon="-121.752048"><ele>4195</ele><time>2019-07-28T21:41:00Z</time></trkpt>
<trkpt lat="46.851269" lon="-121.752039"><ele>4198</ele><time>2019-07-28T21:41:00Z</time></trkpt>
<trkpt lat="46.851322" lon="-121.752027"><ele>4202</ele><time>2019-07-28T21:41:00Z</time></trkpt>
<trkpt lat="46.851387" lon="-121.75205"><ele>4196</ele><time>2019-07-28T21:41:00Z</time></trkpt>
<trkpt lat="46.851427" lon="-121.752074"><ele>4196</ele><time>2019-07-28T21:41:00Z</time></trkpt>
<trkpt lat="46.851499" lon="-121.752042"><ele>4198</ele><time>2019-07-28T21:42:00Z</time></trkpt>
<trkpt lat="46.851556" lon="-121.752034"><ele>4200</ele><time>2019-07-28T21:42:00Z</time></trkpt>
<trkpt lat="46.851649" lon="-121.751996"><ele>4201</ele><time>2019-07-28T21:42:00Z</time></trkpt>
<trkpt lat="46.851725" lon="-121.751946"><ele>4197</ele><time>2019-07-28T21:42:00Z</time></trkpt>
<trkpt lat="46.851769" lon="-121.751855"><ele>4196</ele><time>2019-07-28T21:43:00Z</time></trkpt>
<trkpt lat="46.851776" lon="-121.751772"><ele>4192</ele><time>2019-07-28T21:44:00Z</time></trkpt>
<trkpt lat="46.85187" lon="-121.751688"><ele>4184</ele><time>2019-07-28T21:45:00Z</time></trkpt>
<trkpt lat="46.851911" lon="-121.751598"><ele>4182</ele><time>2019-07-28T21:45:00Z</time></trkpt>
<trkpt lat="46.851937" lon="-121.751523"><ele>4182</ele><time>2019-07-28T21:46:00Z</time></trkpt>
<trkpt lat="46.851918" lon="-121.751421"><ele>4175</ele><time>2019-07-28T21:46:00Z</time></trkpt>
<trkpt lat="46.851876" lon="-121.751377"><ele>4175</ele><time>2019-07-28T21:46:00Z</time></trkpt>
<trkpt lat="46.851827" lon="-121.751329"><ele>4169</ele><time>2019-07-28T21:47:00Z</time></trkpt>
<trkpt lat="46.851789" lon="-121.751279"><ele>4170</ele><time>2019-07-28T21:47:00Z</time></trkpt>
<trkpt lat="46.851754" lon="-121.751204"><ele>4166</ele><time>2019-07-28T21:48:00Z</time></trkpt>
<trkpt lat="46.851702" lon="-121.751192"><ele>4160</ele><time>2019-07-28T21:48:00Z</time></trkpt>
<trkpt lat="46.851641" lon="-121.751093"><ele>4154</ele><time>2019-07-28T21:48:00Z</time></trkpt>
<trkpt lat="46.851512" lon="-121.751047"><ele>4157</ele><time>2019-07-28T21:48:00Z</time></trkpt>
<trkpt lat="46.851431" lon="-121.751039"><ele>4149</ele><time>2019-07-28T21:49:00Z</time></trkpt>
<trkpt lat="46.851366" lon="-121.751034"><ele>4145</ele><time>2019-07-28T21:49:00Z</time></trkpt>
<trkpt lat="46.851332" lon="-121.751082"><ele>4143</ele><time>2019-07-28T21:49:00Z</time></trkpt>
<trkpt lat="46.851256" lon="-121.751122"><ele>4140</ele><time>2019-07-28T21:49:00Z</time></trkpt>
<trkpt lat="46.851081" lon="-121.75117"><ele>4140</ele><time>2019-07-28T21:50:00Z</time></trkpt>
<trkpt lat="46.851026" lon="-121.751174"><ele>4140</ele><time>2019-07-28T21:50:00Z</time></trkpt>
<trkpt lat="46.850987" lon="-121.751213"><ele>4137</ele><time>2019-07-28T21:50:00Z</time></trkpt>
<trkpt lat="46.850912" lon="-121.751181"><ele>4140</ele><time>2019-07-28T21:50:00Z</time></trkpt>
<trkpt lat="46.850876" lon="-121.751107"><ele>4137</ele><time>2019-07-28T21:51:00Z</time></trkpt>
<trkpt lat="46.850773" lon="-121.751027"><ele>4137</ele><time>2019-07-28T21:51:00Z</time></trkpt>
<trkpt lat="46.85068" lon="-121.750919"><ele>4137</ele><time>2019-07-28T21:51:00Z</time></trkpt>
<trkpt lat="46.850633" lon="-121.750898"><ele>4138</ele><time>2019-07-28T21:51:00Z</time></trkpt>
<trkpt lat="46.850568" lon="-121.750879"><ele>4132</ele><time>2019-07-28T21:52:00Z</time></trkpt>
<trkpt lat="46.850479" lon="-121.750811"><ele>4129</ele><time>2019-07-28T21:52:00Z</time></trkpt>
<trkpt lat="46.850393" lon="-121.750698"><ele>4124</ele><time>2019-07-28T21:52:00Z</time></trkpt>
<trkpt lat="46.850377" lon="-121.750594"><ele>4115</ele><time>2019-07-28T21:53:00Z</time></trkpt>
<trkpt lat="46.850354" lon="-121.750544"><ele>4115</ele><time>2019-07-28T21:53:00Z</time></trkpt>
<trkpt lat="46.850322" lon="-121.750437"><ele>4116</ele><time>2019-07-28T21:53:00Z</time></trkpt>
<trkpt lat="46.850277" lon="-121.750313"><ele>4107</ele><time>2019-07-28T21:53:00Z</time></trkpt>
<trkpt lat="46.850237" lon="-121.750255"><ele>4102</ele><time>2019-07-28T21:53:00Z</time></trkpt>
<trkpt lat="46.850244" lon="-121.750079"><ele>4094</ele><time>2019-07-28T21:54:00Z</time></trkpt>
<trkpt lat="46.850236" lon="-121.749954"><ele>4091</ele><time>2019-07-28T21:54:00Z</time></trkpt>
<trkpt lat="46.850282" lon="-121.749821"><ele>4086</ele><time>2019-07-28T21:54:00Z</time></trkpt>
<trkpt lat="46.850312" lon="-121.749714"><ele>4082</ele><time>2019-07-28T21:55:00Z</time></trkpt>
<trkpt lat="46.850362" lon="-121.749639"><ele>4078</ele><time>2019-07-28T21:55:00Z</time></trkpt>
<trkpt lat="46.850406" lon="-121.749566"><ele>4075</ele><time>2019-07-28T21:55:00Z</time></trkpt>
<trkpt lat="46.850446" lon="-121.749521"><ele>4076</ele><time>2019-07-28T21:55:00Z</time></trkpt>
<trkpt lat="46.850509" lon="-121.749422"><ele>4074</ele><time>2019-07-28T21:55:00Z</time></trkpt>
<trkpt lat="46.850539" lon="-121.749389"><ele>4070</ele><time>2019-07-28T21:55:00Z</time></trkpt>
<trkpt lat="46.850588" lon="-121.749377"><ele>4070</ele><time>2019-07-28T21:56:00Z</time></trkpt>
<trkpt lat="46.850625" lon="-121.749335"><ele>4067</ele><time>2019-07-28T21:56:00Z</time></trkpt>
<trkpt lat="46.850673" lon="-121.749308"><ele>4069</ele><time>2019-07-28T21:56:00Z</time></trkpt>
<trkpt lat="46.850791" lon="-121.749208"><ele>4065</ele><time>2019-07-28T21:56:00Z</time></trkpt>
<trkpt lat="46.850838" lon="-121.74917"><ele>4066</ele><time>2019-07-28T21:56:00Z</time></trkpt>
<trkpt lat="46.850891" lon="-121.749109"><ele>4065</ele><time>2019-07-28T21:57:00Z</time></trkpt>
<trkpt lat="46.850935" lon="-121.74903"><ele>4065</ele><time>2019-07-28T21:57:00Z</time></trkpt>
<trkpt lat="46.85098" lon="-121.74898"><ele>4064</ele><time>2019-07-28T21:57:00Z</time></trkpt>
<trkpt lat="46.851142" lon="-121.748829"><ele>4058</ele><time>2019-07-28T21:57:00Z</time></trkpt>
<trkpt lat="46.851253" lon="-121.748687"><ele>4051</ele><time>2019-07-28T21:58:00Z</time></trkpt>
<trkpt lat="46.851324" lon="-121.748585"><ele>4051</ele><time>2019-07-28T21:58:00Z</time></trkpt>
<trkpt lat="46.851261" lon="-121.748548"><ele>4042</ele><time>2019-07-28T21:58:00Z</time></trkpt>
<trkpt lat="46.851163" lon="-121.748524"><ele>4041</ele><time>2019-07-28T21:59:00Z</time></trkpt>
<trkpt lat="46.851145" lon="-121.74846"><ele>4033</ele><time>2019-07-28T21:59:00Z</time></trkpt>
<trkpt lat="46.851096" lon="-121.748444"><ele>4031</ele><time>2019-07-28T21:59:00Z</time></trkpt>
<trkpt lat="46.85102" lon="-121.748399"><ele>4025</ele><time>2019-07-28T22:00:00Z</time></trkpt>
<trkpt lat="46.850995" lon="-121.748339"><ele>4018</ele><time>2019-07-28T22:00:00Z</time></trkpt>
<trkpt lat="46.850924" lon="-121.748282"><ele>4021</ele><time>2019-07-28T22:01:00Z</time></trkpt>
<trkpt lat="46.850873" lon="-121.74825"><ele>4016</ele><time>2019-07-28T22:01:00Z</time></trkpt>
<trkpt lat="46.850837" lon="-121.7482"><ele>4016</ele><time>2019-07-28T22:01:00Z</time></trkpt>
<trkpt lat="46.85076" lon="-121.748168"><ele>4015</ele><time>2019-07-28T22:02:00Z</time></trkpt>
<trkpt lat="46.850699" lon="-121.748141"><ele>4016</ele><time>2019-07-28T22:02:00Z</time></trkpt>
<trkpt lat="46.850729" lon="-121.748086"><ele>4015</ele><time>2019-07-28T22:02:00Z</time></trkpt>
<trkpt lat="46.850773" lon="-121.747979"><ele>4012</ele><time>2019-07-28T22:02:00Z</time></trkpt>
<trkpt lat="46.850796" lon="-121.747901"><ele>4007</ele><time>2019-07-28T22:03:00Z</time></trkpt>
<trkpt lat="46.850742" lon="-121.747833"><ele>4006</ele><time>2019-07-28T22:03:00Z</time></trkpt>
<trkpt lat="46.850692" lon="-121.747798"><ele>4000</ele><time>2019-07-28T22:03:00Z</time></trkpt>
<trkpt lat="46.850644" lon="-121.747751"><ele>3994</ele><time>2019-07-28T22:03:00Z</time></trkpt>
<trkpt lat="46.850685" lon="-121.74767"><ele>3990</ele><time>2019-07-28T22:04:00Z</time></trkpt>
<trkpt lat="46.850708" lon="-121.747606"><ele>3986</ele><time>2019-07-28T22:04:00Z</time></trkpt>
<trkpt lat="46.850739" lon="-121.747537"><ele>3984</ele><time>2019-07-28T22:04:00Z</time></trkpt>
<trkpt lat="46.850837" lon="-121.747411"><ele>3985</ele><time>2019-07-28T22:04:00Z</time></trkpt>
<trkpt lat="46.850862" lon="-121.747334"><ele>3979</ele><time>2019-07-28T22:05:00Z</time></trkpt>
<trkpt lat="46.850893" lon="-121.747281"><ele>3977</ele><time>2019-07-28T22:05:00Z</time></trkpt>
<trkpt lat="46.850883" lon="-121.747213"><ele>3973</ele><time>2019-07-28T22:06:00Z</time></trkpt>
<trkpt lat="46.8508" lon="-121.747163"><ele>3970</ele><time>2019-07-28T22:06:00Z</time></trkpt>
<trkpt lat="46.850755" lon="-121.747082"><ele>3966</ele><time>2019-07-28T22:06:00Z</time></trkpt>
<trkpt lat="46.850777" lon="-121.747013"><ele>3960</ele><time>2019-07-28T22:06:00Z</time></trkpt>
<trkpt lat="46.850827" lon="-121.746973"><ele>3957</ele><time>2019-07-28T22:07:00Z</time></trkpt>
<trkpt lat="46.850862" lon="-121.74692"><ele>3956</ele><time>2019-07-28T22:07:00Z</time></trkpt>
<trkpt lat="46.850917" lon="-121.746845"><ele>3955</ele><time>2019-07-28T22:07:00Z</time></trkpt>
<trkpt lat="46.850982" lon="-121.746746"><ele>3950</ele><time>2019-07-28T22:07:00Z</time></trkpt>
<trkpt lat="46.851023" lon="-121.746708"><ele>3943</ele><time>2019-07-28T22:08:00Z</time></trkpt>
<trkpt lat="46.851011" lon="-121.746637"><ele>3943</ele><time>2019-07-28T22:08:00Z</time></trkpt>
<trkpt lat="46.850934" lon="-121.746586"><ele>3940</ele><time>2019-07-28T22:09:00Z</time></trkpt>
<trkpt lat="46.850966" lon="-121.746493"><ele>3949</ele><time>2019-07-28T22:17:00Z</time></trkpt>
<trkpt lat="46.850867" lon="-121.746454"><ele>3946</ele><time>2019-07-28T22:22:00Z</time></trkpt>
<trkpt lat="46.850819" lon="-121.746417"><ele>3943</ele><time>2019-07-28T22:22:00Z</time></trkpt>
<trkpt lat="46.850732" lon="-121.746396"><ele>3931</ele><time>2019-07-28T22:25:00Z</time></trkpt>
<trkpt lat="46.850676" lon="-121.746346"><ele>3931</ele><time>2019-07-28T22:38:00Z</time></trkpt>
<trkpt lat="46.850606" lon="-121.746287"><ele>3928</ele><time>2019-07-28T22:38:00Z</time></trkpt>
<trkpt lat="46.850558" lon="-121.746238"><ele>3928</ele><time>2019-07-28T22:38:00Z</time></trkpt>
<trkpt lat="46.850523" lon="-121.746165"><ele>3928</ele><time>2019-07-28T22:38:00Z</time></trkpt>
<trkpt lat="46.850481" lon="-121.746114"><ele>3923</ele><time>2019-07-28T22:39:00Z</time></trkpt>
<trkpt lat="46.850415" lon="-121.746042"><ele>3918</ele><time>2019-07-28T22:39:00Z</time></trkpt>
<trkpt lat="46.850379" lon="-121.746005"><ele>3910</ele><time>2019-07-28T22:39:00Z</time></trkpt>
<trkpt lat="46.850337" lon="-121.745966"><ele>3909</ele><time>2019-07-28T22:39:00Z</time></trkpt>
<trkpt lat="46.850261" lon="-121.745903"><ele>3906</ele><time>2019-07-28T22:40:00Z</time></trkpt>
<trkpt lat="46.85027" lon="-121.745799"><ele>3899</ele><time>2019-07-28T22:40:00Z</time></trkpt>
<trkpt lat="46.850288" lon="-121.745738"><ele>3895</ele><time>2019-07-28T22:40:00Z</time></trkpt>
<trkpt lat="46.850314" lon="-121.745663"><ele>3894</ele><time>2019-07-28T22:40:00Z</time></trkpt>
<trkpt lat="46.850266" lon="-121.745672"><ele>3891</ele><time>2019-07-28T22:41:00Z</time></trkpt>
<trkpt lat="46.850228" lon="-121.745645"><ele>3891</ele><time>2019-07-28T22:41:00Z</time></trkpt>
<trkpt lat="46.850151" lon="-121.745651"><ele>3884</ele><time>2019-07-28T22:43:00Z</time></trkpt>
<trkpt lat="46.850062" lon="-121.74563"><ele>3881</ele><time>2019-07-28T22:43:00Z</time></trkpt>
<trkpt lat="46.849986" lon="-121.745601"><ele>3883</ele><time>2019-07-28T22:44:00Z</time></trkpt>
<trkpt lat="46.849916" lon="-121.745519"><ele>3891</ele><time>2019-07-28T22:44:00Z</time></trkpt>
<trkpt lat="46.84987" lon="-121.745479"><ele>3891</ele><time>2019-07-28T22:44:00Z</time></trkpt>
<trkpt lat="46.84983" lon="-121.745448"><ele>3892</ele><time>2019-07-28T22:44:00Z</time></trkpt>
<trkpt lat="46.849791" lon="-121.745425"><ele>3879</ele><time>2019-07-28T22:44:00Z</time></trkpt>
<trkpt lat="46.849714" lon="-121.74532"><ele>3876</ele><time>2019-07-28T22:45:00Z</time></trkpt>
<trkpt lat="46.84969" lon="-121.745228"><ele>3873</ele><time>2019-07-28T22:45:00Z</time></trkpt>
<trkpt lat="46.849652" lon="-121.745197"><ele>3870</ele><time>2019-07-28T22:45:00Z</time></trkpt>
<trkpt lat="46.8496" lon="-121.745208"><ele>3852</ele><time>2019-07-28T22:45:00Z</time></trkpt>
<trkpt lat="46.849526" lon="-121.745112"><ele>3845</ele><time>2019-07-28T22:46:00Z</time></trkpt>
<trkpt lat="46.849445" lon="-121.745024"><ele>3842</ele><time>2019-07-28T22:47:00Z</time></trkpt>
<trkpt lat="46.849409" lon="-121.744952"><ele>3834</ele><time>2019-07-28T22:47:00Z</time></trkpt>
<trkpt lat="46.849308" lon="-121.744847"><ele>3824</ele><time>2019-07-28T22:47:00Z</time></trkpt>
<trkpt lat="46.849233" lon="-121.744818"><ele>3823</ele><time>2019-07-28T22:48:00Z</time></trkpt>
<trkpt lat="46.849177" lon="-121.744783"><ele>3823</ele><time>2019-07-28T22:48:00Z</time></trkpt>
<trkpt lat="46.849177" lon="-121.744673"><ele>3820</ele><time>2019-07-28T22:48:00Z</time></trkpt>
<trkpt lat="46.849192" lon="-121.744599"><ele>3817</ele><time>2019-07-28T22:48:00Z</time></trkpt>
<trkpt lat="46.849097" lon="-121.74454"><ele>3810</ele><time>2019-07-28T22:49:00Z</time></trkpt>
<trkpt lat="46.849031" lon="-121.744473"><ele>3806</ele><time>2019-07-28T22:49:00Z</time></trkpt>
<trkpt lat="46.849042" lon="-121.744352"><ele>3803</ele><time>2019-07-28T22:49:00Z</time></trkpt>
<trkpt lat="46.84909" lon="-121.744212"><ele>3799</ele><time>2019-07-28T22:49:00Z</time></trkpt>
<trkpt lat="46.849115" lon="-121.74417"><ele>3798</ele><time>2019-07-28T22:49:00Z</time></trkpt>
<trkpt lat="46.849167" lon="-121.743993"><ele>3794</ele><time>2019-07-28T22:50:00Z</time></trkpt>
<trkpt lat="46.849202" lon="-121.743928"><ele>3789</ele><time>2019-07-28T22:50:00Z</time></trkpt>
<trkpt lat="46.849132" lon="-121.743853"><ele>3788</ele><time>2019-07-28T22:50:00Z</time></trkpt>
<trkpt lat="46.849084" lon="-121.74374"><ele>3781</ele><time>2019-07-28T22:50:00Z</time></trkpt>
<trkpt lat="46.849005" lon="-121.743666"><ele>3775</ele><time>2019-07-28T22:51:00Z</time></trkpt>
<trkpt lat="46.848974" lon="-121.743573"><ele>3774</ele><time>2019-07-28T22:51:00Z</time></trkpt>
<trkpt lat="46.848954" lon="-121.743448"><ele>3773</ele><time>2019-07-28T22:51:00Z</time></trkpt>
<trkpt lat="46.848952" lon="-121.743373"><ele>3771</ele><time>2019-07-28T22:51:00Z</time></trkpt>
<trkpt lat="46.848942" lon="-121.743299"><ele>3769</ele><time>2019-07-28T22:51:00Z</time></trkpt>
<trkpt lat="46.848984" lon="-121.743148"><ele>3764</ele><time>2019-07-28T22:52:00Z</time></trkpt>
<trkpt lat="46.849003" lon="-121.743048"><ele>3764</ele><time>2019-07-28T22:52:00Z</time></trkpt>
<trkpt lat="46.849038" lon="-121.742992"><ele>3765</ele><time>2019-07-28T22:52:00Z</time></trkpt>
<trkpt lat="46.849064" lon="-121.742925"><ele>3765</ele><time>2019-07-28T22:52:00Z</time></trkpt>
<trkpt lat="46.849094" lon="-121.742883"><ele>3766</ele><time>2019-07-28T22:52:00Z</time></trkpt>
<trkpt lat="46.849084" lon="-121.742815"><ele>3767</ele><time>2019-07-28T22:52:00Z</time></trkpt>
<trkpt lat="46.849115" lon="-121.742725"><ele>3762</ele><time>2019-07-28T22:52:00Z</time></trkpt>
<trkpt lat="46.849176" lon="-121.742635"><ele>3758</ele><time>2019-07-28T22:52:00Z</time></trkpt>
<trkpt lat="46.849218" lon="-121.742477"><ele>3756</ele><time>2019-07-28T22:53:00Z</time></trkpt>
<trkpt lat="46.84926" lon="-121.742375"><ele>3757</ele><time>2019-07-28T22:53:00Z</time></trkpt>
<trkpt lat="46.849295" lon="-121.742337"><ele>3756</ele><time>2019-07-28T22:53:00Z</time></trkpt>
<trkpt lat="46.849324" lon="-121.742266"><ele>3753</ele><time>2019-07-28T22:53:00Z</time></trkpt>
<trkpt lat="46.849346" lon="-121.742187"><ele>3751</ele><time>2019-07-28T22:53:00Z</time></trkpt>
<trkpt lat="46.849413" lon="-121.742035"><ele>3751</ele><time>2019-07-28T22:54:00Z</time></trkpt>
<trkpt lat="46.849438" lon="-121.741994"><ele>3751</ele><time>2019-07-28T22:54:00Z</time></trkpt>
<trkpt lat="46.84942" lon="-121.7419"><ele>3752</ele><time>2019-07-28T22:54:00Z</time></trkpt>
<trkpt lat="46.849395" lon="-121.741811"><ele>3743</ele><time>2019-07-28T22:55:00Z</time></trkpt>
<trkpt lat="46.849304" lon="-121.741785"><ele>3746</ele><time>2019-07-28T22:55:00Z</time></trkpt>
<trkpt lat="46.849255" lon="-121.741755"><ele>3744</ele><time>2019-07-28T22:56:00Z</time></trkpt>
<trkpt lat="46.849104" lon="-121.741533"><ele>3728</ele><time>2019-07-28T22:56:00Z</time></trkpt>
<trkpt lat="46.849077" lon="-121.741466"><ele>3726</ele><time>2019-07-28T22:58:00Z</time></trkpt>
<trkpt lat="46.849043" lon="-121.741416"><ele>3725</ele><time>2019-07-28T22:58:00Z</time></trkpt>
<trkpt lat="46.848972" lon="-121.741382"><ele>3726</ele><time>2019-07-28T22:58:00Z</time></trkpt>
<trkpt lat="46.848909" lon="-121.741361"><ele>3725</ele><time>2019-07-28T22:59:00Z</time></trkpt>
<trkpt lat="46.848868" lon="-121.741318"><ele>3719</ele><time>2019-07-28T22:59:00Z</time></trkpt>
<trkpt lat="46.848841" lon="-121.741262"><ele>3714</ele><time>2019-07-28T22:59:00Z</time></trkpt>
<trkpt lat="46.848857" lon="-121.741157"><ele>3711</ele><time>2019-07-28T22:59:00Z</time></trkpt>
<trkpt lat="46.848872" lon="-121.741026"><ele>3709</ele><time>2019-07-28T22:59:00Z</time></trkpt>
<trkpt lat="46.848889" lon="-121.74095"><ele>3704</ele><time>2019-07-28T23:00:00Z</time></trkpt>
<trkpt lat="46.848909" lon="-121.74087"><ele>3702</ele><time>2019-07-28T23:00:00Z</time></trkpt>
<trkpt lat="46.848937" lon="-121.740821"><ele>3700</ele><time>2019-07-28T23:00:00Z</time></trkpt>
<trkpt lat="46.848897" lon="-121.740796"><ele>3699</ele><time>2019-07-28T23:01:00Z</time></trkpt>
<trkpt lat="46.848786" lon="-121.740767"><ele>3699</ele><time>2019-07-28T23:02:00Z</time></trkpt>
<trkpt lat="46.848716" lon="-121.740721"><ele>3693</ele><time>2019-07-28T23:02:00Z</time></trkpt>
<trkpt lat="46.848643" lon="-121.740605"><ele>3685</ele><time>2019-07-28T23:03:00Z</time></trkpt>
<trkpt lat="46.848593" lon="-121.740492"><ele>3675</ele><time>2019-07-28T23:04:00Z</time></trkpt>
<trkpt lat="46.848551" lon="-121.740436"><ele>3673</ele><time>2019-07-28T23:04:00Z</time></trkpt>
<trkpt lat="46.848493" lon="-121.740379"><ele>3666</ele><time>2019-07-28T23:04:00Z</time></trkpt>
<trkpt lat="46.848444" lon="-121.740353"><ele>3665</ele><time>2019-07-28T23:05:00Z</time></trkpt>
<trkpt lat="46.848405" lon="-121.740296"><ele>3663</ele><time>2019-07-28T23:05:00Z</time></trkpt>
<trkpt lat="46.848367" lon="-121.740246"><ele>3658</ele><time>2019-07-28T23:06:00Z</time></trkpt>
<trkpt lat="46.848366" lon="-121.740138"><ele>3647</ele><time>2019-07-28T23:06:00Z</time></trkpt>
<trkpt lat="46.848402" lon="-121.740047"><ele>3649</ele><time>2019-07-28T23:07:00Z</time></trkpt>
<trkpt lat="46.848397" lon="-121.739972"><ele>3647</ele><time>2019-07-28T23:08:00Z</time></trkpt>
<trkpt lat="46.848434" lon="-121.739915"><ele>3641</ele><time>2019-07-28T23:08:00Z</time></trkpt>
<trkpt lat="46.848443" lon="-121.739832"><ele>3637</ele><time>2019-07-28T23:09:00Z</time></trkpt>
<trkpt lat="46.848482" lon="-121.73979"><ele>3635</ele><time>2019-07-28T23:09:00Z</time></trkpt>
<trkpt lat="46.84847" lon="-121.73968"><ele>3629</ele><time>2019-07-28T23:10:00Z</time></trkpt>
<trkpt lat="46.848455" lon="-121.739623"><ele>3622</ele><time>2019-07-28T23:12:00Z</time></trkpt>
<trkpt lat="46.848411" lon="-121.739529"><ele>3619</ele><time>2019-07-28T23:13:00Z</time></trkpt>
<trkpt lat="46.84838" lon="-121.739477"><ele>3618</ele><time>2019-07-28T23:13:00Z</time></trkpt>
<trkpt lat="46.848362" lon="-121.739408"><ele>3616</ele><time>2019-07-28T23:14:00Z</time></trkpt>
<trkpt lat="46.848283" lon="-121.739345"><ele>3609</ele><time>2019-07-28T23:16:00Z</time></trkpt>
<trkpt lat="46.848301" lon="-121.739256"><ele>3596</ele><time>2019-07-28T23:17:00Z</time></trkpt>
<trkpt lat="46.848283" lon="-121.739199"><ele>3592</ele><time>2019-07-28T23:18:00Z</time></trkpt>
<trkpt lat="46.848383" lon="-121.739226"><ele>3595</ele><time>2019-07-28T23:19:00Z</time></trkpt>
<trkpt lat="46.848415" lon="-121.739152"><ele>3593</ele><time>2019-07-28T23:20:00Z</time></trkpt>
<trkpt lat="46.848425" lon="-121.739085"><ele>3595</ele><time>2019-07-28T23:20:00Z</time></trkpt>
<trkpt lat="46.848446" lon="-121.739028"><ele>3592</ele><time>2019-07-28T23:21:00Z</time></trkpt>
<trkpt lat="46.848444" lon="-121.738945"><ele>3587</ele><time>2019-07-28T23:22:00Z</time></trkpt>
<trkpt lat="46.848424" lon="-121.738888"><ele>3587</ele><time>2019-07-28T23:22:00Z</time></trkpt>
<trkpt lat="46.848423" lon="-121.738805"><ele>3576</ele><time>2019-07-28T23:23:00Z</time></trkpt>
<trkpt lat="46.848452" lon="-121.738764"><ele>3576</ele><time>2019-07-28T23:24:00Z</time></trkpt>
<trkpt lat="46.84849" lon="-121.738677"><ele>3571</ele><time>2019-07-28T23:24:00Z</time></trkpt>
<trkpt lat="46.848471" lon="-121.738619"><ele>3568</ele><time>2019-07-28T23:25:00Z</time></trkpt>
<trkpt lat="46.848431" lon="-121.738568"><ele>3569</ele><time>2019-07-28T23:25:00Z</time></trkpt>
<trkpt lat="46.848429" lon="-121.738474"><ele>3568</ele><time>2019-07-28T23:25:00Z</time></trkpt>
<trkpt lat="46.84847" lon="-121.738441"><ele>3560</ele><time>2019-07-28T23:25:00Z</time></trkpt>
<trkpt lat="46.848522" lon="-121.738373"><ele>3559</ele><time>2019-07-28T23:26:00Z</time></trkpt>
<trkpt lat="46.848489" lon="-121.738248"><ele>3560</ele><time>2019-07-28T23:26:00Z</time></trkpt>
<trkpt lat="46.848502" lon="-121.738153"><ele>3557</ele><time>2019-07-28T23:26:00Z</time></trkpt>
<trkpt lat="46.848529" lon="-121.738097"><ele>3556</ele><time>2019-07-28T23:27:00Z</time></trkpt>
<trkpt lat="46.848528" lon="-121.738019"><ele>3552</ele><time>2019-07-28T23:27:00Z</time></trkpt>
<trkpt lat="46.848544" lon="-121.737944"><ele>3555</ele><time>2019-07-28T23:27:00Z</time></trkpt>
<trkpt lat="46.848559" lon="-121.737802"><ele>3555</ele><time>2019-07-28T23:27:00Z</time></trkpt>
<trkpt lat="46.848548" lon="-121.737685"><ele>3552</ele><time>2019-07-28T23:28:00Z</time></trkpt>
<trkpt lat="46.848631" lon="-121.737594"><ele>3549</ele><time>2019-07-28T23:28:00Z</time></trkpt>
<trkpt lat="46.848664" lon="-121.737512"><ele>3548</ele><time>2019-07-28T23:28:00Z</time></trkpt>
<trkpt lat="46.848711" lon="-121.737502"><ele>3548</ele><time>2019-07-28T23:28:00Z</time></trkpt>
<trkpt lat="46.848718" lon="-121.737393"><ele>3549</ele><time>2019-07-28T23:30:00Z</time></trkpt>
<trkpt lat="46.848767" lon="-121.737369"><ele>3548</ele><time>2019-07-28T23:48:00Z</time></trkpt>
<trkpt lat="46.848737" lon="-121.737334"><ele>3546</ele><time>2019-07-28T23:48:00Z</time></trkpt>
<trkpt lat="46.84871" lon="-121.737263"><ele>3546</ele><time>2019-07-28T23:49:00Z</time></trkpt>
<trkpt lat="46.848664" lon="-121.737301"><ele>3541</ele><time>2019-07-28T23:49:00Z</time></trkpt>
<trkpt lat="46.848677" lon="-121.737396"><ele>3536</ele><time>2019-07-28T23:49:00Z</time></trkpt>
<trkpt lat="46.848662" lon="-121.737326"><ele>3537</ele><time>2019-07-28T23:49:00Z</time></trkpt>
<trkpt lat="46.848688" lon="-121.737256"><ele>3535</ele><time>2019-07-28T23:50:00Z</time></trkpt>
<trkpt lat="46.848729" lon="-121.737221"><ele>3536</ele><time>2019-07-28T23:50:00Z</time></trkpt>
<trkpt lat="46.848708" lon="-121.737107"><ele>3530</ele><time>2019-07-28T23:52:00Z</time></trkpt>
<trkpt lat="46.848726" lon="-121.737037"><ele>3528</ele><time>2019-07-28T23:52:00Z</time></trkpt>
<trkpt lat="46.848781" lon="-121.737041"><ele>3523</ele><time>2019-07-28T23:53:00Z</time></trkpt>
<trkpt lat="46.84882" lon="-121.737001"><ele>3522</ele><time>2019-07-28T23:54:00Z</time></trkpt>
<trkpt lat="46.848799" lon="-121.736937"><ele>3518</ele><time>2019-07-28T23:54:00Z</time></trkpt>
<trkpt lat="46.848837" lon="-121.736884"><ele>3517</ele><time>2019-07-28T23:55:00Z</time></trkpt>
<trkpt lat="46.848793" lon="-121.736825"><ele>3517</ele><time>2019-07-28T23:55:00Z</time></trkpt>
<trkpt lat="46.848728" lon="-121.736815"><ele>3512</ele><time>2019-07-28T23:57:00Z</time></trkpt>
<trkpt lat="46.848746" lon="-121.736749"><ele>3507</ele><time>2019-07-28T23:58:00Z</time></trkpt>
<trkpt lat="46.848773" lon="-121.736788"><ele>3508</ele><time>2019-07-28T23:58:00Z</time></trkpt>
<trkpt lat="46.848745" lon="-121.736748"><ele>3508</ele><time>2019-07-28T23:58:00Z</time></trkpt>
<trkpt lat="46.848789" lon="-121.73673"><ele>3509</ele><time>2019-07-28T23:59:00Z</time></trkpt>
<trkpt lat="46.848858" lon="-121.736681"><ele>3509</ele><time>2019-07-29T00:00:00Z</time></trkpt>
<trkpt lat="46.848866" lon="-121.736602"><ele>3507</ele><time>2019-07-29T00:00:00Z</time></trkpt>
<trkpt lat="46.848862" lon="-121.736486"><ele>3500</ele><time>2019-07-29T00:01:00Z</time></trkpt>
<trkpt lat="46.848869" lon="-121.736381"><ele>3496</ele><time>2019-07-29T00:02:00Z</time></trkpt>
<trkpt lat="46.848848" lon="-121.736323"><ele>3493</ele><time>2019-07-29T00:03:00Z</time></trkpt>
<trkpt lat="46.848839" lon="-121.736247"><ele>3493</ele><time>2019-07-29T00:03:00Z</time></trkpt>
<trkpt lat="46.848795" lon="-121.73635"><ele>3488</ele><time>2019-07-29T00:04:00Z</time></trkpt>
<trkpt lat="46.848761" lon="-121.736389"><ele>3487</ele><time>2019-07-29T00:04:00Z</time></trkpt>
<trkpt lat="46.848661" lon="-121.736466"><ele>3483</ele><time>2019-07-29T00:04:00Z</time></trkpt>
<trkpt lat="46.848612" lon="-121.736479"><ele>3480</ele><time>2019-07-29T00:04:00Z</time></trkpt>
<trkpt lat="46.848564" lon="-121.736511"><ele>3482</ele><time>2019-07-29T00:05:00Z</time></trkpt>
<trkpt lat="46.848504" lon="-121.736521"><ele>3482</ele><time>2019-07-29T00:05:00Z</time></trkpt>
<trkpt lat="46.848413" lon="-121.736525"><ele>3478</ele><time>2019-07-29T00:06:00Z</time></trkpt>
<trkpt lat="46.848351" lon="-121.736532"><ele>3467</ele><time>2019-07-29T00:06:00Z</time></trkpt>
<trkpt lat="46.848284" lon="-121.736497"><ele>3467</ele><time>2019-07-29T00:07:00Z</time></trkpt>
<trkpt lat="46.848223" lon="-121.736514"><ele>3464</ele><time>2019-07-29T00:07:00Z</time></trkpt>
<trkpt lat="46.848173" lon="-121.736509"><ele>3464</ele><time>2019-07-29T00:07:00Z</time></trkpt>
<trkpt lat="46.848137" lon="-121.736551"><ele>3465</ele><time>2019-07-29T00:07:00Z</time></trkpt>
<trkpt lat="46.848111" lon="-121.73666"><ele>3459</ele><time>2019-07-29T00:07:00Z</time></trkpt>
<trkpt lat="46.848145" lon="-121.736719"><ele>3465</ele><time>2019-07-29T00:08:00Z</time></trkpt>
<trkpt lat="46.848132" lon="-121.736817"><ele>3463</ele><time>2019-07-29T00:09:00Z</time></trkpt>
<trkpt lat="46.848104" lon="-121.736887"><ele>3462</ele><time>2019-07-29T00:09:00Z</time></trkpt>
<trkpt lat="46.848073" lon="-121.736959"><ele>3462</ele><time>2019-07-29T00:09:00Z</time></trkpt>
<trkpt lat="46.848084" lon="-121.737031"><ele>3464</ele><time>2019-07-29T00:09:00Z</time></trkpt>
<trkpt lat="46.848059" lon="-121.737098"><ele>3465</ele><time>2019-07-29T00:10:00Z</time></trkpt>
<trkpt lat="46.848032" lon="-121.737213"><ele>3465</ele><time>2019-07-29T00:11:00Z</time></trkpt>
<trkpt lat="46.847964" lon="-121.737266"><ele>3466</ele><time>2019-07-29T00:11:00Z</time></trkpt>
<trkpt lat="46.847883" lon="-121.737348"><ele>3468</ele><time>2019-07-29T00:12:00Z</time></trkpt>
<trkpt lat="46.847819" lon="-121.73742"><ele>3469</ele><time>2019-07-29T00:12:00Z</time></trkpt>
<trkpt lat="46.847739" lon="-121.73746"><ele>3470</ele><time>2019-07-29T00:12:00Z</time></trkpt>
<trkpt lat="46.8477" lon="-121.737488"><ele>3468</ele><time>2019-07-29T00:12:00Z</time></trkpt>
<trkpt lat="46.847672" lon="-121.737561"><ele>3467</ele><time>2019-07-29T00:12:00Z</time></trkpt>
<trkpt lat="46.847645" lon="-121.7376"><ele>3466</ele><time>2019-07-29T00:13:00Z</time></trkpt>
<trkpt lat="46.8476" lon="-121.737623"><ele>3466</ele><time>2019-07-29T00:13:00Z</time></trkpt>
<trkpt lat="46.847519" lon="-121.737723"><ele>3466</ele><time>2019-07-29T00:13:00Z</time></trkpt>
<trkpt lat="46.847495" lon="-121.737793"><ele>3465</ele><time>2019-07-29T00:13:00Z</time></trkpt>
<trkpt lat="46.847444" lon="-121.737807"><ele>3464</ele><time>2019-07-29T00:13:00Z</time></trkpt>
<trkpt lat="46.847396" lon="-121.737835"><ele>3462</ele><time>2019-07-29T00:14:00Z</time></trkpt>
<trkpt lat="46.847333" lon="-121.737839"><ele>3462</ele><time>2019-07-29T00:14:00Z</time></trkpt>
<trkpt lat="46.847295" lon="-121.737887"><ele>3462</ele><time>2019-07-29T00:14:00Z</time></trkpt>
<trkpt lat="46.847205" lon="-121.737938"><ele>3466</ele><time>2019-07-29T00:14:00Z</time></trkpt>
<trkpt lat="46.847122" lon="-121.737978"><ele>3460</ele><time>2019-07-29T00:14:00Z</time></trkpt>
<trkpt lat="46.847049" lon="-121.737991"><ele>3466</ele><time>2019-07-29T00:15:00Z</time></trkpt>
<trkpt lat="46.846971" lon="-121.738052"><ele>3465</ele><time>2019-07-29T00:15:00Z</time></trkpt>
<trkpt lat="46.84692" lon="-121.738132"><ele>3464</ele><time>2019-07-29T00:15:00Z</time></trkpt>
<trkpt lat="46.846873" lon="-121.738149"><ele>3464</ele><time>2019-07-29T00:15:00Z</time></trkpt>
<trkpt lat="46.846746" lon="-121.73821"><ele>3461</ele><time>2019-07-29T00:16:00Z</time></trkpt>
<trkpt lat="46.846705" lon="-121.738261"><ele>3462</ele><time>2019-07-29T00:16:00Z</time></trkpt>
<trkpt lat="46.846649" lon="-121.738263"><ele>3464</ele><time>2019-07-29T00:16:00Z</time></trkpt>
<trkpt lat="46.846542" lon="-121.738333"><ele>3464</ele><time>2019-07-29T00:16:00Z</time></trkpt>
<trkpt lat="46.846435" lon="-121.73832"><ele>3465</ele><time>2019-07-29T00:17:00Z</time></trkpt>
<trkpt lat="46.846359" lon="-121.738273"><ele>3466</ele><time>2019-07-29T00:17:00Z</time></trkpt>
<trkpt lat="46.846306" lon="-121.738234"><ele>3464</ele><time>2019-07-29T00:17:00Z</time></trkpt>
<trkpt lat="46.846236" lon="-121.738231"><ele>3461</ele><time>2019-07-29T00:17:00Z</time></trkpt>
<trkpt lat="46.846152" lon="-121.738259"><ele>3454</ele><time>2019-07-29T00:18:00Z</time></trkpt>
<trkpt lat="46.846072" lon="-121.73824"><ele>3464</ele><time>2019-07-29T00:18:00Z</time></trkpt>
<trkpt lat="46.845981" lon="-121.738329"><ele>3467</ele><time>2019-07-29T00:19:00Z</time></trkpt>
<trkpt lat="46.845928" lon="-121.738349"><ele>3469</ele><time>2019-07-29T00:19:00Z</time></trkpt>
<trkpt lat="46.845849" lon="-121.738356"><ele>3469</ele><time>2019-07-29T00:20:00Z</time></trkpt>
<trkpt lat="46.845811" lon="-121.738381"><ele>3466</ele><time>2019-07-29T00:20:00Z</time></trkpt>
<trkpt lat="46.845759" lon="-121.738357"><ele>3466</ele><time>2019-07-29T00:20:00Z</time></trkpt>
<trkpt lat="46.845686" lon="-121.738322"><ele>3464</ele><time>2019-07-29T00:21:00Z</time></trkpt>
<trkpt lat="46.845698" lon="-121.738197"><ele>3461</ele><time>2019-07-29T00:21:00Z</time></trkpt>
<trkpt lat="46.845727" lon="-121.73812"><ele>3460</ele><time>2019-07-29T00:21:00Z</time></trkpt>
<trkpt lat="46.845769" lon="-121.738082"><ele>3459</ele><time>2019-07-29T00:21:00Z</time></trkpt>
<trkpt lat="46.845773" lon="-121.737972"><ele>3459</ele><time>2019-07-29T00:21:00Z</time></trkpt>
<trkpt lat="46.845645" lon="-121.737808"><ele>3454</ele><time>2019-07-29T00:22:00Z</time></trkpt>
<trkpt lat="46.845642" lon="-121.7377"><ele>3454</ele><time>2019-07-29T00:22:00Z</time></trkpt>
<trkpt lat="46.845691" lon="-121.737628"><ele>3450</ele><time>2019-07-29T00:22:00Z</time></trkpt>
<trkpt lat="46.845718" lon="-121.737545"><ele>3451</ele><time>2019-07-29T00:22:00Z</time></trkpt>
<trkpt lat="46.845697" lon="-121.73743"><ele>3451</ele><time>2019-07-29T00:23:00Z</time></trkpt>
<trkpt lat="46.845689" lon="-121.737355"><ele>3448</ele><time>2019-07-29T00:23:00Z</time></trkpt>
<trkpt lat="46.845661" lon="-121.737246"><ele>3443</ele><time>2019-07-29T00:23:00Z</time></trkpt>
<trkpt lat="46.845601" lon="-121.737135"><ele>3439</ele><time>2019-07-29T00:23:00Z</time></trkpt>
<trkpt lat="46.845542" lon="-121.737052"><ele>3436</ele><time>2019-07-29T00:24:00Z</time></trkpt>
<trkpt lat="46.845512" lon="-121.736921"><ele>3431</ele><time>2019-07-29T00:24:00Z</time></trkpt>
<trkpt lat="46.845456" lon="-121.736842"><ele>3431</ele><time>2019-07-29T00:24:00Z</time></trkpt>
<trkpt lat="46.84545" lon="-121.736689"><ele>3425</ele><time>2019-07-29T00:24:00Z</time></trkpt>
<trkpt lat="46.845412" lon="-121.736487"><ele>3417</ele><time>2019-07-29T00:25:00Z</time></trkpt>
<trkpt lat="46.845419" lon="-121.736401"><ele>3414</ele><time>2019-07-29T00:25:00Z</time></trkpt>
<trkpt lat="46.845386" lon="-121.736251"><ele>3412</ele><time>2019-07-29T00:25:00Z</time></trkpt>
<trkpt lat="46.845391" lon="-121.73614"><ele>3412</ele><time>2019-07-29T00:25:00Z</time></trkpt>
<trkpt lat="46.845381" lon="-121.736004"><ele>3410</ele><time>2019-07-29T00:26:00Z</time></trkpt>
<trkpt lat="46.845359" lon="-121.735864"><ele>3407</ele><time>2019-07-29T00:26:00Z</time></trkpt>
<trkpt lat="46.845316" lon="-121.73576"><ele>3407</ele><time>2019-07-29T00:26:00Z</time></trkpt>
<trkpt lat="46.845297" lon="-121.735657"><ele>3403</ele><time>2019-07-29T00:26:00Z</time></trkpt>
<trkpt lat="46.845271" lon="-121.735616"><ele>3401</ele><time>2019-07-29T00:26:00Z</time></trkpt>
<trkpt lat="46.845232" lon="-121.735519"><ele>3398</ele><time>2019-07-29T00:27:00Z</time></trkpt>
<trkpt lat="46.845238" lon="-121.735447"><ele>3397</ele><time>2019-07-29T00:27:00Z</time></trkpt>
<trkpt lat="46.845228" lon="-121.735372"><ele>3397</ele><time>2019-07-29T00:27:00Z</time></trkpt>
<trkpt lat="46.845148" lon="-121.735213"><ele>3392</ele><time>2019-07-29T00:27:00Z</time></trkpt>
<trkpt lat="46.845126" lon="-121.735139"><ele>3390</ele><time>2019-07-29T00:28:00Z</time></trkpt>
<trkpt lat="46.845102" lon="-121.735018"><ele>3385</ele><time>2019-07-29T00:28:00Z</time></trkpt>
<trkpt lat="46.845047" lon="-121.734905"><ele>3381</ele><time>2019-07-29T00:28:00Z</time></trkpt>
<trkpt lat="46.844964" lon="-121.734796"><ele>3375</ele><time>2019-07-29T00:28:00Z</time></trkpt>
<trkpt lat="46.844905" lon="-121.734735"><ele>3372</ele><time>2019-07-29T00:28:00Z</time></trkpt>
<trkpt lat="46.84483" lon="-121.734517"><ele>3370</ele><time>2019-07-29T00:29:00Z</time></trkpt>
<trkpt lat="46.844782" lon="-121.734426"><ele>3370</ele><time>2019-07-29T00:29:00Z</time></trkpt>
<trkpt lat="46.844755" lon="-121.734291"><ele>3367</ele><time>2019-07-29T00:29:00Z</time></trkpt>
<trkpt lat="46.844651" lon="-121.734066"><ele>3359</ele><time>2019-07-29T00:29:00Z</time></trkpt>
<trkpt lat="46.844534" lon="-121.733874"><ele>3351</ele><time>2019-07-29T00:30:00Z</time></trkpt>
<trkpt lat="46.844522" lon="-121.733809"><ele>3352</ele><time>2019-07-29T00:30:00Z</time></trkpt>
<trkpt lat="46.8445" lon="-121.733753"><ele>3351</ele><time>2019-07-29T00:30:00Z</time></trkpt>
<trkpt lat="46.844431" lon="-121.733649"><ele>3347</ele><time>2019-07-29T00:30:00Z</time></trkpt>
<trkpt lat="46.844368" lon="-121.733561"><ele>3342</ele><time>2019-07-29T00:30:00Z</time></trkpt>
<trkpt lat="46.844315" lon="-121.73345"><ele>3343</ele><time>2019-07-29T00:30:00Z</time></trkpt>
<trkpt lat="46.84418" lon="-121.733312"><ele>3342</ele><time>2019-07-29T00:31:00Z</time></trkpt>
<trkpt lat="46.84413" lon="-121.733241"><ele>3343</ele><time>2019-07-29T00:31:00Z</time></trkpt>
<trkpt lat="46.844063" lon="-121.733216"><ele>3341</ele><time>2019-07-29T00:31:00Z</time></trkpt>
<trkpt lat="46.84405" lon="-121.733147"><ele>3338</ele><time>2019-07-29T00:31:00Z</time></trkpt>
<trkpt lat="46.843958" lon="-121.73304"><ele>3340</ele><time>2019-07-29T00:31:00Z</time></trkpt>
<trkpt lat="46.843912" lon="-121.733001"><ele>3339</ele><time>2019-07-29T00:32:00Z</time></trkpt>
<trkpt lat="46.843842" lon="-121.732952"><ele>3336</ele><time>2019-07-29T00:32:00Z</time></trkpt>
<trkpt lat="46.843775" lon="-121.732924"><ele>3334</ele><time>2019-07-29T00:32:00Z</time></trkpt>
<trkpt lat="46.843743" lon="-121.732887"><ele>3335</ele><time>2019-07-29T00:32:00Z</time></trkpt>
<trkpt lat="46.843714" lon="-121.732788"><ele>3336</ele><time>2019-07-29T00:32:00Z</time></trkpt>
<trkpt lat="46.843714" lon="-121.732671"><ele>3339</ele><time>2019-07-29T00:32:00Z</time></trkpt>
<trkpt lat="46.843689" lon="-121.732499"><ele>3337</ele><time>2019-07-29T00:32:00Z</time></trkpt>
<trkpt lat="46.843698" lon="-121.732423"><ele>3338</ele><time>2019-07-29T00:32:00Z</time></trkpt>
<trkpt lat="46.84373" lon="-121.732262"><ele>3341</ele><time>2019-07-29T00:33:00Z</time></trkpt>
<trkpt lat="46.843686" lon="-121.732161"><ele>3340</ele><time>2019-07-29T00:33:00Z</time></trkpt>
<trkpt lat="46.843658" lon="-121.73211"><ele>3339</ele><time>2019-07-29T00:33:00Z</time></trkpt>
<trkpt lat="46.843628" lon="-121.732025"><ele>3339</ele><time>2019-07-29T00:33:00Z</time></trkpt>
<trkpt lat="46.843636" lon="-121.731908"><ele>3338</ele><time>2019-07-29T00:33:00Z</time></trkpt>
<trkpt lat="46.843619" lon="-121.731856"><ele>3336</ele><time>2019-07-29T00:33:00Z</time></trkpt>
<trkpt lat="46.843627" lon="-121.731732"><ele>3332</ele><time>2019-07-29T00:33:00Z</time></trkpt>
<trkpt lat="46.843611" lon="-121.731661"><ele>3330</ele><time>2019-07-29T00:34:00Z</time></trkpt>
<trkpt lat="46.843616" lon="-121.731511"><ele>3331</ele><time>2019-07-29T00:34:00Z</time></trkpt>
<trkpt lat="46.843597" lon="-121.731401"><ele>3328</ele><time>2019-07-29T00:34:00Z</time></trkpt>
<trkpt lat="46.843599" lon="-121.731268"><ele>3324</ele><time>2019-07-29T00:34:00Z</time></trkpt>
<trkpt lat="46.843564" lon="-121.731132"><ele>3323</ele><time>2019-07-29T00:34:00Z</time></trkpt>
<trkpt lat="46.843514" lon="-121.730885"><ele>3321</ele><time>2019-07-29T00:35:00Z</time></trkpt>
<trkpt lat="46.843498" lon="-121.730802"><ele>3320</ele><time>2019-07-29T00:35:00Z</time></trkpt>
<trkpt lat="46.843457" lon="-121.730722"><ele>3314</ele><time>2019-07-29T00:35:00Z</time></trkpt>
<trkpt lat="46.843407" lon="-121.73068"><ele>3311</ele><time>2019-07-29T00:35:00Z</time></trkpt>
<trkpt lat="46.843351" lon="-121.730642"><ele>3305</ele><time>2019-07-29T00:36:00Z</time></trkpt>
<trkpt lat="46.843237" lon="-121.730604"><ele>3303</ele><time>2019-07-29T00:36:00Z</time></trkpt>
<trkpt lat="46.84319" lon="-121.730574"><ele>3294</ele><time>2019-07-29T00:37:00Z</time></trkpt>
<trkpt lat="46.843185" lon="-121.730466"><ele>3283</ele><time>2019-07-29T00:37:00Z</time></trkpt>
<trkpt lat="46.8432" lon="-121.730394"><ele>3280</ele><time>2019-07-29T00:37:00Z</time></trkpt>
<trkpt lat="46.843229" lon="-121.730276"><ele>3279</ele><time>2019-07-29T00:38:00Z</time></trkpt>
<trkpt lat="46.843195" lon="-121.730224"><ele>3277</ele><time>2019-07-29T00:38:00Z</time></trkpt>
<trkpt lat="46.843189" lon="-121.730146"><ele>3281</ele><time>2019-07-29T00:38:00Z</time></trkpt>
<trkpt lat="46.843144" lon="-121.730103"><ele>3281</ele><time>2019-07-29T00:38:00Z</time></trkpt>
<trkpt lat="46.843097" lon="-121.730082"><ele>3278</ele><time>2019-07-29T00:38:00Z</time></trkpt>
<trkpt lat="46.843023" lon="-121.730046"><ele>3276</ele><time>2019-07-29T00:39:00Z</time></trkpt>
<trkpt lat="46.842981" lon="-121.729945"><ele>3276</ele><time>2019-07-29T00:39:00Z</time></trkpt>
<trkpt lat="46.842909" lon="-121.729924"><ele>3275</ele><time>2019-07-29T00:39:00Z</time></trkpt>
<trkpt lat="46.842863" lon="-121.729863"><ele>3270</ele><time>2019-07-29T00:40:00Z</time></trkpt>
<trkpt lat="46.842814" lon="-121.729835"><ele>3270</ele><time>2019-07-29T00:40:00Z</time></trkpt>
<trkpt lat="46.84284" lon="-121.729777"><ele>3273</ele><time>2019-07-29T00:40:00Z</time></trkpt>
<trkpt lat="46.84284" lon="-121.729697"><ele>3275</ele><time>2019-07-29T00:41:00Z</time></trkpt>
<trkpt lat="46.842834" lon="-121.729626"><ele>3276</ele><time>2019-07-29T00:41:00Z</time></trkpt>
<trkpt lat="46.842799" lon="-121.729588"><ele>3275</ele><time>2019-07-29T00:41:00Z</time></trkpt>
<trkpt lat="46.842765" lon="-121.729488"><ele>3277</ele><time>2019-07-29T00:41:00Z</time></trkpt>
<trkpt lat="46.842718" lon="-121.729444"><ele>3276</ele><time>2019-07-29T00:41:00Z</time></trkpt>
<trkpt lat="46.842641" lon="-121.729313"><ele>3267</ele><time>2019-07-29T00:42:00Z</time></trkpt>
<trkpt lat="46.842596" lon="-121.72926"><ele>3268</ele><time>2019-07-29T00:42:00Z</time></trkpt>
<trkpt lat="46.842565" lon="-121.729131"><ele>3262</ele><time>2019-07-29T00:43:00Z</time></trkpt>
<trkpt lat="46.842535" lon="-121.72906"><ele>3261</ele><time>2019-07-29T00:43:00Z</time></trkpt>
<trkpt lat="46.842466" lon="-121.72902"><ele>3261</ele><time>2019-07-29T00:43:00Z</time></trkpt>
<trkpt lat="46.842389" lon="-121.729038"><ele>3258</ele><time>2019-07-29T00:43:00Z</time></trkpt>
<trkpt lat="46.842383" lon="-121.72911"><ele>3254</ele><time>2019-07-29T00:44:00Z</time></trkpt>
<trkpt lat="46.842377" lon="-121.729182"><ele>3246</ele><time>2019-07-29T00:44:00Z</time></trkpt>
<trkpt lat="46.842349" lon="-121.729245"><ele>3245</ele><time>2019-07-29T00:44:00Z</time></trkpt>
<trkpt lat="46.842315" lon="-121.729275"><ele>3246</ele><time>2019-07-29T00:44:00Z</time></trkpt>
<trkpt lat="46.842263" lon="-121.729315"><ele>3249</ele><time>2019-07-29T00:45:00Z</time></trkpt>
<trkpt lat="46.842215" lon="-121.729332"><ele>3250</ele><time>2019-07-29T00:45:00Z</time></trkpt>
<trkpt lat="46.842177" lon="-121.729363"><ele>3252</ele><time>2019-07-29T00:45:00Z</time></trkpt>
<trkpt lat="46.842147" lon="-121.729406"><ele>3250</ele><time>2019-07-29T00:45:00Z</time></trkpt>
<trkpt lat="46.842114" lon="-121.729343"><ele>3249</ele><time>2019-07-29T00:45:00Z</time></trkpt>
<trkpt lat="46.842054" lon="-121.729305"><ele>3249</ele><time>2019-07-29T00:45:00Z</time></trkpt>
<trkpt lat="46.841999" lon="-121.729287"><ele>3248</ele><time>2019-07-29T00:45:00Z</time></trkpt>
<trkpt lat="46.841912" lon="-121.729268"><ele>3242</ele><time>2019-07-29T00:46:00Z</time></trkpt>
<trkpt lat="46.841855" lon="-121.729253"><ele>3242</ele><time>2019-07-29T00:46:00Z</time></trkpt>
<trkpt lat="46.841785" lon="-121.729246"><ele>3243</ele><time>2019-07-29T00:46:00Z</time></trkpt>
<trkpt lat="46.841742" lon="-121.72921"><ele>3246</ele><time>2019-07-29T00:47:00Z</time></trkpt>
<trkpt lat="46.84169" lon="-121.729194"><ele>3246</ele><time>2019-07-29T00:47:00Z</time></trkpt>
<trkpt lat="46.841646" lon="-121.729146"><ele>3235</ele><time>2019-07-29T00:47:00Z</time></trkpt>
<trkpt lat="46.841622" lon="-121.729059"><ele>3226</ele><time>2019-07-29T00:48:00Z</time></trkpt>
<trkpt lat="46.841605" lon="-121.729123"><ele>3220</ele><time>2019-07-29T00:48:00Z</time></trkpt>
<trkpt lat="46.841589" lon="-121.729203"><ele>3218</ele><time>2019-07-29T00:48:00Z</time></trkpt>
<trkpt lat="46.8416" lon="-121.729347"><ele>3211</ele><time>2019-07-29T00:49:00Z</time></trkpt>
<trkpt lat="46.841577" lon="-121.72939"><ele>3214</ele><time>2019-07-29T00:49:00Z</time></trkpt>
<trkpt lat="46.841567" lon="-121.729515"><ele>3215</ele><time>2019-07-29T00:49:00Z</time></trkpt>
<trkpt lat="46.841601" lon="-121.729569"><ele>3203</ele><time>2019-07-29T00:50:00Z</time></trkpt>
<trkpt lat="46.84169" lon="-121.729636"><ele>3196</ele><time>2019-07-29T00:50:00Z</time></trkpt>
<trkpt lat="46.841673" lon="-121.729731"><ele>3195</ele><time>2019-07-29T00:50:00Z</time></trkpt>
<trkpt lat="46.841717" lon="-121.729782"><ele>3189</ele><time>2019-07-29T00:51:00Z</time></trkpt>
<trkpt lat="46.841731" lon="-121.729964"><ele>3188</ele><time>2019-07-29T00:51:00Z</time></trkpt>
<trkpt lat="46.841723" lon="-121.730087"><ele>3188</ele><time>2019-07-29T00:51:00Z</time></trkpt>
<trkpt lat="46.841759" lon="-121.730241"><ele>3180</ele><time>2019-07-29T00:51:00Z</time></trkpt>
<trkpt lat="46.841731" lon="-121.730546"><ele>3180</ele><time>2019-07-29T00:52:00Z</time></trkpt>
<trkpt lat="46.841833" lon="-121.73058"><ele>3179</ele><time>2019-07-29T00:52:00Z</time></trkpt>
<trkpt lat="46.841789" lon="-121.73069"><ele>3178</ele><time>2019-07-29T00:52:00Z</time></trkpt>
<trkpt lat="46.84174" lon="-121.730805"><ele>3178</ele><time>2019-07-29T00:52:00Z</time></trkpt>
<trkpt lat="46.84173" lon="-121.730948"><ele>3178</ele><time>2019-07-29T00:53:00Z</time></trkpt>
<trkpt lat="46.841635" lon="-121.731097"><ele>3178</ele><time>2019-07-29T00:53:00Z</time></trkpt>
<trkpt lat="46.841622" lon="-121.731161"><ele>3175</ele><time>2019-07-29T00:53:00Z</time></trkpt>
<trkpt lat="46.841619" lon="-121.731265"><ele>3174</ele><time>2019-07-29T00:53:00Z</time></trkpt>
<trkpt lat="46.841607" lon="-121.73133"><ele>3168</ele><time>2019-07-29T00:53:00Z</time></trkpt>
<trkpt lat="46.841612" lon="-121.731399"><ele>3163</ele><time>2019-07-29T00:53:00Z</time></trkpt>
<trkpt lat="46.841533" lon="-121.731578"><ele>3163</ele><time>2019-07-29T00:54:00Z</time></trkpt>
<trkpt lat="46.841487" lon="-121.731751"><ele>3156</ele><time>2019-07-29T00:54:00Z</time></trkpt>
<trkpt lat="46.841441" lon="-121.731826"><ele>3153</ele><time>2019-07-29T00:54:00Z</time></trkpt>
<trkpt lat="46.841406" lon="-121.731943"><ele>3147</ele><time>2019-07-29T00:55:00Z</time></trkpt>
<trkpt lat="46.841348" lon="-121.732005"><ele>3146</ele><time>2019-07-29T00:55:00Z</time></trkpt>
<trkpt lat="46.841328" lon="-121.73207"><ele>3142</ele><time>2019-07-29T00:55:00Z</time></trkpt>
<trkpt lat="46.841306" lon="-121.732194"><ele>3139</ele><time>2019-07-29T00:55:00Z</time></trkpt>
<trkpt lat="46.841214" lon="-121.732244"><ele>3139</ele><time>2019-07-29T00:55:00Z</time></trkpt>
<trkpt lat="46.841161" lon="-121.732287"><ele>3138</ele><time>2019-07-29T00:55:00Z</time></trkpt>
<trkpt lat="46.84108" lon="-121.732405"><ele>3141</ele><time>2019-07-29T00:56:00Z</time></trkpt>
<trkpt lat="46.840925" lon="-121.732572"><ele>3146</ele><time>2019-07-29T00:56:00Z</time></trkpt>
<trkpt lat="46.840836" lon="-121.732552"><ele>3143</ele><time>2019-07-29T00:56:00Z</time></trkpt>
<trkpt lat="46.840756" lon="-121.732564"><ele>3140</ele><time>2019-07-29T00:56:00Z</time></trkpt>
<trkpt lat="46.840681" lon="-121.732601"><ele>3142</ele><time>2019-07-29T00:57:00Z</time></trkpt>
<trkpt lat="46.840629" lon="-121.732592"><ele>3140</ele><time>2019-07-29T00:57:00Z</time></trkpt>
<trkpt lat="46.840593" lon="-121.732647"><ele>3138</ele><time>2019-07-29T00:57:00Z</time></trkpt>
<trkpt lat="46.840514" lon="-121.7327"><ele>3138</ele><time>2019-07-29T00:57:00Z</time></trkpt>
<trkpt lat="46.840438" lon="-121.732694"><ele>3141</ele><time>2019-07-29T00:57:00Z</time></trkpt>
<trkpt lat="46.840334" lon="-121.732722"><ele>3136</ele><time>2019-07-29T00:57:00Z</time></trkpt>
<trkpt lat="46.840237" lon="-121.732709"><ele>3136</ele><time>2019-07-29T00:58:00Z</time></trkpt>
<trkpt lat="46.840127" lon="-121.732735"><ele>3132</ele><time>2019-07-29T00:58:00Z</time></trkpt>
<trkpt lat="46.840086" lon="-121.732763"><ele>3129</ele><time>2019-07-29T00:58:00Z</time></trkpt>
<trkpt lat="46.840016" lon="-121.732774"><ele>3126</ele><time>2019-07-29T00:58:00Z</time></trkpt>
<trkpt lat="46.839971" lon="-121.732793"><ele>3123</ele><time>2019-07-29T00:58:00Z</time></trkpt>
<trkpt lat="46.839911" lon="-121.732848"><ele>3115</ele><time>2019-07-29T00:58:00Z</time></trkpt>
<trkpt lat="46.839788" lon="-121.732843"><ele>3119</ele><time>2019-07-29T00:59:00Z</time></trkpt>
<trkpt lat="46.839742" lon="-121.732863"><ele>3118</ele><time>2019-07-29T00:59:00Z</time></trkpt>
<trkpt lat="46.83969" lon="-121.732866"><ele>3121</ele><time>2019-07-29T00:59:00Z</time></trkpt>
<trkpt lat="46.839591" lon="-121.732924"><ele>3120</ele><time>2019-07-29T00:59:00Z</time></trkpt>
<trkpt lat="46.839548" lon="-121.73288"><ele>3112</ele><time>2019-07-29T01:00:00Z</time></trkpt>
<trkpt lat="46.8395" lon="-121.732889"><ele>3107</ele><time>2019-07-29T01:00:00Z</time></trkpt>
<trkpt lat="46.839404" lon="-121.73294"><ele>3103</ele><time>2019-07-29T01:00:00Z</time></trkpt>
<trkpt lat="46.839382" lon="-121.732991"><ele>3105</ele><time>2019-07-29T01:00:00Z</time></trkpt>
<trkpt lat="46.839307" lon="-121.732982"><ele>3104</ele><time>2019-07-29T01:00:00Z</time></trkpt>
<trkpt lat="46.839227" lon="-121.733018"><ele>3103</ele><time>2019-07-29T01:00:00Z</time></trkpt>
<trkpt lat="46.839169" lon="-121.733021"><ele>3106</ele><time>2019-07-29T01:00:00Z</time></trkpt>
<trkpt lat="46.83909" lon="-121.73302"><ele>3108</ele><time>2019-07-29T01:01:00Z</time></trkpt>
<trkpt lat="46.839" lon="-121.73304"><ele>3104</ele><time>2019-07-29T01:01:00Z</time></trkpt>
<trkpt lat="46.838928" lon="-121.733072"><ele>3102</ele><time>2019-07-29T01:01:00Z</time></trkpt>
<trkpt lat="46.838877" lon="-121.733076"><ele>3094</ele><time>2019-07-29T01:01:00Z</time></trkpt>
<trkpt lat="46.838769" lon="-121.733113"><ele>3102</ele><time>2019-07-29T01:02:00Z</time></trkpt>
<trkpt lat="46.838727" lon="-121.733142"><ele>3100</ele><time>2019-07-29T01:02:00Z</time></trkpt>
<trkpt lat="46.838674" lon="-121.733153"><ele>3103</ele><time>2019-07-29T01:02:00Z</time></trkpt>
<trkpt lat="46.838614" lon="-121.733172"><ele>3101</ele><time>2019-07-29T01:02:00Z</time></trkpt>
<trkpt lat="46.838568" lon="-121.733205"><ele>3101</ele><time>2019-07-29T01:02:00Z</time></trkpt>
<trkpt lat="46.838513" lon="-121.733221"><ele>3097</ele><time>2019-07-29T01:02:00Z</time></trkpt>
<trkpt lat="46.838454" lon="-121.733258"><ele>3097</ele><time>2019-07-29T01:02:00Z</time></trkpt>
<trkpt lat="46.838388" lon="-121.733259"><ele>3093</ele><time>2019-07-29T01:02:00Z</time></trkpt>
<trkpt lat="46.838333" lon="-121.733286"><ele>3094</ele><time>2019-07-29T01:03:00Z</time></trkpt>
<trkpt lat="46.838196" lon="-121.733319"><ele>3095</ele><time>2019-07-29T01:03:00Z</time></trkpt>
<trkpt lat="46.838138" lon="-121.733311"><ele>3092</ele><time>2019-07-29T01:03:00Z</time></trkpt>
<trkpt lat="46.837952" lon="-121.733316"><ele>3090</ele><time>2019-07-29T01:03:00Z</time></trkpt>
<trkpt lat="46.837847" lon="-121.73333"><ele>3085</ele><time>2019-07-29T01:04:00Z</time></trkpt>
<trkpt lat="46.837768" lon="-121.733301"><ele>3086</ele><time>2019-07-29T01:04:00Z</time></trkpt>
<trkpt lat="46.8377" lon="-121.733283"><ele>3085</ele><time>2019-07-29T01:04:00Z</time></trkpt>
<trkpt lat="46.837649" lon="-121.733285"><ele>3086</ele><time>2019-07-29T01:04:00Z</time></trkpt>
<trkpt lat="46.837582" lon="-121.733261"><ele>3087</ele><time>2019-07-29T01:04:00Z</time></trkpt>
<trkpt lat="46.837518" lon="-121.733227"><ele>3083</ele><time>2019-07-29T01:04:00Z</time></trkpt>
<trkpt lat="46.837385" lon="-121.733213"><ele>3082</ele><time>2019-07-29T01:04:00Z</time></trkpt>
<trkpt lat="46.837325" lon="-121.733189"><ele>3079</ele><time>2019-07-29T01:05:00Z</time></trkpt>
<trkpt lat="46.837274" lon="-121.733118"><ele>3079</ele><time>2019-07-29T01:05:00Z</time></trkpt>
<trkpt lat="46.837222" lon="-121.733107"><ele>3077</ele><time>2019-07-29T01:05:00Z</time></trkpt>
<trkpt lat="46.837163" lon="-121.733096"><ele>3079</ele><time>2019-07-29T01:05:00Z</time></trkpt>
<trkpt lat="46.837124" lon="-121.733046"><ele>3078</ele><time>2019-07-29T01:05:00Z</time></trkpt>
<trkpt lat="46.837048" lon="-121.733009"><ele>3076</ele><time>2019-07-29T01:05:00Z</time></trkpt>
<trkpt lat="46.836991" lon="-121.732991"><ele>3077</ele><time>2019-07-29T01:05:00Z</time></trkpt>
<trkpt lat="46.836957" lon="-121.732955"><ele>3074</ele><time>2019-07-29T01:05:00Z</time></trkpt>
<trkpt lat="46.83689" lon="-121.732917"><ele>3075</ele><time>2019-07-29T01:06:00Z</time></trkpt>
<trkpt lat="46.836821" lon="-121.732849"><ele>3078</ele><time>2019-07-29T01:06:00Z</time></trkpt>
<trkpt lat="46.836761" lon="-121.732808"><ele>3079</ele><time>2019-07-29T01:06:00Z</time></trkpt>
<trkpt lat="46.836739" lon="-121.732751"><ele>3078</ele><time>2019-07-29T01:06:00Z</time></trkpt>
<trkpt lat="46.836673" lon="-121.732722"><ele>3076</ele><time>2019-07-29T01:06:00Z</time></trkpt>
<trkpt lat="46.836587" lon="-121.732637"><ele>3077</ele><time>2019-07-29T01:06:00Z</time></trkpt>
<trkpt lat="46.836492" lon="-121.732569"><ele>3077</ele><time>2019-07-29T01:07:00Z</time></trkpt>
<trkpt lat="46.83646" lon="-121.732536"><ele>3076</ele><time>2019-07-29T01:07:00Z</time></trkpt>
<trkpt lat="46.836336" lon="-121.732475"><ele>3072</ele><time>2019-07-29T01:07:00Z</time></trkpt>
<trkpt lat="46.836295" lon="-121.732438"><ele>3077</ele><time>2019-07-29T01:07:00Z</time></trkpt>
<trkpt lat="46.836223" lon="-121.732359"><ele>3076</ele><time>2019-07-29T01:07:00Z</time></trkpt>
<trkpt lat="46.8361" lon="-121.732387"><ele>3077</ele><time>2019-07-29T01:08:00Z</time></trkpt>
<trkpt lat="46.835989" lon="-121.732464"><ele>3075</ele><time>2019-07-29T01:08:00Z</time></trkpt>
<trkpt lat="46.835939" lon="-121.732473"><ele>3075</ele><time>2019-07-29T01:08:00Z</time></trkpt>
<trkpt lat="46.835854" lon="-121.732505"><ele>3071</ele><time>2019-07-29T01:08:00Z</time></trkpt>
<trkpt lat="46.835759" lon="-121.732537"><ele>3070</ele><time>2019-07-29T01:09:00Z</time></trkpt>
<trkpt lat="46.835668" lon="-121.732602"><ele>3070</ele><time>2019-07-29T01:09:00Z</time></trkpt>
<trkpt lat="46.835611" lon="-121.732532"><ele>3071</ele><time>2019-07-29T01:09:00Z</time></trkpt>
<trkpt lat="46.835535" lon="-121.732553"><ele>3071</ele><time>2019-07-29T01:09:00Z</time></trkpt>
<trkpt lat="46.835472" lon="-121.732497"><ele>3075</ele><time>2019-07-29T01:10:00Z</time></trkpt>
<trkpt lat="46.83549" lon="-121.732576"><ele>3076</ele><time>2019-07-29T01:15:00Z</time></trkpt>
<trkpt lat="46.835479" lon="-121.732441"><ele>3073</ele><time>2019-07-29T01:15:00Z</time></trkpt>
<trkpt lat="46.835518" lon="-121.732276"><ele>3076</ele><time>2019-07-29T01:16:00Z</time></trkpt>
<trkpt lat="46.835509" lon="-121.732187"><ele>3078</ele><time>2019-07-29T01:16:00Z</time></trkpt>
<trkpt lat="46.83552" lon="-121.732115"><ele>3083</ele><time>2019-07-29T01:19:00Z</time></trkpt>
<trkpt lat="46.835549" lon="-121.732215"><ele>3075</ele><time>2019-07-29T01:22:00Z</time></trkpt>
<trkpt lat="46.835567" lon="-121.732165"><ele>3073</ele><time>2019-07-29T01:32:00Z</time></trkpt>
<trkpt lat="46.835554" lon="-121.73226"><ele>3075</ele><time>2019-07-29T01:32:00Z</time></trkpt>
<trkpt lat="46.835527" lon="-121.732391"><ele>3073</ele><time>2019-07-29T01:33:00Z</time></trkpt>
<trkpt lat="46.835502" lon="-121.732445"><ele>3073</ele><time>2019-07-29T01:33:00Z</time></trkpt>
<trkpt lat="46.835506" lon="-121.732591"><ele>3071</ele><time>2019-07-29T01:33:00Z</time></trkpt>
<trkpt lat="46.835456" lon="-121.732569"><ele>3070</ele><time>2019-07-29T01:58:00Z</time></trkpt>
<trkpt lat="46.835422" lon="-121.732536"><ele>3069</ele><time>2019-07-29T01:58:00Z</time></trkpt>
<trkpt lat="46.835359" lon="-121.732457"><ele>3066</ele><time>2019-07-29T01:59:00Z</time></trkpt>
<trkpt lat="46.835313" lon="-121.732332"><ele>3062</ele><time>2019-07-29T01:59:00Z</time></trkpt>
<trkpt lat="46.835252" lon="-121.732308"><ele>3058</ele><time>2019-07-29T01:59:00Z</time></trkpt>
<trkpt lat="46.83518" lon="-121.732389"><ele>3057</ele><time>2019-07-29T01:59:00Z</time></trkpt>
<trkpt lat="46.835138" lon="-121.732414"><ele>3053</ele><time>2019-07-29T01:59:00Z</time></trkpt>
<trkpt lat="46.835014" lon="-121.732333"><ele>3050</ele><time>2019-07-29T01:59:00Z</time></trkpt>
<trkpt lat="46.834948" lon="-121.732214"><ele>3048</ele><time>2019-07-29T02:00:00Z</time></trkpt>
<trkpt lat="46.834894" lon="-121.732151"><ele>3045</ele><time>2019-07-29T02:00:00Z</time></trkpt>
<trkpt lat="46.834858" lon="-121.732107"><ele>3042</ele><time>2019-07-29T02:01:00Z</time></trkpt>
<trkpt lat="46.834796" lon="-121.732057"><ele>3039</ele><time>2019-07-29T02:01:00Z</time></trkpt>
<trkpt lat="46.834715" lon="-121.732018"><ele>3037</ele><time>2019-07-29T02:01:00Z</time></trkpt>
<trkpt lat="46.834568" lon="-121.731892"><ele>3034</ele><time>2019-07-29T02:01:00Z</time></trkpt>
<trkpt lat="46.834401" lon="-121.731789"><ele>3031</ele><time>2019-07-29T02:01:00Z</time></trkpt>
<trkpt lat="46.834277" lon="-121.731875"><ele>3025</ele><time>2019-07-29T02:02:00Z</time></trkpt>
<trkpt lat="46.83422" lon="-121.731891"><ele>3025</ele><time>2019-07-29T02:02:00Z</time></trkpt>
<trkpt lat="46.834157" lon="-121.731886"><ele>3022</ele><time>2019-07-29T02:02:00Z</time></trkpt>
<trkpt lat="46.834095" lon="-121.731931"><ele>3019</ele><time>2019-07-29T02:02:00Z</time></trkpt>
<trkpt lat="46.834041" lon="-121.731926"><ele>3017</ele><time>2019-07-29T02:02:00Z</time></trkpt>
<trkpt lat="46.833958" lon="-121.731866"><ele>3012</ele><time>2019-07-29T02:02:00Z</time></trkpt>
<trkpt lat="46.83386" lon="-121.731822"><ele>3009</ele><time>2019-07-29T02:03:00Z</time></trkpt>
<trkpt lat="46.833789" lon="-121.731772"><ele>3005</ele><time>2019-07-29T02:03:00Z</time></trkpt>
<trkpt lat="46.833698" lon="-121.731752"><ele>3002</ele><time>2019-07-29T02:03:00Z</time></trkpt>
<trkpt lat="46.833543" lon="-121.731658"><ele>2999</ele><time>2019-07-29T02:03:00Z</time></trkpt>
<trkpt lat="46.833487" lon="-121.731635"><ele>2998</ele><time>2019-07-29T02:03:00Z</time></trkpt>
<trkpt lat="46.833384" lon="-121.731536"><ele>2995</ele><time>2019-07-29T02:03:00Z</time></trkpt>
<trkpt lat="46.83332" lon="-121.731492"><ele>2993</ele><time>2019-07-29T02:04:00Z</time></trkpt>
<trkpt lat="46.833262" lon="-121.731471"><ele>2991</ele><time>2019-07-29T02:04:00Z</time></trkpt>
<trkpt lat="46.833219" lon="-121.731423"><ele>2988</ele><time>2019-07-29T02:04:00Z</time></trkpt>
<trkpt lat="46.833072" lon="-121.73135"><ele>2985</ele><time>2019-07-29T02:04:00Z</time></trkpt>
<trkpt lat="46.832959" lon="-121.731314"><ele>2980</ele><time>2019-07-29T02:04:00Z</time></trkpt>
<trkpt lat="46.832882" lon="-121.731242"><ele>2978</ele><time>2019-07-29T02:04:00Z</time></trkpt>
<trkpt lat="46.832825" lon="-121.7312"><ele>2977</ele><time>2019-07-29T02:04:00Z</time></trkpt>
<trkpt lat="46.832718" lon="-121.731146"><ele>2972</ele><time>2019-07-29T02:05:00Z</time></trkpt>
<trkpt lat="46.832652" lon="-121.731078"><ele>2968</ele><time>2019-07-29T02:05:00Z</time></trkpt>
<trkpt lat="46.832588" lon="-121.731043"><ele>2966</ele><time>2019-07-29T02:05:00Z</time></trkpt>
<trkpt lat="46.832556" lon="-121.731004"><ele>2966</ele><time>2019-07-29T02:05:00Z</time></trkpt>
<trkpt lat="46.832402" lon="-121.730895"><ele>2962</ele><time>2019-07-29T02:05:00Z</time></trkpt>
<trkpt lat="46.832332" lon="-121.730821"><ele>2958</ele><time>2019-07-29T02:05:00Z</time></trkpt>
<trkpt lat="46.832251" lon="-121.730767"><ele>2954</ele><time>2019-07-29T02:05:00Z</time></trkpt>
<trkpt lat="46.832181" lon="-121.730671"><ele>2953</ele><time>2019-07-29T02:06:00Z</time></trkpt>
<trkpt lat="46.832112" lon="-121.73063"><ele>2951</ele><time>2019-07-29T02:06:00Z</time></trkpt>
<trkpt lat="46.832038" lon="-121.730594"><ele>2951</ele><time>2019-07-29T02:06:00Z</time></trkpt>
<trkpt lat="46.831968" lon="-121.730536"><ele>2947</ele><time>2019-07-29T02:06:00Z</time></trkpt>
<trkpt lat="46.831807" lon="-121.730414"><ele>2943</ele><time>2019-07-29T02:06:00Z</time></trkpt>
<trkpt lat="46.83165" lon="-121.730264"><ele>2940</ele><time>2019-07-29T02:07:00Z</time></trkpt>
<trkpt lat="46.831565" lon="-121.730189"><ele>2937</ele><time>2019-07-29T02:07:00Z</time></trkpt>
<trkpt lat="46.831495" lon="-121.730151"><ele>2936</ele><time>2019-07-29T02:07:00Z</time></trkpt>
<trkpt lat="46.831439" lon="-121.730101"><ele>2935</ele><time>2019-07-29T02:07:00Z</time></trkpt>
<trkpt lat="46.831399" lon="-121.730083"><ele>2934</ele><time>2019-07-29T02:07:00Z</time></trkpt>
<trkpt lat="46.831341" lon="-121.73003"><ele>2933</ele><time>2019-07-29T02:07:00Z</time></trkpt>
<trkpt lat="46.831168" lon="-121.729944"><ele>2927</ele><time>2019-07-29T02:07:00Z</time></trkpt>
<trkpt lat="46.831073" lon="-121.729895"><ele>2925</ele><time>2019-07-29T02:08:00Z</time></trkpt>
<trkpt lat="46.831015" lon="-121.72984"><ele>2922</ele><time>2019-07-29T02:08:00Z</time></trkpt>
<trkpt lat="46.830869" lon="-121.729739"><ele>2918</ele><time>2019-07-29T02:08:00Z</time></trkpt>
<trkpt lat="46.830818" lon="-121.729699"><ele>2916</ele><time>2019-07-29T02:08:00Z</time></trkpt>
<trkpt lat="46.830712" lon="-121.729649"><ele>2913</ele><time>2019-07-29T02:08:00Z</time></trkpt>
<trkpt lat="46.830554" lon="-121.729569"><ele>2909</ele><time>2019-07-29T02:09:00Z</time></trkpt>
<trkpt lat="46.830414" lon="-121.729487"><ele>2906</ele><time>2019-07-29T02:09:00Z</time></trkpt>
<trkpt lat="46.830353" lon="-121.729447"><ele>2905</ele><time>2019-07-29T02:09:00Z</time></trkpt>
<trkpt lat="46.830297" lon="-121.729428"><ele>2903</ele><time>2019-07-29T02:09:00Z</time></trkpt>
<trkpt lat="46.830223" lon="-121.729368"><ele>2901</ele><time>2019-07-29T02:09:00Z</time></trkpt>
<trkpt lat="46.830041" lon="-121.729247"><ele>2895</ele><time>2019-07-29T02:10:00Z</time></trkpt>
<trkpt lat="46.829894" lon="-121.72916"><ele>2890</ele><time>2019-07-29T02:10:00Z</time></trkpt>
<trkpt lat="46.82983" lon="-121.729119"><ele>2889</ele><time>2019-07-29T02:10:00Z</time></trkpt>
<trkpt lat="46.829718" lon="-121.729088"><ele>2886</ele><time>2019-07-29T02:10:00Z</time></trkpt>
<trkpt lat="46.829642" lon="-121.729053"><ele>2884</ele><time>2019-07-29T02:10:00Z</time></trkpt>
<trkpt lat="46.829545" lon="-121.729026"><ele>2881</ele><time>2019-07-29T02:11:00Z</time></trkpt>
<trkpt lat="46.829506" lon="-121.729002"><ele>2880</ele><time>2019-07-29T02:11:00Z</time></trkpt>
<trkpt lat="46.829385" lon="-121.728997"><ele>2878</ele><time>2019-07-29T02:11:00Z</time></trkpt>
<trkpt lat="46.82933" lon="-121.728953"><ele>2874</ele><time>2019-07-29T02:11:00Z</time></trkpt>
<trkpt lat="46.829279" lon="-121.728959"><ele>2873</ele><time>2019-07-29T02:11:00Z</time></trkpt>
<trkpt lat="46.829218" lon="-121.728925"><ele>2872</ele><time>2019-07-29T02:11:00Z</time></trkpt>
<trkpt lat="46.829053" lon="-121.728922"><ele>2864</ele><time>2019-07-29T02:12:00Z</time></trkpt>
<trkpt lat="46.828998" lon="-121.728939"><ele>2863</ele><time>2019-07-29T02:12:00Z</time></trkpt>
<trkpt lat="46.828958" lon="-121.728959"><ele>2861</ele><time>2019-07-29T02:13:00Z</time></trkpt>
<trkpt lat="46.828911" lon="-121.728941"><ele>2860</ele><time>2019-07-29T02:13:00Z</time></trkpt>
<trkpt lat="46.828867" lon="-121.728967"><ele>2859</ele><time>2019-07-29T02:13:00Z</time></trkpt>
<trkpt lat="46.828797" lon="-121.72895"><ele>2855</ele><time>2019-07-29T02:13:00Z</time></trkpt>
<trkpt lat="46.828735" lon="-121.728977"><ele>2850</ele><time>2019-07-29T02:13:00Z</time></trkpt>
<trkpt lat="46.828659" lon="-121.728986"><ele>2850</ele><time>2019-07-29T02:13:00Z</time></trkpt>
<trkpt lat="46.828599" lon="-121.728992"><ele>2848</ele><time>2019-07-29T02:14:00Z</time></trkpt>
<trkpt lat="46.82855" lon="-121.728974"><ele>2845</ele><time>2019-07-29T02:14:00Z</time></trkpt>
<trkpt lat="46.828511" lon="-121.728945"><ele>2844</ele><time>2019-07-29T02:14:00Z</time></trkpt>
<trkpt lat="46.8284" lon="-121.728969"><ele>2840</ele><time>2019-07-29T02:14:00Z</time></trkpt>
<trkpt lat="46.828329" lon="-121.728964"><ele>2835</ele><time>2019-07-29T02:14:00Z</time></trkpt>
<trkpt lat="46.828261" lon="-121.72899"><ele>2831</ele><time>2019-07-29T02:14:00Z</time></trkpt>
<trkpt lat="46.828162" lon="-121.728997"><ele>2827</ele><time>2019-07-29T02:15:00Z</time></trkpt>
<trkpt lat="46.828105" lon="-121.72901"><ele>2824</ele><time>2019-07-29T02:15:00Z</time></trkpt>
<trkpt lat="46.828045" lon="-121.728998"><ele>2822</ele><time>2019-07-29T02:15:00Z</time></trkpt>
<trkpt lat="46.827975" lon="-121.729001"><ele>2821</ele><time>2019-07-29T02:15:00Z</time></trkpt>
<trkpt lat="46.827927" lon="-121.728992"><ele>2818</ele><time>2019-07-29T02:15:00Z</time></trkpt>
<trkpt lat="46.827823" lon="-121.729027"><ele>2813</ele><time>2019-07-29T02:15:00Z</time></trkpt>
<trkpt lat="46.827743" lon="-121.729011"><ele>2809</ele><time>2019-07-29T02:16:00Z</time></trkpt>
<trkpt lat="46.827669" lon="-121.729037"><ele>2805</ele><time>2019-07-29T02:16:00Z</time></trkpt>
<trkpt lat="46.827578" lon="-121.728998"><ele>2800</ele><time>2019-07-29T02:16:00Z</time></trkpt>
<trkpt lat="46.827471" lon="-121.728994"><ele>2795</ele><time>2019-07-29T02:16:00Z</time></trkpt>
<trkpt lat="46.827394" lon="-121.729018"><ele>2793</ele><time>2019-07-29T02:17:00Z</time></trkpt>
<trkpt lat="46.827286" lon="-121.729029"><ele>2788</ele><time>2019-07-29T02:17:00Z</time></trkpt>
<trkpt lat="46.827212" lon="-121.729013"><ele>2785</ele><time>2019-07-29T02:17:00Z</time></trkpt>
<trkpt lat="46.827142" lon="-121.729006"><ele>2783</ele><time>2019-07-29T02:17:00Z</time></trkpt>
<trkpt lat="46.827017" lon="-121.729026"><ele>2780</ele><time>2019-07-29T02:17:00Z</time></trkpt>
<trkpt lat="46.826905" lon="-121.729024"><ele>2776</ele><time>2019-07-29T02:18:00Z</time></trkpt>
<trkpt lat="46.826854" lon="-121.729035"><ele>2773</ele><time>2019-07-29T02:18:00Z</time></trkpt>
<trkpt lat="46.826738" lon="-121.729012"><ele>2769</ele><time>2019-07-29T02:18:00Z</time></trkpt>
<trkpt lat="46.82666" lon="-121.729023"><ele>2767</ele><time>2019-07-29T02:18:00Z</time></trkpt>
<trkpt lat="46.826576" lon="-121.729003"><ele>2763</ele><time>2019-07-29T02:18:00Z</time></trkpt>
<trkpt lat="46.826513" lon="-121.72899"><ele>2760</ele><time>2019-07-29T02:18:00Z</time></trkpt>
<trkpt lat="46.826415" lon="-121.728957"><ele>2757</ele><time>2019-07-29T02:18:00Z</time></trkpt>
<trkpt lat="46.826337" lon="-121.72896"><ele>2754</ele><time>2019-07-29T02:19:00Z</time></trkpt>
<trkpt lat="46.826289" lon="-121.728948"><ele>2753</ele><time>2019-07-29T02:19:00Z</time></trkpt>
<trkpt lat="46.826212" lon="-121.728918"><ele>2751</ele><time>2019-07-29T02:19:00Z</time></trkpt>
<trkpt lat="46.826116" lon="-121.728921"><ele>2748</ele><time>2019-07-29T02:19:00Z</time></trkpt>
<trkpt lat="46.826048" lon="-121.728881"><ele>2745</ele><time>2019-07-29T02:19:00Z</time></trkpt>
<trkpt lat="46.825958" lon="-121.728883"><ele>2741</ele><time>2019-07-29T02:19:00Z</time></trkpt>
<trkpt lat="46.82585" lon="-121.728856"><ele>2737</ele><time>2019-07-29T02:20:00Z</time></trkpt>
<trkpt lat="46.825772" lon="-121.728886"><ele>2736</ele><time>2019-07-29T02:20:00Z</time></trkpt>
<trkpt lat="46.82571" lon="-121.728876"><ele>2735</ele><time>2019-07-29T02:20:00Z</time></trkpt>
<trkpt lat="46.825654" lon="-121.728909"><ele>2734</ele><time>2019-07-29T02:20:00Z</time></trkpt>
<trkpt lat="46.825598" lon="-121.728918"><ele>2733</ele><time>2019-07-29T02:20:00Z</time></trkpt>
<trkpt lat="46.825534" lon="-121.72894"><ele>2731</ele><time>2019-07-29T02:20:00Z</time></trkpt>
<trkpt lat="46.825424" lon="-121.728927"><ele>2728</ele><time>2019-07-29T02:20:00Z</time></trkpt>
<trkpt lat="46.825325" lon="-121.728952"><ele>2725</ele><time>2019-07-29T02:20:00Z</time></trkpt>
<trkpt lat="46.82525" lon="-121.72895"><ele>2721</ele><time>2019-07-29T02:21:00Z</time></trkpt>
<trkpt lat="46.825088" lon="-121.728955"><ele>2717</ele><time>2019-07-29T02:21:00Z</time></trkpt>
<trkpt lat="46.825012" lon="-121.728968"><ele>2713</ele><time>2019-07-29T02:21:00Z</time></trkpt>
<trkpt lat="46.82497" lon="-121.728927"><ele>2711</ele><time>2019-07-29T02:21:00Z</time></trkpt>
<trkpt lat="46.824872" lon="-121.728886"><ele>2706</ele><time>2019-07-29T02:21:00Z</time></trkpt>
<trkpt lat="46.824719" lon="-121.728891"><ele>2700</ele><time>2019-07-29T02:22:00Z</time></trkpt>
<trkpt lat="46.824578" lon="-121.728893"><ele>2695</ele><time>2019-07-29T02:22:00Z</time></trkpt>
<trkpt lat="46.824517" lon="-121.72889"><ele>2692</ele><time>2019-07-29T02:22:00Z</time></trkpt>
<trkpt lat="46.824459" lon="-121.728902"><ele>2690</ele><time>2019-07-29T02:22:00Z</time></trkpt>
<trkpt lat="46.82434" lon="-121.728862"><ele>2686</ele><time>2019-07-29T02:23:00Z</time></trkpt>
<trkpt lat="46.824284" lon="-121.72884"><ele>2684</ele><time>2019-07-29T02:23:00Z</time></trkpt>
<trkpt lat="46.824212" lon="-121.728819"><ele>2681</ele><time>2019-07-29T02:23:00Z</time></trkpt>
<trkpt lat="46.824159" lon="-121.728824"><ele>2679</ele><time>2019-07-29T02:23:00Z</time></trkpt>
<trkpt lat="46.824074" lon="-121.728797"><ele>2675</ele><time>2019-07-29T02:23:00Z</time></trkpt>
<trkpt lat="46.823985" lon="-121.728743"><ele>2670</ele><time>2019-07-29T02:24:00Z</time></trkpt>
<trkpt lat="46.823928" lon="-121.728704"><ele>2668</ele><time>2019-07-29T02:24:00Z</time></trkpt>
<trkpt lat="46.823818" lon="-121.728659"><ele>2663</ele><time>2019-07-29T02:24:00Z</time></trkpt>
<trkpt lat="46.823643" lon="-121.728609"><ele>2655</ele><time>2019-07-29T02:24:00Z</time></trkpt>
<trkpt lat="46.823566" lon="-121.728556"><ele>2651</ele><time>2019-07-29T02:24:00Z</time></trkpt>
<trkpt lat="46.823474" lon="-121.728522"><ele>2646</ele><time>2019-07-29T02:25:00Z</time></trkpt>
<trkpt lat="46.823367" lon="-121.728489"><ele>2641</ele><time>2019-07-29T02:25:00Z</time></trkpt>
<trkpt lat="46.823296" lon="-121.728443"><ele>2637</ele><time>2019-07-29T02:25:00Z</time></trkpt>
<trkpt lat="46.82323" lon="-121.728373"><ele>2636</ele><time>2019-07-29T02:25:00Z</time></trkpt>
<trkpt lat="46.823136" lon="-121.728335"><ele>2633</ele><time>2019-07-29T02:25:00Z</time></trkpt>
<trkpt lat="46.823102" lon="-121.728302"><ele>2631</ele><time>2019-07-29T02:25:00Z</time></trkpt>
<trkpt lat="46.822985" lon="-121.728228"><ele>2626</ele><time>2019-07-29T02:26:00Z</time></trkpt>
<trkpt lat="46.822916" lon="-121.728218"><ele>2625</ele><time>2019-07-29T02:26:00Z</time></trkpt>
<trkpt lat="46.822859" lon="-121.728209"><ele>2622</ele><time>2019-07-29T02:26:00Z</time></trkpt>
<trkpt lat="46.822801" lon="-121.728191"><ele>2621</ele><time>2019-07-29T02:26:00Z</time></trkpt>
<trkpt lat="46.822719" lon="-121.72815"><ele>2618</ele><time>2019-07-29T02:26:00Z</time></trkpt>
<trkpt lat="46.822626" lon="-121.728133"><ele>2615</ele><time>2019-07-29T02:26:00Z</time></trkpt>
<trkpt lat="46.822549" lon="-121.728017"><ele>2612</ele><time>2019-07-29T02:27:00Z</time></trkpt>
<trkpt lat="46.822498" lon="-121.727977"><ele>2612</ele><time>2019-07-29T02:27:00Z</time></trkpt>
<trkpt lat="46.822438" lon="-121.727946"><ele>2609</ele><time>2019-07-29T02:27:00Z</time></trkpt>
<trkpt lat="46.822376" lon="-121.727899"><ele>2608</ele><time>2019-07-29T02:27:00Z</time></trkpt>
<trkpt lat="46.822326" lon="-121.727881"><ele>2607</ele><time>2019-07-29T02:27:00Z</time></trkpt>
<trkpt lat="46.82222" lon="-121.727809"><ele>2606</ele><time>2019-07-29T02:27:00Z</time></trkpt>
<trkpt lat="46.82215" lon="-121.727783"><ele>2604</ele><time>2019-07-29T02:27:00Z</time></trkpt>
<trkpt lat="46.82209" lon="-121.727754"><ele>2602</ele><time>2019-07-29T02:27:00Z</time></trkpt>
<trkpt lat="46.822036" lon="-121.727696"><ele>2600</ele><time>2019-07-29T02:28:00Z</time></trkpt>
<trkpt lat="46.821988" lon="-121.727678"><ele>2599</ele><time>2019-07-29T02:28:00Z</time></trkpt>
<trkpt lat="46.821924" lon="-121.727617"><ele>2596</ele><time>2019-07-29T02:28:00Z</time></trkpt>
<trkpt lat="46.821843" lon="-121.727559"><ele>2594</ele><time>2019-07-29T02:28:00Z</time></trkpt>
<trkpt lat="46.821721" lon="-121.727459"><ele>2591</ele><time>2019-07-29T02:28:00Z</time></trkpt>
<trkpt lat="46.821653" lon="-121.727449"><ele>2590</ele><time>2019-07-29T02:28:00Z</time></trkpt>
<trkpt lat="46.82153" lon="-121.727401"><ele>2588</ele><time>2019-07-29T02:29:00Z</time></trkpt>
<trkpt lat="46.821456" lon="-121.727374"><ele>2586</ele><time>2019-07-29T02:29:00Z</time></trkpt>
<trkpt lat="46.821412" lon="-121.727316"><ele>2584</ele><time>2019-07-29T02:29:00Z</time></trkpt>
<trkpt lat="46.821346" lon="-121.727291"><ele>2582</ele><time>2019-07-29T02:29:00Z</time></trkpt>
<trkpt lat="46.821267" lon="-121.72724"><ele>2581</ele><time>2019-07-29T02:29:00Z</time></trkpt>
<trkpt lat="46.82121" lon="-121.727234"><ele>2580</ele><time>2019-07-29T02:29:00Z</time></trkpt>
<trkpt lat="46.821041" lon="-121.727128"><ele>2574</ele><time>2019-07-29T02:29:00Z</time></trkpt>
<trkpt lat="46.820997" lon="-121.727077"><ele>2571</ele><time>2019-07-29T02:30:00Z</time></trkpt>
<trkpt lat="46.820922" lon="-121.727028"><ele>2569</ele><time>2019-07-29T02:30:00Z</time></trkpt>
<trkpt lat="46.820728" lon="-121.726942"><ele>2563</ele><time>2019-07-29T02:30:00Z</time></trkpt>
<trkpt lat="46.820554" lon="-121.726835"><ele>2556</ele><time>2019-07-29T02:30:00Z</time></trkpt>
<trkpt lat="46.820479" lon="-121.726773"><ele>2552</ele><time>2019-07-29T02:31:00Z</time></trkpt>
<trkpt lat="46.820408" lon="-121.726755"><ele>2550</ele><time>2019-07-29T02:31:00Z</time></trkpt>
<trkpt lat="46.820314" lon="-121.726718"><ele>2547</ele><time>2019-07-29T02:31:00Z</time></trkpt>
<trkpt lat="46.820239" lon="-121.726685"><ele>2543</ele><time>2019-07-29T02:31:00Z</time></trkpt>
<trkpt lat="46.820045" lon="-121.726623"><ele>2538</ele><time>2019-07-29T02:31:00Z</time></trkpt>
<trkpt lat="46.819873" lon="-121.72656"><ele>2534</ele><time>2019-07-29T02:32:00Z</time></trkpt>
<trkpt lat="46.819811" lon="-121.726548"><ele>2532</ele><time>2019-07-29T02:32:00Z</time></trkpt>
<trkpt lat="46.819731" lon="-121.726578"><ele>2529</ele><time>2019-07-29T02:32:00Z</time></trkpt>
<trkpt lat="46.81966" lon="-121.726537"><ele>2527</ele><time>2019-07-29T02:32:00Z</time></trkpt>
<trkpt lat="46.819595" lon="-121.72653"><ele>2524</ele><time>2019-07-29T02:32:00Z</time></trkpt>
<trkpt lat="46.819521" lon="-121.726498"><ele>2522</ele><time>2019-07-29T02:32:00Z</time></trkpt>
<trkpt lat="46.819416" lon="-121.726491"><ele>2519</ele><time>2019-07-29T02:32:00Z</time></trkpt>
<trkpt lat="46.819344" lon="-121.726494"><ele>2517</ele><time>2019-07-29T02:33:00Z</time></trkpt>
<trkpt lat="46.81928" lon="-121.726514"><ele>2514</ele><time>2019-07-29T02:33:00Z</time></trkpt>
<trkpt lat="46.819203" lon="-121.726581"><ele>2512</ele><time>2019-07-29T02:33:00Z</time></trkpt>
<trkpt lat="46.819078" lon="-121.726627"><ele>2510</ele><time>2019-07-29T02:33:00Z</time></trkpt>
<trkpt lat="46.819011" lon="-121.72662"><ele>2507</ele><time>2019-07-29T02:33:00Z</time></trkpt>
<trkpt lat="46.818971" lon="-121.726552"><ele>2504</ele><time>2019-07-29T02:33:00Z</time></trkpt>
<trkpt lat="46.81886" lon="-121.726511"><ele>2499</ele><time>2019-07-29T02:33:00Z</time></trkpt>
<trkpt lat="46.818777" lon="-121.72644"><ele>2494</ele><time>2019-07-29T02:34:00Z</time></trkpt>
<trkpt lat="46.818727" lon="-121.726354"><ele>2492</ele><time>2019-07-29T02:34:00Z</time></trkpt>
<trkpt lat="46.818628" lon="-121.726347"><ele>2486</ele><time>2019-07-29T02:34:00Z</time></trkpt>
<trkpt lat="46.818556" lon="-121.726391"><ele>2484</ele><time>2019-07-29T02:35:00Z</time></trkpt>
<trkpt lat="46.818463" lon="-121.726357"><ele>2478</ele><time>2019-07-29T02:35:00Z</time></trkpt>
<trkpt lat="46.81843" lon="-121.726303"><ele>2476</ele><time>2019-07-29T02:35:00Z</time></trkpt>
<trkpt lat="46.818392" lon="-121.726275"><ele>2474</ele><time>2019-07-29T02:35:00Z</time></trkpt>
<trkpt lat="46.818372" lon="-121.726227"><ele>2472</ele><time>2019-07-29T02:35:00Z</time></trkpt>
<trkpt lat="46.818341" lon="-121.726277"><ele>2470</ele><time>2019-07-29T02:35:00Z</time></trkpt>
<trkpt lat="46.818264" lon="-121.726258"><ele>2466</ele><time>2019-07-29T02:35:00Z</time></trkpt>
<trkpt lat="46.818228" lon="-121.726232"><ele>2464</ele><time>2019-07-29T02:35:00Z</time></trkpt>
<trkpt lat="46.818205" lon="-121.726173"><ele>2463</ele><time>2019-07-29T02:36:00Z</time></trkpt>
<trkpt lat="46.818136" lon="-121.726125"><ele>2458</ele><time>2019-07-29T02:36:00Z</time></trkpt>
<trkpt lat="46.818109" lon="-121.726081"><ele>2458</ele><time>2019-07-29T02:36:00Z</time></trkpt>
<trkpt lat="46.81808" lon="-121.726005"><ele>2454</ele><time>2019-07-29T02:36:00Z</time></trkpt>
<trkpt lat="46.818034" lon="-121.726016"><ele>2454</ele><time>2019-07-29T02:36:00Z</time></trkpt>
<trkpt lat="46.817984" lon="-121.726005"><ele>2453</ele><time>2019-07-29T02:36:00Z</time></trkpt>
<trkpt lat="46.817936" lon="-121.726021"><ele>2453</ele><time>2019-07-29T02:36:00Z</time></trkpt>
<trkpt lat="46.817873" lon="-121.725972"><ele>2451</ele><time>2019-07-29T02:36:00Z</time></trkpt>
<trkpt lat="46.817785" lon="-121.72601"><ele>2451</ele><time>2019-07-29T02:37:00Z</time></trkpt>
<trkpt lat="46.817701" lon="-121.726003"><ele>2447</ele><time>2019-07-29T02:37:00Z</time></trkpt>
<trkpt lat="46.817638" lon="-121.72592"><ele>2444</ele><time>2019-07-29T02:37:00Z</time></trkpt>
<trkpt lat="46.817557" lon="-121.725886"><ele>2442</ele><time>2019-07-29T02:37:00Z</time></trkpt>
<trkpt lat="46.817492" lon="-121.72588"><ele>2440</ele><time>2019-07-29T02:37:00Z</time></trkpt>
<trkpt lat="46.817335" lon="-121.725842"><ele>2433</ele><time>2019-07-29T02:38:00Z</time></trkpt>
<trkpt lat="46.817307" lon="-121.725798"><ele>2432</ele><time>2019-07-29T02:38:00Z</time></trkpt>
<trkpt lat="46.81723" lon="-121.725814"><ele>2430</ele><time>2019-07-29T02:38:00Z</time></trkpt>
<trkpt lat="46.817183" lon="-121.725802"><ele>2428</ele><time>2019-07-29T02:38:00Z</time></trkpt>
<trkpt lat="46.817108" lon="-121.725757"><ele>2426</ele><time>2019-07-29T02:39:00Z</time></trkpt>
<trkpt lat="46.817051" lon="-121.725748"><ele>2423</ele><time>2019-07-29T02:39:00Z</time></trkpt>
<trkpt lat="46.817006" lon="-121.725732"><ele>2420</ele><time>2019-07-29T02:39:00Z</time></trkpt>
<trkpt lat="46.816933" lon="-121.725727"><ele>2418</ele><time>2019-07-29T02:39:00Z</time></trkpt>
<trkpt lat="46.816868" lon="-121.72574"><ele>2416</ele><time>2019-07-29T02:39:00Z</time></trkpt>
<trkpt lat="46.816801" lon="-121.725733"><ele>2414</ele><time>2019-07-29T02:39:00Z</time></trkpt>
<trkpt lat="46.816764" lon="-121.725694"><ele>2410</ele><time>2019-07-29T02:39:00Z</time></trkpt>
<trkpt lat="46.81665" lon="-121.725583"><ele>2408</ele><time>2019-07-29T02:39:00Z</time></trkpt>
<trkpt lat="46.81659" lon="-121.725566"><ele>2406</ele><time>2019-07-29T02:39:00Z</time></trkpt>
<trkpt lat="46.816551" lon="-121.725538"><ele>2406</ele><time>2019-07-29T02:40:00Z</time></trkpt>
<trkpt lat="46.81649" lon="-121.72543"><ele>2405</ele><time>2019-07-29T02:40:00Z</time></trkpt>
<trkpt lat="46.816438" lon="-121.725386"><ele>2403</ele><time>2019-07-29T02:40:00Z</time></trkpt>
<trkpt lat="46.816371" lon="-121.725349"><ele>2401</ele><time>2019-07-29T02:40:00Z</time></trkpt>
<trkpt lat="46.816315" lon="-121.725273"><ele>2399</ele><time>2019-07-29T02:40:00Z</time></trkpt>
<trkpt lat="46.816266" lon="-121.725243"><ele>2398</ele><time>2019-07-29T02:40:00Z</time></trkpt>
<trkpt lat="46.816198" lon="-121.725187"><ele>2397</ele><time>2019-07-29T02:40:00Z</time></trkpt>
<trkpt lat="46.816163" lon="-121.725142"><ele>2395</ele><time>2019-07-29T02:40:00Z</time></trkpt>
<trkpt lat="46.81611" lon="-121.725104"><ele>2395</ele><time>2019-07-29T02:40:00Z</time></trkpt>
<trkpt lat="46.81604" lon="-121.725044"><ele>2391</ele><time>2019-07-29T02:40:00Z</time></trkpt>
<trkpt lat="46.815942" lon="-121.725075"><ele>2389</ele><time>2019-07-29T02:41:00Z</time></trkpt>
<trkpt lat="46.815905" lon="-121.725038"><ele>2388</ele><time>2019-07-29T02:41:00Z</time></trkpt>
<trkpt lat="46.81584" lon="-121.725045"><ele>2385</ele><time>2019-07-29T02:41:00Z</time></trkpt>
<trkpt lat="46.815777" lon="-121.72503"><ele>2383</ele><time>2019-07-29T02:41:00Z</time></trkpt>
<trkpt lat="46.815744" lon="-121.725059"><ele>2382</ele><time>2019-07-29T02:41:00Z</time></trkpt>
<trkpt lat="46.815694" lon="-121.725019"><ele>2379</ele><time>2019-07-29T02:41:00Z</time></trkpt>
<trkpt lat="46.815628" lon="-121.725038"><ele>2377</ele><time>2019-07-29T02:41:00Z</time></trkpt>
<trkpt lat="46.815483" lon="-121.72499"><ele>2373</ele><time>2019-07-29T02:42:00Z</time></trkpt>
<trkpt lat="46.815365" lon="-121.725007"><ele>2369</ele><time>2019-07-29T02:42:00Z</time></trkpt>
<trkpt lat="46.815308" lon="-121.725034"><ele>2366</ele><time>2019-07-29T02:42:00Z</time></trkpt>
<trkpt lat="46.815274" lon="-121.725064"><ele>2365</ele><time>2019-07-29T02:42:00Z</time></trkpt>
<trkpt lat="46.815218" lon="-121.724994"><ele>2364</ele><time>2019-07-29T02:42:00Z</time></trkpt>
<trkpt lat="46.815142" lon="-121.725014"><ele>2361</ele><time>2019-07-29T02:42:00Z</time></trkpt>
<trkpt lat="46.815075" lon="-121.725036"><ele>2359</ele><time>2019-07-29T02:43:00Z</time></trkpt>
<trkpt lat="46.815004" lon="-121.725054"><ele>2357</ele><time>2019-07-29T02:43:00Z</time></trkpt>
<trkpt lat="46.814978" lon="-121.724974"><ele>2354</ele><time>2019-07-29T02:43:00Z</time></trkpt>
<trkpt lat="46.814937" lon="-121.724915"><ele>2355</ele><time>2019-07-29T02:43:00Z</time></trkpt>
<trkpt lat="46.814868" lon="-121.724901"><ele>2349</ele><time>2019-07-29T02:43:00Z</time></trkpt>
<trkpt lat="46.814796" lon="-121.724902"><ele>2345</ele><time>2019-07-29T02:43:00Z</time></trkpt>
<trkpt lat="46.814729" lon="-121.724909"><ele>2345</ele><time>2019-07-29T02:43:00Z</time></trkpt>
<trkpt lat="46.814669" lon="-121.724871"><ele>2341</ele><time>2019-07-29T02:44:00Z</time></trkpt>
<trkpt lat="46.814619" lon="-121.724859"><ele>2339</ele><time>2019-07-29T02:44:00Z</time></trkpt>
<trkpt lat="46.814574" lon="-121.724831"><ele>2337</ele><time>2019-07-29T02:44:00Z</time></trkpt>
<trkpt lat="46.814531" lon="-121.72487"><ele>2337</ele><time>2019-07-29T02:44:00Z</time></trkpt>
<trkpt lat="46.814477" lon="-121.724875"><ele>2335</ele><time>2019-07-29T02:44:00Z</time></trkpt>
<trkpt lat="46.814387" lon="-121.724866"><ele>2332</ele><time>2019-07-29T02:44:00Z</time></trkpt>
<trkpt lat="46.814319" lon="-121.724888"><ele>2330</ele><time>2019-07-29T02:44:00Z</time></trkpt>
<trkpt lat="46.814203" lon="-121.72492"><ele>2325</ele><time>2019-07-29T02:45:00Z</time></trkpt>
<trkpt lat="46.814152" lon="-121.724887"><ele>2324</ele><time>2019-07-29T02:45:00Z</time></trkpt>
<trkpt lat="46.814108" lon="-121.724864"><ele>2322</ele><time>2019-07-29T02:45:00Z</time></trkpt>
<trkpt lat="46.814011" lon="-121.724931"><ele>2322</ele><time>2019-07-29T02:45:00Z</time></trkpt>
<trkpt lat="46.813966" lon="-121.724911"><ele>2320</ele><time>2019-07-29T02:45:00Z</time></trkpt>
<trkpt lat="46.813868" lon="-121.724843"><ele>2317</ele><time>2019-07-29T02:45:00Z</time></trkpt>
<trkpt lat="46.813816" lon="-121.724822"><ele>2317</ele><time>2019-07-29T02:45:00Z</time></trkpt>
<trkpt lat="46.813767" lon="-121.724811"><ele>2315</ele><time>2019-07-29T02:46:00Z</time></trkpt>
<trkpt lat="46.813634" lon="-121.724831"><ele>2314</ele><time>2019-07-29T02:46:00Z</time></trkpt>
<trkpt lat="46.813538" lon="-121.72476"><ele>2313</ele><time>2019-07-29T02:46:00Z</time></trkpt>
<trkpt lat="46.81347" lon="-121.724724"><ele>2312</ele><time>2019-07-29T02:46:00Z</time></trkpt>
<trkpt lat="46.813302" lon="-121.724624"><ele>2308</ele><time>2019-07-29T02:46:00Z</time></trkpt>
<trkpt lat="46.813245" lon="-121.724615"><ele>2307</ele><time>2019-07-29T02:47:00Z</time></trkpt>
<trkpt lat="46.813194" lon="-121.724579"><ele>2307</ele><time>2019-07-29T02:47:00Z</time></trkpt>
<trkpt lat="46.813148" lon="-121.724626"><ele>2305</ele><time>2019-07-29T02:47:00Z</time></trkpt>
<trkpt lat="46.813089" lon="-121.724608"><ele>2303</ele><time>2019-07-29T02:47:00Z</time></trkpt>
<trkpt lat="46.813001" lon="-121.724704"><ele>2299</ele><time>2019-07-29T02:47:00Z</time></trkpt>
<trkpt lat="46.812931" lon="-121.724668"><ele>2294</ele><time>2019-07-29T02:47:00Z</time></trkpt>
<trkpt lat="46.812894" lon="-121.72471"><ele>2294</ele><time>2019-07-29T02:47:00Z</time></trkpt>
<trkpt lat="46.812822" lon="-121.724711"><ele>2295</ele><time>2019-07-29T02:47:00Z</time></trkpt>
<trkpt lat="46.812773" lon="-121.724743"><ele>2293</ele><time>2019-07-29T02:48:00Z</time></trkpt>
<trkpt lat="46.812707" lon="-121.72476"><ele>2291</ele><time>2019-07-29T02:48:00Z</time></trkpt>
<trkpt lat="46.812661" lon="-121.724806"><ele>2289</ele><time>2019-07-29T02:48:00Z</time></trkpt>
<trkpt lat="46.812631" lon="-121.724856"><ele>2286</ele><time>2019-07-29T02:48:00Z</time></trkpt>
<trkpt lat="46.812564" lon="-121.724849"><ele>2287</ele><time>2019-07-29T02:48:00Z</time></trkpt>
<trkpt lat="46.812524" lon="-121.72494"><ele>2284</ele><time>2019-07-29T02:48:00Z</time></trkpt>
<trkpt lat="46.812489" lon="-121.725004"><ele>2282</ele><time>2019-07-29T02:48:00Z</time></trkpt>
<trkpt lat="46.812367" lon="-121.725001"><ele>2280</ele><time>2019-07-29T02:49:00Z</time></trkpt>
<trkpt lat="46.812307" lon="-121.725014"><ele>2277</ele><time>2019-07-29T02:49:00Z</time></trkpt>
<trkpt lat="46.812293" lon="-121.725096"><ele>2273</ele><time>2019-07-29T02:49:00Z</time></trkpt>
<trkpt lat="46.812245" lon="-121.725112"><ele>2272</ele><time>2019-07-29T02:49:00Z</time></trkpt>
<trkpt lat="46.812184" lon="-121.725084"><ele>2270</ele><time>2019-07-29T02:49:00Z</time></trkpt>
<trkpt lat="46.812133" lon="-121.725105"><ele>2270</ele><time>2019-07-29T02:49:00Z</time></trkpt>
<trkpt lat="46.812103" lon="-121.725179"><ele>2269</ele><time>2019-07-29T02:49:00Z</time></trkpt>
<trkpt lat="46.811982" lon="-121.725117"><ele>2265</ele><time>2019-07-29T02:50:00Z</time></trkpt>
<trkpt lat="46.811933" lon="-121.725149"><ele>2263</ele><time>2019-07-29T02:50:00Z</time></trkpt>
<trkpt lat="46.811882" lon="-121.72509"><ele>2261</ele><time>2019-07-29T02:50:00Z</time></trkpt>
<trkpt lat="46.811811" lon="-121.725101"><ele>2258</ele><time>2019-07-29T02:50:00Z</time></trkpt>
<trkpt lat="46.811775" lon="-121.725144"><ele>2255</ele><time>2019-07-29T02:50:00Z</time></trkpt>
<trkpt lat="46.81175" lon="-121.725203"><ele>2255</ele><time>2019-07-29T02:50:00Z</time></trkpt>
<trkpt lat="46.811667" lon="-121.725258"><ele>2252</ele><time>2019-07-29T02:50:00Z</time></trkpt>
<trkpt lat="46.811627" lon="-121.725296"><ele>2251</ele><time>2019-07-29T02:50:00Z</time></trkpt>
<trkpt lat="46.811501" lon="-121.725402"><ele>2247</ele><time>2019-07-29T02:51:00Z</time></trkpt>
<trkpt lat="46.811464" lon="-121.725446"><ele>2247</ele><time>2019-07-29T02:51:00Z</time></trkpt>
<trkpt lat="46.811369" lon="-121.725495"><ele>2245</ele><time>2019-07-29T02:51:00Z</time></trkpt>
<trkpt lat="46.811317" lon="-121.725547"><ele>2244</ele><time>2019-07-29T02:51:00Z</time></trkpt>
<trkpt lat="46.811166" lon="-121.7256"><ele>2238</ele><time>2019-07-29T02:51:00Z</time></trkpt>
<trkpt lat="46.811111" lon="-121.725575"><ele>2236</ele><time>2019-07-29T02:52:00Z</time></trkpt>
<trkpt lat="46.81105" lon="-121.725544"><ele>2234</ele><time>2019-07-29T02:52:00Z</time></trkpt>
<trkpt lat="46.811015" lon="-121.725511"><ele>2232</ele><time>2019-07-29T02:52:00Z</time></trkpt>
<trkpt lat="46.81098" lon="-121.725537"><ele>2231</ele><time>2019-07-29T02:52:00Z</time></trkpt>
<trkpt lat="46.810899" lon="-121.725517"><ele>2229</ele><time>2019-07-29T02:53:00Z</time></trkpt>
<trkpt lat="46.810841" lon="-121.725504"><ele>2226</ele><time>2019-07-29T02:53:00Z</time></trkpt>
<trkpt lat="46.810766" lon="-121.725545"><ele>2223</ele><time>2019-07-29T02:53:00Z</time></trkpt>
<trkpt lat="46.810715" lon="-121.725556"><ele>2222</ele><time>2019-07-29T02:53:00Z</time></trkpt>
<trkpt lat="46.810647" lon="-121.725599"><ele>2222</ele><time>2019-07-29T02:53:00Z</time></trkpt>
<trkpt lat="46.810574" lon="-121.725653"><ele>2219</ele><time>2019-07-29T02:53:00Z</time></trkpt>
<trkpt lat="46.810481" lon="-121.725665"><ele>2218</ele><time>2019-07-29T02:53:00Z</time></trkpt>
<trkpt lat="46.810322" lon="-121.725783"><ele>2218</ele><time>2019-07-29T02:54:00Z</time></trkpt>
<trkpt lat="46.810229" lon="-121.725824"><ele>2217</ele><time>2019-07-29T02:54:00Z</time></trkpt>
<trkpt lat="46.810174" lon="-121.725883"><ele>2219</ele><time>2019-07-29T02:55:00Z</time></trkpt>
<trkpt lat="46.810111" lon="-121.725925"><ele>2219</ele><time>2019-07-29T02:55:00Z</time></trkpt>
<trkpt lat="46.810062" lon="-121.725908"><ele>2217</ele><time>2019-07-29T02:56:00Z</time></trkpt>
<trkpt lat="46.810017" lon="-121.725894"><ele>2213</ele><time>2019-07-29T02:56:00Z</time></trkpt>
<trkpt lat="46.809945" lon="-121.725905"><ele>2212</ele><time>2019-07-29T02:57:00Z</time></trkpt>
<trkpt lat="46.8099" lon="-121.725921"><ele>2209</ele><time>2019-07-29T02:57:00Z</time></trkpt>
<trkpt lat="46.809847" lon="-121.725935"><ele>2208</ele><time>2019-07-29T02:57:00Z</time></trkpt>
<trkpt lat="46.809772" lon="-121.725981"><ele>2204</ele><time>2019-07-29T02:58:00Z</time></trkpt>
<trkpt lat="46.809724" lon="-121.725969"><ele>2201</ele><time>2019-07-29T02:58:00Z</time></trkpt>
<trkpt lat="46.809689" lon="-121.725915"><ele>2199</ele><time>2019-07-29T02:58:00Z</time></trkpt>
<trkpt lat="46.809615" lon="-121.725889"><ele>2198</ele><time>2019-07-29T02:58:00Z</time></trkpt>
<trkpt lat="46.809591" lon="-121.725946"><ele>2196</ele><time>2019-07-29T02:58:00Z</time></trkpt>
<trkpt lat="46.80954" lon="-121.725939"><ele>2195</ele><time>2019-07-29T02:58:00Z</time></trkpt>
<trkpt lat="46.80949" lon="-121.725977"><ele>2192</ele><time>2019-07-29T02:59:00Z</time></trkpt>
<trkpt lat="46.809449" lon="-121.725924"><ele>2193</ele><time>2019-07-29T03:02:00Z</time></trkpt>
<trkpt lat="46.809423" lon="-121.725989"><ele>2192</ele><time>2019-07-29T03:15:00Z</time></trkpt>
<trkpt lat="46.809369" lon="-121.726049"><ele>2191</ele><time>2019-07-29T03:15:00Z</time></trkpt>
<trkpt lat="46.809325" lon="-121.726182"><ele>2189</ele><time>2019-07-29T03:15:00Z</time></trkpt>
<trkpt lat="46.809247" lon="-121.726233"><ele>2188</ele><time>2019-07-29T03:15:00Z</time></trkpt>
<trkpt lat="46.809187" lon="-121.726279"><ele>2185</ele><time>2019-07-29T03:16:00Z</time></trkpt>
<trkpt lat="46.809159" lon="-121.726332"><ele>2186</ele><time>2019-07-29T03:16:00Z</time></trkpt>
<trkpt lat="46.809092" lon="-121.726431"><ele>2184</ele><time>2019-07-29T03:16:00Z</time></trkpt>
<trkpt lat="46.809027" lon="-121.726502"><ele>2184</ele><time>2019-07-29T03:16:00Z</time></trkpt>
<trkpt lat="46.808976" lon="-121.726514"><ele>2183</ele><time>2019-07-29T03:16:00Z</time></trkpt>
<trkpt lat="46.809022" lon="-121.726446"><ele>2183</ele><time>2019-07-29T03:17:00Z</time></trkpt>
<trkpt lat="46.809016" lon="-121.726339"><ele>2183</ele><time>2019-07-29T03:17:00Z</time></trkpt>
<trkpt lat="46.808956" lon="-121.726297"><ele>2183</ele><time>2019-07-29T03:18:00Z</time></trkpt>
<trkpt lat="46.808917" lon="-121.726275"><ele>2183</ele><time>2019-07-29T03:18:00Z</time></trkpt>
<trkpt lat="46.808872" lon="-121.726291"><ele>2183</ele><time>2019-07-29T03:18:00Z</time></trkpt>
<trkpt lat="46.808845" lon="-121.726251"><ele>2182</ele><time>2019-07-29T03:18:00Z</time></trkpt>
<trkpt lat="46.808759" lon="-121.726301"><ele>2183</ele><time>2019-07-29T03:18:00Z</time></trkpt>
<trkpt lat="46.808673" lon="-121.726517"><ele>2180</ele><time>2019-07-29T03:18:00Z</time></trkpt>
<trkpt lat="46.808593" lon="-121.726654"><ele>2180</ele><time>2019-07-29T03:19:00Z</time></trkpt>
<trkpt lat="46.808565" lon="-121.726726"><ele>2176</ele><time>2019-07-29T03:19:00Z</time></trkpt>
<trkpt lat="46.808532" lon="-121.726774"><ele>2176</ele><time>2019-07-29T03:19:00Z</time></trkpt>
<trkpt lat="46.808471" lon="-121.726791"><ele>2177</ele><time>2019-07-29T03:19:00Z</time></trkpt>
<trkpt lat="46.808411" lon="-121.726824"><ele>2178</ele><time>2019-07-29T03:19:00Z</time></trkpt>
<trkpt lat="46.808366" lon="-121.726852"><ele>2180</ele><time>2019-07-29T03:19:00Z</time></trkpt>
<trkpt lat="46.808322" lon="-121.726864"><ele>2176</ele><time>2019-07-29T03:19:00Z</time></trkpt>
<trkpt lat="46.808266" lon="-121.72691"><ele>2175</ele><time>2019-07-29T03:19:00Z</time></trkpt>
<trkpt lat="46.808222" lon="-121.726995"><ele>2175</ele><time>2019-07-29T03:19:00Z</time></trkpt>
<trkpt lat="46.808185" lon="-121.72704"><ele>2173</ele><time>2019-07-29T03:20:00Z</time></trkpt>
<trkpt lat="46.808141" lon="-121.727153"><ele>2172</ele><time>2019-07-29T03:20:00Z</time></trkpt>
<trkpt lat="46.808049" lon="-121.727282"><ele>2169</ele><time>2019-07-29T03:20:00Z</time></trkpt>
<trkpt lat="46.808025" lon="-121.727358"><ele>2170</ele><time>2019-07-29T03:20:00Z</time></trkpt>
<trkpt lat="46.807973" lon="-121.727385"><ele>2170</ele><time>2019-07-29T03:20:00Z</time></trkpt>
<trkpt lat="46.807924" lon="-121.727432"><ele>2171</ele><time>2019-07-29T03:20:00Z</time></trkpt>
<trkpt lat="46.807859" lon="-121.727409"><ele>2174</ele><time>2019-07-29T03:20:00Z</time></trkpt>
<trkpt lat="46.807725" lon="-121.727542"><ele>2171</ele><time>2019-07-29T03:21:00Z</time></trkpt>
<trkpt lat="46.807673" lon="-121.727589"><ele>2170</ele><time>2019-07-29T03:21:00Z</time></trkpt>
<trkpt lat="46.807624" lon="-121.727735"><ele>2168</ele><time>2019-07-29T03:21:00Z</time></trkpt>
<trkpt lat="46.807592" lon="-121.727811"><ele>2167</ele><time>2019-07-29T03:21:00Z</time></trkpt>
<trkpt lat="46.807535" lon="-121.72785"><ele>2168</ele><time>2019-07-29T03:21:00Z</time></trkpt>
<trkpt lat="46.807477" lon="-121.727856"><ele>2168</ele><time>2019-07-29T03:21:00Z</time></trkpt>
<trkpt lat="46.807389" lon="-121.727897"><ele>2168</ele><time>2019-07-29T03:22:00Z</time></trkpt>
<trkpt lat="46.807321" lon="-121.727908"><ele>2167</ele><time>2019-07-29T03:22:00Z</time></trkpt>
<trkpt lat="46.807211" lon="-121.727956"><ele>2166</ele><time>2019-07-29T03:22:00Z</time></trkpt>
<trkpt lat="46.807135" lon="-121.727973"><ele>2164</ele><time>2019-07-29T03:22:00Z</time></trkpt>
<trkpt lat="46.807055" lon="-121.728016"><ele>2163</ele><time>2019-07-29T03:22:00Z</time></trkpt>
<trkpt lat="46.806955" lon="-121.72804"><ele>2161</ele><time>2019-07-29T03:22:00Z</time></trkpt>
<trkpt lat="46.806856" lon="-121.727983"><ele>2159</ele><time>2019-07-29T03:23:00Z</time></trkpt>
<trkpt lat="46.806807" lon="-121.727992"><ele>2157</ele><time>2019-07-29T03:23:00Z</time></trkpt>
<trkpt lat="46.806784" lon="-121.728038"><ele>2156</ele><time>2019-07-29T03:23:00Z</time></trkpt>
<trkpt lat="46.806618" lon="-121.72815"><ele>2149</ele><time>2019-07-29T03:23:00Z</time></trkpt>
<trkpt lat="46.80655" lon="-121.728122"><ele>2147</ele><time>2019-07-29T03:24:00Z</time></trkpt>
<trkpt lat="46.806487" lon="-121.728143"><ele>2146</ele><time>2019-07-29T03:24:00Z</time></trkpt>
<trkpt lat="46.806377" lon="-121.728231"><ele>2145</ele><time>2019-07-29T03:24:00Z</time></trkpt>
<trkpt lat="46.806317" lon="-121.728305"><ele>2141</ele><time>2019-07-29T03:24:00Z</time></trkpt>
<trkpt lat="46.806163" lon="-121.728476"><ele>2138</ele><time>2019-07-29T03:25:00Z</time></trkpt>
<trkpt lat="46.80609" lon="-121.728628"><ele>2135</ele><time>2019-07-29T03:25:00Z</time></trkpt>
<trkpt lat="46.806044" lon="-121.728662"><ele>2134</ele><time>2019-07-29T03:25:00Z</time></trkpt>
<trkpt lat="46.805993" lon="-121.728681"><ele>2133</ele><time>2019-07-29T03:25:00Z</time></trkpt>
<trkpt lat="46.805925" lon="-121.728697"><ele>2133</ele><time>2019-07-29T03:25:00Z</time></trkpt>
<trkpt lat="46.805889" lon="-121.728764"><ele>2130</ele><time>2019-07-29T03:25:00Z</time></trkpt>
<trkpt lat="46.805811" lon="-121.72882"><ele>2127</ele><time>2019-07-29T03:26:00Z</time></trkpt>
<trkpt lat="46.805775" lon="-121.728862"><ele>2126</ele><time>2019-07-29T03:26:00Z</time></trkpt>
<trkpt lat="46.805719" lon="-121.72886"><ele>2125</ele><time>2019-07-29T03:26:00Z</time></trkpt>
<trkpt lat="46.805652" lon="-121.728911"><ele>2126</ele><time>2019-07-29T03:26:00Z</time></trkpt>
<trkpt lat="46.80561" lon="-121.728991"><ele>2124</ele><time>2019-07-29T03:26:00Z</time></trkpt>
<trkpt lat="46.805569" lon="-121.72901"><ele>2123</ele><time>2019-07-29T03:26:00Z</time></trkpt>
<trkpt lat="46.805523" lon="-121.729099"><ele>2123</ele><time>2019-07-29T03:26:00Z</time></trkpt>
<trkpt lat="46.805481" lon="-121.729134"><ele>2121</ele><time>2019-07-29T03:26:00Z</time></trkpt>
<trkpt lat="46.805446" lon="-121.729195"><ele>2121</ele><time>2019-07-29T03:27:00Z</time></trkpt>
<trkpt lat="46.805463" lon="-121.729275"><ele>2119</ele><time>2019-07-29T03:27:00Z</time></trkpt>
<trkpt lat="46.805452" lon="-121.729372"><ele>2118</ele><time>2019-07-29T03:27:00Z</time></trkpt>
<trkpt lat="46.805434" lon="-121.729425"><ele>2118</ele><time>2019-07-29T03:27:00Z</time></trkpt>
<trkpt lat="46.805456" lon="-121.729501"><ele>2114</ele><time>2019-07-29T03:27:00Z</time></trkpt>
<trkpt lat="46.805452" lon="-121.729573"><ele>2113</ele><time>2019-07-29T03:27:00Z</time></trkpt>
<trkpt lat="46.805412" lon="-121.729681"><ele>2112</ele><time>2019-07-29T03:27:00Z</time></trkpt>
<trkpt lat="46.805314" lon="-121.729905"><ele>2106</ele><time>2019-07-29T03:28:00Z</time></trkpt>
<trkpt lat="46.805273" lon="-121.729979"><ele>2105</ele><time>2019-07-29T03:28:00Z</time></trkpt>
<trkpt lat="46.805233" lon="-121.730022"><ele>2103</ele><time>2019-07-29T03:28:00Z</time></trkpt>
<trkpt lat="46.805185" lon="-121.730034"><ele>2102</ele><time>2019-07-29T03:28:00Z</time></trkpt>
<trkpt lat="46.805149" lon="-121.730058"><ele>2100</ele><time>2019-07-29T03:28:00Z</time></trkpt>
<trkpt lat="46.805198" lon="-121.730125"><ele>2095</ele><time>2019-07-29T03:28:00Z</time></trkpt>
<trkpt lat="46.805224" lon="-121.730275"><ele>2095</ele><time>2019-07-29T03:29:00Z</time></trkpt>
<trkpt lat="46.805216" lon="-121.730396"><ele>2094</ele><time>2019-07-29T03:29:00Z</time></trkpt>
<trkpt lat="46.805154" lon="-121.730513"><ele>2092</ele><time>2019-07-29T03:29:00Z</time></trkpt>
<trkpt lat="46.80504" lon="-121.730677"><ele>2088</ele><time>2019-07-29T03:30:00Z</time></trkpt>
<trkpt lat="46.805006" lon="-121.730798"><ele>2088</ele><time>2019-07-29T03:30:00Z</time></trkpt>
<trkpt lat="46.804918" lon="-121.730926"><ele>2084</ele><time>2019-07-29T03:30:00Z</time></trkpt>
<trkpt lat="46.80485" lon="-121.730988"><ele>2083</ele><time>2019-07-29T03:31:00Z</time></trkpt>
<trkpt lat="46.804789" lon="-121.730972"><ele>2082</ele><time>2019-07-29T03:31:00Z</time></trkpt>
<trkpt lat="46.804711" lon="-121.73098"><ele>2080</ele><time>2019-07-29T03:31:00Z</time></trkpt>
<trkpt lat="46.804684" lon="-121.731037"><ele>2078</ele><time>2019-07-29T03:31:00Z</time></trkpt>
<trkpt lat="46.804666" lon="-121.731124"><ele>2076</ele><time>2019-07-29T03:31:00Z</time></trkpt>
<trkpt lat="46.804575" lon="-121.731149"><ele>2073</ele><time>2019-07-29T03:31:00Z</time></trkpt>
<trkpt lat="46.804512" lon="-121.731259"><ele>2071</ele><time>2019-07-29T03:32:00Z</time></trkpt>
<trkpt lat="46.804535" lon="-121.731323"><ele>2069</ele><time>2019-07-29T03:32:00Z</time></trkpt>
<trkpt lat="46.804638" lon="-121.731366"><ele>2066</ele><time>2019-07-29T03:32:00Z</time></trkpt>
<trkpt lat="46.804668" lon="-121.731405"><ele>2065</ele><time>2019-07-29T03:32:00Z</time></trkpt>
<trkpt lat="46.804734" lon="-121.731497"><ele>2066</ele><time>2019-07-29T03:32:00Z</time></trkpt>
<trkpt lat="46.804816" lon="-121.731561"><ele>2065</ele><time>2019-07-29T03:32:00Z</time></trkpt>
<trkpt lat="46.804861" lon="-121.731585"><ele>2062</ele><time>2019-07-29T03:32:00Z</time></trkpt>
<trkpt lat="46.804761" lon="-121.731675"><ele>2058</ele><time>2019-07-29T03:33:00Z</time></trkpt>
<trkpt lat="46.804717" lon="-121.731727"><ele>2058</ele><time>2019-07-29T03:33:00Z</time></trkpt>
<trkpt lat="46.804596" lon="-121.731799"><ele>2055</ele><time>2019-07-29T03:33:00Z</time></trkpt>
<trkpt lat="46.804545" lon="-121.731853"><ele>2052</ele><time>2019-07-29T03:33:00Z</time></trkpt>
<trkpt lat="46.804475" lon="-121.731857"><ele>2051</ele><time>2019-07-29T03:33:00Z</time></trkpt>
<trkpt lat="46.804426" lon="-121.731885"><ele>2050</ele><time>2019-07-29T03:33:00Z</time></trkpt>
<trkpt lat="46.804367" lon="-121.731898"><ele>2051</ele><time>2019-07-29T03:34:00Z</time></trkpt>
<trkpt lat="46.804331" lon="-121.731935"><ele>2050</ele><time>2019-07-29T03:34:00Z</time></trkpt>
<trkpt lat="46.804288" lon="-121.731951"><ele>2048</ele><time>2019-07-29T03:34:00Z</time></trkpt>
<trkpt lat="46.80426" lon="-121.731995"><ele>2047</ele><time>2019-07-29T03:34:00Z</time></trkpt>
<trkpt lat="46.804143" lon="-121.732016"><ele>2044</ele><time>2019-07-29T03:34:00Z</time></trkpt>
<trkpt lat="46.804094" lon="-121.732066"><ele>2044</ele><time>2019-07-29T03:34:00Z</time></trkpt>
<trkpt lat="46.804043" lon="-121.732104"><ele>2040</ele><time>2019-07-29T03:35:00Z</time></trkpt>
<trkpt lat="46.804023" lon="-121.732152"><ele>2039</ele><time>2019-07-29T03:35:00Z</time></trkpt>
<trkpt lat="46.803984" lon="-121.732117"><ele>2038</ele><time>2019-07-29T03:35:00Z</time></trkpt>
<trkpt lat="46.803914" lon="-121.732126"><ele>2036</ele><time>2019-07-29T03:35:00Z</time></trkpt>
<trkpt lat="46.803833" lon="-121.732125"><ele>2034</ele><time>2019-07-29T03:35:00Z</time></trkpt>
<trkpt lat="46.803741" lon="-121.732116"><ele>2032</ele><time>2019-07-29T03:35:00Z</time></trkpt>
<trkpt lat="46.803655" lon="-121.732136"><ele>2031</ele><time>2019-07-29T03:35:00Z</time></trkpt>
<trkpt lat="46.803579" lon="-121.732151"><ele>2028</ele><time>2019-07-29T03:36:00Z</time></trkpt>
<trkpt lat="46.803532" lon="-121.732212"><ele>2024</ele><time>2019-07-29T03:36:00Z</time></trkpt>
<trkpt lat="46.803494" lon="-121.732253"><ele>2020</ele><time>2019-07-29T03:36:00Z</time></trkpt>
<trkpt lat="46.803523" lon="-121.732306"><ele>2016</ele><time>2019-07-29T03:40:00Z</time></trkpt>
<trkpt lat="46.803648" lon="-121.73235"><ele>2018</ele><time>2019-07-29T03:41:00Z</time></trkpt>
<trkpt lat="46.803779" lon="-121.732401"><ele>2018</ele><time>2019-07-29T03:41:00Z</time></trkpt>
<trkpt lat="46.80383" lon="-121.732435"><ele>2013</ele><time>2019-07-29T03:41:00Z</time></trkpt>
<trkpt lat="46.80394" lon="-121.732497"><ele>2006</ele><time>2019-07-29T03:41:00Z</time></trkpt>
<trkpt lat="46.80399" lon="-121.732507"><ele>2007</ele><time>2019-07-29T03:41:00Z</time></trkpt>
<trkpt lat="46.804037" lon="-121.732541"><ele>2009</ele><time>2019-07-29T03:41:00Z</time></trkpt>
<trkpt lat="46.804145" lon="-121.732614"><ele>2011</ele><time>2019-07-29T03:42:00Z</time></trkpt>
<trkpt lat="46.804209" lon="-121.732686"><ele>2009</ele><time>2019-07-29T03:42:00Z</time></trkpt>
<trkpt lat="46.804298" lon="-121.732768"><ele>2011</ele><time>2019-07-29T03:42:00Z</time></trkpt>
<trkpt lat="46.804362" lon="-121.732777"><ele>2010</ele><time>2019-07-29T03:42:00Z</time></trkpt>
<trkpt lat="46.804446" lon="-121.732784"><ele>2014</ele><time>2019-07-29T03:42:00Z</time></trkpt>
<trkpt lat="46.8045" lon="-121.732831"><ele>2011</ele><time>2019-07-29T03:42:00Z</time></trkpt>
<trkpt lat="46.804538" lon="-121.732852"><ele>2010</ele><time>2019-07-29T03:42:00Z</time></trkpt>
<trkpt lat="46.804624" lon="-121.732913"><ele>2005</ele><time>2019-07-29T03:43:00Z</time></trkpt>
<trkpt lat="46.804683" lon="-121.732967"><ele>2008</ele><time>2019-07-29T03:43:00Z</time></trkpt>
<trkpt lat="46.804771" lon="-121.732976"><ele>2007</ele><time>2019-07-29T03:43:00Z</time></trkpt>
<trkpt lat="46.804831" lon="-121.733003"><ele>2006</ele><time>2019-07-29T03:43:00Z</time></trkpt>
<trkpt lat="46.804861" lon="-121.733042"><ele>2003</ele><time>2019-07-29T03:43:00Z</time></trkpt>
<trkpt lat="46.804897" lon="-121.733091"><ele>2006</ele><time>2019-07-29T03:43:00Z</time></trkpt>
<trkpt lat="46.804859" lon="-121.733165"><ele>2003</ele><time>2019-07-29T03:43:00Z</time></trkpt>
<trkpt lat="46.804809" lon="-121.733183"><ele>2003</ele><time>2019-07-29T03:44:00Z</time></trkpt>
<trkpt lat="46.804631" lon="-121.733263"><ele>2000</ele><time>2019-07-29T03:44:00Z</time></trkpt>
<trkpt lat="46.804605" lon="-121.733336"><ele>1998</ele><time>2019-07-29T03:44:00Z</time></trkpt>
<trkpt lat="46.804551" lon="-121.733375"><ele>1998</ele><time>2019-07-29T03:44:00Z</time></trkpt>
<trkpt lat="46.804511" lon="-121.73342"><ele>1998</ele><time>2019-07-29T03:44:00Z</time></trkpt>
<trkpt lat="46.804462" lon="-121.733437"><ele>1995</ele><time>2019-07-29T03:44:00Z</time></trkpt>
<trkpt lat="46.804357" lon="-121.733517"><ele>1991</ele><time>2019-07-29T03:44:00Z</time></trkpt>
<trkpt lat="46.804302" lon="-121.733509"><ele>1987</ele><time>2019-07-29T03:45:00Z</time></trkpt>
<trkpt lat="46.804247" lon="-121.733603"><ele>1986</ele><time>2019-07-29T03:45:00Z</time></trkpt>
<trkpt lat="46.804208" lon="-121.73363"><ele>1986</ele><time>2019-07-29T03:45:00Z</time></trkpt>
<trkpt lat="46.804128" lon="-121.733662"><ele>1988</ele><time>2019-07-29T03:45:00Z</time></trkpt>
<trkpt lat="46.804087" lon="-121.733691"><ele>1986</ele><time>2019-07-29T03:45:00Z</time></trkpt>
<trkpt lat="46.804044" lon="-121.733722"><ele>1985</ele><time>2019-07-29T03:45:00Z</time></trkpt>
<trkpt lat="46.803958" lon="-121.733748"><ele>1983</ele><time>2019-07-29T03:45:00Z</time></trkpt>
<trkpt lat="46.803875" lon="-121.733689"><ele>1982</ele><time>2019-07-29T03:45:00Z</time></trkpt>
<trkpt lat="46.803812" lon="-121.733734"><ele>1982</ele><time>2019-07-29T03:46:00Z</time></trkpt>
<trkpt lat="46.803799" lon="-121.733806"><ele>1979</ele><time>2019-07-29T03:46:00Z</time></trkpt>
<trkpt lat="46.803774" lon="-121.733873"><ele>1976</ele><time>2019-07-29T03:46:00Z</time></trkpt>
<trkpt lat="46.803776" lon="-121.733958"><ele>1976</ele><time>2019-07-29T03:46:00Z</time></trkpt>
<trkpt lat="46.803693" lon="-121.734072"><ele>1971</ele><time>2019-07-29T03:46:00Z</time></trkpt>
<trkpt lat="46.803628" lon="-121.734192"><ele>1969</ele><time>2019-07-29T03:46:00Z</time></trkpt>
<trkpt lat="46.803565" lon="-121.734267"><ele>1969</ele><time>2019-07-29T03:46:00Z</time></trkpt>
<trkpt lat="46.803437" lon="-121.734415"><ele>1968</ele><time>2019-07-29T03:47:00Z</time></trkpt>
<trkpt lat="46.803374" lon="-121.734468"><ele>1966</ele><time>2019-07-29T03:47:00Z</time></trkpt>
<trkpt lat="46.803241" lon="-121.734505"><ele>1965</ele><time>2019-07-29T03:47:00Z</time></trkpt>
<trkpt lat="46.803109" lon="-121.73459"><ele>1963</ele><time>2019-07-29T03:47:00Z</time></trkpt>
<trkpt lat="46.803033" lon="-121.734606"><ele>1962</ele><time>2019-07-29T03:47:00Z</time></trkpt>
<trkpt lat="46.802975" lon="-121.734576"><ele>1962</ele><time>2019-07-29T03:47:00Z</time></trkpt>
<trkpt lat="46.802913" lon="-121.734559"><ele>1963</ele><time>2019-07-29T03:47:00Z</time></trkpt>
<trkpt lat="46.802848" lon="-121.734509"><ele>1964</ele><time>2019-07-29T03:48:00Z</time></trkpt>
<trkpt lat="46.802727" lon="-121.73444"><ele>1964</ele><time>2019-07-29T03:48:00Z</time></trkpt>
<trkpt lat="46.802671" lon="-121.734399"><ele>1963</ele><time>2019-07-29T03:48:00Z</time></trkpt>
<trkpt lat="46.802615" lon="-121.734386"><ele>1963</ele><time>2019-07-29T03:48:00Z</time></trkpt>
<trkpt lat="46.802561" lon="-121.734354"><ele>1961</ele><time>2019-07-29T03:48:00Z</time></trkpt>
<trkpt lat="46.802491" lon="-121.734271"><ele>1959</ele><time>2019-07-29T03:48:00Z</time></trkpt>
<trkpt lat="46.802445" lon="-121.734261"><ele>1958</ele><time>2019-07-29T03:48:00Z</time></trkpt>
<trkpt lat="46.802397" lon="-121.734292"><ele>1956</ele><time>2019-07-29T03:48:00Z</time></trkpt>
<trkpt lat="46.802295" lon="-121.734279"><ele>1953</ele><time>2019-07-29T03:49:00Z</time></trkpt>
<trkpt lat="46.802227" lon="-121.734301"><ele>1952</ele><time>2019-07-29T03:49:00Z</time></trkpt>
<trkpt lat="46.802096" lon="-121.734346"><ele>1952</ele><time>2019-07-29T03:49:00Z</time></trkpt>
<trkpt lat="46.802045" lon="-121.734352"><ele>1952</ele><time>2019-07-29T03:49:00Z</time></trkpt>
<trkpt lat="46.80195" lon="-121.734391"><ele>1950</ele><time>2019-07-29T03:49:00Z</time></trkpt>
<trkpt lat="46.80188" lon="-121.734445"><ele>1949</ele><time>2019-07-29T03:49:00Z</time></trkpt>
<trkpt lat="46.801799" lon="-121.734476"><ele>1947</ele><time>2019-07-29T03:49:00Z</time></trkpt>
<trkpt lat="46.801705" lon="-121.734538"><ele>1946</ele><time>2019-07-29T03:50:00Z</time></trkpt>
<trkpt lat="46.801589" lon="-121.734635"><ele>1945</ele><time>2019-07-29T03:50:00Z</time></trkpt>
<trkpt lat="46.801536" lon="-121.734664"><ele>1943</ele><time>2019-07-29T03:50:00Z</time></trkpt>
<trkpt lat="46.801471" lon="-121.73471"><ele>1941</ele><time>2019-07-29T03:50:00Z</time></trkpt>
<trkpt lat="46.801409" lon="-121.734813"><ele>1937</ele><time>2019-07-29T03:50:00Z</time></trkpt>
<trkpt lat="46.801306" lon="-121.734851"><ele>1936</ele><time>2019-07-29T03:50:00Z</time></trkpt>
<trkpt lat="46.801223" lon="-121.734826"><ele>1935</ele><time>2019-07-29T03:51:00Z</time></trkpt>
<trkpt lat="46.801136" lon="-121.734814"><ele>1933</ele><time>2019-07-29T03:51:00Z</time></trkpt>
<trkpt lat="46.801052" lon="-121.734896"><ele>1932</ele><time>2019-07-29T03:51:00Z</time></trkpt>
<trkpt lat="46.800992" lon="-121.734877"><ele>1931</ele><time>2019-07-29T03:51:00Z</time></trkpt>
<trkpt lat="46.800971" lon="-121.734815"><ele>1929</ele><time>2019-07-29T03:51:00Z</time></trkpt>
<trkpt lat="46.800911" lon="-121.734777"><ele>1927</ele><time>2019-07-29T03:51:00Z</time></trkpt>
<trkpt lat="46.80078" lon="-121.734594"><ele>1923</ele><time>2019-07-29T03:52:00Z</time></trkpt>
<trkpt lat="46.800733" lon="-121.734544"><ele>1923</ele><time>2019-07-29T03:52:00Z</time></trkpt>
<trkpt lat="46.800605" lon="-121.734536"><ele>1919</ele><time>2019-07-29T03:52:00Z</time></trkpt>
<trkpt lat="46.800558" lon="-121.734522"><ele>1919</ele><time>2019-07-29T03:52:00Z</time></trkpt>
<trkpt lat="46.800411" lon="-121.734533"><ele>1915</ele><time>2019-07-29T03:53:00Z</time></trkpt>
<trkpt lat="46.800323" lon="-121.73446"><ele>1914</ele><time>2019-07-29T03:53:00Z</time></trkpt>
<trkpt lat="46.800254" lon="-121.73448"><ele>1914</ele><time>2019-07-29T03:53:00Z</time></trkpt>
<trkpt lat="46.800133" lon="-121.734562"><ele>1908</ele><time>2019-07-29T03:53:00Z</time></trkpt>
<trkpt lat="46.800107" lon="-121.73462"><ele>1906</ele><time>2019-07-29T03:53:00Z</time></trkpt>
<trkpt lat="46.800043" lon="-121.734776"><ele>1904</ele><time>2019-07-29T03:54:00Z</time></trkpt>
<trkpt lat="46.799993" lon="-121.734823"><ele>1904</ele><time>2019-07-29T03:54:00Z</time></trkpt>
<trkpt lat="46.799937" lon="-121.73486"><ele>1903</ele><time>2019-07-29T03:54:00Z</time></trkpt>
<trkpt lat="46.799877" lon="-121.734948"><ele>1901</ele><time>2019-07-29T03:54:00Z</time></trkpt>
<trkpt lat="46.799836" lon="-121.734974"><ele>1900</ele><time>2019-07-29T03:54:00Z</time></trkpt>
<trkpt lat="46.799794" lon="-121.735018"><ele>1900</ele><time>2019-07-29T03:54:00Z</time></trkpt>
<trkpt lat="46.799668" lon="-121.734993"><ele>1898</ele><time>2019-07-29T03:54:00Z</time></trkpt>
<trkpt lat="46.799556" lon="-121.735019"><ele>1897</ele><time>2019-07-29T03:55:00Z</time></trkpt>
<trkpt lat="46.799483" lon="-121.734991"><ele>1894</ele><time>2019-07-29T03:55:00Z</time></trkpt>
<trkpt lat="46.799342" lon="-121.73493"><ele>1889</ele><time>2019-07-29T03:55:00Z</time></trkpt>
<trkpt lat="46.799305" lon="-121.734897"><ele>1888</ele><time>2019-07-29T03:55:00Z</time></trkpt>
<trkpt lat="46.799233" lon="-121.734936"><ele>1884</ele><time>2019-07-29T03:55:00Z</time></trkpt>
<trkpt lat="46.799136" lon="-121.734952"><ele>1882</ele><time>2019-07-29T03:56:00Z</time></trkpt>
<trkpt lat="46.799054" lon="-121.734985"><ele>1878</ele><time>2019-07-29T03:56:00Z</time></trkpt>
<trkpt lat="46.799008" lon="-121.734932"><ele>1878</ele><time>2019-07-29T03:56:00Z</time></trkpt>
<trkpt lat="46.798953" lon="-121.734913"><ele>1876</ele><time>2019-07-29T03:56:00Z</time></trkpt>
<trkpt lat="46.798903" lon="-121.734893"><ele>1875</ele><time>2019-07-29T03:57:00Z</time></trkpt>
<trkpt lat="46.798859" lon="-121.734913"><ele>1873</ele><time>2019-07-29T03:57:00Z</time></trkpt>
<trkpt lat="46.798799" lon="-121.734914"><ele>1872</ele><time>2019-07-29T03:57:00Z</time></trkpt>
<trkpt lat="46.798753" lon="-121.734929"><ele>1871</ele><time>2019-07-29T03:57:00Z</time></trkpt>
<trkpt lat="46.7987" lon="-121.734974"><ele>1870</ele><time>2019-07-29T03:57:00Z</time></trkpt>
<trkpt lat="46.798621" lon="-121.734951"><ele>1870</ele><time>2019-07-29T03:57:00Z</time></trkpt>
<trkpt lat="46.798588" lon="-121.73492"><ele>1869</ele><time>2019-07-29T03:57:00Z</time></trkpt>
<trkpt lat="46.798523" lon="-121.734909"><ele>1867</ele><time>2019-07-29T03:58:00Z</time></trkpt>
<trkpt lat="46.798462" lon="-121.734842"><ele>1867</ele><time>2019-07-29T03:58:00Z</time></trkpt>
<trkpt lat="46.798458" lon="-121.734997"><ele>1860</ele><time>2019-07-29T03:58:00Z</time></trkpt>
<trkpt lat="46.798435" lon="-121.735074"><ele>1858</ele><time>2019-07-29T03:58:00Z</time></trkpt>
<trkpt lat="46.798416" lon="-121.735219"><ele>1856</ele><time>2019-07-29T03:59:00Z</time></trkpt>
<trkpt lat="46.79835" lon="-121.735239"><ele>1855</ele><time>2019-07-29T03:59:00Z</time></trkpt>
<trkpt lat="46.79821" lon="-121.73535"><ele>1852</ele><time>2019-07-29T03:59:00Z</time></trkpt>
<trkpt lat="46.798155" lon="-121.735363"><ele>1850</ele><time>2019-07-29T03:59:00Z</time></trkpt>
<trkpt lat="46.798051" lon="-121.735427"><ele>1851</ele><time>2019-07-29T03:59:00Z</time></trkpt>
<trkpt lat="46.798003" lon="-121.735456"><ele>1851</ele><time>2019-07-29T03:59:00Z</time></trkpt>
<trkpt lat="46.797896" lon="-121.735575"><ele>1851</ele><time>2019-07-29T04:00:00Z</time></trkpt>
<trkpt lat="46.797841" lon="-121.735606"><ele>1849</ele><time>2019-07-29T04:00:00Z</time></trkpt>
<trkpt lat="46.797784" lon="-121.735668"><ele>1847</ele><time>2019-07-29T04:00:00Z</time></trkpt>
<trkpt lat="46.797679" lon="-121.735763"><ele>1847</ele><time>2019-07-29T04:00:00Z</time></trkpt>
<trkpt lat="46.797576" lon="-121.735788"><ele>1843</ele><time>2019-07-29T04:00:00Z</time></trkpt>
<trkpt lat="46.797511" lon="-121.735835"><ele>1843</ele><time>2019-07-29T04:00:00Z</time></trkpt>
<trkpt lat="46.797453" lon="-121.735889"><ele>1840</ele><time>2019-07-29T04:01:00Z</time></trkpt>
<trkpt lat="46.797378" lon="-121.735901"><ele>1839</ele><time>2019-07-29T04:01:00Z</time></trkpt>
<trkpt lat="46.797329" lon="-121.735885"><ele>1839</ele><time>2019-07-29T04:01:00Z</time></trkpt>
<trkpt lat="46.79719" lon="-121.735889"><ele>1839</ele><time>2019-07-29T04:01:00Z</time></trkpt>
<trkpt lat="46.797122" lon="-121.735869"><ele>1839</ele><time>2019-07-29T04:01:00Z</time></trkpt>
<trkpt lat="46.797008" lon="-121.735875"><ele>1838</ele><time>2019-07-29T04:01:00Z</time></trkpt>
<trkpt lat="46.796968" lon="-121.735854"><ele>1837</ele><time>2019-07-29T04:02:00Z</time></trkpt>
<trkpt lat="46.796918" lon="-121.735865"><ele>1835</ele><time>2019-07-29T04:02:00Z</time></trkpt>
<trkpt lat="46.796795" lon="-121.735868"><ele>1835</ele><time>2019-07-29T04:02:00Z</time></trkpt>
<trkpt lat="46.796666" lon="-121.735892"><ele>1833</ele><time>2019-07-29T04:02:00Z</time></trkpt>
<trkpt lat="46.796619" lon="-121.735922"><ele>1831</ele><time>2019-07-29T04:02:00Z</time></trkpt>
<trkpt lat="46.796536" lon="-121.735922"><ele>1828</ele><time>2019-07-29T04:02:00Z</time></trkpt>
<trkpt lat="46.796493" lon="-121.735888"><ele>1827</ele><time>2019-07-29T04:02:00Z</time></trkpt>
<trkpt lat="46.796439" lon="-121.735887"><ele>1825</ele><time>2019-07-29T04:02:00Z</time></trkpt>
<trkpt lat="46.79633" lon="-121.735825"><ele>1823</ele><time>2019-07-29T04:03:00Z</time></trkpt>
<trkpt lat="46.796281" lon="-121.735838"><ele>1823</ele><time>2019-07-29T04:03:00Z</time></trkpt>
<trkpt lat="46.796211" lon="-121.735851"><ele>1823</ele><time>2019-07-29T04:03:00Z</time></trkpt>
<trkpt lat="46.79616" lon="-121.7358"><ele>1822</ele><time>2019-07-29T04:03:00Z</time></trkpt>
<trkpt lat="46.796106" lon="-121.735795"><ele>1822</ele><time>2019-07-29T04:03:00Z</time></trkpt>
<trkpt lat="46.796013" lon="-121.735742"><ele>1822</ele><time>2019-07-29T04:03:00Z</time></trkpt>
<trkpt lat="46.795948" lon="-121.735776"><ele>1822</ele><time>2019-07-29T04:03:00Z</time></trkpt>
<trkpt lat="46.795925" lon="-121.735821"><ele>1821</ele><time>2019-07-29T04:03:00Z</time></trkpt>
<trkpt lat="46.795836" lon="-121.735843"><ele>1821</ele><time>2019-07-29T04:04:00Z</time></trkpt>
<trkpt lat="46.795779" lon="-121.735855"><ele>1815</ele><time>2019-07-29T04:04:00Z</time></trkpt>
<trkpt lat="46.795722" lon="-121.735848"><ele>1814</ele><time>2019-07-29T04:04:00Z</time></trkpt>
<trkpt lat="46.795615" lon="-121.735776"><ele>1812</ele><time>2019-07-29T04:04:00Z</time></trkpt>
<trkpt lat="46.795512" lon="-121.735629"><ele>1807</ele><time>2019-07-29T04:05:00Z</time></trkpt>
<trkpt lat="46.795471" lon="-121.735595"><ele>1807</ele><time>2019-07-29T04:05:00Z</time></trkpt>
<trkpt lat="46.795398" lon="-121.735566"><ele>1806</ele><time>2019-07-29T04:05:00Z</time></trkpt>
<trkpt lat="46.795294" lon="-121.73555"><ele>1804</ele><time>2019-07-29T04:05:00Z</time></trkpt>
<trkpt lat="46.795194" lon="-121.73554"><ele>1804</ele><time>2019-07-29T04:05:00Z</time></trkpt>
<trkpt lat="46.795117" lon="-121.735579"><ele>1804</ele><time>2019-07-29T04:05:00Z</time></trkpt>
<trkpt lat="46.795016" lon="-121.73561"><ele>1803</ele><time>2019-07-29T04:06:00Z</time></trkpt>
<trkpt lat="46.794951" lon="-121.735661"><ele>1802</ele><time>2019-07-29T04:06:00Z</time></trkpt>
<trkpt lat="46.794843" lon="-121.735752"><ele>1797</ele><time>2019-07-29T04:06:00Z</time></trkpt>
<trkpt lat="46.794797" lon="-121.735777"><ele>1797</ele><time>2019-07-29T04:06:00Z</time></trkpt>
<trkpt lat="46.794761" lon="-121.735804"><ele>1797</ele><time>2019-07-29T04:06:00Z</time></trkpt>
<trkpt lat="46.794695" lon="-121.735825"><ele>1797</ele><time>2019-07-29T04:06:00Z</time></trkpt>
<trkpt lat="46.794631" lon="-121.73589"><ele>1795</ele><time>2019-07-29T04:06:00Z</time></trkpt>
<trkpt lat="46.794589" lon="-121.735929"><ele>1795</ele><time>2019-07-29T04:06:00Z</time></trkpt>
<trkpt lat="46.794523" lon="-121.735931"><ele>1795</ele><time>2019-07-29T04:07:00Z</time></trkpt>
<trkpt lat="46.794455" lon="-121.735945"><ele>1793</ele><time>2019-07-29T04:07:00Z</time></trkpt>
<trkpt lat="46.794286" lon="-121.736008"><ele>1791</ele><time>2019-07-29T04:07:00Z</time></trkpt>
<trkpt lat="46.794205" lon="-121.736082"><ele>1791</ele><time>2019-07-29T04:07:00Z</time></trkpt>
<trkpt lat="46.794179" lon="-121.736127"><ele>1792</ele><time>2019-07-29T04:07:00Z</time></trkpt>
<trkpt lat="46.794156" lon="-121.736203"><ele>1791</ele><time>2019-07-29T04:07:00Z</time></trkpt>
<trkpt lat="46.794091" lon="-121.736343"><ele>1789</ele><time>2019-07-29T04:07:00Z</time></trkpt>
<trkpt lat="46.794039" lon="-121.736381"><ele>1788</ele><time>2019-07-29T04:07:00Z</time></trkpt>
<trkpt lat="46.793966" lon="-121.736399"><ele>1788</ele><time>2019-07-29T04:08:00Z</time></trkpt>
<trkpt lat="46.793851" lon="-121.736448"><ele>1787</ele><time>2019-07-29T04:08:00Z</time></trkpt>
<trkpt lat="46.793744" lon="-121.736531"><ele>1786</ele><time>2019-07-29T04:08:00Z</time></trkpt>
<trkpt lat="46.793696" lon="-121.73655"><ele>1784</ele><time>2019-07-29T04:08:00Z</time></trkpt>
<trkpt lat="46.793631" lon="-121.736613"><ele>1784</ele><time>2019-07-29T04:08:00Z</time></trkpt>
<trkpt lat="46.793555" lon="-121.736748"><ele>1783</ele><time>2019-07-29T04:08:00Z</time></trkpt>
<trkpt lat="46.793508" lon="-121.736794"><ele>1781</ele><time>2019-07-29T04:08:00Z</time></trkpt>
<trkpt lat="46.79342" lon="-121.73692"><ele>1782</ele><time>2019-07-29T04:09:00Z</time></trkpt>
<trkpt lat="46.793281" lon="-121.737049"><ele>1778</ele><time>2019-07-29T04:09:00Z</time></trkpt>
<trkpt lat="46.793141" lon="-121.737083"><ele>1776</ele><time>2019-07-29T04:09:00Z</time></trkpt>
<trkpt lat="46.793095" lon="-121.737109"><ele>1775</ele><time>2019-07-29T04:09:00Z</time></trkpt>
<trkpt lat="46.792993" lon="-121.737171"><ele>1774</ele><time>2019-07-29T04:09:00Z</time></trkpt>
<trkpt lat="46.792913" lon="-121.737197"><ele>1771</ele><time>2019-07-29T04:09:00Z</time></trkpt>
<trkpt lat="46.792762" lon="-121.737337"><ele>1771</ele><time>2019-07-29T04:10:00Z</time></trkpt>
<trkpt lat="46.792708" lon="-121.737391"><ele>1769</ele><time>2019-07-29T04:10:00Z</time></trkpt>
<trkpt lat="46.792591" lon="-121.737474"><ele>1768</ele><time>2019-07-29T04:10:00Z</time></trkpt>
<trkpt lat="46.792532" lon="-121.737522"><ele>1765</ele><time>2019-07-29T04:10:00Z</time></trkpt>
<trkpt lat="46.792443" lon="-121.737633"><ele>1764</ele><time>2019-07-29T04:10:00Z</time></trkpt>
<trkpt lat="46.792394" lon="-121.737689"><ele>1764</ele><time>2019-07-29T04:10:00Z</time></trkpt>
<trkpt lat="46.792275" lon="-121.737747"><ele>1760</ele><time>2019-07-29T04:10:00Z</time></trkpt>
<trkpt lat="46.792218" lon="-121.737764"><ele>1759</ele><time>2019-07-29T04:11:00Z</time></trkpt>
<trkpt lat="46.79212" lon="-121.737762"><ele>1757</ele><time>2019-07-29T04:11:00Z</time></trkpt>
<trkpt lat="46.792046" lon="-121.737794"><ele>1758</ele><time>2019-07-29T04:11:00Z</time></trkpt>
<trkpt lat="46.791946" lon="-121.737778"><ele>1755</ele><time>2019-07-29T04:11:00Z</time></trkpt>
<trkpt lat="46.791899" lon="-121.737796"><ele>1755</ele><time>2019-07-29T04:11:00Z</time></trkpt>
<trkpt lat="46.791835" lon="-121.737789"><ele>1755</ele><time>2019-07-29T04:11:00Z</time></trkpt>
<trkpt lat="46.791773" lon="-121.737827"><ele>1759</ele><time>2019-07-29T04:11:00Z</time></trkpt>
<trkpt lat="46.791719" lon="-121.737817"><ele>1760</ele><time>2019-07-29T04:11:00Z</time></trkpt>
<trkpt lat="46.791663" lon="-121.737812"><ele>1758</ele><time>2019-07-29T04:11:00Z</time></trkpt>
<trkpt lat="46.791543" lon="-121.737889"><ele>1757</ele><time>2019-07-29T04:12:00Z</time></trkpt>
<trkpt lat="46.791496" lon="-121.73792"><ele>1756</ele><time>2019-07-29T04:12:00Z</time></trkpt>
<trkpt lat="46.791352" lon="-121.737972"><ele>1753</ele><time>2019-07-29T04:12:00Z</time></trkpt>
<trkpt lat="46.791281" lon="-121.737985"><ele>1753</ele><time>2019-07-29T04:12:00Z</time></trkpt>
<trkpt lat="46.791163" lon="-121.737958"><ele>1750</ele><time>2019-07-29T04:12:00Z</time></trkpt>
<trkpt lat="46.791093" lon="-121.737944"><ele>1748</ele><time>2019-07-29T04:12:00Z</time></trkpt>
<trkpt lat="46.791022" lon="-121.737951"><ele>1747</ele><time>2019-07-29T04:12:00Z</time></trkpt>
<trkpt lat="46.790965" lon="-121.737942"><ele>1747</ele><time>2019-07-29T04:12:00Z</time></trkpt>
<trkpt lat="46.790906" lon="-121.737927"><ele>1746</ele><time>2019-07-29T04:13:00Z</time></trkpt>
<trkpt lat="46.790794" lon="-121.737873"><ele>1743</ele><time>2019-07-29T04:13:00Z</time></trkpt>
<trkpt lat="46.790744" lon="-121.737805"><ele>1742</ele><time>2019-07-29T04:13:00Z</time></trkpt>
<trkpt lat="46.79064" lon="-121.737712"><ele>1742</ele><time>2019-07-29T04:13:00Z</time></trkpt>
<trkpt lat="46.790602" lon="-121.73765"><ele>1741</ele><time>2019-07-29T04:13:00Z</time></trkpt>
<trkpt lat="46.790504" lon="-121.737597"><ele>1740</ele><time>2019-07-29T04:13:00Z</time></trkpt>
<trkpt lat="46.7904" lon="-121.737525"><ele>1738</ele><time>2019-07-29T04:13:00Z</time></trkpt>
<trkpt lat="46.790348" lon="-121.737447"><ele>1739</ele><time>2019-07-29T04:14:00Z</time></trkpt>
<trkpt lat="46.790316" lon="-121.737406"><ele>1738</ele><time>2019-07-29T04:14:00Z</time></trkpt>
<trkpt lat="46.790191" lon="-121.73733"><ele>1735</ele><time>2019-07-29T04:14:00Z</time></trkpt>
<trkpt lat="46.790123" lon="-121.737314"><ele>1735</ele><time>2019-07-29T04:14:00Z</time></trkpt>
<trkpt lat="46.790019" lon="-121.737259"><ele>1731</ele><time>2019-07-29T04:14:00Z</time></trkpt>
<trkpt lat="46.789951" lon="-121.737272"><ele>1728</ele><time>2019-07-29T04:14:00Z</time></trkpt>
<trkpt lat="46.789863" lon="-121.737343"><ele>1726</ele><time>2019-07-29T04:14:00Z</time></trkpt>
<trkpt lat="46.789778" lon="-121.737394"><ele>1723</ele><time>2019-07-29T04:14:00Z</time></trkpt>
<trkpt lat="46.789711" lon="-121.737482"><ele>1725</ele><time>2019-07-29T04:14:00Z</time></trkpt>
<trkpt lat="46.789639" lon="-121.737549"><ele>1723</ele><time>2019-07-29T04:15:00Z</time></trkpt>
<trkpt lat="46.789554" lon="-121.737591"><ele>1720</ele><time>2019-07-29T04:15:00Z</time></trkpt>
<trkpt lat="46.789463" lon="-121.737608"><ele>1717</ele><time>2019-07-29T04:15:00Z</time></trkpt>
<trkpt lat="46.789407" lon="-121.737613"><ele>1714</ele><time>2019-07-29T04:15:00Z</time></trkpt>
<trkpt lat="46.789353" lon="-121.737602"><ele>1710</ele><time>2019-07-29T04:15:00Z</time></trkpt>
<trkpt lat="46.789306" lon="-121.737584"><ele>1710</ele><time>2019-07-29T04:15:00Z</time></trkpt>
<trkpt lat="46.789263" lon="-121.737546"><ele>1708</ele><time>2019-07-29T04:15:00Z</time></trkpt>
<trkpt lat="46.789216" lon="-121.737466"><ele>1706</ele><time>2019-07-29T04:15:00Z</time></trkpt>
<trkpt lat="46.789109" lon="-121.73741"><ele>1706</ele><time>2019-07-29T04:16:00Z</time></trkpt>
<trkpt lat="46.789043" lon="-121.737335"><ele>1707</ele><time>2019-07-29T04:16:00Z</time></trkpt>
<trkpt lat="46.789018" lon="-121.737288"><ele>1705</ele><time>2019-07-29T04:16:00Z</time></trkpt>
<trkpt lat="46.788992" lon="-121.737122"><ele>1703</ele><time>2019-07-29T04:16:00Z</time></trkpt>
<trkpt lat="46.788967" lon="-121.737078"><ele>1704</ele><time>2019-07-29T04:16:00Z</time></trkpt>
<trkpt lat="46.78888" lon="-121.736977"><ele>1703</ele><time>2019-07-29T04:16:00Z</time></trkpt>
<trkpt lat="46.788806" lon="-121.736941"><ele>1701</ele><time>2019-07-29T04:16:00Z</time></trkpt>
<trkpt lat="46.788719" lon="-121.736852"><ele>1700</ele><time>2019-07-29T04:16:00Z</time></trkpt>
<trkpt lat="46.78868" lon="-121.736766"><ele>1697</ele><time>2019-07-29T04:16:00Z</time></trkpt>
<trkpt lat="46.788563" lon="-121.736557"><ele>1695</ele><time>2019-07-29T04:17:00Z</time></trkpt>
<trkpt lat="46.788464" lon="-121.736342"><ele>1691</ele><time>2019-07-29T04:17:00Z</time></trkpt>
<trkpt lat="46.788419" lon="-121.736233"><ele>1691</ele><time>2019-07-29T04:17:00Z</time></trkpt>
<trkpt lat="46.788343" lon="-121.736155"><ele>1688</ele><time>2019-07-29T04:17:00Z</time></trkpt>
<trkpt lat="46.788256" lon="-121.736067"><ele>1687</ele><time>2019-07-29T04:17:00Z</time></trkpt>
<trkpt lat="46.788176" lon="-121.736091"><ele>1684</ele><time>2019-07-29T04:18:00Z</time></trkpt>
<trkpt lat="46.788074" lon="-121.736098"><ele>1681</ele><time>2019-07-29T04:18:00Z</time></trkpt>
<trkpt lat="46.788005" lon="-121.736125"><ele>1678</ele><time>2019-07-29T04:18:00Z</time></trkpt>
<trkpt lat="46.787939" lon="-121.736135"><ele>1679</ele><time>2019-07-29T04:18:00Z</time></trkpt>
<trkpt lat="46.787897" lon="-121.736111"><ele>1677</ele><time>2019-07-29T04:18:00Z</time></trkpt>
<trkpt lat="46.787821" lon="-121.736142"><ele>1675</ele><time>2019-07-29T04:18:00Z</time></trkpt>
<trkpt lat="46.787724" lon="-121.736175"><ele>1674</ele><time>2019-07-29T04:18:00Z</time></trkpt>
<trkpt lat="46.787646" lon="-121.736178"><ele>1674</ele><time>2019-07-29T04:18:00Z</time></trkpt>
<trkpt lat="46.787515" lon="-121.736206"><ele>1671</ele><time>2019-07-29T04:19:00Z</time></trkpt>
<trkpt lat="46.787454" lon="-121.736206"><ele>1669</ele><time>2019-07-29T04:19:00Z</time></trkpt>
<trkpt lat="46.787274" lon="-121.73623"><ele>1663</ele><time>2019-07-29T04:19:00Z</time></trkpt>
<trkpt lat="46.787194" lon="-121.736241"><ele>1663</ele><time>2019-07-29T04:19:00Z</time></trkpt>
<trkpt lat="46.787096" lon="-121.7363"><ele>1660</ele><time>2019-07-29T04:19:00Z</time></trkpt>
<trkpt lat="46.78691" lon="-121.736342"><ele>1657</ele><time>2019-07-29T04:19:00Z</time></trkpt>
<trkpt lat="46.78673" lon="-121.736435"><ele>1657</ele><time>2019-07-29T04:20:00Z</time></trkpt>
<trkpt lat="46.786556" lon="-121.736475"><ele>1652</ele><time>2019-07-29T04:20:00Z</time></trkpt>
<trkpt lat="46.786504" lon="-121.736488"><ele>1652</ele><time>2019-07-29T04:20:00Z</time></trkpt>
<trkpt lat="46.786394" lon="-121.736418"><ele>1651</ele><time>2019-07-29T04:20:00Z</time></trkpt>
<trkpt lat="46.786355" lon="-121.736369"><ele>1650</ele><time>2019-07-29T04:20:00Z</time></trkpt>
<trkpt lat="46.786308" lon="-121.736471"><ele>1649</ele><time>2019-07-29T04:21:00Z</time></trkpt>
<trkpt lat="46.786191" lon="-121.736599"><ele>1649</ele><time>2019-07-29T04:21:00Z</time></trkpt>
<trkpt lat="46.786095" lon="-121.736571"><ele>1650</ele><time>2019-07-29T04:21:00Z</time></trkpt>
<trkpt lat="46.786057" lon="-121.736455"><ele>1649</ele><time>2019-07-29T04:21:00Z</time></trkpt>
<trkpt lat="46.785998" lon="-121.736356"><ele>1652</ele><time>2019-07-29T04:21:00Z</time></trkpt>
<trkpt lat="46.785969" lon="-121.736241"><ele>1655</ele><time>2019-07-29T04:21:00Z</time></trkpt>
<trkpt lat="46.785941" lon="-121.736185"><ele>1657</ele><time>2019-07-29T04:21:00Z</time></trkpt>
<trkpt lat="46.785886" lon="-121.736141"><ele>1657</ele><time>2019-07-29T04:22:00Z</time></trkpt>
<trkpt lat="46.785914" lon="-121.736075"><ele>1658</ele><time>2019-07-29T04:22:00Z</time></trkpt>
<trkpt lat="46.78595" lon="-121.736026"><ele>1646</ele><time>2019-07-29T04:28:00Z</time></trkpt>
</trkseg>
</trk>
</gpx>